<?xml version="1.0" encoding="UTF-8"?>
<gpx version="1.1" creator="Endomondo.com" xsi:schemaLocation="http://www.topografix.com/GPX/1/1 http://www.topografix.com/GPX/1/1/gpx.xsd http://www.garmin.com/xmlschemas/GpxExtensions/v3 http://www.garmin.com/xmlschemas/GpxExtensionsv3.xsd http://www.garmin.com/xmlschemas/TrackPointExtension/v1 http://www.garmin.com/xmlschemas/TrackPointExtensionv1.xsd" xmlns="http://www.topografix.com/GPX/1/1" xmlns:gpxtpx="http://www.garmin.com/xmlschemas/TrackPointExtension/v1" xmlns:gpxx="http://www.garmin.com/xmlschemas/GpxExtensions/v3" xmlns:xsi="http://www.w3.org/2001/XMLSchema-instance">
  <metadata>
    <author>
      <name>Дмитрий Куклин</name>
      <email id="sammer_d" domain="mail.ru"/>
    </author>
    <link href="http://www.endomondo.com">
      <text>Endomondo</text>
    </link>
    <time>2017-11-11T14:24:23Z</time>
  </metadata>
  <trk>
    <src>http://www.endomondo.com/</src>
    <link href="https://www.endomondo.com/users/12616746/workouts/1030686789">
      <text>endomondo</text>
    </link>
    <type>MOUNTAIN_BIKING</type>
    <trkseg>
      <trkpt lat="51.717065" lon="39.18904">
        <time>2017-11-11T07:35:57Z</time>
      </trkpt>
      <trkpt lat="51.717065" lon="39.18904">
        <ele>163.912</ele>
        <time>2017-11-11T07:36:00Z</time>
      </trkpt>
      <trkpt lat="51.717066" lon="39.189489">
        <ele>156.84</ele>
        <time>2017-11-11T07:37:12Z</time>
      </trkpt>
      <trkpt lat="51.717095" lon="39.189674">
        <ele>156.893</ele>
        <time>2017-11-11T07:37:17Z</time>
      </trkpt>
      <trkpt lat="51.717095" lon="39.189674">
        <ele>156.893</ele>
        <time>2017-11-11T07:37:22Z</time>
      </trkpt>
      <trkpt lat="51.717095" lon="39.189674">
        <time>2017-11-11T07:37:22Z</time>
      </trkpt>
    </trkseg>
    <trkseg>
      <trkpt lat="51.717095" lon="39.189674">
        <time>2017-11-11T07:38:03Z</time>
      </trkpt>
      <trkpt lat="51.71718" lon="39.189984">
        <ele>159.698</ele>
        <time>2017-11-11T07:38:03Z</time>
      </trkpt>
      <trkpt lat="51.717209" lon="39.190467">
        <ele>169.147</ele>
        <time>2017-11-11T07:38:10Z</time>
      </trkpt>
      <trkpt lat="51.717202" lon="39.190708">
        <ele>172.34</ele>
        <time>2017-11-11T07:38:13Z</time>
      </trkpt>
      <trkpt lat="51.717206" lon="39.191109">
        <ele>173.063</ele>
        <time>2017-11-11T07:38:19Z</time>
      </trkpt>
      <trkpt lat="51.71704" lon="39.19147">
        <ele>173.322</ele>
        <time>2017-11-11T07:38:29Z</time>
      </trkpt>
      <trkpt lat="51.71704" lon="39.19147">
        <ele>173.322</ele>
        <time>2017-11-11T07:38:34Z</time>
      </trkpt>
      <trkpt lat="51.71704" lon="39.19147">
        <time>2017-11-11T07:38:34Z</time>
      </trkpt>
    </trkseg>
    <trkseg>
      <trkpt lat="51.71704" lon="39.19147">
        <time>2017-11-11T07:38:42Z</time>
      </trkpt>
      <trkpt lat="51.717177" lon="39.191527">
        <ele>172.895</ele>
        <time>2017-11-11T07:38:42Z</time>
      </trkpt>
      <trkpt lat="51.717315" lon="39.191459">
        <ele>172.554</ele>
        <time>2017-11-11T07:38:49Z</time>
      </trkpt>
      <trkpt lat="51.717538" lon="39.191272">
        <ele>172.277</ele>
        <time>2017-11-11T07:38:59Z</time>
      </trkpt>
      <trkpt lat="51.71772" lon="39.191096">
        <ele>171.373</ele>
        <time>2017-11-11T07:39:10Z</time>
      </trkpt>
      <trkpt lat="51.717911" lon="39.190985">
        <ele>170.813</ele>
        <time>2017-11-11T07:39:22Z</time>
      </trkpt>
      <trkpt lat="51.718231" lon="39.190792">
        <ele>171.311</ele>
        <time>2017-11-11T07:39:33Z</time>
      </trkpt>
      <trkpt lat="51.718394" lon="39.190795">
        <ele>171.583</ele>
        <time>2017-11-11T07:39:38Z</time>
      </trkpt>
      <trkpt lat="51.718546" lon="39.190726">
        <ele>171.839</ele>
        <time>2017-11-11T07:39:43Z</time>
      </trkpt>
      <trkpt lat="51.718795" lon="39.19062">
        <ele>172.128</ele>
        <time>2017-11-11T07:39:49Z</time>
      </trkpt>
      <trkpt lat="51.719051" lon="39.190549">
        <ele>174.039</ele>
        <time>2017-11-11T07:39:54Z</time>
      </trkpt>
      <trkpt lat="51.7192" lon="39.190514">
        <ele>174.447</ele>
        <time>2017-11-11T07:39:57Z</time>
      </trkpt>
      <trkpt lat="51.719442" lon="39.190447">
        <ele>176.771</ele>
        <time>2017-11-11T07:40:02Z</time>
      </trkpt>
      <trkpt lat="51.719714" lon="39.190387">
        <ele>176.794</ele>
        <time>2017-11-11T07:40:08Z</time>
      </trkpt>
      <trkpt lat="51.719869" lon="39.19071">
        <ele>174.814</ele>
        <time>2017-11-11T07:40:14Z</time>
      </trkpt>
      <trkpt lat="51.719981" lon="39.191191">
        <ele>170.329</ele>
        <time>2017-11-11T07:40:20Z</time>
      </trkpt>
      <trkpt lat="51.720157" lon="39.191337">
        <ele>170.493</ele>
        <time>2017-11-11T07:40:26Z</time>
      </trkpt>
      <trkpt lat="51.720377" lon="39.191735">
        <ele>172.013</ele>
        <time>2017-11-11T07:40:32Z</time>
      </trkpt>
      <trkpt lat="51.720518" lon="39.192299">
        <ele>177.145</ele>
        <time>2017-11-11T07:40:38Z</time>
      </trkpt>
      <trkpt lat="51.720677" lon="39.192793">
        <ele>178.336</ele>
        <time>2017-11-11T07:40:44Z</time>
      </trkpt>
      <trkpt lat="51.720808" lon="39.193107">
        <ele>179.998</ele>
        <time>2017-11-11T07:40:48Z</time>
      </trkpt>
      <trkpt lat="51.720924" lon="39.193207">
        <ele>180.447</ele>
        <time>2017-11-11T07:40:51Z</time>
      </trkpt>
      <trkpt lat="51.721059" lon="39.193322">
        <ele>181.035</ele>
        <time>2017-11-11T07:40:54Z</time>
      </trkpt>
      <trkpt lat="51.721184" lon="39.193478">
        <ele>182.253</ele>
        <time>2017-11-11T07:40:57Z</time>
      </trkpt>
      <trkpt lat="51.721384" lon="39.193865">
        <ele>184.914</ele>
        <time>2017-11-11T07:41:03Z</time>
      </trkpt>
      <trkpt lat="51.721471" lon="39.194315">
        <ele>191.099</ele>
        <time>2017-11-11T07:41:08Z</time>
      </trkpt>
      <trkpt lat="51.721536" lon="39.194578">
        <ele>192.231</ele>
        <time>2017-11-11T07:41:11Z</time>
      </trkpt>
      <trkpt lat="51.72156" lon="39.19477">
        <ele>192.48</ele>
        <time>2017-11-11T07:41:14Z</time>
      </trkpt>
      <trkpt lat="51.721676" lon="39.195127">
        <ele>197.928</ele>
        <time>2017-11-11T07:41:19Z</time>
      </trkpt>
      <trkpt lat="51.721766" lon="39.19557">
        <ele>204.165</ele>
        <time>2017-11-11T07:41:24Z</time>
      </trkpt>
      <trkpt lat="51.721722" lon="39.196205">
        <ele>214.324</ele>
        <time>2017-11-11T07:41:30Z</time>
      </trkpt>
      <trkpt lat="51.721771" lon="39.196756">
        <ele>220.844</ele>
        <time>2017-11-11T07:41:35Z</time>
      </trkpt>
      <trkpt lat="51.721767" lon="39.197101">
        <ele>221.158</ele>
        <time>2017-11-11T07:41:40Z</time>
      </trkpt>
      <trkpt lat="51.721761" lon="39.19761">
        <ele>222.045</ele>
        <time>2017-11-11T07:41:46Z</time>
      </trkpt>
      <trkpt lat="51.721763" lon="39.198054">
        <ele>218.903</ele>
        <time>2017-11-11T07:41:51Z</time>
      </trkpt>
      <trkpt lat="51.721771" lon="39.198316">
        <ele>218.86</ele>
        <time>2017-11-11T07:41:54Z</time>
      </trkpt>
      <trkpt lat="51.72185" lon="39.198711">
        <ele>214.647</ele>
        <time>2017-11-11T07:41:59Z</time>
      </trkpt>
      <trkpt lat="51.721886" lon="39.198934">
        <ele>213.547</ele>
        <time>2017-11-11T07:42:02Z</time>
      </trkpt>
      <trkpt lat="51.721927" lon="39.199413">
        <ele>214.278</ele>
        <time>2017-11-11T07:42:08Z</time>
      </trkpt>
      <trkpt lat="51.721982" lon="39.199929">
        <ele>222.007</ele>
        <time>2017-11-11T07:42:14Z</time>
      </trkpt>
      <trkpt lat="51.722018" lon="39.200627">
        <ele>223.236</ele>
        <time>2017-11-11T07:42:20Z</time>
      </trkpt>
      <trkpt lat="51.722046" lon="39.201286">
        <ele>220.803</ele>
        <time>2017-11-11T07:42:26Z</time>
      </trkpt>
      <trkpt lat="51.722044" lon="39.201721">
        <ele>218.11</ele>
        <time>2017-11-11T07:42:31Z</time>
      </trkpt>
      <trkpt lat="51.722034" lon="39.202202">
        <ele>218.006</ele>
        <time>2017-11-11T07:42:37Z</time>
      </trkpt>
      <trkpt lat="51.722009" lon="39.202439">
        <ele>217.663</ele>
        <time>2017-11-11T07:42:40Z</time>
      </trkpt>
      <trkpt lat="51.721964" lon="39.202817">
        <ele>214.746</ele>
        <time>2017-11-11T07:42:45Z</time>
      </trkpt>
      <trkpt lat="51.721971" lon="39.203298">
        <ele>209.572</ele>
        <time>2017-11-11T07:42:51Z</time>
      </trkpt>
      <trkpt lat="51.722096" lon="39.203586">
        <ele>201.314</ele>
        <time>2017-11-11T07:42:56Z</time>
      </trkpt>
      <trkpt lat="51.722238" lon="39.203787">
        <ele>195.052</ele>
        <time>2017-11-11T07:43:02Z</time>
      </trkpt>
      <trkpt lat="51.722501" lon="39.204125">
        <ele>184.154</ele>
        <time>2017-11-11T07:43:08Z</time>
      </trkpt>
      <trkpt lat="51.722713" lon="39.204376">
        <ele>181.181</ele>
        <time>2017-11-11T07:43:14Z</time>
      </trkpt>
      <trkpt lat="51.722862" lon="39.204521">
        <ele>181.087</ele>
        <time>2017-11-11T07:43:18Z</time>
      </trkpt>
      <trkpt lat="51.723" lon="39.204719">
        <ele>181.958</ele>
        <time>2017-11-11T07:43:23Z</time>
      </trkpt>
      <trkpt lat="51.723165" lon="39.204968">
        <ele>183.467</ele>
        <time>2017-11-11T07:43:29Z</time>
      </trkpt>
      <trkpt lat="51.723331" lon="39.205182">
        <ele>183.937</ele>
        <time>2017-11-11T07:43:35Z</time>
      </trkpt>
      <trkpt lat="51.723489" lon="39.20559">
        <ele>175.527</ele>
        <time>2017-11-11T07:43:41Z</time>
      </trkpt>
      <trkpt lat="51.7235" lon="39.206015">
        <ele>161.989</ele>
        <time>2017-11-11T07:43:46Z</time>
      </trkpt>
      <trkpt lat="51.723457" lon="39.206496">
        <ele>146.941</ele>
        <time>2017-11-11T07:43:50Z</time>
      </trkpt>
      <trkpt lat="51.723439" lon="39.207173">
        <ele>123.883</ele>
        <time>2017-11-11T07:43:56Z</time>
      </trkpt>
      <trkpt lat="51.723426" lon="39.207825">
        <ele>115.083</ele>
        <time>2017-11-11T07:44:02Z</time>
      </trkpt>
      <trkpt lat="51.723409" lon="39.20811">
        <ele>110.381</ele>
        <time>2017-11-11T07:44:05Z</time>
      </trkpt>
      <trkpt lat="51.723376" lon="39.208402">
        <ele>109.366</ele>
        <time>2017-11-11T07:44:08Z</time>
      </trkpt>
      <trkpt lat="51.723333" lon="39.208875">
        <ele>106.655</ele>
        <time>2017-11-11T07:44:12Z</time>
      </trkpt>
      <trkpt lat="51.7233" lon="39.209206">
        <ele>101.662</ele>
        <time>2017-11-11T07:44:16Z</time>
      </trkpt>
      <trkpt lat="51.723282" lon="39.209682">
        <ele>101.839</ele>
        <time>2017-11-11T07:44:21Z</time>
      </trkpt>
      <trkpt lat="51.723255" lon="39.210286">
        <ele>103.079</ele>
        <time>2017-11-11T07:44:27Z</time>
      </trkpt>
      <trkpt lat="51.723278" lon="39.210814">
        <ele>103.537</ele>
        <time>2017-11-11T07:44:32Z</time>
      </trkpt>
      <trkpt lat="51.723317" lon="39.211516">
        <ele>106.988</ele>
        <time>2017-11-11T07:44:39Z</time>
      </trkpt>
      <trkpt lat="51.723367" lon="39.211831">
        <ele>107.031</ele>
        <time>2017-11-11T07:44:42Z</time>
      </trkpt>
      <trkpt lat="51.723373" lon="39.212109">
        <ele>107.713</ele>
        <time>2017-11-11T07:44:45Z</time>
      </trkpt>
      <trkpt lat="51.723265" lon="39.212625">
        <ele>114.055</ele>
        <time>2017-11-11T07:44:50Z</time>
      </trkpt>
      <trkpt lat="51.722945" lon="39.213731">
        <ele>134.755</ele>
        <time>2017-11-11T07:44:57Z</time>
      </trkpt>
      <trkpt lat="51.722902" lon="39.214057">
        <ele>145.298</ele>
        <time>2017-11-11T07:45:02Z</time>
      </trkpt>
      <trkpt lat="51.722842" lon="39.214555">
        <ele>159.204</ele>
        <time>2017-11-11T07:45:07Z</time>
      </trkpt>
      <trkpt lat="51.722809" lon="39.214833">
        <ele>171.403</ele>
        <time>2017-11-11T07:45:10Z</time>
      </trkpt>
      <trkpt lat="51.722747" lon="39.215218">
        <ele>178.553</ele>
        <time>2017-11-11T07:45:16Z</time>
      </trkpt>
      <trkpt lat="51.722631" lon="39.215397">
        <ele>180.192</ele>
        <time>2017-11-11T07:45:21Z</time>
      </trkpt>
      <trkpt lat="51.722327" lon="39.21559">
        <ele>181.668</ele>
        <time>2017-11-11T07:45:26Z</time>
      </trkpt>
      <trkpt lat="51.721992" lon="39.215791">
        <ele>184.603</ele>
        <time>2017-11-11T07:45:32Z</time>
      </trkpt>
      <trkpt lat="51.72175" lon="39.215945">
        <ele>185.516</ele>
        <time>2017-11-11T07:45:37Z</time>
      </trkpt>
      <trkpt lat="51.721555" lon="39.21607">
        <ele>186.991</ele>
        <time>2017-11-11T07:45:44Z</time>
      </trkpt>
      <trkpt lat="51.721591" lon="39.216376">
        <ele>197.386</ele>
        <time>2017-11-11T07:45:50Z</time>
      </trkpt>
      <trkpt lat="51.721693" lon="39.21687">
        <ele>197.633</ele>
        <time>2017-11-11T07:45:57Z</time>
      </trkpt>
      <trkpt lat="51.721758" lon="39.217447">
        <ele>192.44</ele>
        <time>2017-11-11T07:46:03Z</time>
      </trkpt>
      <trkpt lat="51.721749" lon="39.217828">
        <ele>190.144</ele>
        <time>2017-11-11T07:46:09Z</time>
      </trkpt>
      <trkpt lat="51.721717" lon="39.218036">
        <ele>190.025</ele>
        <time>2017-11-11T07:46:14Z</time>
      </trkpt>
      <trkpt lat="51.721524" lon="39.218382">
        <ele>192.1</ele>
        <time>2017-11-11T07:46:22Z</time>
      </trkpt>
      <trkpt lat="51.721196" lon="39.218739">
        <ele>191.64</ele>
        <time>2017-11-11T07:46:28Z</time>
      </trkpt>
      <trkpt lat="51.720822" lon="39.218996">
        <ele>192.906</ele>
        <time>2017-11-11T07:46:33Z</time>
      </trkpt>
      <trkpt lat="51.720549" lon="39.219178">
        <ele>192.952</ele>
        <time>2017-11-11T07:46:37Z</time>
      </trkpt>
      <trkpt lat="51.72024" lon="39.219377">
        <ele>189.81</ele>
        <time>2017-11-11T07:46:41Z</time>
      </trkpt>
      <trkpt lat="51.719813" lon="39.219626">
        <ele>184.192</ele>
        <time>2017-11-11T07:46:47Z</time>
      </trkpt>
      <trkpt lat="51.719424" lon="39.219869">
        <ele>179.923</ele>
        <time>2017-11-11T07:46:52Z</time>
      </trkpt>
      <trkpt lat="51.719222" lon="39.220003">
        <ele>177.232</ele>
        <time>2017-11-11T07:46:55Z</time>
      </trkpt>
      <trkpt lat="51.718867" lon="39.220259">
        <ele>170.57</ele>
        <time>2017-11-11T07:47:00Z</time>
      </trkpt>
      <trkpt lat="51.718464" lon="39.22052">
        <ele>165.502</ele>
        <time>2017-11-11T07:47:06Z</time>
      </trkpt>
      <trkpt lat="51.718254" lon="39.220652">
        <ele>163.137</ele>
        <time>2017-11-11T07:47:09Z</time>
      </trkpt>
      <trkpt lat="51.717883" lon="39.220912">
        <ele>161.648</ele>
        <time>2017-11-11T07:47:15Z</time>
      </trkpt>
      <trkpt lat="51.717505" lon="39.221187">
        <ele>162.663</ele>
        <time>2017-11-11T07:47:21Z</time>
      </trkpt>
      <trkpt lat="51.717303" lon="39.221334">
        <ele>162.888</ele>
        <time>2017-11-11T07:47:24Z</time>
      </trkpt>
      <trkpt lat="51.717106" lon="39.221467">
        <ele>163.102</ele>
        <time>2017-11-11T07:47:27Z</time>
      </trkpt>
      <trkpt lat="51.716919" lon="39.221603">
        <ele>162.955</ele>
        <time>2017-11-11T07:47:30Z</time>
      </trkpt>
      <trkpt lat="51.716753" lon="39.221733">
        <ele>163.473</ele>
        <time>2017-11-11T07:47:33Z</time>
      </trkpt>
      <trkpt lat="51.716613" lon="39.221846">
        <ele>165.363</ele>
        <time>2017-11-11T07:47:36Z</time>
      </trkpt>
      <trkpt lat="51.716242" lon="39.222144">
        <ele>164.99</ele>
        <time>2017-11-11T07:47:42Z</time>
      </trkpt>
      <trkpt lat="51.716067" lon="39.22227">
        <ele>164.493</ele>
        <time>2017-11-11T07:47:45Z</time>
      </trkpt>
      <trkpt lat="51.715897" lon="39.222389">
        <ele>163.874</ele>
        <time>2017-11-11T07:47:48Z</time>
      </trkpt>
      <trkpt lat="51.715716" lon="39.222507">
        <ele>163.056</ele>
        <time>2017-11-11T07:47:51Z</time>
      </trkpt>
      <trkpt lat="51.715545" lon="39.222629">
        <ele>162.356</ele>
        <time>2017-11-11T07:47:54Z</time>
      </trkpt>
      <trkpt lat="51.715396" lon="39.222757">
        <ele>161.966</ele>
        <time>2017-11-11T07:47:57Z</time>
      </trkpt>
      <trkpt lat="51.715226" lon="39.222866">
        <ele>161.491</ele>
        <time>2017-11-11T07:48:00Z</time>
      </trkpt>
      <trkpt lat="51.715041" lon="39.222986">
        <ele>160.883</ele>
        <time>2017-11-11T07:48:03Z</time>
      </trkpt>
      <trkpt lat="51.714874" lon="39.22311">
        <ele>161.173</ele>
        <time>2017-11-11T07:48:06Z</time>
      </trkpt>
      <trkpt lat="51.71469" lon="39.223232">
        <ele>161.531</ele>
        <time>2017-11-11T07:48:09Z</time>
      </trkpt>
      <trkpt lat="51.714336" lon="39.223447">
        <ele>160.171</ele>
        <time>2017-11-11T07:48:14Z</time>
      </trkpt>
      <trkpt lat="51.714108" lon="39.223562">
        <ele>159.18</ele>
        <time>2017-11-11T07:48:19Z</time>
      </trkpt>
      <trkpt lat="51.714015" lon="39.223662">
        <ele>159.048</ele>
        <time>2017-11-11T07:48:25Z</time>
      </trkpt>
      <trkpt lat="51.71414" lon="39.224053">
        <ele>158.37</ele>
        <time>2017-11-11T07:48:31Z</time>
      </trkpt>
      <trkpt lat="51.714312" lon="39.224562">
        <ele>161.98</ele>
        <time>2017-11-11T07:48:37Z</time>
      </trkpt>
      <trkpt lat="51.714471" lon="39.225115">
        <ele>166.654</ele>
        <time>2017-11-11T07:48:43Z</time>
      </trkpt>
      <trkpt lat="51.714614" lon="39.225647">
        <ele>170.131</ele>
        <time>2017-11-11T07:48:49Z</time>
      </trkpt>
      <trkpt lat="51.714748" lon="39.226227">
        <ele>170.704</ele>
        <time>2017-11-11T07:48:55Z</time>
      </trkpt>
      <trkpt lat="51.714875" lon="39.226715">
        <ele>169.87</ele>
        <time>2017-11-11T07:49:00Z</time>
      </trkpt>
      <trkpt lat="51.71496" lon="39.227064">
        <ele>170.487</ele>
        <time>2017-11-11T07:49:05Z</time>
      </trkpt>
      <trkpt lat="51.715096" lon="39.227622">
        <ele>169.266</ele>
        <time>2017-11-11T07:49:11Z</time>
      </trkpt>
      <trkpt lat="51.715369" lon="39.228689">
        <ele>163.446</ele>
        <time>2017-11-11T07:49:21Z</time>
      </trkpt>
      <trkpt lat="51.715487" lon="39.229187">
        <ele>160.278</ele>
        <time>2017-11-11T07:49:26Z</time>
      </trkpt>
      <trkpt lat="51.715621" lon="39.2297">
        <ele>158.844</ele>
        <time>2017-11-11T07:49:31Z</time>
      </trkpt>
      <trkpt lat="51.715811" lon="39.230341">
        <ele>157.589</ele>
        <time>2017-11-11T07:49:37Z</time>
      </trkpt>
      <trkpt lat="51.715988" lon="39.230974">
        <ele>154.964</ele>
        <time>2017-11-11T07:49:43Z</time>
      </trkpt>
      <trkpt lat="51.716088" lon="39.231524">
        <ele>155.118</ele>
        <time>2017-11-11T07:49:48Z</time>
      </trkpt>
      <trkpt lat="51.716207" lon="39.232238">
        <ele>155.811</ele>
        <time>2017-11-11T07:49:54Z</time>
      </trkpt>
      <trkpt lat="51.716381" lon="39.232928">
        <ele>157.228</ele>
        <time>2017-11-11T07:50:00Z</time>
      </trkpt>
      <trkpt lat="51.716474" lon="39.233248">
        <ele>157.472</ele>
        <time>2017-11-11T07:50:03Z</time>
      </trkpt>
      <trkpt lat="51.716625" lon="39.233795">
        <ele>158.644</ele>
        <time>2017-11-11T07:50:08Z</time>
      </trkpt>
      <trkpt lat="51.716772" lon="39.234363">
        <ele>159.592</ele>
        <time>2017-11-11T07:50:13Z</time>
      </trkpt>
      <trkpt lat="51.716871" lon="39.234746">
        <ele>159.254</ele>
        <time>2017-11-11T07:50:16Z</time>
      </trkpt>
      <trkpt lat="51.716971" lon="39.235142">
        <ele>158.871</ele>
        <time>2017-11-11T07:50:19Z</time>
      </trkpt>
      <trkpt lat="51.717092" lon="39.235563">
        <ele>158.464</ele>
        <time>2017-11-11T07:50:22Z</time>
      </trkpt>
      <trkpt lat="51.717283" lon="39.235948">
        <ele>157.099</ele>
        <time>2017-11-11T07:50:25Z</time>
      </trkpt>
      <trkpt lat="51.717495" lon="39.236295">
        <ele>153.596</ele>
        <time>2017-11-11T07:50:28Z</time>
      </trkpt>
      <trkpt lat="51.71791" lon="39.236646">
        <ele>145.279</ele>
        <time>2017-11-11T07:50:33Z</time>
      </trkpt>
      <trkpt lat="51.718203" lon="39.236496">
        <ele>140.465</ele>
        <time>2017-11-11T07:50:36Z</time>
      </trkpt>
      <trkpt lat="51.718562" lon="39.235722">
        <ele>132.662</ele>
        <time>2017-11-11T07:50:42Z</time>
      </trkpt>
      <trkpt lat="51.718715" lon="39.235273">
        <ele>129.799</ele>
        <time>2017-11-11T07:50:45Z</time>
      </trkpt>
      <trkpt lat="51.719009" lon="39.235033">
        <ele>127.682</ele>
        <time>2017-11-11T07:50:48Z</time>
      </trkpt>
      <trkpt lat="51.71936" lon="39.235094">
        <ele>125.894</ele>
        <time>2017-11-11T07:50:51Z</time>
      </trkpt>
      <trkpt lat="51.720078" lon="39.235002">
        <ele>122.653</ele>
        <time>2017-11-11T07:50:57Z</time>
      </trkpt>
      <trkpt lat="51.72075" lon="39.235125">
        <ele>119.849</ele>
        <time>2017-11-11T07:51:03Z</time>
      </trkpt>
      <trkpt lat="51.721248" lon="39.235793">
        <ele>118.773</ele>
        <time>2017-11-11T07:51:09Z</time>
      </trkpt>
      <trkpt lat="51.72168" lon="39.23629">
        <ele>117.315</ele>
        <time>2017-11-11T07:51:14Z</time>
      </trkpt>
      <trkpt lat="51.722195" lon="39.236781">
        <ele>114.102</ele>
        <time>2017-11-11T07:51:20Z</time>
      </trkpt>
      <trkpt lat="51.722385" lon="39.236914">
        <ele>112.77</ele>
        <time>2017-11-11T07:51:23Z</time>
      </trkpt>
      <trkpt lat="51.72253" lon="39.237048">
        <ele>111.671</ele>
        <time>2017-11-11T07:51:27Z</time>
      </trkpt>
      <trkpt lat="51.722577" lon="39.237322">
        <ele>111.828</ele>
        <time>2017-11-11T07:51:33Z</time>
      </trkpt>
      <trkpt lat="51.72253" lon="39.237719">
        <ele>113.158</ele>
        <time>2017-11-11T07:51:39Z</time>
      </trkpt>
      <trkpt lat="51.722491" lon="39.238109">
        <ele>113.685</ele>
        <time>2017-11-11T07:51:44Z</time>
      </trkpt>
      <trkpt lat="51.722463" lon="39.238371">
        <ele>113.47</ele>
        <time>2017-11-11T07:51:47Z</time>
      </trkpt>
      <trkpt lat="51.722444" lon="39.238802">
        <ele>113.579</ele>
        <time>2017-11-11T07:51:53Z</time>
      </trkpt>
      <trkpt lat="51.722369" lon="39.239195">
        <ele>112.605</ele>
        <time>2017-11-11T07:51:58Z</time>
      </trkpt>
      <trkpt lat="51.722243" lon="39.239698">
        <ele>112.556</ele>
        <time>2017-11-11T07:52:04Z</time>
      </trkpt>
      <trkpt lat="51.722077" lon="39.240045">
        <ele>113.495</ele>
        <time>2017-11-11T07:52:09Z</time>
      </trkpt>
      <trkpt lat="51.721989" lon="39.24025">
        <ele>113.629</ele>
        <time>2017-11-11T07:52:12Z</time>
      </trkpt>
      <trkpt lat="51.721906" lon="39.240437">
        <ele>114.115</ele>
        <time>2017-11-11T07:52:15Z</time>
      </trkpt>
      <trkpt lat="51.721754" lon="39.24083">
        <ele>114.616</ele>
        <time>2017-11-11T07:52:21Z</time>
      </trkpt>
      <trkpt lat="51.721554" lon="39.241061">
        <ele>115.234</ele>
        <time>2017-11-11T07:52:27Z</time>
      </trkpt>
      <trkpt lat="51.72135" lon="39.241417">
        <ele>115.26</ele>
        <time>2017-11-11T07:52:34Z</time>
      </trkpt>
      <trkpt lat="51.721066" lon="39.241446">
        <ele>111.872</ele>
        <time>2017-11-11T07:52:39Z</time>
      </trkpt>
      <trkpt lat="51.720854" lon="39.241561">
        <ele>109.647</ele>
        <time>2017-11-11T07:52:44Z</time>
      </trkpt>
      <trkpt lat="51.720919" lon="39.242033">
        <ele>109.799</ele>
        <time>2017-11-11T07:52:51Z</time>
      </trkpt>
      <trkpt lat="51.721116" lon="39.242443">
        <ele>112.139</ele>
        <time>2017-11-11T07:52:57Z</time>
      </trkpt>
      <trkpt lat="51.72132" lon="39.242818">
        <ele>113.296</ele>
        <time>2017-11-11T07:53:03Z</time>
      </trkpt>
      <trkpt lat="51.721509" lon="39.243269">
        <ele>115.71</ele>
        <time>2017-11-11T07:53:08Z</time>
      </trkpt>
      <trkpt lat="51.721647" lon="39.243668">
        <ele>119.759</ele>
        <time>2017-11-11T07:53:12Z</time>
      </trkpt>
      <trkpt lat="51.72182" lon="39.24423">
        <ele>121.184</ele>
        <time>2017-11-11T07:53:18Z</time>
      </trkpt>
      <trkpt lat="51.722067" lon="39.244742">
        <ele>115.953</ele>
        <time>2017-11-11T07:53:24Z</time>
      </trkpt>
      <trkpt lat="51.722176" lon="39.244991">
        <ele>112.157</ele>
        <time>2017-11-11T07:53:27Z</time>
      </trkpt>
      <trkpt lat="51.722331" lon="39.245563">
        <ele>105.944</ele>
        <time>2017-11-11T07:53:33Z</time>
      </trkpt>
      <trkpt lat="51.722423" lon="39.245775">
        <ele>104.417</ele>
        <time>2017-11-11T07:53:36Z</time>
      </trkpt>
      <trkpt lat="51.722414" lon="39.24614">
        <ele>104.21</ele>
        <time>2017-11-11T07:53:40Z</time>
      </trkpt>
      <trkpt lat="51.722345" lon="39.246451">
        <ele>104.939</ele>
        <time>2017-11-11T07:53:45Z</time>
      </trkpt>
      <trkpt lat="51.722345" lon="39.246451">
        <ele>104.939</ele>
        <time>2017-11-11T07:53:52Z</time>
      </trkpt>
      <trkpt lat="51.722345" lon="39.246451">
        <time>2017-11-11T07:53:52Z</time>
      </trkpt>
    </trkseg>
    <trkseg>
      <trkpt lat="51.722345" lon="39.246451">
        <time>2017-11-11T07:54:07Z</time>
      </trkpt>
      <trkpt lat="51.722287" lon="39.246656">
        <ele>107.194</ele>
        <time>2017-11-11T07:54:07Z</time>
      </trkpt>
      <trkpt lat="51.722342" lon="39.246976">
        <ele>107.915</ele>
        <time>2017-11-11T07:54:14Z</time>
      </trkpt>
      <trkpt lat="51.722493" lon="39.247505">
        <ele>112.56</ele>
        <time>2017-11-11T07:54:22Z</time>
      </trkpt>
      <trkpt lat="51.722652" lon="39.247991">
        <ele>114.114</ele>
        <time>2017-11-11T07:54:29Z</time>
      </trkpt>
      <trkpt lat="51.722804" lon="39.248452">
        <ele>112.878</ele>
        <time>2017-11-11T07:54:35Z</time>
      </trkpt>
      <trkpt lat="51.722906" lon="39.248823">
        <ele>111.621</ele>
        <time>2017-11-11T07:54:41Z</time>
      </trkpt>
      <trkpt lat="51.722933" lon="39.249022">
        <ele>111.268</ele>
        <time>2017-11-11T07:54:47Z</time>
      </trkpt>
      <trkpt lat="51.723023" lon="39.249559">
        <ele>109.237</ele>
        <time>2017-11-11T07:54:52Z</time>
      </trkpt>
      <trkpt lat="51.723169" lon="39.250159">
        <ele>107.192</ele>
        <time>2017-11-11T07:54:58Z</time>
      </trkpt>
      <trkpt lat="51.72331" lon="39.250738">
        <ele>106.291</ele>
        <time>2017-11-11T07:55:04Z</time>
      </trkpt>
      <trkpt lat="51.723402" lon="39.251244">
        <ele>106.563</ele>
        <time>2017-11-11T07:55:09Z</time>
      </trkpt>
      <trkpt lat="51.723505" lon="39.251821">
        <ele>106.413</ele>
        <time>2017-11-11T07:55:15Z</time>
      </trkpt>
      <trkpt lat="51.72358" lon="39.252313">
        <ele>105.985</ele>
        <time>2017-11-11T07:55:20Z</time>
      </trkpt>
      <trkpt lat="51.723656" lon="39.252936">
        <ele>105.378</ele>
        <time>2017-11-11T07:55:26Z</time>
      </trkpt>
      <trkpt lat="51.723724" lon="39.253311">
        <ele>104.366</ele>
        <time>2017-11-11T07:55:30Z</time>
      </trkpt>
      <trkpt lat="51.723777" lon="39.253583">
        <ele>104.249</ele>
        <time>2017-11-11T07:55:33Z</time>
      </trkpt>
      <trkpt lat="51.723822" lon="39.253863">
        <ele>104.121</ele>
        <time>2017-11-11T07:55:36Z</time>
      </trkpt>
      <trkpt lat="51.723936" lon="39.254331">
        <ele>105.354</ele>
        <time>2017-11-11T07:55:41Z</time>
      </trkpt>
      <trkpt lat="51.724104" lon="39.254919">
        <ele>106.892</ele>
        <time>2017-11-11T07:55:47Z</time>
      </trkpt>
      <trkpt lat="51.724179" lon="39.255188">
        <ele>107.219</ele>
        <time>2017-11-11T07:55:50Z</time>
      </trkpt>
      <trkpt lat="51.724283" lon="39.25549">
        <ele>107.903</ele>
        <time>2017-11-11T07:55:53Z</time>
      </trkpt>
      <trkpt lat="51.724388" lon="39.255712">
        <ele>108.731</ele>
        <time>2017-11-11T07:55:57Z</time>
      </trkpt>
      <trkpt lat="51.724388" lon="39.255712">
        <time>2017-11-11T07:56:03Z</time>
      </trkpt>
    </trkseg>
    <trkseg>
      <trkpt lat="51.724388" lon="39.255712">
        <time>2017-11-11T07:56:27Z</time>
      </trkpt>
      <trkpt lat="51.724464" lon="39.255882">
        <ele>109.347</ele>
        <time>2017-11-11T07:56:27Z</time>
      </trkpt>
      <trkpt lat="51.724533" lon="39.256102">
        <ele>109.667</ele>
        <time>2017-11-11T07:56:32Z</time>
      </trkpt>
      <trkpt lat="51.724658" lon="39.256497">
        <ele>112.516</ele>
        <time>2017-11-11T07:56:38Z</time>
      </trkpt>
      <trkpt lat="51.724752" lon="39.25685">
        <ele>113.705</ele>
        <time>2017-11-11T07:56:44Z</time>
      </trkpt>
      <trkpt lat="51.724842" lon="39.257178">
        <ele>114.504</ele>
        <time>2017-11-11T07:56:50Z</time>
      </trkpt>
      <trkpt lat="51.724895" lon="39.257362">
        <ele>114.969</ele>
        <time>2017-11-11T07:56:54Z</time>
      </trkpt>
      <trkpt lat="51.724944" lon="39.25757">
        <ele>115.384</ele>
        <time>2017-11-11T07:56:59Z</time>
      </trkpt>
      <trkpt lat="51.724944" lon="39.25757">
        <time>2017-11-11T07:57:05Z</time>
      </trkpt>
    </trkseg>
    <trkseg>
      <trkpt lat="51.724944" lon="39.25757">
        <time>2017-11-11T07:57:31Z</time>
      </trkpt>
      <trkpt lat="51.72518" lon="39.257479">
        <ele>116.527</ele>
        <time>2017-11-11T07:57:31Z</time>
      </trkpt>
      <trkpt lat="51.725405" lon="39.257305">
        <ele>117.53</ele>
        <time>2017-11-11T07:57:36Z</time>
      </trkpt>
      <trkpt lat="51.725731" lon="39.257181">
        <ele>116.285</ele>
        <time>2017-11-11T07:57:42Z</time>
      </trkpt>
      <trkpt lat="51.725984" lon="39.257167">
        <ele>113.792</ele>
        <time>2017-11-11T07:57:47Z</time>
      </trkpt>
      <trkpt lat="51.726133" lon="39.257205">
        <ele>113.181</ele>
        <time>2017-11-11T07:57:50Z</time>
      </trkpt>
      <trkpt lat="51.726374" lon="39.257413">
        <ele>111.863</ele>
        <time>2017-11-11T07:57:56Z</time>
      </trkpt>
      <trkpt lat="51.72654" lon="39.257821">
        <ele>111.207</ele>
        <time>2017-11-11T07:58:02Z</time>
      </trkpt>
      <trkpt lat="51.726693" lon="39.258128">
        <ele>111.491</ele>
        <time>2017-11-11T07:58:07Z</time>
      </trkpt>
      <trkpt lat="51.726822" lon="39.258584">
        <ele>113.327</ele>
        <time>2017-11-11T07:58:13Z</time>
      </trkpt>
      <trkpt lat="51.726873" lon="39.258928">
        <ele>114.106</ele>
        <time>2017-11-11T07:58:18Z</time>
      </trkpt>
      <trkpt lat="51.726933" lon="39.259335">
        <ele>116.339</ele>
        <time>2017-11-11T07:58:24Z</time>
      </trkpt>
      <trkpt lat="51.726965" lon="39.259697">
        <ele>118.047</ele>
        <time>2017-11-11T07:58:29Z</time>
      </trkpt>
      <trkpt lat="51.726985" lon="39.259894">
        <ele>118.392</ele>
        <time>2017-11-11T07:58:32Z</time>
      </trkpt>
      <trkpt lat="51.726996" lon="39.260172">
        <ele>118.444</ele>
        <time>2017-11-11T07:58:36Z</time>
      </trkpt>
      <trkpt lat="51.72691" lon="39.260518">
        <ele>118.818</ele>
        <time>2017-11-11T07:58:42Z</time>
      </trkpt>
      <trkpt lat="51.726866" lon="39.261002">
        <ele>115.527</ele>
        <time>2017-11-11T07:58:48Z</time>
      </trkpt>
      <trkpt lat="51.726857" lon="39.261101">
        <ele>115.391</ele>
        <time>2017-11-11T07:58:50Z</time>
      </trkpt>
      <trkpt lat="51.726857" lon="39.261101">
        <time>2017-11-11T07:58:56Z</time>
      </trkpt>
    </trkseg>
    <trkseg>
      <trkpt lat="51.726857" lon="39.261101">
        <time>2017-11-11T08:04:51Z</time>
      </trkpt>
      <trkpt lat="51.727073" lon="39.261598">
        <ele>111.713</ele>
        <time>2017-11-11T08:05:39Z</time>
      </trkpt>
      <trkpt lat="51.727217" lon="39.262032">
        <ele>116.046</ele>
        <time>2017-11-11T08:05:43Z</time>
      </trkpt>
      <trkpt lat="51.727415" lon="39.26269">
        <ele>114.756</ele>
        <time>2017-11-11T08:05:49Z</time>
      </trkpt>
      <trkpt lat="51.727504" lon="39.263004">
        <ele>113.359</ele>
        <time>2017-11-11T08:05:52Z</time>
      </trkpt>
      <trkpt lat="51.72764" lon="39.263587">
        <ele>109.282</ele>
        <time>2017-11-11T08:05:57Z</time>
      </trkpt>
      <trkpt lat="51.727798" lon="39.264194">
        <ele>106.554</ele>
        <time>2017-11-11T08:06:03Z</time>
      </trkpt>
      <trkpt lat="51.727912" lon="39.264527">
        <ele>106.532</ele>
        <time>2017-11-11T08:06:06Z</time>
      </trkpt>
      <trkpt lat="51.728115" lon="39.265253">
        <ele>106.678</ele>
        <time>2017-11-11T08:06:13Z</time>
      </trkpt>
      <trkpt lat="51.728274" lon="39.265713">
        <ele>107.137</ele>
        <time>2017-11-11T08:06:18Z</time>
      </trkpt>
      <trkpt lat="51.728359" lon="39.265986">
        <ele>107.541</ele>
        <time>2017-11-11T08:06:21Z</time>
      </trkpt>
      <trkpt lat="51.728474" lon="39.266352">
        <ele>108.44</ele>
        <time>2017-11-11T08:06:25Z</time>
      </trkpt>
      <trkpt lat="51.728557" lon="39.266633">
        <ele>108.843</ele>
        <time>2017-11-11T08:06:28Z</time>
      </trkpt>
      <trkpt lat="51.72869" lon="39.267073">
        <ele>109.4</ele>
        <time>2017-11-11T08:06:33Z</time>
      </trkpt>
      <trkpt lat="51.728846" lon="39.267535">
        <ele>109.911</ele>
        <time>2017-11-11T08:06:39Z</time>
      </trkpt>
      <trkpt lat="51.728925" lon="39.267763">
        <ele>110.541</ele>
        <time>2017-11-11T08:06:42Z</time>
      </trkpt>
      <trkpt lat="51.72901" lon="39.268023">
        <ele>111.074</ele>
        <time>2017-11-11T08:06:45Z</time>
      </trkpt>
      <trkpt lat="51.729083" lon="39.268309">
        <ele>111.119</ele>
        <time>2017-11-11T08:06:48Z</time>
      </trkpt>
      <trkpt lat="51.729189" lon="39.26872">
        <ele>111.348</ele>
        <time>2017-11-11T08:06:53Z</time>
      </trkpt>
      <trkpt lat="51.729329" lon="39.269253">
        <ele>112.002</ele>
        <time>2017-11-11T08:06:59Z</time>
      </trkpt>
      <trkpt lat="51.72947" lon="39.269803">
        <ele>111.116</ele>
        <time>2017-11-11T08:07:05Z</time>
      </trkpt>
      <trkpt lat="51.729552" lon="39.270077">
        <ele>110.426</ele>
        <time>2017-11-11T08:07:08Z</time>
      </trkpt>
      <trkpt lat="51.729637" lon="39.270332">
        <ele>110.08</ele>
        <time>2017-11-11T08:07:11Z</time>
      </trkpt>
      <trkpt lat="51.729793" lon="39.270767">
        <ele>111.188</ele>
        <time>2017-11-11T08:07:16Z</time>
      </trkpt>
      <trkpt lat="51.729973" lon="39.271291">
        <ele>113.292</ele>
        <time>2017-11-11T08:07:22Z</time>
      </trkpt>
      <trkpt lat="51.730157" lon="39.271807">
        <ele>115.037</ele>
        <time>2017-11-11T08:07:28Z</time>
      </trkpt>
      <trkpt lat="51.730269" lon="39.272265">
        <ele>115.756</ele>
        <time>2017-11-11T08:07:33Z</time>
      </trkpt>
      <trkpt lat="51.73037" lon="39.272858">
        <ele>115.135</ele>
        <time>2017-11-11T08:07:39Z</time>
      </trkpt>
      <trkpt lat="51.73047" lon="39.273414">
        <ele>113.636</ele>
        <time>2017-11-11T08:07:45Z</time>
      </trkpt>
      <trkpt lat="51.730545" lon="39.273801">
        <ele>112.719</ele>
        <time>2017-11-11T08:07:49Z</time>
      </trkpt>
      <trkpt lat="51.730602" lon="39.274107">
        <ele>112.498</ele>
        <time>2017-11-11T08:07:52Z</time>
      </trkpt>
      <trkpt lat="51.730723" lon="39.274722">
        <ele>111.653</ele>
        <time>2017-11-11T08:07:58Z</time>
      </trkpt>
      <trkpt lat="51.730784" lon="39.275098">
        <ele>110.949</ele>
        <time>2017-11-11T08:08:02Z</time>
      </trkpt>
      <trkpt lat="51.730894" lon="39.275667">
        <ele>109.061</ele>
        <time>2017-11-11T08:08:08Z</time>
      </trkpt>
      <trkpt lat="51.730946" lon="39.275967">
        <ele>108.35</ele>
        <time>2017-11-11T08:08:11Z</time>
      </trkpt>
      <trkpt lat="51.731054" lon="39.276599">
        <ele>107.496</ele>
        <time>2017-11-11T08:08:18Z</time>
      </trkpt>
      <trkpt lat="51.731145" lon="39.277139">
        <ele>108.409</ele>
        <time>2017-11-11T08:08:24Z</time>
      </trkpt>
      <trkpt lat="51.731219" lon="39.277591">
        <ele>110.054</ele>
        <time>2017-11-11T08:08:29Z</time>
      </trkpt>
      <trkpt lat="51.73131" lon="39.278145">
        <ele>111.701</ele>
        <time>2017-11-11T08:08:35Z</time>
      </trkpt>
      <trkpt lat="51.731358" lon="39.278423">
        <ele>112.397</ele>
        <time>2017-11-11T08:08:38Z</time>
      </trkpt>
      <trkpt lat="51.731409" lon="39.278686">
        <ele>113.498</ele>
        <time>2017-11-11T08:08:41Z</time>
      </trkpt>
      <trkpt lat="51.73146" lon="39.278931">
        <ele>115.115</ele>
        <time>2017-11-11T08:08:44Z</time>
      </trkpt>
      <trkpt lat="51.731398" lon="39.279306">
        <ele>116.707</ele>
        <time>2017-11-11T08:08:50Z</time>
      </trkpt>
      <trkpt lat="51.731372" lon="39.279675">
        <ele>118.486</ele>
        <time>2017-11-11T08:08:57Z</time>
      </trkpt>
      <trkpt lat="51.73143" lon="39.280057">
        <ele>120.573</ele>
        <time>2017-11-11T08:09:02Z</time>
      </trkpt>
      <trkpt lat="51.731489" lon="39.280461">
        <ele>123.243</ele>
        <time>2017-11-11T08:09:07Z</time>
      </trkpt>
      <trkpt lat="51.731566" lon="39.280946">
        <ele>123.628</ele>
        <time>2017-11-11T08:09:13Z</time>
      </trkpt>
      <trkpt lat="51.73161" lon="39.281407">
        <ele>123.032</ele>
        <time>2017-11-11T08:09:19Z</time>
      </trkpt>
      <trkpt lat="51.731648" lon="39.281905">
        <ele>121.703</ele>
        <time>2017-11-11T08:09:25Z</time>
      </trkpt>
      <trkpt lat="51.731683" lon="39.282369">
        <ele>122.223</ele>
        <time>2017-11-11T08:09:31Z</time>
      </trkpt>
      <trkpt lat="51.731795" lon="39.282724">
        <ele>123.899</ele>
        <time>2017-11-11T08:09:36Z</time>
      </trkpt>
      <trkpt lat="51.73183" lon="39.283205">
        <ele>125.448</ele>
        <time>2017-11-11T08:09:42Z</time>
      </trkpt>
      <trkpt lat="51.731845" lon="39.283722">
        <ele>124.945</ele>
        <time>2017-11-11T08:09:48Z</time>
      </trkpt>
      <trkpt lat="51.731886" lon="39.284236">
        <ele>123.512</ele>
        <time>2017-11-11T08:09:54Z</time>
      </trkpt>
      <trkpt lat="51.731903" lon="39.284744">
        <ele>121.933</ele>
        <time>2017-11-11T08:10:00Z</time>
      </trkpt>
      <trkpt lat="51.73194" lon="39.284973">
        <ele>121.716</ele>
        <time>2017-11-11T08:10:03Z</time>
      </trkpt>
      <trkpt lat="51.73196" lon="39.285224">
        <ele>121.759</ele>
        <time>2017-11-11T08:10:06Z</time>
      </trkpt>
      <trkpt lat="51.732033" lon="39.285717">
        <ele>121.152</ele>
        <time>2017-11-11T08:10:12Z</time>
      </trkpt>
      <trkpt lat="51.732097" lon="39.286163">
        <ele>120.452</ele>
        <time>2017-11-11T08:10:17Z</time>
      </trkpt>
      <trkpt lat="51.732164" lon="39.286651">
        <ele>119.961</ele>
        <time>2017-11-11T08:10:23Z</time>
      </trkpt>
      <trkpt lat="51.732207" lon="39.286979">
        <ele>120.006</ele>
        <time>2017-11-11T08:10:27Z</time>
      </trkpt>
      <trkpt lat="51.73228" lon="39.287436">
        <ele>120.006</ele>
        <time>2017-11-11T08:10:32Z</time>
      </trkpt>
      <trkpt lat="51.732366" lon="39.288021">
        <ele>118.184</ele>
        <time>2017-11-11T08:10:38Z</time>
      </trkpt>
      <trkpt lat="51.732356" lon="39.288302">
        <ele>117.14</ele>
        <time>2017-11-11T08:10:41Z</time>
      </trkpt>
      <trkpt lat="51.732404" lon="39.288553">
        <ele>116.432</ele>
        <time>2017-11-11T08:10:44Z</time>
      </trkpt>
      <trkpt lat="51.73248" lon="39.28896">
        <ele>116.194</ele>
        <time>2017-11-11T08:10:49Z</time>
      </trkpt>
      <trkpt lat="51.732533" lon="39.289477">
        <ele>116.726</ele>
        <time>2017-11-11T08:10:55Z</time>
      </trkpt>
      <trkpt lat="51.732552" lon="39.289902">
        <ele>116.945</ele>
        <time>2017-11-11T08:11:00Z</time>
      </trkpt>
      <trkpt lat="51.732633" lon="39.290387">
        <ele>117.29</ele>
        <time>2017-11-11T08:11:06Z</time>
      </trkpt>
      <trkpt lat="51.732697" lon="39.29086">
        <ele>117.309</ele>
        <time>2017-11-11T08:11:12Z</time>
      </trkpt>
      <trkpt lat="51.732766" lon="39.291373">
        <ele>117.9</ele>
        <time>2017-11-11T08:11:18Z</time>
      </trkpt>
      <trkpt lat="51.732826" lon="39.291847">
        <ele>118.682</ele>
        <time>2017-11-11T08:11:23Z</time>
      </trkpt>
      <trkpt lat="51.732901" lon="39.292474">
        <ele>118.868</ele>
        <time>2017-11-11T08:11:29Z</time>
      </trkpt>
      <trkpt lat="51.732967" lon="39.293089">
        <ele>117.98</ele>
        <time>2017-11-11T08:11:35Z</time>
      </trkpt>
      <trkpt lat="51.733024" lon="39.293568">
        <ele>117.326</ele>
        <time>2017-11-11T08:11:40Z</time>
      </trkpt>
      <trkpt lat="51.733089" lon="39.294055">
        <ele>117.518</ele>
        <time>2017-11-11T08:11:45Z</time>
      </trkpt>
      <trkpt lat="51.733165" lon="39.294486">
        <ele>118.771</ele>
        <time>2017-11-11T08:11:50Z</time>
      </trkpt>
      <trkpt lat="51.733263" lon="39.294994">
        <ele>120.481</ele>
        <time>2017-11-11T08:11:56Z</time>
      </trkpt>
      <trkpt lat="51.733293" lon="39.295286">
        <ele>121.414</ele>
        <time>2017-11-11T08:11:59Z</time>
      </trkpt>
      <trkpt lat="51.73334" lon="39.295578">
        <ele>122.198</ele>
        <time>2017-11-11T08:12:02Z</time>
      </trkpt>
      <trkpt lat="51.733433" lon="39.296117">
        <ele>123.301</ele>
        <time>2017-11-11T08:12:08Z</time>
      </trkpt>
      <trkpt lat="51.73348" lon="39.296534">
        <ele>123.988</ele>
        <time>2017-11-11T08:12:13Z</time>
      </trkpt>
      <trkpt lat="51.73355" lon="39.297052">
        <ele>124.386</ele>
        <time>2017-11-11T08:12:19Z</time>
      </trkpt>
      <trkpt lat="51.733571" lon="39.297305">
        <ele>124.223</ele>
        <time>2017-11-11T08:12:22Z</time>
      </trkpt>
      <trkpt lat="51.733643" lon="39.297541">
        <ele>123.774</ele>
        <time>2017-11-11T08:12:25Z</time>
      </trkpt>
      <trkpt lat="51.733684" lon="39.297786">
        <ele>123.373</ele>
        <time>2017-11-11T08:12:28Z</time>
      </trkpt>
      <trkpt lat="51.73372" lon="39.29803">
        <ele>124.214</ele>
        <time>2017-11-11T08:12:31Z</time>
      </trkpt>
      <trkpt lat="51.733794" lon="39.298587">
        <ele>126.4</ele>
        <time>2017-11-11T08:12:37Z</time>
      </trkpt>
      <trkpt lat="51.733834" lon="39.299141">
        <ele>127.487</ele>
        <time>2017-11-11T08:12:43Z</time>
      </trkpt>
      <trkpt lat="51.733921" lon="39.299659">
        <ele>128.886</ele>
        <time>2017-11-11T08:12:49Z</time>
      </trkpt>
      <trkpt lat="51.733959" lon="39.299929">
        <ele>129.672</ele>
        <time>2017-11-11T08:12:52Z</time>
      </trkpt>
      <trkpt lat="51.733983" lon="39.300183">
        <ele>130.792</ele>
        <time>2017-11-11T08:12:55Z</time>
      </trkpt>
      <trkpt lat="51.734056" lon="39.300774">
        <ele>132.211</ele>
        <time>2017-11-11T08:13:01Z</time>
      </trkpt>
      <trkpt lat="51.734109" lon="39.301055">
        <ele>132.757</ele>
        <time>2017-11-11T08:13:04Z</time>
      </trkpt>
      <trkpt lat="51.734185" lon="39.301594">
        <ele>132.601</ele>
        <time>2017-11-11T08:13:10Z</time>
      </trkpt>
      <trkpt lat="51.734264" lon="39.302061">
        <ele>131.847</ele>
        <time>2017-11-11T08:13:16Z</time>
      </trkpt>
      <trkpt lat="51.734304" lon="39.302591">
        <ele>132.336</ele>
        <time>2017-11-11T08:13:22Z</time>
      </trkpt>
      <trkpt lat="51.734351" lon="39.303043">
        <ele>134.15</ele>
        <time>2017-11-11T08:13:27Z</time>
      </trkpt>
      <trkpt lat="51.734361" lon="39.303349">
        <ele>134.439</ele>
        <time>2017-11-11T08:13:30Z</time>
      </trkpt>
      <trkpt lat="51.734437" lon="39.303923">
        <ele>133.362</ele>
        <time>2017-11-11T08:13:36Z</time>
      </trkpt>
      <trkpt lat="51.734484" lon="39.304387">
        <ele>131.751</ele>
        <time>2017-11-11T08:13:41Z</time>
      </trkpt>
      <trkpt lat="51.734548" lon="39.304835">
        <ele>129.048</ele>
        <time>2017-11-11T08:13:46Z</time>
      </trkpt>
      <trkpt lat="51.73462" lon="39.305438">
        <ele>126.003</ele>
        <time>2017-11-11T08:13:52Z</time>
      </trkpt>
      <trkpt lat="51.734646" lon="39.305705">
        <ele>124.897</ele>
        <time>2017-11-11T08:13:55Z</time>
      </trkpt>
      <trkpt lat="51.734737" lon="39.306295">
        <ele>124.592</ele>
        <time>2017-11-11T08:14:01Z</time>
      </trkpt>
      <trkpt lat="51.734815" lon="39.306803">
        <ele>124.704</ele>
        <time>2017-11-11T08:14:06Z</time>
      </trkpt>
      <trkpt lat="51.734865" lon="39.307369">
        <ele>123.827</ele>
        <time>2017-11-11T08:14:12Z</time>
      </trkpt>
      <trkpt lat="51.734924" lon="39.307862">
        <ele>122.632</ele>
        <time>2017-11-11T08:14:18Z</time>
      </trkpt>
      <trkpt lat="51.734974" lon="39.308299">
        <ele>122.132</ele>
        <time>2017-11-11T08:14:23Z</time>
      </trkpt>
      <trkpt lat="51.735063" lon="39.308812">
        <ele>121.847</ele>
        <time>2017-11-11T08:14:29Z</time>
      </trkpt>
      <trkpt lat="51.735102" lon="39.309268">
        <ele>121.652</ele>
        <time>2017-11-11T08:14:34Z</time>
      </trkpt>
      <trkpt lat="51.735091" lon="39.30973">
        <ele>120.783</ele>
        <time>2017-11-11T08:14:42Z</time>
      </trkpt>
      <trkpt lat="51.73521" lon="39.310634">
        <ele>122.862</ele>
        <time>2017-11-11T08:14:50Z</time>
      </trkpt>
      <trkpt lat="51.735292" lon="39.311046">
        <ele>122.124</ele>
        <time>2017-11-11T08:14:55Z</time>
      </trkpt>
      <trkpt lat="51.735403" lon="39.311478">
        <ele>122.005</ele>
        <time>2017-11-11T08:15:01Z</time>
      </trkpt>
      <trkpt lat="51.735483" lon="39.312025">
        <ele>122.795</ele>
        <time>2017-11-11T08:15:07Z</time>
      </trkpt>
      <trkpt lat="51.735506" lon="39.312543">
        <ele>122.753</ele>
        <time>2017-11-11T08:15:13Z</time>
      </trkpt>
      <trkpt lat="51.735472" lon="39.312762">
        <ele>122.526</ele>
        <time>2017-11-11T08:15:21Z</time>
      </trkpt>
      <trkpt lat="51.735472" lon="39.312762">
        <ele>122.526</ele>
        <time>2017-11-11T08:15:28Z</time>
      </trkpt>
      <trkpt lat="51.735472" lon="39.312762">
        <time>2017-11-11T08:15:28Z</time>
      </trkpt>
    </trkseg>
    <trkseg>
      <trkpt lat="51.735472" lon="39.312762">
        <time>2017-11-11T08:15:52Z</time>
      </trkpt>
      <trkpt lat="51.735284" lon="39.313067">
        <ele>121.485</ele>
        <time>2017-11-11T08:15:52Z</time>
      </trkpt>
      <trkpt lat="51.735295" lon="39.313571">
        <ele>122.152</ele>
        <time>2017-11-11T08:15:59Z</time>
      </trkpt>
      <trkpt lat="51.735327" lon="39.314104">
        <ele>122.566</ele>
        <time>2017-11-11T08:16:05Z</time>
      </trkpt>
      <trkpt lat="51.735437" lon="39.314694">
        <ele>122.127</ele>
        <time>2017-11-11T08:16:12Z</time>
      </trkpt>
      <trkpt lat="51.735533" lon="39.315268">
        <ele>121.855</ele>
        <time>2017-11-11T08:16:18Z</time>
      </trkpt>
      <trkpt lat="51.735584" lon="39.315732">
        <ele>121.6</ele>
        <time>2017-11-11T08:16:23Z</time>
      </trkpt>
      <trkpt lat="51.735614" lon="39.316017">
        <ele>121.07</ele>
        <time>2017-11-11T08:16:26Z</time>
      </trkpt>
      <trkpt lat="51.73565" lon="39.316275">
        <ele>120.298</ele>
        <time>2017-11-11T08:16:29Z</time>
      </trkpt>
      <trkpt lat="51.735678" lon="39.316501">
        <ele>119.652</ele>
        <time>2017-11-11T08:16:32Z</time>
      </trkpt>
      <trkpt lat="51.735726" lon="39.316895">
        <ele>118.777</ele>
        <time>2017-11-11T08:16:37Z</time>
      </trkpt>
      <trkpt lat="51.735736" lon="39.317148">
        <ele>118.545</ele>
        <time>2017-11-11T08:16:40Z</time>
      </trkpt>
      <trkpt lat="51.735755" lon="39.31772">
        <ele>118.793</ele>
        <time>2017-11-11T08:16:47Z</time>
      </trkpt>
      <trkpt lat="51.735743" lon="39.318073">
        <ele>118.744</ele>
        <time>2017-11-11T08:16:52Z</time>
      </trkpt>
      <trkpt lat="51.735757" lon="39.318472">
        <ele>118.12</ele>
        <time>2017-11-11T08:16:57Z</time>
      </trkpt>
      <trkpt lat="51.735752" lon="39.318716">
        <ele>117.76</ele>
        <time>2017-11-11T08:17:00Z</time>
      </trkpt>
      <trkpt lat="51.735736" lon="39.319103">
        <ele>117.536</ele>
        <time>2017-11-11T08:17:04Z</time>
      </trkpt>
      <trkpt lat="51.735753" lon="39.319765">
        <ele>117.459</ele>
        <time>2017-11-11T08:17:10Z</time>
      </trkpt>
      <trkpt lat="51.73574" lon="39.320099">
        <ele>117.257</ele>
        <time>2017-11-11T08:17:13Z</time>
      </trkpt>
      <trkpt lat="51.735682" lon="39.320723">
        <ele>116.399</ele>
        <time>2017-11-11T08:17:19Z</time>
      </trkpt>
      <trkpt lat="51.735477" lon="39.321006">
        <ele>115.534</ele>
        <time>2017-11-11T08:17:25Z</time>
      </trkpt>
      <trkpt lat="51.735195" lon="39.320836">
        <ele>115.046</ele>
        <time>2017-11-11T08:17:31Z</time>
      </trkpt>
      <trkpt lat="51.734924" lon="39.320694">
        <ele>114.938</ele>
        <time>2017-11-11T08:17:36Z</time>
      </trkpt>
      <trkpt lat="51.734551" lon="39.320534">
        <ele>114.493</ele>
        <time>2017-11-11T08:17:42Z</time>
      </trkpt>
      <trkpt lat="51.734191" lon="39.320338">
        <ele>114.329</ele>
        <time>2017-11-11T08:17:48Z</time>
      </trkpt>
      <trkpt lat="51.733856" lon="39.320157">
        <ele>114.235</ele>
        <time>2017-11-11T08:17:54Z</time>
      </trkpt>
      <trkpt lat="51.73358" lon="39.320019">
        <ele>113.726</ele>
        <time>2017-11-11T08:17:59Z</time>
      </trkpt>
      <trkpt lat="51.733258" lon="39.319861">
        <ele>113.317</ele>
        <time>2017-11-11T08:18:05Z</time>
      </trkpt>
      <trkpt lat="51.733091" lon="39.319797">
        <ele>113.655</ele>
        <time>2017-11-11T08:18:08Z</time>
      </trkpt>
      <trkpt lat="51.732807" lon="39.319798">
        <ele>113.486</ele>
        <time>2017-11-11T08:18:13Z</time>
      </trkpt>
      <trkpt lat="51.732657" lon="39.319891">
        <ele>113.059</ele>
        <time>2017-11-11T08:18:16Z</time>
      </trkpt>
      <trkpt lat="51.732509" lon="39.319992">
        <ele>112.391</ele>
        <time>2017-11-11T08:18:19Z</time>
      </trkpt>
      <trkpt lat="51.732266" lon="39.320256">
        <ele>111.426</ele>
        <time>2017-11-11T08:18:24Z</time>
      </trkpt>
      <trkpt lat="51.732101" lon="39.320554">
        <ele>111.516</ele>
        <time>2017-11-11T08:18:29Z</time>
      </trkpt>
      <trkpt lat="51.732005" lon="39.32078">
        <ele>111.447</ele>
        <time>2017-11-11T08:18:35Z</time>
      </trkpt>
      <trkpt lat="51.731943" lon="39.321021">
        <ele>111.739</ele>
        <time>2017-11-11T08:18:42Z</time>
      </trkpt>
      <trkpt lat="51.731885" lon="39.321593">
        <ele>112.789</ele>
        <time>2017-11-11T08:18:48Z</time>
      </trkpt>
      <trkpt lat="51.731853" lon="39.322127">
        <ele>113.646</ele>
        <time>2017-11-11T08:18:54Z</time>
      </trkpt>
      <trkpt lat="51.731842" lon="39.322371">
        <ele>114.311</ele>
        <time>2017-11-11T08:18:57Z</time>
      </trkpt>
      <trkpt lat="51.731818" lon="39.322641">
        <ele>114.778</ele>
        <time>2017-11-11T08:19:00Z</time>
      </trkpt>
      <trkpt lat="51.7318" lon="39.322922">
        <ele>115.245</ele>
        <time>2017-11-11T08:19:03Z</time>
      </trkpt>
      <trkpt lat="51.731775" lon="39.323419">
        <ele>116.935</ele>
        <time>2017-11-11T08:19:08Z</time>
      </trkpt>
      <trkpt lat="51.731754" lon="39.32372">
        <ele>117.493</ele>
        <time>2017-11-11T08:19:11Z</time>
      </trkpt>
      <trkpt lat="51.731721" lon="39.324262">
        <ele>119.408</ele>
        <time>2017-11-11T08:19:17Z</time>
      </trkpt>
      <trkpt lat="51.731689" lon="39.324525">
        <ele>120.566</ele>
        <time>2017-11-11T08:19:20Z</time>
      </trkpt>
      <trkpt lat="51.73165" lon="39.325004">
        <ele>121.719</ele>
        <time>2017-11-11T08:19:25Z</time>
      </trkpt>
      <trkpt lat="51.731608" lon="39.32547">
        <ele>121.5</ele>
        <time>2017-11-11T08:19:30Z</time>
      </trkpt>
      <trkpt lat="51.731563" lon="39.325965">
        <ele>120.655</ele>
        <time>2017-11-11T08:19:35Z</time>
      </trkpt>
      <trkpt lat="51.731528" lon="39.326517">
        <ele>119.151</ele>
        <time>2017-11-11T08:19:41Z</time>
      </trkpt>
      <trkpt lat="51.731483" lon="39.327084">
        <ele>118.098</ele>
        <time>2017-11-11T08:19:47Z</time>
      </trkpt>
      <trkpt lat="51.731435" lon="39.327567">
        <ele>117.688</ele>
        <time>2017-11-11T08:19:52Z</time>
      </trkpt>
      <trkpt lat="51.731395" lon="39.327854">
        <ele>117.352</ele>
        <time>2017-11-11T08:19:55Z</time>
      </trkpt>
      <trkpt lat="51.731274" lon="39.328403">
        <ele>116.168</ele>
        <time>2017-11-11T08:20:01Z</time>
      </trkpt>
      <trkpt lat="51.731176" lon="39.328679">
        <ele>115.55</ele>
        <time>2017-11-11T08:20:05Z</time>
      </trkpt>
      <trkpt lat="51.731176" lon="39.328679">
        <time>2017-11-11T08:20:10Z</time>
      </trkpt>
    </trkseg>
    <trkseg>
      <trkpt lat="51.731176" lon="39.328679">
        <time>2017-11-11T08:21:13Z</time>
      </trkpt>
      <trkpt lat="51.731047" lon="39.328879">
        <ele>115.412</ele>
        <time>2017-11-11T08:21:13Z</time>
      </trkpt>
      <trkpt lat="51.73078" lon="39.329271">
        <ele>119.911</ele>
        <time>2017-11-11T08:21:23Z</time>
      </trkpt>
      <trkpt lat="51.730503" lon="39.329641">
        <ele>121.237</ele>
        <time>2017-11-11T08:21:29Z</time>
      </trkpt>
      <trkpt lat="51.730206" lon="39.330191">
        <ele>117.901</ele>
        <time>2017-11-11T08:21:36Z</time>
      </trkpt>
      <trkpt lat="51.730072" lon="39.330628">
        <ele>115.274</ele>
        <time>2017-11-11T08:21:41Z</time>
      </trkpt>
      <trkpt lat="51.729923" lon="39.331165">
        <ele>113.468</ele>
        <time>2017-11-11T08:21:47Z</time>
      </trkpt>
      <trkpt lat="51.729865" lon="39.331436">
        <ele>113.151</ele>
        <time>2017-11-11T08:21:50Z</time>
      </trkpt>
      <trkpt lat="51.729753" lon="39.331986">
        <ele>112.475</ele>
        <time>2017-11-11T08:21:56Z</time>
      </trkpt>
      <trkpt lat="51.729707" lon="39.332578">
        <ele>111.356</ele>
        <time>2017-11-11T08:22:02Z</time>
      </trkpt>
      <trkpt lat="51.72974" lon="39.33313">
        <ele>110.115</ele>
        <time>2017-11-11T08:22:08Z</time>
      </trkpt>
      <trkpt lat="51.729761" lon="39.333496">
        <ele>109.528</ele>
        <time>2017-11-11T08:22:12Z</time>
      </trkpt>
      <trkpt lat="51.729793" lon="39.333871">
        <ele>109.644</ele>
        <time>2017-11-11T08:22:16Z</time>
      </trkpt>
      <trkpt lat="51.729829" lon="39.334357">
        <ele>110.956</ele>
        <time>2017-11-11T08:22:21Z</time>
      </trkpt>
      <trkpt lat="51.729838" lon="39.334998">
        <ele>112.09</ele>
        <time>2017-11-11T08:22:27Z</time>
      </trkpt>
      <trkpt lat="51.729779" lon="39.335614">
        <ele>111.39</ele>
        <time>2017-11-11T08:22:33Z</time>
      </trkpt>
      <trkpt lat="51.729607" lon="39.336097">
        <ele>110.803</ele>
        <time>2017-11-11T08:22:39Z</time>
      </trkpt>
      <trkpt lat="51.729442" lon="39.336578">
        <ele>113.293</ele>
        <time>2017-11-11T08:22:45Z</time>
      </trkpt>
      <trkpt lat="51.72929" lon="39.337011">
        <ele>116.757</ele>
        <time>2017-11-11T08:22:50Z</time>
      </trkpt>
      <trkpt lat="51.729196" lon="39.337538">
        <ele>121.206</ele>
        <time>2017-11-11T08:22:56Z</time>
      </trkpt>
      <trkpt lat="51.729178" lon="39.338152">
        <ele>122.867</ele>
        <time>2017-11-11T08:23:02Z</time>
      </trkpt>
      <trkpt lat="51.729172" lon="39.338749">
        <ele>119.896</ele>
        <time>2017-11-11T08:23:08Z</time>
      </trkpt>
      <trkpt lat="51.729178" lon="39.339241">
        <ele>116.241</ele>
        <time>2017-11-11T08:23:13Z</time>
      </trkpt>
      <trkpt lat="51.729207" lon="39.339738">
        <ele>113.452</ele>
        <time>2017-11-11T08:23:18Z</time>
      </trkpt>
      <trkpt lat="51.729222" lon="39.340029">
        <ele>112.447</ele>
        <time>2017-11-11T08:23:21Z</time>
      </trkpt>
      <trkpt lat="51.729243" lon="39.340316">
        <ele>112.196</ele>
        <time>2017-11-11T08:23:24Z</time>
      </trkpt>
      <trkpt lat="51.729268" lon="39.3406">
        <ele>111.992</ele>
        <time>2017-11-11T08:23:27Z</time>
      </trkpt>
      <trkpt lat="51.729319" lon="39.341121">
        <ele>113.689</ele>
        <time>2017-11-11T08:23:33Z</time>
      </trkpt>
      <trkpt lat="51.729364" lon="39.341687">
        <ele>116.708</ele>
        <time>2017-11-11T08:23:39Z</time>
      </trkpt>
      <trkpt lat="51.729396" lon="39.342141">
        <ele>119.376</ele>
        <time>2017-11-11T08:23:44Z</time>
      </trkpt>
      <trkpt lat="51.729425" lon="39.342628">
        <ele>123.047</ele>
        <time>2017-11-11T08:23:49Z</time>
      </trkpt>
      <trkpt lat="51.72948" lon="39.343109">
        <ele>125.967</ele>
        <time>2017-11-11T08:23:54Z</time>
      </trkpt>
      <trkpt lat="51.729545" lon="39.343667">
        <ele>127.798</ele>
        <time>2017-11-11T08:24:00Z</time>
      </trkpt>
      <trkpt lat="51.729606" lon="39.344154">
        <ele>129.903</ele>
        <time>2017-11-11T08:24:06Z</time>
      </trkpt>
      <trkpt lat="51.729657" lon="39.344707">
        <ele>131.941</ele>
        <time>2017-11-11T08:24:12Z</time>
      </trkpt>
      <trkpt lat="51.729692" lon="39.345201">
        <ele>132.991</ele>
        <time>2017-11-11T08:24:17Z</time>
      </trkpt>
      <trkpt lat="51.729728" lon="39.345629">
        <ele>133.848</ele>
        <time>2017-11-11T08:24:22Z</time>
      </trkpt>
      <trkpt lat="51.729777" lon="39.346235">
        <ele>135.034</ele>
        <time>2017-11-11T08:24:28Z</time>
      </trkpt>
      <trkpt lat="51.729808" lon="39.346738">
        <ele>135.829</ele>
        <time>2017-11-11T08:24:33Z</time>
      </trkpt>
      <trkpt lat="51.729854" lon="39.347351">
        <ele>136.205</ele>
        <time>2017-11-11T08:24:39Z</time>
      </trkpt>
      <trkpt lat="51.729865" lon="39.347581">
        <ele>136.072</ele>
        <time>2017-11-11T08:24:42Z</time>
      </trkpt>
      <trkpt lat="51.729947" lon="39.348006">
        <ele>136.081</ele>
        <time>2017-11-11T08:24:47Z</time>
      </trkpt>
      <trkpt lat="51.730093" lon="39.348419">
        <ele>138.416</ele>
        <time>2017-11-11T08:24:52Z</time>
      </trkpt>
      <trkpt lat="51.730332" lon="39.34897">
        <ele>139.633</ele>
        <time>2017-11-11T08:24:59Z</time>
      </trkpt>
      <trkpt lat="51.73051" lon="39.349292">
        <ele>137.887</ele>
        <time>2017-11-11T08:25:04Z</time>
      </trkpt>
      <trkpt lat="51.7308" lon="39.349589">
        <ele>135.901</ele>
        <time>2017-11-11T08:25:10Z</time>
      </trkpt>
      <trkpt lat="51.731122" lon="39.349828">
        <ele>132.769</ele>
        <time>2017-11-11T08:25:16Z</time>
      </trkpt>
      <trkpt lat="51.731407" lon="39.349916">
        <ele>130.266</ele>
        <time>2017-11-11T08:25:21Z</time>
      </trkpt>
      <trkpt lat="51.731787" lon="39.349962">
        <ele>127.166</ele>
        <time>2017-11-11T08:25:27Z</time>
      </trkpt>
      <trkpt lat="51.731962" lon="39.350127">
        <ele>126.167</ele>
        <time>2017-11-11T08:25:30Z</time>
      </trkpt>
      <trkpt lat="51.732125" lon="39.350493">
        <ele>126.609</ele>
        <time>2017-11-11T08:25:34Z</time>
      </trkpt>
      <trkpt lat="51.732259" lon="39.351099">
        <ele>127.743</ele>
        <time>2017-11-11T08:25:40Z</time>
      </trkpt>
      <trkpt lat="51.732382" lon="39.351704">
        <ele>126.94</ele>
        <time>2017-11-11T08:25:46Z</time>
      </trkpt>
      <trkpt lat="51.732438" lon="39.351997">
        <ele>126.68</ele>
        <time>2017-11-11T08:25:49Z</time>
      </trkpt>
      <trkpt lat="51.732541" lon="39.35251">
        <ele>125.798</ele>
        <time>2017-11-11T08:25:54Z</time>
      </trkpt>
      <trkpt lat="51.732644" lon="39.352987">
        <ele>125.309</ele>
        <time>2017-11-11T08:25:59Z</time>
      </trkpt>
      <trkpt lat="51.732755" lon="39.353541">
        <ele>125.834</ele>
        <time>2017-11-11T08:26:05Z</time>
      </trkpt>
      <trkpt lat="51.732848" lon="39.354097">
        <ele>127.007</ele>
        <time>2017-11-11T08:26:11Z</time>
      </trkpt>
      <trkpt lat="51.732882" lon="39.354371">
        <ele>127.51</ele>
        <time>2017-11-11T08:26:14Z</time>
      </trkpt>
      <trkpt lat="51.73292" lon="39.354664">
        <ele>127.675</ele>
        <time>2017-11-11T08:26:17Z</time>
      </trkpt>
      <trkpt lat="51.733001" lon="39.355148">
        <ele>128.37</ele>
        <time>2017-11-11T08:26:22Z</time>
      </trkpt>
      <trkpt lat="51.733094" lon="39.355769">
        <ele>130.084</ele>
        <time>2017-11-11T08:26:29Z</time>
      </trkpt>
      <trkpt lat="51.733164" lon="39.356245">
        <ele>130.028</ele>
        <time>2017-11-11T08:26:34Z</time>
      </trkpt>
      <trkpt lat="51.7332" lon="39.356538">
        <ele>129.326</ele>
        <time>2017-11-11T08:26:37Z</time>
      </trkpt>
      <trkpt lat="51.733239" lon="39.357003">
        <ele>128.147</ele>
        <time>2017-11-11T08:26:42Z</time>
      </trkpt>
      <trkpt lat="51.733317" lon="39.357463">
        <ele>128.986</ele>
        <time>2017-11-11T08:26:47Z</time>
      </trkpt>
      <trkpt lat="51.733407" lon="39.358019">
        <ele>130.24</ele>
        <time>2017-11-11T08:26:53Z</time>
      </trkpt>
      <trkpt lat="51.733459" lon="39.358284">
        <ele>130.941</ele>
        <time>2017-11-11T08:26:56Z</time>
      </trkpt>
      <trkpt lat="51.733568" lon="39.358726">
        <ele>131.255</ele>
        <time>2017-11-11T08:27:01Z</time>
      </trkpt>
      <trkpt lat="51.733515" lon="39.359206">
        <ele>129.479</ele>
        <time>2017-11-11T08:27:07Z</time>
      </trkpt>
      <trkpt lat="51.733287" lon="39.359558">
        <ele>125.646</ele>
        <time>2017-11-11T08:27:12Z</time>
      </trkpt>
      <trkpt lat="51.733047" lon="39.35991">
        <ele>121.147</ele>
        <time>2017-11-11T08:27:17Z</time>
      </trkpt>
      <trkpt lat="51.732755" lon="39.360332">
        <ele>115.895</ele>
        <time>2017-11-11T08:27:23Z</time>
      </trkpt>
      <trkpt lat="51.732458" lon="39.360877">
        <ele>112.305</ele>
        <time>2017-11-11T08:27:30Z</time>
      </trkpt>
      <trkpt lat="51.732297" lon="39.361266">
        <ele>111.682</ele>
        <time>2017-11-11T08:27:35Z</time>
      </trkpt>
      <trkpt lat="51.732111" lon="39.361744">
        <ele>110.947</ele>
        <time>2017-11-11T08:27:41Z</time>
      </trkpt>
      <trkpt lat="51.731888" lon="39.362086">
        <ele>110.005</ele>
        <time>2017-11-11T08:27:45Z</time>
      </trkpt>
      <trkpt lat="51.731707" lon="39.362257">
        <ele>109.294</ele>
        <time>2017-11-11T08:27:48Z</time>
      </trkpt>
      <trkpt lat="51.731546" lon="39.362382">
        <ele>109.061</ele>
        <time>2017-11-11T08:27:51Z</time>
      </trkpt>
      <trkpt lat="51.731392" lon="39.362492">
        <ele>108.898</ele>
        <time>2017-11-11T08:27:54Z</time>
      </trkpt>
      <trkpt lat="51.73123" lon="39.362611">
        <ele>108.578</ele>
        <time>2017-11-11T08:27:57Z</time>
      </trkpt>
      <trkpt lat="51.730869" lon="39.362872">
        <ele>107.289</ele>
        <time>2017-11-11T08:28:03Z</time>
      </trkpt>
      <trkpt lat="51.730592" lon="39.363085">
        <ele>106.894</ele>
        <time>2017-11-11T08:28:08Z</time>
      </trkpt>
      <trkpt lat="51.730373" lon="39.363356">
        <ele>106.463</ele>
        <time>2017-11-11T08:28:13Z</time>
      </trkpt>
      <trkpt lat="51.73016" lon="39.363774">
        <ele>107.303</ele>
        <time>2017-11-11T08:28:19Z</time>
      </trkpt>
      <trkpt lat="51.729908" lon="39.36421">
        <ele>108.046</ele>
        <time>2017-11-11T08:28:25Z</time>
      </trkpt>
      <trkpt lat="51.729679" lon="39.364632">
        <ele>108.05</ele>
        <time>2017-11-11T08:28:31Z</time>
      </trkpt>
      <trkpt lat="51.729488" lon="39.365019">
        <ele>107.487</ele>
        <time>2017-11-11T08:28:36Z</time>
      </trkpt>
      <trkpt lat="51.729315" lon="39.365459">
        <ele>107.334</ele>
        <time>2017-11-11T08:28:42Z</time>
      </trkpt>
      <trkpt lat="51.729199" lon="39.365781">
        <ele>107.52</ele>
        <time>2017-11-11T08:28:46Z</time>
      </trkpt>
      <trkpt lat="51.729052" lon="39.366163">
        <ele>107.903</ele>
        <time>2017-11-11T08:28:51Z</time>
      </trkpt>
      <trkpt lat="51.728897" lon="39.366536">
        <ele>108.733</ele>
        <time>2017-11-11T08:28:56Z</time>
      </trkpt>
      <trkpt lat="51.728653" lon="39.36689">
        <ele>109.945</ele>
        <time>2017-11-11T08:29:02Z</time>
      </trkpt>
      <trkpt lat="51.728333" lon="39.367017">
        <ele>113.248</ele>
        <time>2017-11-11T08:29:08Z</time>
      </trkpt>
      <trkpt lat="51.728022" lon="39.367097">
        <ele>116.267</ele>
        <time>2017-11-11T08:29:14Z</time>
      </trkpt>
      <trkpt lat="51.727729" lon="39.367126">
        <ele>119.092</ele>
        <time>2017-11-11T08:29:19Z</time>
      </trkpt>
      <trkpt lat="51.727358" lon="39.36714">
        <ele>122.331</ele>
        <time>2017-11-11T08:29:25Z</time>
      </trkpt>
      <trkpt lat="51.727" lon="39.367142">
        <ele>125.373</ele>
        <time>2017-11-11T08:29:31Z</time>
      </trkpt>
      <trkpt lat="51.726655" lon="39.367129">
        <ele>127.013</ele>
        <time>2017-11-11T08:29:37Z</time>
      </trkpt>
      <trkpt lat="51.726348" lon="39.367125">
        <ele>128.07</ele>
        <time>2017-11-11T08:29:43Z</time>
      </trkpt>
      <trkpt lat="51.726002" lon="39.367114">
        <ele>128.069</ele>
        <time>2017-11-11T08:29:49Z</time>
      </trkpt>
      <trkpt lat="51.72583" lon="39.3672">
        <ele>128.751</ele>
        <time>2017-11-11T08:29:52Z</time>
      </trkpt>
      <trkpt lat="51.725777" lon="39.3675">
        <ele>131.336</ele>
        <time>2017-11-11T08:29:57Z</time>
      </trkpt>
      <trkpt lat="51.725819" lon="39.367966">
        <ele>132.579</ele>
        <time>2017-11-11T08:30:03Z</time>
      </trkpt>
      <trkpt lat="51.725836" lon="39.368495">
        <ele>132.698</ele>
        <time>2017-11-11T08:30:09Z</time>
      </trkpt>
      <trkpt lat="51.725828" lon="39.368955">
        <ele>132.74</ele>
        <time>2017-11-11T08:30:15Z</time>
      </trkpt>
      <trkpt lat="51.72582" lon="39.369368">
        <ele>132.53</ele>
        <time>2017-11-11T08:30:20Z</time>
      </trkpt>
      <trkpt lat="51.72585" lon="39.369882">
        <ele>133.521</ele>
        <time>2017-11-11T08:30:27Z</time>
      </trkpt>
      <trkpt lat="51.725825" lon="39.370383">
        <ele>135.198</ele>
        <time>2017-11-11T08:30:33Z</time>
      </trkpt>
      <trkpt lat="51.725822" lon="39.370621">
        <ele>135.593</ele>
        <time>2017-11-11T08:30:36Z</time>
      </trkpt>
      <trkpt lat="51.725825" lon="39.371137">
        <ele>135.407</ele>
        <time>2017-11-11T08:30:42Z</time>
      </trkpt>
      <trkpt lat="51.725819" lon="39.371644">
        <ele>135.959</ele>
        <time>2017-11-11T08:30:48Z</time>
      </trkpt>
      <trkpt lat="51.725801" lon="39.372094">
        <ele>136.996</ele>
        <time>2017-11-11T08:30:54Z</time>
      </trkpt>
      <trkpt lat="51.725792" lon="39.372488">
        <ele>137.706</ele>
        <time>2017-11-11T08:30:59Z</time>
      </trkpt>
      <trkpt lat="51.725768" lon="39.37298">
        <ele>138.583</ele>
        <time>2017-11-11T08:31:05Z</time>
      </trkpt>
      <trkpt lat="51.725752" lon="39.37341">
        <ele>139.204</ele>
        <time>2017-11-11T08:31:10Z</time>
      </trkpt>
      <trkpt lat="51.725762" lon="39.373925">
        <ele>138.552</ele>
        <time>2017-11-11T08:31:16Z</time>
      </trkpt>
      <trkpt lat="51.725762" lon="39.374277">
        <ele>138.863</ele>
        <time>2017-11-11T08:31:21Z</time>
      </trkpt>
      <trkpt lat="51.725756" lon="39.374923">
        <ele>142.105</ele>
        <time>2017-11-11T08:31:28Z</time>
      </trkpt>
      <trkpt lat="51.725757" lon="39.375264">
        <ele>143.763</ele>
        <time>2017-11-11T08:31:32Z</time>
      </trkpt>
      <trkpt lat="51.725786" lon="39.375758">
        <ele>147.047</ele>
        <time>2017-11-11T08:31:38Z</time>
      </trkpt>
      <trkpt lat="51.725769" lon="39.376202">
        <ele>148.183</ele>
        <time>2017-11-11T08:31:44Z</time>
      </trkpt>
      <trkpt lat="51.725749" lon="39.37675">
        <ele>154.694</ele>
        <time>2017-11-11T08:31:51Z</time>
      </trkpt>
      <trkpt lat="51.725765" lon="39.37742">
        <ele>159.003</ele>
        <time>2017-11-11T08:31:58Z</time>
      </trkpt>
      <trkpt lat="51.725788" lon="39.377917">
        <ele>160.17</ele>
        <time>2017-11-11T08:32:03Z</time>
      </trkpt>
      <trkpt lat="51.725815" lon="39.378466">
        <ele>159.611</ele>
        <time>2017-11-11T08:32:09Z</time>
      </trkpt>
      <trkpt lat="51.725801" lon="39.37894">
        <ele>157.333</ele>
        <time>2017-11-11T08:32:15Z</time>
      </trkpt>
      <trkpt lat="51.725779" lon="39.379496">
        <ele>156.121</ele>
        <time>2017-11-11T08:32:21Z</time>
      </trkpt>
      <trkpt lat="51.725765" lon="39.379918">
        <ele>154.804</ele>
        <time>2017-11-11T08:32:26Z</time>
      </trkpt>
      <trkpt lat="51.725768" lon="39.380397">
        <ele>155.573</ele>
        <time>2017-11-11T08:32:32Z</time>
      </trkpt>
      <trkpt lat="51.725776" lon="39.380835">
        <ele>157.664</ele>
        <time>2017-11-11T08:32:37Z</time>
      </trkpt>
      <trkpt lat="51.725786" lon="39.381101">
        <ele>158.913</ele>
        <time>2017-11-11T08:32:40Z</time>
      </trkpt>
      <trkpt lat="51.725815" lon="39.381585">
        <ele>159.862</ele>
        <time>2017-11-11T08:32:45Z</time>
      </trkpt>
      <trkpt lat="51.725814" lon="39.381858">
        <ele>159.885</ele>
        <time>2017-11-11T08:32:48Z</time>
      </trkpt>
      <trkpt lat="51.725821" lon="39.382337">
        <ele>161.409</ele>
        <time>2017-11-11T08:32:54Z</time>
      </trkpt>
      <trkpt lat="51.725833" lon="39.382599">
        <ele>161.784</ele>
        <time>2017-11-11T08:32:57Z</time>
      </trkpt>
      <trkpt lat="51.725826" lon="39.382998">
        <ele>161.901</ele>
        <time>2017-11-11T08:33:02Z</time>
      </trkpt>
      <trkpt lat="51.725832" lon="39.383271">
        <ele>162.554</ele>
        <time>2017-11-11T08:33:06Z</time>
      </trkpt>
      <trkpt lat="51.725847" lon="39.38365">
        <ele>164.635</ele>
        <time>2017-11-11T08:33:10Z</time>
      </trkpt>
      <trkpt lat="51.725848" lon="39.383906">
        <ele>165.495</ele>
        <time>2017-11-11T08:33:13Z</time>
      </trkpt>
      <trkpt lat="51.725822" lon="39.384373">
        <ele>168.036</ele>
        <time>2017-11-11T08:33:18Z</time>
      </trkpt>
      <trkpt lat="51.725772" lon="39.384948">
        <ele>164.836</ele>
        <time>2017-11-11T08:33:24Z</time>
      </trkpt>
      <trkpt lat="51.725773" lon="39.385369">
        <ele>162.439</ele>
        <time>2017-11-11T08:33:29Z</time>
      </trkpt>
      <trkpt lat="51.72577" lon="39.385912">
        <ele>159.852</ele>
        <time>2017-11-11T08:33:35Z</time>
      </trkpt>
      <trkpt lat="51.725761" lon="39.386501">
        <ele>157.719</ele>
        <time>2017-11-11T08:33:42Z</time>
      </trkpt>
      <trkpt lat="51.725764" lon="39.387065">
        <ele>156.419</ele>
        <time>2017-11-11T08:33:48Z</time>
      </trkpt>
      <trkpt lat="51.725733" lon="39.387489">
        <ele>154.723</ele>
        <time>2017-11-11T08:33:53Z</time>
      </trkpt>
      <trkpt lat="51.725744" lon="39.388037">
        <ele>152.805</ele>
        <time>2017-11-11T08:33:59Z</time>
      </trkpt>
      <trkpt lat="51.725702" lon="39.388437">
        <ele>152.134</ele>
        <time>2017-11-11T08:34:04Z</time>
      </trkpt>
      <trkpt lat="51.725624" lon="39.388878">
        <ele>152.573</ele>
        <time>2017-11-11T08:34:12Z</time>
      </trkpt>
      <trkpt lat="51.725594" lon="39.38915">
        <ele>153.343</ele>
        <time>2017-11-11T08:34:17Z</time>
      </trkpt>
      <trkpt lat="51.725517" lon="39.389487">
        <ele>153.998</ele>
        <time>2017-11-11T08:34:22Z</time>
      </trkpt>
      <trkpt lat="51.725309" lon="39.389833">
        <ele>154.763</ele>
        <time>2017-11-11T08:34:29Z</time>
      </trkpt>
      <trkpt lat="51.72495" lon="39.390087">
        <ele>155.079</ele>
        <time>2017-11-11T08:34:35Z</time>
      </trkpt>
      <trkpt lat="51.724688" lon="39.390385">
        <ele>149.778</ele>
        <time>2017-11-11T08:34:41Z</time>
      </trkpt>
      <trkpt lat="51.724561" lon="39.39052">
        <ele>145.051</ele>
        <time>2017-11-11T08:34:44Z</time>
      </trkpt>
      <trkpt lat="51.724329" lon="39.390696">
        <ele>138.768</ele>
        <time>2017-11-11T08:34:49Z</time>
      </trkpt>
      <trkpt lat="51.724099" lon="39.390975">
        <ele>136.534</ele>
        <time>2017-11-11T08:34:55Z</time>
      </trkpt>
      <trkpt lat="51.723942" lon="39.391181">
        <ele>136.53</ele>
        <time>2017-11-11T08:35:00Z</time>
      </trkpt>
      <trkpt lat="51.723695" lon="39.391454">
        <ele>136.388</ele>
        <time>2017-11-11T08:35:06Z</time>
      </trkpt>
      <trkpt lat="51.72346" lon="39.391647">
        <ele>135.462</ele>
        <time>2017-11-11T08:35:11Z</time>
      </trkpt>
      <trkpt lat="51.723171" lon="39.391928">
        <ele>138.228</ele>
        <time>2017-11-11T08:35:18Z</time>
      </trkpt>
      <trkpt lat="51.722938" lon="39.392143">
        <ele>138.146</ele>
        <time>2017-11-11T08:35:23Z</time>
      </trkpt>
      <trkpt lat="51.722739" lon="39.392422">
        <ele>135.554</ele>
        <time>2017-11-11T08:35:29Z</time>
      </trkpt>
      <trkpt lat="51.722599" lon="39.392594">
        <ele>135.672</ele>
        <time>2017-11-11T08:35:34Z</time>
      </trkpt>
      <trkpt lat="51.722658" lon="39.39297">
        <ele>134.729</ele>
        <time>2017-11-11T08:35:42Z</time>
      </trkpt>
      <trkpt lat="51.722914" lon="39.393553">
        <ele>134.46</ele>
        <time>2017-11-11T08:35:48Z</time>
      </trkpt>
      <trkpt lat="51.723137" lon="39.394097">
        <ele>136.646</ele>
        <time>2017-11-11T08:35:54Z</time>
      </trkpt>
      <trkpt lat="51.723301" lon="39.394599">
        <ele>140.11</ele>
        <time>2017-11-11T08:36:00Z</time>
      </trkpt>
      <trkpt lat="51.723444" lon="39.394986">
        <ele>144.666</ele>
        <time>2017-11-11T08:36:06Z</time>
      </trkpt>
      <trkpt lat="51.723646" lon="39.39545">
        <ele>147.309</ele>
        <time>2017-11-11T08:36:12Z</time>
      </trkpt>
      <trkpt lat="51.723499" lon="39.395933">
        <ele>145.762</ele>
        <time>2017-11-11T08:36:18Z</time>
      </trkpt>
      <trkpt lat="51.723173" lon="39.396151">
        <ele>140.345</ele>
        <time>2017-11-11T08:36:24Z</time>
      </trkpt>
      <trkpt lat="51.722942" lon="39.396407">
        <ele>137.847</ele>
        <time>2017-11-11T08:36:29Z</time>
      </trkpt>
      <trkpt lat="51.722817" lon="39.396522">
        <ele>137.522</ele>
        <time>2017-11-11T08:36:32Z</time>
      </trkpt>
      <trkpt lat="51.72273" lon="39.396729">
        <ele>137.576</ele>
        <time>2017-11-11T08:36:38Z</time>
      </trkpt>
      <trkpt lat="51.722756" lon="39.397031">
        <ele>138.799</ele>
        <time>2017-11-11T08:36:43Z</time>
      </trkpt>
      <trkpt lat="51.722957" lon="39.397545">
        <ele>144.492</ele>
        <time>2017-11-11T08:36:49Z</time>
      </trkpt>
      <trkpt lat="51.723142" lon="39.398018">
        <ele>151.189</ele>
        <time>2017-11-11T08:36:54Z</time>
      </trkpt>
      <trkpt lat="51.723263" lon="39.398349">
        <ele>153.503</ele>
        <time>2017-11-11T08:36:59Z</time>
      </trkpt>
      <trkpt lat="51.723414" lon="39.398873">
        <ele>157.791</ele>
        <time>2017-11-11T08:37:05Z</time>
      </trkpt>
      <trkpt lat="51.723475" lon="39.399096">
        <ele>159.677</ele>
        <time>2017-11-11T08:37:08Z</time>
      </trkpt>
      <trkpt lat="51.723554" lon="39.399466">
        <ele>162.586</ele>
        <time>2017-11-11T08:37:13Z</time>
      </trkpt>
      <trkpt lat="51.723648" lon="39.399924">
        <ele>161.437</ele>
        <time>2017-11-11T08:37:18Z</time>
      </trkpt>
      <trkpt lat="51.723795" lon="39.400473">
        <ele>159.77</ele>
        <time>2017-11-11T08:37:24Z</time>
      </trkpt>
      <trkpt lat="51.723887" lon="39.400754">
        <ele>158.809</ele>
        <time>2017-11-11T08:37:27Z</time>
      </trkpt>
      <trkpt lat="51.72398" lon="39.401145">
        <ele>158.838</ele>
        <time>2017-11-11T08:37:33Z</time>
      </trkpt>
      <trkpt lat="51.724113" lon="39.401519">
        <ele>158.735</ele>
        <time>2017-11-11T08:37:39Z</time>
      </trkpt>
      <trkpt lat="51.724234" lon="39.401844">
        <ele>158.18</ele>
        <time>2017-11-11T08:37:44Z</time>
      </trkpt>
      <trkpt lat="51.724424" lon="39.402318">
        <ele>160.874</ele>
        <time>2017-11-11T08:37:49Z</time>
      </trkpt>
      <trkpt lat="51.724553" lon="39.402705">
        <ele>162.22</ele>
        <time>2017-11-11T08:37:54Z</time>
      </trkpt>
      <trkpt lat="51.724724" lon="39.403243">
        <ele>165.685</ele>
        <time>2017-11-11T08:38:00Z</time>
      </trkpt>
      <trkpt lat="51.7248" lon="39.403487">
        <ele>166.883</ele>
        <time>2017-11-11T08:38:03Z</time>
      </trkpt>
      <trkpt lat="51.724955" lon="39.403924">
        <ele>171.304</ele>
        <time>2017-11-11T08:38:09Z</time>
      </trkpt>
      <trkpt lat="51.72508" lon="39.404279">
        <ele>171.928</ele>
        <time>2017-11-11T08:38:13Z</time>
      </trkpt>
      <trkpt lat="51.725223" lon="39.404633">
        <ele>172.865</ele>
        <time>2017-11-11T08:38:17Z</time>
      </trkpt>
      <trkpt lat="51.725311" lon="39.404858">
        <ele>173.289</ele>
        <time>2017-11-11T08:38:21Z</time>
      </trkpt>
      <trkpt lat="51.72545" lon="39.405227">
        <ele>172.721</ele>
        <time>2017-11-11T08:38:26Z</time>
      </trkpt>
      <trkpt lat="51.725564" lon="39.405755">
        <ele>171.469</ele>
        <time>2017-11-11T08:38:32Z</time>
      </trkpt>
      <trkpt lat="51.725376" lon="39.406368">
        <ele>162.341</ele>
        <time>2017-11-11T08:38:38Z</time>
      </trkpt>
      <trkpt lat="51.725238" lon="39.406834">
        <ele>155.358</ele>
        <time>2017-11-11T08:38:44Z</time>
      </trkpt>
      <trkpt lat="51.725135" lon="39.407006">
        <ele>154.995</ele>
        <time>2017-11-11T08:38:48Z</time>
      </trkpt>
      <trkpt lat="51.725188" lon="39.407217">
        <ele>152.739</ele>
        <time>2017-11-11T08:38:54Z</time>
      </trkpt>
      <trkpt lat="51.725377" lon="39.407384">
        <ele>145.547</ele>
        <time>2017-11-11T08:39:00Z</time>
      </trkpt>
      <trkpt lat="51.725558" lon="39.407487">
        <ele>144.156</ele>
        <time>2017-11-11T08:39:07Z</time>
      </trkpt>
      <trkpt lat="51.725788" lon="39.407573">
        <ele>143.81</ele>
        <time>2017-11-11T08:39:13Z</time>
      </trkpt>
      <trkpt lat="51.726021" lon="39.407717">
        <ele>143.355</ele>
        <time>2017-11-11T08:39:19Z</time>
      </trkpt>
      <trkpt lat="51.726178" lon="39.407933">
        <ele>142.689</ele>
        <time>2017-11-11T08:39:24Z</time>
      </trkpt>
      <trkpt lat="51.72635" lon="39.408139">
        <ele>140.188</ele>
        <time>2017-11-11T08:39:29Z</time>
      </trkpt>
      <trkpt lat="51.726507" lon="39.40838">
        <ele>136.134</ele>
        <time>2017-11-11T08:39:34Z</time>
      </trkpt>
      <trkpt lat="51.726652" lon="39.408651">
        <ele>135.486</ele>
        <time>2017-11-11T08:39:39Z</time>
      </trkpt>
      <trkpt lat="51.72678" lon="39.408983">
        <ele>135.609</ele>
        <time>2017-11-11T08:39:45Z</time>
      </trkpt>
      <trkpt lat="51.726903" lon="39.409426">
        <ele>135.977</ele>
        <time>2017-11-11T08:39:51Z</time>
      </trkpt>
      <trkpt lat="51.727029" lon="39.409826">
        <ele>139.231</ele>
        <time>2017-11-11T08:39:57Z</time>
      </trkpt>
      <trkpt lat="51.727189" lon="39.410204">
        <ele>142.401</ele>
        <time>2017-11-11T08:40:03Z</time>
      </trkpt>
      <trkpt lat="51.727318" lon="39.41064">
        <ele>143.705</ele>
        <time>2017-11-11T08:40:09Z</time>
      </trkpt>
      <trkpt lat="51.727444" lon="39.410975">
        <ele>144.021</ele>
        <time>2017-11-11T08:40:15Z</time>
      </trkpt>
      <trkpt lat="51.727556" lon="39.411278">
        <ele>144.297</ele>
        <time>2017-11-11T08:40:20Z</time>
      </trkpt>
      <trkpt lat="51.727656" lon="39.411598">
        <ele>144.246</ele>
        <time>2017-11-11T08:40:25Z</time>
      </trkpt>
      <trkpt lat="51.727719" lon="39.411771">
        <ele>144.147</ele>
        <time>2017-11-11T08:40:28Z</time>
      </trkpt>
      <trkpt lat="51.727834" lon="39.41213">
        <ele>143.892</ele>
        <time>2017-11-11T08:40:33Z</time>
      </trkpt>
      <trkpt lat="51.727935" lon="39.412615">
        <ele>143.535</ele>
        <time>2017-11-11T08:40:40Z</time>
      </trkpt>
      <trkpt lat="51.727999" lon="39.41288">
        <ele>142.402</ele>
        <time>2017-11-11T08:40:45Z</time>
      </trkpt>
      <trkpt lat="51.728105" lon="39.413285">
        <ele>142.204</ele>
        <time>2017-11-11T08:40:51Z</time>
      </trkpt>
      <trkpt lat="51.728154" lon="39.413462">
        <ele>142.056</ele>
        <time>2017-11-11T08:40:54Z</time>
      </trkpt>
      <trkpt lat="51.728226" lon="39.413708">
        <ele>142.133</ele>
        <time>2017-11-11T08:40:58Z</time>
      </trkpt>
      <trkpt lat="51.728289" lon="39.414016">
        <ele>142.296</ele>
        <time>2017-11-11T08:41:03Z</time>
      </trkpt>
      <trkpt lat="51.728359" lon="39.414284">
        <ele>143.232</ele>
        <time>2017-11-11T08:41:07Z</time>
      </trkpt>
      <trkpt lat="51.728409" lon="39.414539">
        <ele>143.63</ele>
        <time>2017-11-11T08:41:11Z</time>
      </trkpt>
      <trkpt lat="51.728515" lon="39.415037">
        <ele>144.035</ele>
        <time>2017-11-11T08:41:18Z</time>
      </trkpt>
      <trkpt lat="51.728597" lon="39.415396">
        <ele>144.304</ele>
        <time>2017-11-11T08:41:23Z</time>
      </trkpt>
      <trkpt lat="51.728667" lon="39.415822">
        <ele>145.927</ele>
        <time>2017-11-11T08:41:29Z</time>
      </trkpt>
      <trkpt lat="51.728714" lon="39.416211">
        <ele>146.497</ele>
        <time>2017-11-11T08:41:35Z</time>
      </trkpt>
      <trkpt lat="51.728764" lon="39.416716">
        <ele>147.93</ele>
        <time>2017-11-11T08:41:42Z</time>
      </trkpt>
      <trkpt lat="51.728822" lon="39.41716">
        <ele>148.785</ele>
        <time>2017-11-11T08:41:49Z</time>
      </trkpt>
      <trkpt lat="51.72887" lon="39.417518">
        <ele>151.205</ele>
        <time>2017-11-11T08:41:54Z</time>
      </trkpt>
      <trkpt lat="51.728981" lon="39.418107">
        <ele>152.984</ele>
        <time>2017-11-11T08:42:03Z</time>
      </trkpt>
      <trkpt lat="51.729159" lon="39.418561">
        <ele>154.167</ele>
        <time>2017-11-11T08:42:10Z</time>
      </trkpt>
      <trkpt lat="51.729251" lon="39.418726">
        <ele>154.358</ele>
        <time>2017-11-11T08:42:13Z</time>
      </trkpt>
      <trkpt lat="51.729348" lon="39.418901">
        <ele>154.551</ele>
        <time>2017-11-11T08:42:16Z</time>
      </trkpt>
      <trkpt lat="51.729434" lon="39.419101">
        <ele>154.221</ele>
        <time>2017-11-11T08:42:19Z</time>
      </trkpt>
      <trkpt lat="51.729546" lon="39.419328">
        <ele>154.442</ele>
        <time>2017-11-11T08:42:23Z</time>
      </trkpt>
      <trkpt lat="51.729693" lon="39.419689">
        <ele>154.238</ele>
        <time>2017-11-11T08:42:29Z</time>
      </trkpt>
      <trkpt lat="51.729828" lon="39.420015">
        <ele>153.943</ele>
        <time>2017-11-11T08:42:35Z</time>
      </trkpt>
      <trkpt lat="51.729933" lon="39.42034">
        <ele>153.947</ele>
        <time>2017-11-11T08:42:41Z</time>
      </trkpt>
      <trkpt lat="51.730008" lon="39.420734">
        <ele>154.815</ele>
        <time>2017-11-11T08:42:46Z</time>
      </trkpt>
      <trkpt lat="51.730108" lon="39.421208">
        <ele>156.533</ele>
        <time>2017-11-11T08:42:53Z</time>
      </trkpt>
      <trkpt lat="51.730251" lon="39.421641">
        <ele>162.897</ele>
        <time>2017-11-11T08:42:59Z</time>
      </trkpt>
      <trkpt lat="51.730398" lon="39.422059">
        <ele>162.283</ele>
        <time>2017-11-11T08:43:06Z</time>
      </trkpt>
      <trkpt lat="51.73059" lon="39.422558">
        <ele>163.308</ele>
        <time>2017-11-11T08:43:14Z</time>
      </trkpt>
      <trkpt lat="51.730782" lon="39.42285">
        <ele>165.659</ele>
        <time>2017-11-11T08:43:20Z</time>
      </trkpt>
      <trkpt lat="51.730925" lon="39.423153">
        <ele>165.32</ele>
        <time>2017-11-11T08:43:25Z</time>
      </trkpt>
      <trkpt lat="51.731058" lon="39.423302">
        <ele>164.385</ele>
        <time>2017-11-11T08:43:28Z</time>
      </trkpt>
      <trkpt lat="51.731267" lon="39.423582">
        <ele>161.143</ele>
        <time>2017-11-11T08:43:33Z</time>
      </trkpt>
      <trkpt lat="51.731412" lon="39.424013">
        <ele>155.239</ele>
        <time>2017-11-11T08:43:39Z</time>
      </trkpt>
      <trkpt lat="51.731525" lon="39.424443">
        <ele>153.639</ele>
        <time>2017-11-11T08:43:44Z</time>
      </trkpt>
      <trkpt lat="51.73159" lon="39.424675">
        <ele>153.468</ele>
        <time>2017-11-11T08:43:47Z</time>
      </trkpt>
      <trkpt lat="51.731693" lon="39.425046">
        <ele>154.779</ele>
        <time>2017-11-11T08:43:52Z</time>
      </trkpt>
      <trkpt lat="51.731803" lon="39.425692">
        <ele>155.928</ele>
        <time>2017-11-11T08:44:00Z</time>
      </trkpt>
      <trkpt lat="51.731881" lon="39.42606">
        <ele>155.469</ele>
        <time>2017-11-11T08:44:06Z</time>
      </trkpt>
      <trkpt lat="51.731951" lon="39.42643">
        <ele>155.853</ele>
        <time>2017-11-11T08:44:10Z</time>
      </trkpt>
      <trkpt lat="51.732027" lon="39.426771">
        <ele>157.161</ele>
        <time>2017-11-11T08:44:14Z</time>
      </trkpt>
      <trkpt lat="51.732154" lon="39.427198">
        <ele>161.516</ele>
        <time>2017-11-11T08:44:20Z</time>
      </trkpt>
      <trkpt lat="51.732258" lon="39.427667">
        <ele>163.633</ele>
        <time>2017-11-11T08:44:25Z</time>
      </trkpt>
      <trkpt lat="51.732371" lon="39.428189">
        <ele>165.473</ele>
        <time>2017-11-11T08:44:31Z</time>
      </trkpt>
      <trkpt lat="51.732453" lon="39.42859">
        <ele>164.811</ele>
        <time>2017-11-11T08:44:36Z</time>
      </trkpt>
      <trkpt lat="51.732552" lon="39.428986">
        <ele>163.957</ele>
        <time>2017-11-11T08:44:41Z</time>
      </trkpt>
      <trkpt lat="51.732664" lon="39.429456">
        <ele>164.993</ele>
        <time>2017-11-11T08:44:47Z</time>
      </trkpt>
      <trkpt lat="51.73274" lon="39.429834">
        <ele>165.6</ele>
        <time>2017-11-11T08:44:52Z</time>
      </trkpt>
      <trkpt lat="51.732842" lon="39.430296">
        <ele>163.668</ele>
        <time>2017-11-11T08:44:58Z</time>
      </trkpt>
      <trkpt lat="51.732931" lon="39.430666">
        <ele>163.411</ele>
        <time>2017-11-11T08:45:03Z</time>
      </trkpt>
      <trkpt lat="51.732951" lon="39.431079">
        <ele>163.621</ele>
        <time>2017-11-11T08:45:09Z</time>
      </trkpt>
      <trkpt lat="51.732994" lon="39.43158">
        <ele>165.233</ele>
        <time>2017-11-11T08:45:15Z</time>
      </trkpt>
      <trkpt lat="51.732919" lon="39.43203">
        <ele>167.099</ele>
        <time>2017-11-11T08:45:20Z</time>
      </trkpt>
      <trkpt lat="51.732886" lon="39.432382">
        <ele>167.277</ele>
        <time>2017-11-11T08:45:26Z</time>
      </trkpt>
      <trkpt lat="51.732878" lon="39.432736">
        <ele>167.166</ele>
        <time>2017-11-11T08:45:32Z</time>
      </trkpt>
      <trkpt lat="51.732894" lon="39.432954">
        <ele>166.834</ele>
        <time>2017-11-11T08:45:35Z</time>
      </trkpt>
      <trkpt lat="51.732991" lon="39.433437">
        <ele>165.624</ele>
        <time>2017-11-11T08:45:42Z</time>
      </trkpt>
      <trkpt lat="51.733043" lon="39.433873">
        <ele>164.448</ele>
        <time>2017-11-11T08:45:47Z</time>
      </trkpt>
      <trkpt lat="51.733083" lon="39.434292">
        <ele>165.476</ele>
        <time>2017-11-11T08:45:53Z</time>
      </trkpt>
      <trkpt lat="51.733047" lon="39.43475">
        <ele>166.852</ele>
        <time>2017-11-11T08:45:59Z</time>
      </trkpt>
      <trkpt lat="51.733014" lon="39.43512">
        <ele>167.883</ele>
        <time>2017-11-11T08:46:05Z</time>
      </trkpt>
      <trkpt lat="51.733125" lon="39.435583">
        <ele>166.662</ele>
        <time>2017-11-11T08:46:11Z</time>
      </trkpt>
      <trkpt lat="51.733257" lon="39.435999">
        <ele>166.147</ele>
        <time>2017-11-11T08:46:17Z</time>
      </trkpt>
      <trkpt lat="51.733307" lon="39.436341">
        <ele>165.85</ele>
        <time>2017-11-11T08:46:23Z</time>
      </trkpt>
      <trkpt lat="51.733452" lon="39.436728">
        <ele>165.749</ele>
        <time>2017-11-11T08:46:30Z</time>
      </trkpt>
      <trkpt lat="51.733614" lon="39.436958">
        <ele>163.688</ele>
        <time>2017-11-11T08:46:35Z</time>
      </trkpt>
      <trkpt lat="51.733765" lon="39.437314">
        <ele>162.137</ele>
        <time>2017-11-11T08:46:40Z</time>
      </trkpt>
      <trkpt lat="51.733882" lon="39.437733">
        <ele>161.835</ele>
        <time>2017-11-11T08:46:46Z</time>
      </trkpt>
      <trkpt lat="51.734031" lon="39.438027">
        <ele>162.061</ele>
        <time>2017-11-11T08:46:52Z</time>
      </trkpt>
      <trkpt lat="51.734121" lon="39.438224">
        <ele>164.424</ele>
        <time>2017-11-11T08:46:55Z</time>
      </trkpt>
      <trkpt lat="51.734185" lon="39.438438">
        <ele>166.219</ele>
        <time>2017-11-11T08:46:58Z</time>
      </trkpt>
      <trkpt lat="51.734263" lon="39.438867">
        <ele>167.158</ele>
        <time>2017-11-11T08:47:03Z</time>
      </trkpt>
      <trkpt lat="51.734368" lon="39.439192">
        <ele>167.155</ele>
        <time>2017-11-11T08:47:09Z</time>
      </trkpt>
      <trkpt lat="51.734388" lon="39.439912">
        <ele>172.935</ele>
        <time>2017-11-11T08:47:17Z</time>
      </trkpt>
      <trkpt lat="51.734403" lon="39.440274">
        <ele>173.381</ele>
        <time>2017-11-11T08:47:22Z</time>
      </trkpt>
      <trkpt lat="51.734421" lon="39.440631">
        <ele>173.652</ele>
        <time>2017-11-11T08:47:27Z</time>
      </trkpt>
      <trkpt lat="51.734438" lon="39.440953">
        <ele>173.69</ele>
        <time>2017-11-11T08:47:32Z</time>
      </trkpt>
      <trkpt lat="51.734551" lon="39.441353">
        <ele>172.974</ele>
        <time>2017-11-11T08:47:37Z</time>
      </trkpt>
      <trkpt lat="51.73465" lon="39.441678">
        <ele>171.635</ele>
        <time>2017-11-11T08:47:41Z</time>
      </trkpt>
      <trkpt lat="51.734734" lon="39.442037">
        <ele>171.395</ele>
        <time>2017-11-11T08:47:47Z</time>
      </trkpt>
      <trkpt lat="51.734925" lon="39.442428">
        <ele>171.094</ele>
        <time>2017-11-11T08:47:52Z</time>
      </trkpt>
      <trkpt lat="51.735021" lon="39.442779">
        <ele>169.697</ele>
        <time>2017-11-11T08:47:57Z</time>
      </trkpt>
      <trkpt lat="51.735168" lon="39.443314">
        <ele>167.978</ele>
        <time>2017-11-11T08:48:04Z</time>
      </trkpt>
      <trkpt lat="51.73528" lon="39.443529">
        <ele>168.23</ele>
        <time>2017-11-11T08:48:08Z</time>
      </trkpt>
      <trkpt lat="51.735318" lon="39.443802">
        <ele>168.454</ele>
        <time>2017-11-11T08:48:12Z</time>
      </trkpt>
      <trkpt lat="51.735356" lon="39.444049">
        <ele>169.135</ele>
        <time>2017-11-11T08:48:17Z</time>
      </trkpt>
      <trkpt lat="51.735509" lon="39.444698">
        <ele>172.958</ele>
        <time>2017-11-11T08:48:25Z</time>
      </trkpt>
      <trkpt lat="51.735521" lon="39.444955">
        <ele>173.461</ele>
        <time>2017-11-11T08:48:28Z</time>
      </trkpt>
      <trkpt lat="51.735514" lon="39.445331">
        <ele>174.039</ele>
        <time>2017-11-11T08:48:34Z</time>
      </trkpt>
      <trkpt lat="51.735632" lon="39.445813">
        <ele>171.833</ele>
        <time>2017-11-11T08:48:40Z</time>
      </trkpt>
      <trkpt lat="51.735798" lon="39.446263">
        <ele>164.351</ele>
        <time>2017-11-11T08:48:47Z</time>
      </trkpt>
      <trkpt lat="51.735928" lon="39.446542">
        <ele>163.979</ele>
        <time>2017-11-11T08:48:52Z</time>
      </trkpt>
      <trkpt lat="51.736087" lon="39.446877">
        <ele>163.271</ele>
        <time>2017-11-11T08:48:58Z</time>
      </trkpt>
      <trkpt lat="51.73624" lon="39.447186">
        <ele>157.585</ele>
        <time>2017-11-11T08:49:04Z</time>
      </trkpt>
      <trkpt lat="51.73635" lon="39.447773">
        <ele>156.557</ele>
        <time>2017-11-11T08:49:11Z</time>
      </trkpt>
      <trkpt lat="51.736441" lon="39.448217">
        <ele>157.259</ele>
        <time>2017-11-11T08:49:17Z</time>
      </trkpt>
      <trkpt lat="51.736628" lon="39.448633">
        <ele>156.599</ele>
        <time>2017-11-11T08:49:23Z</time>
      </trkpt>
      <trkpt lat="51.736688" lon="39.448776">
        <ele>156.019</ele>
        <time>2017-11-11T08:49:26Z</time>
      </trkpt>
      <trkpt lat="51.736813" lon="39.44905">
        <ele>156.403</ele>
        <time>2017-11-11T08:49:31Z</time>
      </trkpt>
      <trkpt lat="51.736974" lon="39.449377">
        <ele>158.174</ele>
        <time>2017-11-11T08:49:36Z</time>
      </trkpt>
      <trkpt lat="51.737159" lon="39.449655">
        <ele>157.179</ele>
        <time>2017-11-11T08:49:41Z</time>
      </trkpt>
      <trkpt lat="51.737294" lon="39.449847">
        <ele>157.296</ele>
        <time>2017-11-11T08:49:46Z</time>
      </trkpt>
      <trkpt lat="51.737511" lon="39.4504">
        <ele>158.305</ele>
        <time>2017-11-11T08:49:53Z</time>
      </trkpt>
      <trkpt lat="51.737628" lon="39.450787">
        <ele>157.26</ele>
        <time>2017-11-11T08:49:59Z</time>
      </trkpt>
      <trkpt lat="51.737672" lon="39.451072">
        <ele>157.219</ele>
        <time>2017-11-11T08:50:04Z</time>
      </trkpt>
      <trkpt lat="51.737729" lon="39.451304">
        <ele>157.311</ele>
        <time>2017-11-11T08:50:08Z</time>
      </trkpt>
      <trkpt lat="51.737708" lon="39.451792">
        <ele>157.661</ele>
        <time>2017-11-11T08:50:15Z</time>
      </trkpt>
      <trkpt lat="51.73768" lon="39.452109">
        <ele>157.753</ele>
        <time>2017-11-11T08:50:19Z</time>
      </trkpt>
      <trkpt lat="51.737717" lon="39.452663">
        <ele>159.406</ele>
        <time>2017-11-11T08:50:25Z</time>
      </trkpt>
      <trkpt lat="51.737678" lon="39.453281">
        <ele>159.279</ele>
        <time>2017-11-11T08:50:31Z</time>
      </trkpt>
      <trkpt lat="51.73761" lon="39.453725">
        <ele>159.449</ele>
        <time>2017-11-11T08:50:38Z</time>
      </trkpt>
      <trkpt lat="51.737553" lon="39.454329">
        <ele>157.224</ele>
        <time>2017-11-11T08:50:45Z</time>
      </trkpt>
      <trkpt lat="51.73753" lon="39.454751">
        <ele>156.978</ele>
        <time>2017-11-11T08:50:50Z</time>
      </trkpt>
      <trkpt lat="51.737443" lon="39.455051">
        <ele>156.483</ele>
        <time>2017-11-11T08:50:56Z</time>
      </trkpt>
      <trkpt lat="51.737366" lon="39.455403">
        <ele>154.103</ele>
        <time>2017-11-11T08:51:04Z</time>
      </trkpt>
      <trkpt lat="51.737525" lon="39.455811">
        <ele>146.844</ele>
        <time>2017-11-11T08:51:10Z</time>
      </trkpt>
      <trkpt lat="51.737606" lon="39.455994">
        <ele>145.378</ele>
        <time>2017-11-11T08:51:13Z</time>
      </trkpt>
      <trkpt lat="51.737726" lon="39.45628">
        <ele>144.742</ele>
        <time>2017-11-11T08:51:17Z</time>
      </trkpt>
      <trkpt lat="51.737862" lon="39.456577">
        <ele>143.489</ele>
        <time>2017-11-11T08:51:22Z</time>
      </trkpt>
      <trkpt lat="51.737941" lon="39.456771">
        <ele>143.003</ele>
        <time>2017-11-11T08:51:25Z</time>
      </trkpt>
      <trkpt lat="51.738024" lon="39.456967">
        <ele>143.116</ele>
        <time>2017-11-11T08:51:28Z</time>
      </trkpt>
      <trkpt lat="51.738163" lon="39.457308">
        <ele>144.074</ele>
        <time>2017-11-11T08:51:33Z</time>
      </trkpt>
      <trkpt lat="51.738343" lon="39.457707">
        <ele>145.383</ele>
        <time>2017-11-11T08:51:39Z</time>
      </trkpt>
      <trkpt lat="51.738534" lon="39.458153">
        <ele>146.587</ele>
        <time>2017-11-11T08:51:45Z</time>
      </trkpt>
      <trkpt lat="51.738702" lon="39.458581">
        <ele>145.888</ele>
        <time>2017-11-11T08:51:51Z</time>
      </trkpt>
      <trkpt lat="51.738871" lon="39.458981">
        <ele>144.962</ele>
        <time>2017-11-11T08:51:57Z</time>
      </trkpt>
      <trkpt lat="51.73901" lon="39.459306">
        <ele>145.278</ele>
        <time>2017-11-11T08:52:02Z</time>
      </trkpt>
      <trkpt lat="51.739173" lon="39.459707">
        <ele>146.683</ele>
        <time>2017-11-11T08:52:08Z</time>
      </trkpt>
      <trkpt lat="51.739308" lon="39.460044">
        <ele>147.754</ele>
        <time>2017-11-11T08:52:13Z</time>
      </trkpt>
      <trkpt lat="51.739481" lon="39.46045">
        <ele>148.399</ele>
        <time>2017-11-11T08:52:19Z</time>
      </trkpt>
      <trkpt lat="51.739664" lon="39.460871">
        <ele>148.911</ele>
        <time>2017-11-11T08:52:25Z</time>
      </trkpt>
      <trkpt lat="51.739845" lon="39.461299">
        <ele>149.34</ele>
        <time>2017-11-11T08:52:31Z</time>
      </trkpt>
      <trkpt lat="51.740027" lon="39.461714">
        <ele>148.582</ele>
        <time>2017-11-11T08:52:37Z</time>
      </trkpt>
      <trkpt lat="51.740193" lon="39.462099">
        <ele>148.247</ele>
        <time>2017-11-11T08:52:42Z</time>
      </trkpt>
      <trkpt lat="51.740283" lon="39.462337">
        <ele>147.691</ele>
        <time>2017-11-11T08:52:45Z</time>
      </trkpt>
      <trkpt lat="51.740462" lon="39.462787">
        <ele>146.941</ele>
        <time>2017-11-11T08:52:51Z</time>
      </trkpt>
      <trkpt lat="51.740615" lon="39.46317">
        <ele>146.794</ele>
        <time>2017-11-11T08:52:56Z</time>
      </trkpt>
      <trkpt lat="51.740811" lon="39.463621">
        <ele>146.284</ele>
        <time>2017-11-11T08:53:02Z</time>
      </trkpt>
      <trkpt lat="51.740908" lon="39.463847">
        <ele>146.157</ele>
        <time>2017-11-11T08:53:05Z</time>
      </trkpt>
      <trkpt lat="51.741009" lon="39.464066">
        <ele>145.831</ele>
        <time>2017-11-11T08:53:08Z</time>
      </trkpt>
      <trkpt lat="51.741111" lon="39.464283">
        <ele>145.292</ele>
        <time>2017-11-11T08:53:11Z</time>
      </trkpt>
      <trkpt lat="51.741291" lon="39.464639">
        <ele>144.88</ele>
        <time>2017-11-11T08:53:16Z</time>
      </trkpt>
      <trkpt lat="51.741389" lon="39.464864">
        <ele>145.238</ele>
        <time>2017-11-11T08:53:19Z</time>
      </trkpt>
      <trkpt lat="51.741574" lon="39.465209">
        <ele>144.952</ele>
        <time>2017-11-11T08:53:24Z</time>
      </trkpt>
      <trkpt lat="51.74177" lon="39.465571">
        <ele>144.443</ele>
        <time>2017-11-11T08:53:29Z</time>
      </trkpt>
      <trkpt lat="51.741891" lon="39.465778">
        <ele>144.073</ele>
        <time>2017-11-11T08:53:32Z</time>
      </trkpt>
      <trkpt lat="51.742009" lon="39.465986">
        <ele>143.503</ele>
        <time>2017-11-11T08:53:35Z</time>
      </trkpt>
      <trkpt lat="51.742139" lon="39.466191">
        <ele>142.993</ele>
        <time>2017-11-11T08:53:38Z</time>
      </trkpt>
      <trkpt lat="51.742394" lon="39.466597">
        <ele>142.863</ele>
        <time>2017-11-11T08:53:44Z</time>
      </trkpt>
      <trkpt lat="51.742638" lon="39.466999">
        <ele>142.766</ele>
        <time>2017-11-11T08:53:50Z</time>
      </trkpt>
      <trkpt lat="51.742766" lon="39.467243">
        <ele>142.478</ele>
        <time>2017-11-11T08:53:53Z</time>
      </trkpt>
      <trkpt lat="51.742965" lon="39.467674">
        <ele>142.35</ele>
        <time>2017-11-11T08:53:58Z</time>
      </trkpt>
      <trkpt lat="51.743105" lon="39.468347">
        <ele>143.528</ele>
        <time>2017-11-11T08:54:05Z</time>
      </trkpt>
      <trkpt lat="51.743148" lon="39.468809">
        <ele>144.413</ele>
        <time>2017-11-11T08:54:10Z</time>
      </trkpt>
      <trkpt lat="51.743176" lon="39.469087">
        <ele>144.745</ele>
        <time>2017-11-11T08:54:13Z</time>
      </trkpt>
      <trkpt lat="51.743227" lon="39.469653">
        <ele>145.007</ele>
        <time>2017-11-11T08:54:19Z</time>
      </trkpt>
      <trkpt lat="51.743276" lon="39.470125">
        <ele>144.405</ele>
        <time>2017-11-11T08:54:24Z</time>
      </trkpt>
      <trkpt lat="51.743335" lon="39.470671">
        <ele>144.188</ele>
        <time>2017-11-11T08:54:30Z</time>
      </trkpt>
      <trkpt lat="51.743403" lon="39.471233">
        <ele>144.539</ele>
        <time>2017-11-11T08:54:36Z</time>
      </trkpt>
      <trkpt lat="51.74349" lon="39.471701">
        <ele>144.158</ele>
        <time>2017-11-11T08:54:41Z</time>
      </trkpt>
      <trkpt lat="51.743778" lon="39.472103">
        <ele>144.739</ele>
        <time>2017-11-11T08:54:47Z</time>
      </trkpt>
      <trkpt lat="51.743978" lon="39.472604">
        <ele>145.236</ele>
        <time>2017-11-11T08:54:53Z</time>
      </trkpt>
      <trkpt lat="51.744159" lon="39.472591">
        <ele>144.358</ele>
        <time>2017-11-11T08:54:57Z</time>
      </trkpt>
      <trkpt lat="51.744336" lon="39.472388">
        <ele>146.005</ele>
        <time>2017-11-11T08:55:02Z</time>
      </trkpt>
      <trkpt lat="51.744551" lon="39.472162">
        <ele>150.909</ele>
        <time>2017-11-11T08:55:08Z</time>
      </trkpt>
      <trkpt lat="51.744847" lon="39.471875">
        <ele>156.008</ele>
        <time>2017-11-11T08:55:15Z</time>
      </trkpt>
      <trkpt lat="51.745193" lon="39.471626">
        <ele>158.046</ele>
        <time>2017-11-11T08:55:21Z</time>
      </trkpt>
      <trkpt lat="51.745449" lon="39.471413">
        <ele>160.202</ele>
        <time>2017-11-11T08:55:26Z</time>
      </trkpt>
      <trkpt lat="51.745776" lon="39.471198">
        <ele>163.396</ele>
        <time>2017-11-11T08:55:32Z</time>
      </trkpt>
      <trkpt lat="51.746189" lon="39.470842">
        <ele>158.762</ele>
        <time>2017-11-11T08:55:38Z</time>
      </trkpt>
      <trkpt lat="51.746617" lon="39.470522">
        <ele>149.041</ele>
        <time>2017-11-11T08:55:44Z</time>
      </trkpt>
      <trkpt lat="51.746987" lon="39.470253">
        <ele>142.567</ele>
        <time>2017-11-11T08:55:50Z</time>
      </trkpt>
      <trkpt lat="51.747321" lon="39.469838">
        <ele>138.079</ele>
        <time>2017-11-11T08:55:57Z</time>
      </trkpt>
      <trkpt lat="51.74752" lon="39.469458">
        <ele>136.042</ele>
        <time>2017-11-11T08:56:02Z</time>
      </trkpt>
      <trkpt lat="51.747666" lon="39.469028">
        <ele>135.261</ele>
        <time>2017-11-11T08:56:07Z</time>
      </trkpt>
      <trkpt lat="51.747882" lon="39.468753">
        <ele>135.28</ele>
        <time>2017-11-11T08:56:13Z</time>
      </trkpt>
      <trkpt lat="51.748077" lon="39.468469">
        <ele>136.677</ele>
        <time>2017-11-11T08:56:18Z</time>
      </trkpt>
      <trkpt lat="51.748331" lon="39.468311">
        <ele>136.997</ele>
        <time>2017-11-11T08:56:22Z</time>
      </trkpt>
      <trkpt lat="51.748739" lon="39.468209">
        <ele>136.045</ele>
        <time>2017-11-11T08:56:28Z</time>
      </trkpt>
      <trkpt lat="51.749031" lon="39.468101">
        <ele>137.152</ele>
        <time>2017-11-11T08:56:34Z</time>
      </trkpt>
      <trkpt lat="51.749345" lon="39.467922">
        <ele>139.76</ele>
        <time>2017-11-11T08:56:40Z</time>
      </trkpt>
      <trkpt lat="51.749566" lon="39.46775">
        <ele>139.988</ele>
        <time>2017-11-11T08:56:45Z</time>
      </trkpt>
      <trkpt lat="51.749846" lon="39.467503">
        <ele>138.669</ele>
        <time>2017-11-11T08:56:52Z</time>
      </trkpt>
      <trkpt lat="51.750017" lon="39.467246">
        <ele>137.84</ele>
        <time>2017-11-11T08:56:58Z</time>
      </trkpt>
      <trkpt lat="51.75023" lon="39.466928">
        <ele>139.268</ele>
        <time>2017-11-11T08:57:05Z</time>
      </trkpt>
      <trkpt lat="51.750411" lon="39.466702">
        <ele>141.282</ele>
        <time>2017-11-11T08:57:10Z</time>
      </trkpt>
      <trkpt lat="51.750564" lon="39.466909">
        <ele>141.553</ele>
        <time>2017-11-11T08:57:16Z</time>
      </trkpt>
      <trkpt lat="51.750672" lon="39.467296">
        <ele>140.568</ele>
        <time>2017-11-11T08:57:22Z</time>
      </trkpt>
      <trkpt lat="51.750833" lon="39.467769">
        <ele>139.449</ele>
        <time>2017-11-11T08:57:29Z</time>
      </trkpt>
      <trkpt lat="51.750889" lon="39.468083">
        <ele>140.566</ele>
        <time>2017-11-11T08:57:34Z</time>
      </trkpt>
      <trkpt lat="51.751007" lon="39.468516">
        <ele>142.642</ele>
        <time>2017-11-11T08:57:40Z</time>
      </trkpt>
      <trkpt lat="51.751135" lon="39.468941">
        <ele>143.979</ele>
        <time>2017-11-11T08:57:45Z</time>
      </trkpt>
      <trkpt lat="51.751242" lon="39.469271">
        <ele>144.637</ele>
        <time>2017-11-11T08:57:50Z</time>
      </trkpt>
      <trkpt lat="51.751438" lon="39.469721">
        <ele>142.151</ele>
        <time>2017-11-11T08:57:56Z</time>
      </trkpt>
      <trkpt lat="51.751522" lon="39.469943">
        <ele>141.157</ele>
        <time>2017-11-11T08:57:59Z</time>
      </trkpt>
      <trkpt lat="51.751653" lon="39.470342">
        <ele>138.474</ele>
        <time>2017-11-11T08:58:05Z</time>
      </trkpt>
      <trkpt lat="51.751712" lon="39.470542">
        <ele>137.057</ele>
        <time>2017-11-11T08:58:08Z</time>
      </trkpt>
      <trkpt lat="51.751787" lon="39.470747">
        <ele>136.03</ele>
        <time>2017-11-11T08:58:11Z</time>
      </trkpt>
      <trkpt lat="51.751868" lon="39.470939">
        <ele>135.705</ele>
        <time>2017-11-11T08:58:14Z</time>
      </trkpt>
      <trkpt lat="51.752054" lon="39.471139">
        <ele>135.604</ele>
        <time>2017-11-11T08:58:21Z</time>
      </trkpt>
      <trkpt lat="51.752249" lon="39.471257">
        <ele>137.717</ele>
        <time>2017-11-11T08:58:26Z</time>
      </trkpt>
      <trkpt lat="51.752338" lon="39.4715">
        <ele>138.239</ele>
        <time>2017-11-11T08:58:30Z</time>
      </trkpt>
      <trkpt lat="51.752423" lon="39.47191">
        <ele>137.476</ele>
        <time>2017-11-11T08:58:36Z</time>
      </trkpt>
      <trkpt lat="51.752482" lon="39.472298">
        <ele>138.28</ele>
        <time>2017-11-11T08:58:42Z</time>
      </trkpt>
      <trkpt lat="51.752576" lon="39.472605">
        <ele>139.695</ele>
        <time>2017-11-11T08:58:47Z</time>
      </trkpt>
      <trkpt lat="51.752709" lon="39.473025">
        <ele>142.171</ele>
        <time>2017-11-11T08:58:54Z</time>
      </trkpt>
      <trkpt lat="51.752895" lon="39.473492">
        <ele>145.528</ele>
        <time>2017-11-11T08:59:01Z</time>
      </trkpt>
      <trkpt lat="51.753068" lon="39.473857">
        <ele>147.139</ele>
        <time>2017-11-11T08:59:07Z</time>
      </trkpt>
      <trkpt lat="51.753208" lon="39.474159">
        <ele>147.294</ele>
        <time>2017-11-11T08:59:11Z</time>
      </trkpt>
      <trkpt lat="51.75336" lon="39.474583">
        <ele>146.701</ele>
        <time>2017-11-11T08:59:17Z</time>
      </trkpt>
      <trkpt lat="51.753425" lon="39.474816">
        <ele>146.733</ele>
        <time>2017-11-11T08:59:20Z</time>
      </trkpt>
      <trkpt lat="51.753538" lon="39.475243">
        <ele>146.961</ele>
        <time>2017-11-11T08:59:26Z</time>
      </trkpt>
      <trkpt lat="51.753686" lon="39.475532">
        <ele>148.124</ele>
        <time>2017-11-11T08:59:31Z</time>
      </trkpt>
      <trkpt lat="51.753934" lon="39.476011">
        <ele>148.118</ele>
        <time>2017-11-11T08:59:38Z</time>
      </trkpt>
      <trkpt lat="51.754003" lon="39.476464">
        <ele>148.437</ele>
        <time>2017-11-11T08:59:44Z</time>
      </trkpt>
      <trkpt lat="51.753933" lon="39.476919">
        <ele>147.605</ele>
        <time>2017-11-11T08:59:50Z</time>
      </trkpt>
      <trkpt lat="51.753877" lon="39.477353">
        <ele>145.895</ele>
        <time>2017-11-11T08:59:56Z</time>
      </trkpt>
      <trkpt lat="51.753806" lon="39.477797">
        <ele>145.999</ele>
        <time>2017-11-11T09:00:02Z</time>
      </trkpt>
      <trkpt lat="51.753737" lon="39.478266">
        <ele>145.451</ele>
        <time>2017-11-11T09:00:08Z</time>
      </trkpt>
      <trkpt lat="51.753696" lon="39.478694">
        <ele>143.657</ele>
        <time>2017-11-11T09:00:13Z</time>
      </trkpt>
      <trkpt lat="51.753627" lon="39.479156">
        <ele>141.321</ele>
        <time>2017-11-11T09:00:19Z</time>
      </trkpt>
      <trkpt lat="51.75354" lon="39.47964">
        <ele>141.058</ele>
        <time>2017-11-11T09:00:26Z</time>
      </trkpt>
      <trkpt lat="51.753453" lon="39.480076">
        <ele>141.486</ele>
        <time>2017-11-11T09:00:32Z</time>
      </trkpt>
      <trkpt lat="51.753386" lon="39.4805">
        <ele>142.881</ele>
        <time>2017-11-11T09:00:38Z</time>
      </trkpt>
      <trkpt lat="51.753333" lon="39.480865">
        <ele>144.287</ele>
        <time>2017-11-11T09:00:43Z</time>
      </trkpt>
      <trkpt lat="51.753261" lon="39.481081">
        <ele>144.422</ele>
        <time>2017-11-11T09:00:49Z</time>
      </trkpt>
      <trkpt lat="51.753658" lon="39.481463">
        <ele>143.802</ele>
        <time>2017-11-11T09:01:01Z</time>
      </trkpt>
      <trkpt lat="51.753841" lon="39.481596">
        <ele>142.229</ele>
        <time>2017-11-11T09:01:04Z</time>
      </trkpt>
      <trkpt lat="51.754083" lon="39.481831">
        <ele>139.605</ele>
        <time>2017-11-11T09:01:09Z</time>
      </trkpt>
      <trkpt lat="51.754209" lon="39.481908">
        <ele>138.365</ele>
        <time>2017-11-11T09:01:12Z</time>
      </trkpt>
      <trkpt lat="51.754411" lon="39.482057">
        <ele>137.682</ele>
        <time>2017-11-11T09:01:18Z</time>
      </trkpt>
      <trkpt lat="51.754604" lon="39.482274">
        <ele>136.631</ele>
        <time>2017-11-11T09:01:23Z</time>
      </trkpt>
      <trkpt lat="51.754757" lon="39.482395">
        <ele>135.976</ele>
        <time>2017-11-11T09:01:26Z</time>
      </trkpt>
      <trkpt lat="51.755008" lon="39.482599">
        <ele>135.7</ele>
        <time>2017-11-11T09:01:33Z</time>
      </trkpt>
      <trkpt lat="51.755135" lon="39.482802">
        <ele>135.765</ele>
        <time>2017-11-11T09:01:38Z</time>
      </trkpt>
      <trkpt lat="51.755341" lon="39.483115">
        <ele>135.791</ele>
        <time>2017-11-11T09:01:43Z</time>
      </trkpt>
      <trkpt lat="51.755558" lon="39.483535">
        <ele>137.518</ele>
        <time>2017-11-11T09:01:49Z</time>
      </trkpt>
      <trkpt lat="51.755724" lon="39.484077">
        <ele>140.783</ele>
        <time>2017-11-11T09:01:55Z</time>
      </trkpt>
      <trkpt lat="51.755854" lon="39.484467">
        <ele>141.57</ele>
        <time>2017-11-11T09:02:01Z</time>
      </trkpt>
      <trkpt lat="51.756002" lon="39.484516">
        <ele>141.771</ele>
        <time>2017-11-11T09:02:07Z</time>
      </trkpt>
      <trkpt lat="51.756119" lon="39.484253">
        <ele>143.317</ele>
        <time>2017-11-11T09:02:16Z</time>
      </trkpt>
      <trkpt lat="51.756414" lon="39.484001">
        <ele>144.503</ele>
        <time>2017-11-11T09:02:24Z</time>
      </trkpt>
      <trkpt lat="51.756662" lon="39.484013">
        <ele>147.646</ele>
        <time>2017-11-11T09:02:30Z</time>
      </trkpt>
      <trkpt lat="51.756928" lon="39.484163">
        <ele>150.058</ele>
        <time>2017-11-11T09:02:36Z</time>
      </trkpt>
      <trkpt lat="51.75714" lon="39.48423">
        <ele>151.506</ele>
        <time>2017-11-11T09:02:41Z</time>
      </trkpt>
      <trkpt lat="51.757396" lon="39.484405">
        <ele>154.088</ele>
        <time>2017-11-11T09:02:46Z</time>
      </trkpt>
      <trkpt lat="51.75767" lon="39.484563">
        <ele>155.549</ele>
        <time>2017-11-11T09:02:52Z</time>
      </trkpt>
      <trkpt lat="51.757921" lon="39.484681">
        <ele>155.703</ele>
        <time>2017-11-11T09:02:58Z</time>
      </trkpt>
      <trkpt lat="51.758066" lon="39.484734">
        <ele>157.205</ele>
        <time>2017-11-11T09:03:01Z</time>
      </trkpt>
      <trkpt lat="51.758294" lon="39.48482">
        <ele>158.059</ele>
        <time>2017-11-11T09:03:06Z</time>
      </trkpt>
      <trkpt lat="51.758624" lon="39.484969">
        <ele>160.72</ele>
        <time>2017-11-11T09:03:13Z</time>
      </trkpt>
      <trkpt lat="51.758958" lon="39.485139">
        <ele>162.13</ele>
        <time>2017-11-11T09:03:20Z</time>
      </trkpt>
      <trkpt lat="51.759256" lon="39.485302">
        <ele>162.668</ele>
        <time>2017-11-11T09:03:26Z</time>
      </trkpt>
      <trkpt lat="51.759557" lon="39.485445">
        <ele>162.768</ele>
        <time>2017-11-11T09:03:33Z</time>
      </trkpt>
      <trkpt lat="51.759883" lon="39.485634">
        <ele>162.179</ele>
        <time>2017-11-11T09:03:40Z</time>
      </trkpt>
      <trkpt lat="51.760135" lon="39.485773">
        <ele>161.591</ele>
        <time>2017-11-11T09:03:45Z</time>
      </trkpt>
      <trkpt lat="51.76036" lon="39.48588">
        <ele>162.606</ele>
        <time>2017-11-11T09:03:51Z</time>
      </trkpt>
      <trkpt lat="51.760628" lon="39.486001">
        <ele>163.39</ele>
        <time>2017-11-11T09:03:57Z</time>
      </trkpt>
      <trkpt lat="51.760914" lon="39.486124">
        <ele>164.66</ele>
        <time>2017-11-11T09:04:03Z</time>
      </trkpt>
      <trkpt lat="51.761225" lon="39.486252">
        <ele>167.475</ele>
        <time>2017-11-11T09:04:09Z</time>
      </trkpt>
      <trkpt lat="51.76154" lon="39.48636">
        <ele>167.364</ele>
        <time>2017-11-11T09:04:15Z</time>
      </trkpt>
      <trkpt lat="51.761777" lon="39.486453">
        <ele>167.385</ele>
        <time>2017-11-11T09:04:21Z</time>
      </trkpt>
      <trkpt lat="51.762006" lon="39.486558">
        <ele>168.844</ele>
        <time>2017-11-11T09:04:26Z</time>
      </trkpt>
      <trkpt lat="51.762259" lon="39.486681">
        <ele>170.84</ele>
        <time>2017-11-11T09:04:31Z</time>
      </trkpt>
      <trkpt lat="51.762549" lon="39.486812">
        <ele>170.554</ele>
        <time>2017-11-11T09:04:37Z</time>
      </trkpt>
      <trkpt lat="51.762815" lon="39.486948">
        <ele>167.357</ele>
        <time>2017-11-11T09:04:42Z</time>
      </trkpt>
      <trkpt lat="51.763082" lon="39.487047">
        <ele>165.61</ele>
        <time>2017-11-11T09:04:46Z</time>
      </trkpt>
      <trkpt lat="51.763332" lon="39.487196">
        <ele>165.355</ele>
        <time>2017-11-11T09:04:51Z</time>
      </trkpt>
      <trkpt lat="51.763616" lon="39.487404">
        <ele>166.087</ele>
        <time>2017-11-11T09:04:56Z</time>
      </trkpt>
      <trkpt lat="51.763795" lon="39.487498">
        <ele>167.881</ele>
        <time>2017-11-11T09:04:59Z</time>
      </trkpt>
      <trkpt lat="51.7641" lon="39.487679">
        <ele>167.462</ele>
        <time>2017-11-11T09:05:04Z</time>
      </trkpt>
      <trkpt lat="51.764426" lon="39.487827">
        <ele>167.803</ele>
        <time>2017-11-11T09:05:10Z</time>
      </trkpt>
      <trkpt lat="51.764848" lon="39.488063">
        <ele>171.786</ele>
        <time>2017-11-11T09:05:17Z</time>
      </trkpt>
      <trkpt lat="51.765089" lon="39.488183">
        <ele>173.88</ele>
        <time>2017-11-11T09:05:22Z</time>
      </trkpt>
      <trkpt lat="51.76544" lon="39.488348">
        <ele>172.718</ele>
        <time>2017-11-11T09:05:28Z</time>
      </trkpt>
      <trkpt lat="51.765658" lon="39.488489">
        <ele>172.123</ele>
        <time>2017-11-11T09:05:32Z</time>
      </trkpt>
      <trkpt lat="51.765979" lon="39.488675">
        <ele>171.219</ele>
        <time>2017-11-11T09:05:38Z</time>
      </trkpt>
      <trkpt lat="51.766251" lon="39.488814">
        <ele>170.501</ele>
        <time>2017-11-11T09:05:43Z</time>
      </trkpt>
      <trkpt lat="51.766397" lon="39.48887">
        <ele>170.371</ele>
        <time>2017-11-11T09:05:46Z</time>
      </trkpt>
      <trkpt lat="51.766467" lon="39.489127">
        <ele>170.061</ele>
        <time>2017-11-11T09:05:52Z</time>
      </trkpt>
      <trkpt lat="51.76644" lon="39.489473">
        <ele>170.478</ele>
        <time>2017-11-11T09:05:58Z</time>
      </trkpt>
      <trkpt lat="51.766407" lon="39.489835">
        <ele>171.846</ele>
        <time>2017-11-11T09:06:03Z</time>
      </trkpt>
      <trkpt lat="51.766331" lon="39.490471">
        <ele>172.632</ele>
        <time>2017-11-11T09:06:10Z</time>
      </trkpt>
      <trkpt lat="51.766268" lon="39.490827">
        <ele>171.165</ele>
        <time>2017-11-11T09:06:15Z</time>
      </trkpt>
      <trkpt lat="51.766191" lon="39.491307">
        <ele>168.254</ele>
        <time>2017-11-11T09:06:21Z</time>
      </trkpt>
      <trkpt lat="51.766106" lon="39.491862">
        <ele>166.193</ele>
        <time>2017-11-11T09:06:27Z</time>
      </trkpt>
      <trkpt lat="51.766048" lon="39.492224">
        <ele>164.652</ele>
        <time>2017-11-11T09:06:32Z</time>
      </trkpt>
      <trkpt lat="51.765973" lon="39.492671">
        <ele>163.06</ele>
        <time>2017-11-11T09:06:37Z</time>
      </trkpt>
      <trkpt lat="51.765866" lon="39.493289">
        <ele>162.573</ele>
        <time>2017-11-11T09:06:44Z</time>
      </trkpt>
      <trkpt lat="51.765794" lon="39.493716">
        <ele>160.876</ele>
        <time>2017-11-11T09:06:49Z</time>
      </trkpt>
      <trkpt lat="51.765732" lon="39.49407">
        <ele>159.308</ele>
        <time>2017-11-11T09:06:53Z</time>
      </trkpt>
      <trkpt lat="51.765651" lon="39.494538">
        <ele>158.461</ele>
        <time>2017-11-11T09:06:58Z</time>
      </trkpt>
      <trkpt lat="51.765564" lon="39.494956">
        <ele>157.171</ele>
        <time>2017-11-11T09:07:03Z</time>
      </trkpt>
      <trkpt lat="51.765448" lon="39.495436">
        <ele>155.981</ele>
        <time>2017-11-11T09:07:09Z</time>
      </trkpt>
      <trkpt lat="51.765354" lon="39.495849">
        <ele>154.916</ele>
        <time>2017-11-11T09:07:15Z</time>
      </trkpt>
      <trkpt lat="51.765261" lon="39.496361">
        <ele>155.726</ele>
        <time>2017-11-11T09:07:21Z</time>
      </trkpt>
      <trkpt lat="51.76518" lon="39.496734">
        <ele>155.916</ele>
        <time>2017-11-11T09:07:26Z</time>
      </trkpt>
      <trkpt lat="51.765084" lon="39.497249">
        <ele>159.082</ele>
        <time>2017-11-11T09:07:32Z</time>
      </trkpt>
      <trkpt lat="51.765036" lon="39.497705">
        <ele>163.258</ele>
        <time>2017-11-11T09:07:38Z</time>
      </trkpt>
      <trkpt lat="51.76497" lon="39.498129">
        <ele>167.798</ele>
        <time>2017-11-11T09:07:43Z</time>
      </trkpt>
      <trkpt lat="51.764914" lon="39.498406">
        <ele>171.387</ele>
        <time>2017-11-11T09:07:47Z</time>
      </trkpt>
      <trkpt lat="51.764876" lon="39.498816">
        <ele>174.908</ele>
        <time>2017-11-11T09:07:52Z</time>
      </trkpt>
      <trkpt lat="51.764786" lon="39.499141">
        <ele>175.105</ele>
        <time>2017-11-11T09:07:57Z</time>
      </trkpt>
      <trkpt lat="51.764634" lon="39.499755">
        <ele>175.074</ele>
        <time>2017-11-11T09:08:05Z</time>
      </trkpt>
      <trkpt lat="51.764562" lon="39.500242">
        <ele>175.732</ele>
        <time>2017-11-11T09:08:10Z</time>
      </trkpt>
      <trkpt lat="51.76448" lon="39.500586">
        <ele>175.868</ele>
        <time>2017-11-11T09:08:15Z</time>
      </trkpt>
      <trkpt lat="51.764424" lon="39.500875">
        <ele>176.01</ele>
        <time>2017-11-11T09:08:19Z</time>
      </trkpt>
      <trkpt lat="51.764354" lon="39.501503">
        <ele>177.104</ele>
        <time>2017-11-11T09:08:25Z</time>
      </trkpt>
      <trkpt lat="51.764258" lon="39.501965">
        <ele>176.642</ele>
        <time>2017-11-11T09:08:31Z</time>
      </trkpt>
      <trkpt lat="51.764142" lon="39.502512">
        <ele>175.468</ele>
        <time>2017-11-11T09:08:37Z</time>
      </trkpt>
      <trkpt lat="51.764034" lon="39.50311">
        <ele>175.031</ele>
        <time>2017-11-11T09:08:46Z</time>
      </trkpt>
      <trkpt lat="51.763963" lon="39.503575">
        <ele>174.818</ele>
        <time>2017-11-11T09:08:53Z</time>
      </trkpt>
      <trkpt lat="51.764087" lon="39.503858">
        <ele>172.94</ele>
        <time>2017-11-11T09:09:01Z</time>
      </trkpt>
      <trkpt lat="51.764346" lon="39.503953">
        <ele>174.628</ele>
        <time>2017-11-11T09:09:09Z</time>
      </trkpt>
      <trkpt lat="51.764577" lon="39.504009">
        <ele>176.16</ele>
        <time>2017-11-11T09:09:14Z</time>
      </trkpt>
      <trkpt lat="51.764896" lon="39.504223">
        <ele>178.789</ele>
        <time>2017-11-11T09:09:20Z</time>
      </trkpt>
      <trkpt lat="51.765183" lon="39.504448">
        <ele>177.091</ele>
        <time>2017-11-11T09:09:25Z</time>
      </trkpt>
      <trkpt lat="51.765388" lon="39.504582">
        <ele>175.215</ele>
        <time>2017-11-11T09:09:29Z</time>
      </trkpt>
      <trkpt lat="51.765606" lon="39.5047">
        <ele>173.777</ele>
        <time>2017-11-11T09:09:33Z</time>
      </trkpt>
      <trkpt lat="51.765978" lon="39.504908">
        <ele>169.391</ele>
        <time>2017-11-11T09:09:39Z</time>
      </trkpt>
      <trkpt lat="51.766366" lon="39.505079">
        <ele>164.917</ele>
        <time>2017-11-11T09:09:45Z</time>
      </trkpt>
      <trkpt lat="51.766648" lon="39.505261">
        <ele>161.756</ele>
        <time>2017-11-11T09:09:51Z</time>
      </trkpt>
      <trkpt lat="51.766936" lon="39.505431">
        <ele>161.318</ele>
        <time>2017-11-11T09:09:57Z</time>
      </trkpt>
      <trkpt lat="51.767234" lon="39.505606">
        <ele>161.51</ele>
        <time>2017-11-11T09:10:03Z</time>
      </trkpt>
      <trkpt lat="51.767378" lon="39.505693">
        <ele>161.632</ele>
        <time>2017-11-11T09:10:06Z</time>
      </trkpt>
      <trkpt lat="51.767662" lon="39.505831">
        <ele>161.304</ele>
        <time>2017-11-11T09:10:11Z</time>
      </trkpt>
      <trkpt lat="51.767826" lon="39.505905">
        <ele>160.471</ele>
        <time>2017-11-11T09:10:14Z</time>
      </trkpt>
      <trkpt lat="51.768184" lon="39.506144">
        <ele>160.059</ele>
        <time>2017-11-11T09:10:21Z</time>
      </trkpt>
      <trkpt lat="51.768438" lon="39.506207">
        <ele>160.759</ele>
        <time>2017-11-11T09:10:27Z</time>
      </trkpt>
      <trkpt lat="51.768736" lon="39.506331">
        <ele>162.224</ele>
        <time>2017-11-11T09:10:32Z</time>
      </trkpt>
      <trkpt lat="51.769092" lon="39.506509">
        <ele>163.631</ele>
        <time>2017-11-11T09:10:38Z</time>
      </trkpt>
      <trkpt lat="51.769386" lon="39.506622">
        <ele>163.204</ele>
        <time>2017-11-11T09:10:44Z</time>
      </trkpt>
      <trkpt lat="51.769674" lon="39.50674">
        <ele>163.091</ele>
        <time>2017-11-11T09:10:50Z</time>
      </trkpt>
      <trkpt lat="51.76999" lon="39.506857">
        <ele>161.223</ele>
        <time>2017-11-11T09:10:55Z</time>
      </trkpt>
      <trkpt lat="51.770253" lon="39.507063">
        <ele>160.728</ele>
        <time>2017-11-11T09:11:00Z</time>
      </trkpt>
      <trkpt lat="51.770532" lon="39.507234">
        <ele>159.49</ele>
        <time>2017-11-11T09:11:05Z</time>
      </trkpt>
      <trkpt lat="51.770839" lon="39.507417">
        <ele>157.98</ele>
        <time>2017-11-11T09:11:11Z</time>
      </trkpt>
      <trkpt lat="51.770988" lon="39.507497">
        <ele>157.343</ele>
        <time>2017-11-11T09:11:14Z</time>
      </trkpt>
      <trkpt lat="51.771289" lon="39.50765">
        <ele>156.573</ele>
        <time>2017-11-11T09:11:20Z</time>
      </trkpt>
      <trkpt lat="51.771507" lon="39.507746">
        <ele>156.318</ele>
        <time>2017-11-11T09:11:25Z</time>
      </trkpt>
      <trkpt lat="51.771767" lon="39.507792">
        <ele>157.846</ele>
        <time>2017-11-11T09:11:32Z</time>
      </trkpt>
      <trkpt lat="51.771965" lon="39.507898">
        <ele>158.558</ele>
        <time>2017-11-11T09:11:38Z</time>
      </trkpt>
      <trkpt lat="51.772205" lon="39.50803">
        <ele>162.924</ele>
        <time>2017-11-11T09:11:43Z</time>
      </trkpt>
      <trkpt lat="51.772432" lon="39.508127">
        <ele>165.054</ele>
        <time>2017-11-11T09:11:47Z</time>
      </trkpt>
      <trkpt lat="51.772684" lon="39.508229">
        <ele>165.655</ele>
        <time>2017-11-11T09:11:52Z</time>
      </trkpt>
      <trkpt lat="51.772829" lon="39.508246">
        <ele>165.747</ele>
        <time>2017-11-11T09:11:55Z</time>
      </trkpt>
      <trkpt lat="51.773061" lon="39.508351">
        <ele>165.629</ele>
        <time>2017-11-11T09:12:00Z</time>
      </trkpt>
      <trkpt lat="51.773321" lon="39.508544">
        <ele>165.035</ele>
        <time>2017-11-11T09:12:07Z</time>
      </trkpt>
      <trkpt lat="51.773618" lon="39.508724">
        <ele>164.373</ele>
        <time>2017-11-11T09:12:13Z</time>
      </trkpt>
      <trkpt lat="51.773912" lon="39.508847">
        <ele>164.842</ele>
        <time>2017-11-11T09:12:19Z</time>
      </trkpt>
      <trkpt lat="51.774174" lon="39.508986">
        <ele>164.673</ele>
        <time>2017-11-11T09:12:24Z</time>
      </trkpt>
      <trkpt lat="51.774437" lon="39.509107">
        <ele>165.465</ele>
        <time>2017-11-11T09:12:29Z</time>
      </trkpt>
      <trkpt lat="51.77473" lon="39.509291">
        <ele>167.342</ele>
        <time>2017-11-11T09:12:35Z</time>
      </trkpt>
      <trkpt lat="51.775035" lon="39.509404">
        <ele>169.656</ele>
        <time>2017-11-11T09:12:42Z</time>
      </trkpt>
      <trkpt lat="51.775321" lon="39.509532">
        <ele>170.399</ele>
        <time>2017-11-11T09:12:48Z</time>
      </trkpt>
      <trkpt lat="51.775573" lon="39.509669">
        <ele>170.557</ele>
        <time>2017-11-11T09:12:53Z</time>
      </trkpt>
      <trkpt lat="51.775882" lon="39.509847">
        <ele>171.218</ele>
        <time>2017-11-11T09:12:59Z</time>
      </trkpt>
      <trkpt lat="51.776223" lon="39.509976">
        <ele>173.136</ele>
        <time>2017-11-11T09:13:06Z</time>
      </trkpt>
      <trkpt lat="51.776502" lon="39.510063">
        <ele>172.807</ele>
        <time>2017-11-11T09:13:11Z</time>
      </trkpt>
      <trkpt lat="51.776646" lon="39.510122">
        <ele>172.621</ele>
        <time>2017-11-11T09:13:14Z</time>
      </trkpt>
      <trkpt lat="51.77689" lon="39.510271">
        <ele>173.045</ele>
        <time>2017-11-11T09:13:20Z</time>
      </trkpt>
      <trkpt lat="51.777169" lon="39.510495">
        <ele>173.351</ele>
        <time>2017-11-11T09:13:28Z</time>
      </trkpt>
      <trkpt lat="51.777336" lon="39.510882">
        <ele>173.578</ele>
        <time>2017-11-11T09:13:33Z</time>
      </trkpt>
      <trkpt lat="51.777317" lon="39.511369">
        <ele>172.093</ele>
        <time>2017-11-11T09:13:39Z</time>
      </trkpt>
      <trkpt lat="51.777309" lon="39.511833">
        <ele>170.862</ele>
        <time>2017-11-11T09:13:44Z</time>
      </trkpt>
      <trkpt lat="51.77727" lon="39.512319">
        <ele>170.625</ele>
        <time>2017-11-11T09:13:51Z</time>
      </trkpt>
      <trkpt lat="51.777277" lon="39.512603">
        <ele>170.302</ele>
        <time>2017-11-11T09:13:56Z</time>
      </trkpt>
      <trkpt lat="51.777234" lon="39.512917">
        <ele>170.54</ele>
        <time>2017-11-11T09:14:03Z</time>
      </trkpt>
      <trkpt lat="51.777131" lon="39.513369">
        <ele>170.968</ele>
        <time>2017-11-11T09:14:09Z</time>
      </trkpt>
      <trkpt lat="51.777053" lon="39.513719">
        <ele>172.64</ele>
        <time>2017-11-11T09:14:14Z</time>
      </trkpt>
      <trkpt lat="51.776955" lon="39.514204">
        <ele>171.556</ele>
        <time>2017-11-11T09:14:19Z</time>
      </trkpt>
      <trkpt lat="51.776888" lon="39.51447">
        <ele>170.094</ele>
        <time>2017-11-11T09:14:22Z</time>
      </trkpt>
      <trkpt lat="51.776851" lon="39.514695">
        <ele>167.291</ele>
        <time>2017-11-11T09:14:25Z</time>
      </trkpt>
      <trkpt lat="51.776741" lon="39.515181">
        <ele>162.086</ele>
        <time>2017-11-11T09:14:31Z</time>
      </trkpt>
      <trkpt lat="51.776678" lon="39.515415">
        <ele>159.765</ele>
        <time>2017-11-11T09:14:34Z</time>
      </trkpt>
      <trkpt lat="51.776622" lon="39.515657">
        <ele>158.069</ele>
        <time>2017-11-11T09:14:37Z</time>
      </trkpt>
      <trkpt lat="51.776516" lon="39.516155">
        <ele>156.712</ele>
        <time>2017-11-11T09:14:43Z</time>
      </trkpt>
      <trkpt lat="51.776435" lon="39.516584">
        <ele>155.551</ele>
        <time>2017-11-11T09:14:48Z</time>
      </trkpt>
      <trkpt lat="51.776382" lon="39.516841">
        <ele>155.532</ele>
        <time>2017-11-11T09:14:52Z</time>
      </trkpt>
      <trkpt lat="51.776335" lon="39.517249">
        <ele>155.709</ele>
        <time>2017-11-11T09:14:57Z</time>
      </trkpt>
      <trkpt lat="51.776244" lon="39.517885">
        <ele>157.052</ele>
        <time>2017-11-11T09:15:06Z</time>
      </trkpt>
      <trkpt lat="51.776151" lon="39.518415">
        <ele>158.454</ele>
        <time>2017-11-11T09:15:12Z</time>
      </trkpt>
      <trkpt lat="51.776058" lon="39.518876">
        <ele>164.095</ele>
        <time>2017-11-11T09:15:17Z</time>
      </trkpt>
      <trkpt lat="51.776009" lon="39.519113">
        <ele>166.08</ele>
        <time>2017-11-11T09:15:20Z</time>
      </trkpt>
      <trkpt lat="51.7759" lon="39.519556">
        <ele>167.172</ele>
        <time>2017-11-11T09:15:25Z</time>
      </trkpt>
      <trkpt lat="51.775817" lon="39.5202">
        <ele>165.8</ele>
        <time>2017-11-11T09:15:32Z</time>
      </trkpt>
      <trkpt lat="51.775708" lon="39.52076">
        <ele>165.349</ele>
        <time>2017-11-11T09:15:38Z</time>
      </trkpt>
      <trkpt lat="51.775604" lon="39.521195">
        <ele>167.175</ele>
        <time>2017-11-11T09:15:43Z</time>
      </trkpt>
      <trkpt lat="51.775529" lon="39.521661">
        <ele>169.816</ele>
        <time>2017-11-11T09:15:49Z</time>
      </trkpt>
      <trkpt lat="51.775432" lon="39.522047">
        <ele>170.059</ele>
        <time>2017-11-11T09:15:55Z</time>
      </trkpt>
      <trkpt lat="51.775364" lon="39.522257">
        <ele>170.157</ele>
        <time>2017-11-11T09:15:59Z</time>
      </trkpt>
      <trkpt lat="51.77526" lon="39.522751">
        <ele>173.617</ele>
        <time>2017-11-11T09:16:06Z</time>
      </trkpt>
      <trkpt lat="51.775222" lon="39.523127">
        <ele>174.343</ele>
        <time>2017-11-11T09:16:11Z</time>
      </trkpt>
      <trkpt lat="51.775152" lon="39.523512">
        <ele>174.219</ele>
        <time>2017-11-11T09:16:16Z</time>
      </trkpt>
      <trkpt lat="51.775066" lon="39.524026">
        <ele>174.103</ele>
        <time>2017-11-11T09:16:22Z</time>
      </trkpt>
      <trkpt lat="51.774998" lon="39.524488">
        <ele>174.145</ele>
        <time>2017-11-11T09:16:28Z</time>
      </trkpt>
      <trkpt lat="51.774923" lon="39.524865">
        <ele>174.634</ele>
        <time>2017-11-11T09:16:33Z</time>
      </trkpt>
      <trkpt lat="51.77484" lon="39.525324">
        <ele>177.237</ele>
        <time>2017-11-11T09:16:38Z</time>
      </trkpt>
      <trkpt lat="51.774736" lon="39.525907">
        <ele>171.727</ele>
        <time>2017-11-11T09:16:44Z</time>
      </trkpt>
      <trkpt lat="51.774689" lon="39.52622">
        <ele>169.34</ele>
        <time>2017-11-11T09:16:47Z</time>
      </trkpt>
      <trkpt lat="51.774622" lon="39.526562">
        <ele>169.164</ele>
        <time>2017-11-11T09:16:52Z</time>
      </trkpt>
      <trkpt lat="51.774531" lon="39.526708">
        <ele>169.01</ele>
        <time>2017-11-11T09:16:57Z</time>
      </trkpt>
      <trkpt lat="51.774531" lon="39.526708">
        <ele>169.01</ele>
        <time>2017-11-11T09:17:02Z</time>
      </trkpt>
      <trkpt lat="51.774531" lon="39.526708">
        <time>2017-11-11T09:17:02Z</time>
      </trkpt>
    </trkseg>
    <trkseg>
      <trkpt lat="51.774531" lon="39.526708">
        <time>2017-11-11T09:17:09Z</time>
      </trkpt>
      <trkpt lat="51.774932" lon="39.526701">
        <ele>171.092</ele>
        <time>2017-11-11T09:17:09Z</time>
      </trkpt>
      <trkpt lat="51.775148" lon="39.526606">
        <ele>172.2</ele>
        <time>2017-11-11T09:17:14Z</time>
      </trkpt>
      <trkpt lat="51.775445" lon="39.526495">
        <ele>176.645</ele>
        <time>2017-11-11T09:17:19Z</time>
      </trkpt>
      <trkpt lat="51.775755" lon="39.526548">
        <ele>177.46</ele>
        <time>2017-11-11T09:17:24Z</time>
      </trkpt>
      <trkpt lat="51.775892" lon="39.526639">
        <ele>174.519</ele>
        <time>2017-11-11T09:17:27Z</time>
      </trkpt>
      <trkpt lat="51.776194" lon="39.526577">
        <ele>169.371</ele>
        <time>2017-11-11T09:17:33Z</time>
      </trkpt>
      <trkpt lat="51.776456" lon="39.526373">
        <ele>168.085</ele>
        <time>2017-11-11T09:17:39Z</time>
      </trkpt>
      <trkpt lat="51.776735" lon="39.526259">
        <ele>168.904</ele>
        <time>2017-11-11T09:17:45Z</time>
      </trkpt>
      <trkpt lat="51.777007" lon="39.526066">
        <ele>173.835</ele>
        <time>2017-11-11T09:17:53Z</time>
      </trkpt>
      <trkpt lat="51.777293" lon="39.525703">
        <ele>174.282</ele>
        <time>2017-11-11T09:17:59Z</time>
      </trkpt>
      <trkpt lat="51.777572" lon="39.525432">
        <ele>171.78</ele>
        <time>2017-11-11T09:18:05Z</time>
      </trkpt>
      <trkpt lat="51.777884" lon="39.525354">
        <ele>172.482</ele>
        <time>2017-11-11T09:18:11Z</time>
      </trkpt>
      <trkpt lat="51.77816" lon="39.525286">
        <ele>173.537</ele>
        <time>2017-11-11T09:18:17Z</time>
      </trkpt>
      <trkpt lat="51.778351" lon="39.525222">
        <ele>174.376</ele>
        <time>2017-11-11T09:18:22Z</time>
      </trkpt>
      <trkpt lat="51.778678" lon="39.525121">
        <ele>177.183</ele>
        <time>2017-11-11T09:18:28Z</time>
      </trkpt>
      <trkpt lat="51.77895" lon="39.525072">
        <ele>178.515</ele>
        <time>2017-11-11T09:18:34Z</time>
      </trkpt>
      <trkpt lat="51.779303" lon="39.524899">
        <ele>178.766</ele>
        <time>2017-11-11T09:18:41Z</time>
      </trkpt>
      <trkpt lat="51.77963" lon="39.525193">
        <ele>178.823</ele>
        <time>2017-11-11T09:18:46Z</time>
      </trkpt>
      <trkpt lat="51.779764" lon="39.525426">
        <ele>178.654</ele>
        <time>2017-11-11T09:18:51Z</time>
      </trkpt>
      <trkpt lat="51.779921" lon="39.525637">
        <ele>177.807</ele>
        <time>2017-11-11T09:18:57Z</time>
      </trkpt>
      <trkpt lat="51.780009" lon="39.525816">
        <ele>176.916</ele>
        <time>2017-11-11T09:19:03Z</time>
      </trkpt>
      <trkpt lat="51.780109" lon="39.526148">
        <ele>175.636</ele>
        <time>2017-11-11T09:19:10Z</time>
      </trkpt>
      <trkpt lat="51.780226" lon="39.526364">
        <ele>174.765</ele>
        <time>2017-11-11T09:19:15Z</time>
      </trkpt>
      <trkpt lat="51.78036" lon="39.526619">
        <ele>173.952</ele>
        <time>2017-11-11T09:19:22Z</time>
      </trkpt>
      <trkpt lat="51.780567" lon="39.526879">
        <ele>173.817</ele>
        <time>2017-11-11T09:19:33Z</time>
      </trkpt>
      <trkpt lat="51.780962" lon="39.526496">
        <ele>179.197</ele>
        <time>2017-11-11T09:19:46Z</time>
      </trkpt>
      <trkpt lat="51.781342" lon="39.526257">
        <ele>180.92</ele>
        <time>2017-11-11T09:19:54Z</time>
      </trkpt>
      <trkpt lat="51.781477" lon="39.525994">
        <ele>181.069</ele>
        <time>2017-11-11T09:19:59Z</time>
      </trkpt>
      <trkpt lat="51.781641" lon="39.52563">
        <ele>180.469</ele>
        <time>2017-11-11T09:20:06Z</time>
      </trkpt>
      <trkpt lat="51.781726" lon="39.525126">
        <ele>178.899</ele>
        <time>2017-11-11T09:20:14Z</time>
      </trkpt>
      <trkpt lat="51.78191" lon="39.524727">
        <ele>177.149</ele>
        <time>2017-11-11T09:20:20Z</time>
      </trkpt>
      <trkpt lat="51.782198" lon="39.52433">
        <ele>172.433</ele>
        <time>2017-11-11T09:20:27Z</time>
      </trkpt>
      <trkpt lat="51.782376" lon="39.524173">
        <ele>172.473</ele>
        <time>2017-11-11T09:20:33Z</time>
      </trkpt>
      <trkpt lat="51.782568" lon="39.523645">
        <ele>170.542</ele>
        <time>2017-11-11T09:20:43Z</time>
      </trkpt>
      <trkpt lat="51.782589" lon="39.523247">
        <ele>167.476</ele>
        <time>2017-11-11T09:20:49Z</time>
      </trkpt>
      <trkpt lat="51.782701" lon="39.522614">
        <ele>162.906</ele>
        <time>2017-11-11T09:20:58Z</time>
      </trkpt>
      <trkpt lat="51.782755" lon="39.521806">
        <ele>162.131</ele>
        <time>2017-11-11T09:21:08Z</time>
      </trkpt>
      <trkpt lat="51.782992" lon="39.521222">
        <ele>160.228</ele>
        <time>2017-11-11T09:21:14Z</time>
      </trkpt>
      <trkpt lat="51.783146" lon="39.520911">
        <ele>160.136</ele>
        <time>2017-11-11T09:21:20Z</time>
      </trkpt>
      <trkpt lat="51.783322" lon="39.520596">
        <ele>160.663</ele>
        <time>2017-11-11T09:21:27Z</time>
      </trkpt>
      <trkpt lat="51.783414" lon="39.520138">
        <ele>160.651</ele>
        <time>2017-11-11T09:21:34Z</time>
      </trkpt>
      <trkpt lat="51.783414" lon="39.519684">
        <ele>160.056</ele>
        <time>2017-11-11T09:21:40Z</time>
      </trkpt>
      <trkpt lat="51.783456" lon="39.519309">
        <ele>157.91</ele>
        <time>2017-11-11T09:21:45Z</time>
      </trkpt>
      <trkpt lat="51.783451" lon="39.51887">
        <ele>156.18</ele>
        <time>2017-11-11T09:21:51Z</time>
      </trkpt>
      <trkpt lat="51.783502" lon="39.518437">
        <ele>155.804</ele>
        <time>2017-11-11T09:21:58Z</time>
      </trkpt>
      <trkpt lat="51.78349" lon="39.517973">
        <ele>155.726</ele>
        <time>2017-11-11T09:22:05Z</time>
      </trkpt>
      <trkpt lat="51.783605" lon="39.517442">
        <ele>154.249</ele>
        <time>2017-11-11T09:22:10Z</time>
      </trkpt>
      <trkpt lat="51.783646" lon="39.517088">
        <ele>153.953</ele>
        <time>2017-11-11T09:22:15Z</time>
      </trkpt>
      <trkpt lat="51.783865" lon="39.516686">
        <ele>154.553</ele>
        <time>2017-11-11T09:22:21Z</time>
      </trkpt>
      <trkpt lat="51.784121" lon="39.516418">
        <ele>158.473</ele>
        <time>2017-11-11T09:22:27Z</time>
      </trkpt>
      <trkpt lat="51.784326" lon="39.516059">
        <ele>163.581</ele>
        <time>2017-11-11T09:22:33Z</time>
      </trkpt>
      <trkpt lat="51.784389" lon="39.515773">
        <ele>165.501</ele>
        <time>2017-11-11T09:22:38Z</time>
      </trkpt>
      <trkpt lat="51.784544" lon="39.515301">
        <ele>166.456</ele>
        <time>2017-11-11T09:22:44Z</time>
      </trkpt>
      <trkpt lat="51.784838" lon="39.515018">
        <ele>166.662</ele>
        <time>2017-11-11T09:22:50Z</time>
      </trkpt>
      <trkpt lat="51.785115" lon="39.514909">
        <ele>167.35</ele>
        <time>2017-11-11T09:22:54Z</time>
      </trkpt>
      <trkpt lat="51.785321" lon="39.514991">
        <ele>166.541</ele>
        <time>2017-11-11T09:22:59Z</time>
      </trkpt>
      <trkpt lat="51.785472" lon="39.515007">
        <ele>166.313</ele>
        <time>2017-11-11T09:23:04Z</time>
      </trkpt>
      <trkpt lat="51.785824" lon="39.514931">
        <ele>166.315</ele>
        <time>2017-11-11T09:23:13Z</time>
      </trkpt>
      <trkpt lat="51.786031" lon="39.515006">
        <ele>166.864</ele>
        <time>2017-11-11T09:23:17Z</time>
      </trkpt>
      <trkpt lat="51.78623" lon="39.515093">
        <ele>169.555</ele>
        <time>2017-11-11T09:23:21Z</time>
      </trkpt>
      <trkpt lat="51.786482" lon="39.515249">
        <ele>172.925</ele>
        <time>2017-11-11T09:23:26Z</time>
      </trkpt>
      <trkpt lat="51.78662" lon="39.515313">
        <ele>172.48</ele>
        <time>2017-11-11T09:23:29Z</time>
      </trkpt>
      <trkpt lat="51.786758" lon="39.515361">
        <ele>172.358</ele>
        <time>2017-11-11T09:23:32Z</time>
      </trkpt>
      <trkpt lat="51.787067" lon="39.515543">
        <ele>170.187</ele>
        <time>2017-11-11T09:23:38Z</time>
      </trkpt>
      <trkpt lat="51.787365" lon="39.515675">
        <ele>170.466</ele>
        <time>2017-11-11T09:23:44Z</time>
      </trkpt>
      <trkpt lat="51.787655" lon="39.515736">
        <ele>171.402</ele>
        <time>2017-11-11T09:23:50Z</time>
      </trkpt>
      <trkpt lat="51.787917" lon="39.515809">
        <ele>171.643</ele>
        <time>2017-11-11T09:23:55Z</time>
      </trkpt>
      <trkpt lat="51.788216" lon="39.515993">
        <ele>170.96</ele>
        <time>2017-11-11T09:24:01Z</time>
      </trkpt>
      <trkpt lat="51.788583" lon="39.516247">
        <ele>163.822</ele>
        <time>2017-11-11T09:24:08Z</time>
      </trkpt>
      <trkpt lat="51.788717" lon="39.516341">
        <ele>160.915</ele>
        <time>2017-11-11T09:24:11Z</time>
      </trkpt>
      <trkpt lat="51.788869" lon="39.516412">
        <ele>158.8</ele>
        <time>2017-11-11T09:24:14Z</time>
      </trkpt>
      <trkpt lat="51.78903" lon="39.51648">
        <ele>158.197</ele>
        <time>2017-11-11T09:24:18Z</time>
      </trkpt>
      <trkpt lat="51.789362" lon="39.516638">
        <ele>158.619</ele>
        <time>2017-11-11T09:24:24Z</time>
      </trkpt>
      <trkpt lat="51.789628" lon="39.51673">
        <ele>158.598</ele>
        <time>2017-11-11T09:24:30Z</time>
      </trkpt>
      <trkpt lat="51.789953" lon="39.516868">
        <ele>159.212</ele>
        <time>2017-11-11T09:24:37Z</time>
      </trkpt>
      <trkpt lat="51.790197" lon="39.516989">
        <ele>159.999</ele>
        <time>2017-11-11T09:24:43Z</time>
      </trkpt>
      <trkpt lat="51.79048" lon="39.517212">
        <ele>161.781</ele>
        <time>2017-11-11T09:24:48Z</time>
      </trkpt>
      <trkpt lat="51.790685" lon="39.51727">
        <ele>162.39</ele>
        <time>2017-11-11T09:24:53Z</time>
      </trkpt>
      <trkpt lat="51.79095" lon="39.517358">
        <ele>163.789</ele>
        <time>2017-11-11T09:25:00Z</time>
      </trkpt>
      <trkpt lat="51.791193" lon="39.517489">
        <ele>164.893</ele>
        <time>2017-11-11T09:25:06Z</time>
      </trkpt>
      <trkpt lat="51.791361" lon="39.517569">
        <ele>165.589</ele>
        <time>2017-11-11T09:25:10Z</time>
      </trkpt>
      <trkpt lat="51.791641" lon="39.517733">
        <ele>167.28</ele>
        <time>2017-11-11T09:25:15Z</time>
      </trkpt>
      <trkpt lat="51.791791" lon="39.517807">
        <ele>166.822</ele>
        <time>2017-11-11T09:25:19Z</time>
      </trkpt>
      <trkpt lat="51.792072" lon="39.518081">
        <ele>166.486</ele>
        <time>2017-11-11T09:25:26Z</time>
      </trkpt>
      <trkpt lat="51.792231" lon="39.51811">
        <ele>166.691</ele>
        <time>2017-11-11T09:25:29Z</time>
      </trkpt>
      <trkpt lat="51.792462" lon="39.518194">
        <ele>167.429</ele>
        <time>2017-11-11T09:25:35Z</time>
      </trkpt>
      <trkpt lat="51.792735" lon="39.518336">
        <ele>167.649</ele>
        <time>2017-11-11T09:25:42Z</time>
      </trkpt>
      <trkpt lat="51.793007" lon="39.518483">
        <ele>167.283</ele>
        <time>2017-11-11T09:25:48Z</time>
      </trkpt>
      <trkpt lat="51.793177" lon="39.51859">
        <ele>166.91</ele>
        <time>2017-11-11T09:25:52Z</time>
      </trkpt>
      <trkpt lat="51.793442" lon="39.518712">
        <ele>166.362</ele>
        <time>2017-11-11T09:25:59Z</time>
      </trkpt>
      <trkpt lat="51.79366" lon="39.518812">
        <ele>165.682</ele>
        <time>2017-11-11T09:26:04Z</time>
      </trkpt>
      <trkpt lat="51.793894" lon="39.518998">
        <ele>163.734</ele>
        <time>2017-11-11T09:26:10Z</time>
      </trkpt>
      <trkpt lat="51.794128" lon="39.519137">
        <ele>160.151</ele>
        <time>2017-11-11T09:26:15Z</time>
      </trkpt>
      <trkpt lat="51.794372" lon="39.519245">
        <ele>155.837</ele>
        <time>2017-11-11T09:26:20Z</time>
      </trkpt>
      <trkpt lat="51.794548" lon="39.519283">
        <ele>155.039</ele>
        <time>2017-11-11T09:26:24Z</time>
      </trkpt>
      <trkpt lat="51.794683" lon="39.519355">
        <ele>153.53</ele>
        <time>2017-11-11T09:26:27Z</time>
      </trkpt>
      <trkpt lat="51.794889" lon="39.519481">
        <ele>152.853</ele>
        <time>2017-11-11T09:26:32Z</time>
      </trkpt>
      <trkpt lat="51.795126" lon="39.519588">
        <ele>154.082</ele>
        <time>2017-11-11T09:26:37Z</time>
      </trkpt>
      <trkpt lat="51.79548" lon="39.519681">
        <ele>157.942</ele>
        <time>2017-11-11T09:26:42Z</time>
      </trkpt>
      <trkpt lat="51.795887" lon="39.519864">
        <ele>159.484</ele>
        <time>2017-11-11T09:26:48Z</time>
      </trkpt>
      <trkpt lat="51.796152" lon="39.520028">
        <ele>156.94</ele>
        <time>2017-11-11T09:26:53Z</time>
      </trkpt>
      <trkpt lat="51.796268" lon="39.520111">
        <ele>155.488</ele>
        <time>2017-11-11T09:26:56Z</time>
      </trkpt>
      <trkpt lat="51.796397" lon="39.520187">
        <ele>154.118</ele>
        <time>2017-11-11T09:26:59Z</time>
      </trkpt>
      <trkpt lat="51.796657" lon="39.520328">
        <ele>152.317</ele>
        <time>2017-11-11T09:27:05Z</time>
      </trkpt>
      <trkpt lat="51.796794" lon="39.520406">
        <ele>151.503</ele>
        <time>2017-11-11T09:27:08Z</time>
      </trkpt>
      <trkpt lat="51.797034" lon="39.520494">
        <ele>151.062</ele>
        <time>2017-11-11T09:27:13Z</time>
      </trkpt>
      <trkpt lat="51.797127" lon="39.520775">
        <ele>151.074</ele>
        <time>2017-11-11T09:27:18Z</time>
      </trkpt>
      <trkpt lat="51.797215" lon="39.521213">
        <ele>151.193</ele>
        <time>2017-11-11T09:27:24Z</time>
      </trkpt>
      <trkpt lat="51.797244" lon="39.521683">
        <ele>148.804</ele>
        <time>2017-11-11T09:27:29Z</time>
      </trkpt>
      <trkpt lat="51.797279" lon="39.522107">
        <ele>145.798</ele>
        <time>2017-11-11T09:27:35Z</time>
      </trkpt>
      <trkpt lat="51.797334" lon="39.522368">
        <ele>145.927</ele>
        <time>2017-11-11T09:27:40Z</time>
      </trkpt>
      <trkpt lat="51.797394" lon="39.522806">
        <ele>146.521</ele>
        <time>2017-11-11T09:27:46Z</time>
      </trkpt>
      <trkpt lat="51.797426" lon="39.523189">
        <ele>147.126</ele>
        <time>2017-11-11T09:27:51Z</time>
      </trkpt>
      <trkpt lat="51.797381" lon="39.523527">
        <ele>149.117</ele>
        <time>2017-11-11T09:27:55Z</time>
      </trkpt>
      <trkpt lat="51.7974" lon="39.523913">
        <ele>150.977</ele>
        <time>2017-11-11T09:28:01Z</time>
      </trkpt>
      <trkpt lat="51.797497" lon="39.524277">
        <ele>151.613</ele>
        <time>2017-11-11T09:28:07Z</time>
      </trkpt>
      <trkpt lat="51.797632" lon="39.524954">
        <ele>153.26</ele>
        <time>2017-11-11T09:28:17Z</time>
      </trkpt>
      <trkpt lat="51.797752" lon="39.525311">
        <ele>154.8</ele>
        <time>2017-11-11T09:28:24Z</time>
      </trkpt>
      <trkpt lat="51.797878" lon="39.525872">
        <ele>156.616</ele>
        <time>2017-11-11T09:28:31Z</time>
      </trkpt>
      <trkpt lat="51.798016" lon="39.526346">
        <ele>157.911</ele>
        <time>2017-11-11T09:28:37Z</time>
      </trkpt>
      <trkpt lat="51.798166" lon="39.526692">
        <ele>158.744</ele>
        <time>2017-11-11T09:28:43Z</time>
      </trkpt>
      <trkpt lat="51.798315" lon="39.527232">
        <ele>159.352</ele>
        <time>2017-11-11T09:28:50Z</time>
      </trkpt>
      <trkpt lat="51.798446" lon="39.527568">
        <ele>159.168</ele>
        <time>2017-11-11T09:28:56Z</time>
      </trkpt>
      <trkpt lat="51.798618" lon="39.527858">
        <ele>159.062</ele>
        <time>2017-11-11T09:29:02Z</time>
      </trkpt>
      <trkpt lat="51.798734" lon="39.52839">
        <ele>159.429</ele>
        <time>2017-11-11T09:29:08Z</time>
      </trkpt>
      <trkpt lat="51.798858" lon="39.528807">
        <ele>160.004</ele>
        <time>2017-11-11T09:29:15Z</time>
      </trkpt>
      <trkpt lat="51.799075" lon="39.529128">
        <ele>160.428</ele>
        <time>2017-11-11T09:29:21Z</time>
      </trkpt>
      <trkpt lat="51.79911" lon="39.52947">
        <ele>158.463</ele>
        <time>2017-11-11T09:29:26Z</time>
      </trkpt>
      <trkpt lat="51.799028" lon="39.529965">
        <ele>155.664</ele>
        <time>2017-11-11T09:29:32Z</time>
      </trkpt>
      <trkpt lat="51.799013" lon="39.530183">
        <ele>155.733</ele>
        <time>2017-11-11T09:29:35Z</time>
      </trkpt>
      <trkpt lat="51.79894" lon="39.530698">
        <ele>156.728</ele>
        <time>2017-11-11T09:29:42Z</time>
      </trkpt>
      <trkpt lat="51.798831" lon="39.531134">
        <ele>159.095</ele>
        <time>2017-11-11T09:29:47Z</time>
      </trkpt>
      <trkpt lat="51.798773" lon="39.531465">
        <ele>160.861</ele>
        <time>2017-11-11T09:29:51Z</time>
      </trkpt>
      <trkpt lat="51.798727" lon="39.531689">
        <ele>161.085</ele>
        <time>2017-11-11T09:29:54Z</time>
      </trkpt>
      <trkpt lat="51.798695" lon="39.531897">
        <ele>160.867</ele>
        <time>2017-11-11T09:29:57Z</time>
      </trkpt>
      <trkpt lat="51.798664" lon="39.532106">
        <ele>160.996</ele>
        <time>2017-11-11T09:30:00Z</time>
      </trkpt>
      <trkpt lat="51.798636" lon="39.532338">
        <ele>160.727</ele>
        <time>2017-11-11T09:30:03Z</time>
      </trkpt>
      <trkpt lat="51.798515" lon="39.532821">
        <ele>158.287</ele>
        <time>2017-11-11T09:30:09Z</time>
      </trkpt>
      <trkpt lat="51.798463" lon="39.533051">
        <ele>157.499</ele>
        <time>2017-11-11T09:30:12Z</time>
      </trkpt>
      <trkpt lat="51.798392" lon="39.533456">
        <ele>156.244</ele>
        <time>2017-11-11T09:30:17Z</time>
      </trkpt>
      <trkpt lat="51.798319" lon="39.533901">
        <ele>156.476</ele>
        <time>2017-11-11T09:30:23Z</time>
      </trkpt>
      <trkpt lat="51.798237" lon="39.534389">
        <ele>157.061</ele>
        <time>2017-11-11T09:30:29Z</time>
      </trkpt>
      <trkpt lat="51.798163" lon="39.534741">
        <ele>159.806</ele>
        <time>2017-11-11T09:30:34Z</time>
      </trkpt>
      <trkpt lat="51.798078" lon="39.535184">
        <ele>160.248</ele>
        <time>2017-11-11T09:30:40Z</time>
      </trkpt>
      <trkpt lat="51.798072" lon="39.535519">
        <ele>160.76</ele>
        <time>2017-11-11T09:30:45Z</time>
      </trkpt>
      <trkpt lat="51.798118" lon="39.536036">
        <ele>161.08</ele>
        <time>2017-11-11T09:30:51Z</time>
      </trkpt>
      <trkpt lat="51.798059" lon="39.536509">
        <ele>163.582</ele>
        <time>2017-11-11T09:30:57Z</time>
      </trkpt>
      <trkpt lat="51.798086" lon="39.536965">
        <ele>164.991</ele>
        <time>2017-11-11T09:31:04Z</time>
      </trkpt>
      <trkpt lat="51.798295" lon="39.53723">
        <ele>165.167</ele>
        <time>2017-11-11T09:31:12Z</time>
      </trkpt>
      <trkpt lat="51.798422" lon="39.537289">
        <ele>165.803</ele>
        <time>2017-11-11T09:31:19Z</time>
      </trkpt>
      <trkpt lat="51.798648" lon="39.537407">
        <ele>164.894</ele>
        <time>2017-11-11T09:31:29Z</time>
      </trkpt>
      <trkpt lat="51.799013" lon="39.537521">
        <ele>167.526</ele>
        <time>2017-11-11T09:31:40Z</time>
      </trkpt>
      <trkpt lat="51.799284" lon="39.537636">
        <ele>172.071</ele>
        <time>2017-11-11T09:31:45Z</time>
      </trkpt>
      <trkpt lat="51.799652" lon="39.537803">
        <ele>174.002</ele>
        <time>2017-11-11T09:31:51Z</time>
      </trkpt>
      <trkpt lat="51.799919" lon="39.538029">
        <ele>173.7</ele>
        <time>2017-11-11T09:31:57Z</time>
      </trkpt>
      <trkpt lat="51.800097" lon="39.53816">
        <ele>173.321</ele>
        <time>2017-11-11T09:32:02Z</time>
      </trkpt>
      <trkpt lat="51.800365" lon="39.538265">
        <ele>172.498</ele>
        <time>2017-11-11T09:32:08Z</time>
      </trkpt>
      <trkpt lat="51.800647" lon="39.538484">
        <ele>169.074</ele>
        <time>2017-11-11T09:32:14Z</time>
      </trkpt>
      <trkpt lat="51.801044" lon="39.538632">
        <ele>170.995</ele>
        <time>2017-11-11T09:32:20Z</time>
      </trkpt>
      <trkpt lat="51.801191" lon="39.538729">
        <ele>173.876</ele>
        <time>2017-11-11T09:32:24Z</time>
      </trkpt>
      <trkpt lat="51.801414" lon="39.538853">
        <ele>178.211</ele>
        <time>2017-11-11T09:32:30Z</time>
      </trkpt>
      <trkpt lat="51.80168" lon="39.538995">
        <ele>180.285</ele>
        <time>2017-11-11T09:32:36Z</time>
      </trkpt>
      <trkpt lat="51.801934" lon="39.539085">
        <ele>180.474</ele>
        <time>2017-11-11T09:32:42Z</time>
      </trkpt>
      <trkpt lat="51.802204" lon="39.539233">
        <ele>180.668</ele>
        <time>2017-11-11T09:32:48Z</time>
      </trkpt>
      <trkpt lat="51.802396" lon="39.539344">
        <ele>180.75</ele>
        <time>2017-11-11T09:32:53Z</time>
      </trkpt>
      <trkpt lat="51.802697" lon="39.539494">
        <ele>181.189</ele>
        <time>2017-11-11T09:33:00Z</time>
      </trkpt>
      <trkpt lat="51.80305" lon="39.539621">
        <ele>182.196</ele>
        <time>2017-11-11T09:33:06Z</time>
      </trkpt>
      <trkpt lat="51.803232" lon="39.539779">
        <ele>183.435</ele>
        <time>2017-11-11T09:33:10Z</time>
      </trkpt>
      <trkpt lat="51.80337" lon="39.539854">
        <ele>182.908</ele>
        <time>2017-11-11T09:33:14Z</time>
      </trkpt>
      <trkpt lat="51.803748" lon="39.540115">
        <ele>172.691</ele>
        <time>2017-11-11T09:33:20Z</time>
      </trkpt>
      <trkpt lat="51.804094" lon="39.540248">
        <ele>163.686</ele>
        <time>2017-11-11T09:33:26Z</time>
      </trkpt>
      <trkpt lat="51.804264" lon="39.540259">
        <ele>163.904</ele>
        <time>2017-11-11T09:33:29Z</time>
      </trkpt>
      <trkpt lat="51.804504" lon="39.540397">
        <ele>164.671</ele>
        <time>2017-11-11T09:33:35Z</time>
      </trkpt>
      <trkpt lat="51.804691" lon="39.540485">
        <ele>166.068</ele>
        <time>2017-11-11T09:33:40Z</time>
      </trkpt>
      <trkpt lat="51.80503" lon="39.540637">
        <ele>176.094</ele>
        <time>2017-11-11T09:33:46Z</time>
      </trkpt>
      <trkpt lat="51.805364" lon="39.540763">
        <ele>179.5</ele>
        <time>2017-11-11T09:33:52Z</time>
      </trkpt>
      <trkpt lat="51.805677" lon="39.540907">
        <ele>184.126</ele>
        <time>2017-11-11T09:33:58Z</time>
      </trkpt>
      <trkpt lat="51.806019" lon="39.541063">
        <ele>189.072</ele>
        <time>2017-11-11T09:34:04Z</time>
      </trkpt>
      <trkpt lat="51.806172" lon="39.541134">
        <ele>189.119</ele>
        <time>2017-11-11T09:34:07Z</time>
      </trkpt>
      <trkpt lat="51.806445" lon="39.541264">
        <ele>187.751</ele>
        <time>2017-11-11T09:34:13Z</time>
      </trkpt>
      <trkpt lat="51.806769" lon="39.541492">
        <ele>186.511</ele>
        <time>2017-11-11T09:34:19Z</time>
      </trkpt>
      <trkpt lat="51.806988" lon="39.541606">
        <ele>182.807</ele>
        <time>2017-11-11T09:34:24Z</time>
      </trkpt>
      <trkpt lat="51.807235" lon="39.541736">
        <ele>181.473</ele>
        <time>2017-11-11T09:34:30Z</time>
      </trkpt>
      <trkpt lat="51.8075" lon="39.541834">
        <ele>180.512</ele>
        <time>2017-11-11T09:34:36Z</time>
      </trkpt>
      <trkpt lat="51.807727" lon="39.541898">
        <ele>180.338</ele>
        <time>2017-11-11T09:34:41Z</time>
      </trkpt>
      <trkpt lat="51.807967" lon="39.542054">
        <ele>180.97</ele>
        <time>2017-11-11T09:34:47Z</time>
      </trkpt>
      <trkpt lat="51.808171" lon="39.542098">
        <ele>182.141</ele>
        <time>2017-11-11T09:34:52Z</time>
      </trkpt>
      <trkpt lat="51.808546" lon="39.542364">
        <ele>184.533</ele>
        <time>2017-11-11T09:34:59Z</time>
      </trkpt>
      <trkpt lat="51.808822" lon="39.542487">
        <ele>189.687</ele>
        <time>2017-11-11T09:35:05Z</time>
      </trkpt>
      <trkpt lat="51.809186" lon="39.542691">
        <ele>190.68</ele>
        <time>2017-11-11T09:35:11Z</time>
      </trkpt>
      <trkpt lat="51.80955" lon="39.542901">
        <ele>188.689</ele>
        <time>2017-11-11T09:35:18Z</time>
      </trkpt>
      <trkpt lat="51.809887" lon="39.543042">
        <ele>185.281</ele>
        <time>2017-11-11T09:35:24Z</time>
      </trkpt>
      <trkpt lat="51.810175" lon="39.543206">
        <ele>180.322</ele>
        <time>2017-11-11T09:35:29Z</time>
      </trkpt>
      <trkpt lat="51.810472" lon="39.543438">
        <ele>175.661</ele>
        <time>2017-11-11T09:35:35Z</time>
      </trkpt>
      <trkpt lat="51.810762" lon="39.543506">
        <ele>175.887</ele>
        <time>2017-11-11T09:35:41Z</time>
      </trkpt>
      <trkpt lat="51.810962" lon="39.54356">
        <ele>176.445</ele>
        <time>2017-11-11T09:35:47Z</time>
      </trkpt>
      <trkpt lat="51.811243" lon="39.543706">
        <ele>177.419</ele>
        <time>2017-11-11T09:35:53Z</time>
      </trkpt>
      <trkpt lat="51.811417" lon="39.543816">
        <ele>178.157</ele>
        <time>2017-11-11T09:35:58Z</time>
      </trkpt>
      <trkpt lat="51.811656" lon="39.543954">
        <ele>178.664</ele>
        <time>2017-11-11T09:36:04Z</time>
      </trkpt>
      <trkpt lat="51.81181" lon="39.544033">
        <ele>178.512</ele>
        <time>2017-11-11T09:36:10Z</time>
      </trkpt>
      <trkpt lat="51.81181" lon="39.544033">
        <time>2017-11-11T09:36:15Z</time>
      </trkpt>
    </trkseg>
    <trkseg>
      <trkpt lat="51.81181" lon="39.544033">
        <time>2017-11-11T09:36:34Z</time>
      </trkpt>
      <trkpt lat="51.812076" lon="39.544175">
        <ele>176.507</ele>
        <time>2017-11-11T09:36:34Z</time>
      </trkpt>
      <trkpt lat="51.812297" lon="39.544291">
        <ele>177.276</ele>
        <time>2017-11-11T09:36:39Z</time>
      </trkpt>
      <trkpt lat="51.812567" lon="39.544417">
        <ele>178.43</ele>
        <time>2017-11-11T09:36:45Z</time>
      </trkpt>
      <trkpt lat="51.812803" lon="39.544496">
        <ele>180.36</ele>
        <time>2017-11-11T09:36:51Z</time>
      </trkpt>
      <trkpt lat="51.813148" lon="39.544603">
        <ele>181.855</ele>
        <time>2017-11-11T09:36:57Z</time>
      </trkpt>
      <trkpt lat="51.813379" lon="39.54487">
        <ele>184.355</ele>
        <time>2017-11-11T09:37:03Z</time>
      </trkpt>
      <trkpt lat="51.813484" lon="39.545404">
        <ele>185.267</ele>
        <time>2017-11-11T09:37:09Z</time>
      </trkpt>
      <trkpt lat="51.813465" lon="39.545978">
        <ele>184.759</ele>
        <time>2017-11-11T09:37:15Z</time>
      </trkpt>
      <trkpt lat="51.813452" lon="39.546438">
        <ele>178.264</ele>
        <time>2017-11-11T09:37:21Z</time>
      </trkpt>
      <trkpt lat="51.813414" lon="39.54681">
        <ele>177.391</ele>
        <time>2017-11-11T09:37:26Z</time>
      </trkpt>
      <trkpt lat="51.813362" lon="39.547218">
        <ele>170.782</ele>
        <time>2017-11-11T09:37:31Z</time>
      </trkpt>
      <trkpt lat="51.81324" lon="39.547653">
        <ele>159.01</ele>
        <time>2017-11-11T09:37:37Z</time>
      </trkpt>
      <trkpt lat="51.813178" lon="39.548106">
        <ele>156.864</ele>
        <time>2017-11-11T09:37:43Z</time>
      </trkpt>
      <trkpt lat="51.813172" lon="39.548544">
        <ele>155.639</ele>
        <time>2017-11-11T09:37:49Z</time>
      </trkpt>
      <trkpt lat="51.813149" lon="39.548952">
        <ele>154.708</ele>
        <time>2017-11-11T09:37:55Z</time>
      </trkpt>
      <trkpt lat="51.813125" lon="39.549336">
        <ele>153.276</ele>
        <time>2017-11-11T09:38:00Z</time>
      </trkpt>
      <trkpt lat="51.81303" lon="39.549783">
        <ele>151.595</ele>
        <time>2017-11-11T09:38:06Z</time>
      </trkpt>
      <trkpt lat="51.812992" lon="39.550204">
        <ele>151.659</ele>
        <time>2017-11-11T09:38:12Z</time>
      </trkpt>
      <trkpt lat="51.812968" lon="39.550654">
        <ele>151.06</ele>
        <time>2017-11-11T09:38:18Z</time>
      </trkpt>
      <trkpt lat="51.812909" lon="39.551091">
        <ele>151.515</ele>
        <time>2017-11-11T09:38:24Z</time>
      </trkpt>
      <trkpt lat="51.812883" lon="39.551296">
        <ele>153.031</ele>
        <time>2017-11-11T09:38:27Z</time>
      </trkpt>
      <trkpt lat="51.812843" lon="39.551668">
        <ele>155.294</ele>
        <time>2017-11-11T09:38:32Z</time>
      </trkpt>
      <trkpt lat="51.812823" lon="39.552102">
        <ele>156.252</ele>
        <time>2017-11-11T09:38:39Z</time>
      </trkpt>
      <trkpt lat="51.812858" lon="39.552425">
        <ele>154.406</ele>
        <time>2017-11-11T09:38:44Z</time>
      </trkpt>
      <trkpt lat="51.812784" lon="39.55296">
        <ele>153.347</ele>
        <time>2017-11-11T09:38:50Z</time>
      </trkpt>
      <trkpt lat="51.81272" lon="39.553253">
        <ele>153.412</ele>
        <time>2017-11-11T09:38:55Z</time>
      </trkpt>
      <trkpt lat="51.812601" lon="39.553575">
        <ele>153.443</ele>
        <time>2017-11-11T09:39:02Z</time>
      </trkpt>
      <trkpt lat="51.812515" lon="39.55394">
        <ele>154.637</ele>
        <time>2017-11-11T09:39:09Z</time>
      </trkpt>
      <trkpt lat="51.812475" lon="39.554173">
        <ele>155.292</ele>
        <time>2017-11-11T09:39:16Z</time>
      </trkpt>
      <trkpt lat="51.812559" lon="39.554448">
        <ele>155.903</ele>
        <time>2017-11-11T09:39:29Z</time>
      </trkpt>
      <trkpt lat="51.812541" lon="39.555172">
        <ele>156.985</ele>
        <time>2017-11-11T09:39:42Z</time>
      </trkpt>
      <trkpt lat="51.812569" lon="39.555698">
        <ele>159.488</ele>
        <time>2017-11-11T09:39:50Z</time>
      </trkpt>
      <trkpt lat="51.812592" lon="39.555999">
        <ele>159.708</ele>
        <time>2017-11-11T09:39:56Z</time>
      </trkpt>
      <trkpt lat="51.812581" lon="39.55622">
        <ele>160.032</ele>
        <time>2017-11-11T09:40:00Z</time>
      </trkpt>
      <trkpt lat="51.81261" lon="39.556626">
        <ele>162.424</ele>
        <time>2017-11-11T09:40:05Z</time>
      </trkpt>
      <trkpt lat="51.812633" lon="39.557022">
        <ele>163.508</ele>
        <time>2017-11-11T09:40:11Z</time>
      </trkpt>
      <trkpt lat="51.812657" lon="39.557434">
        <ele>162.888</ele>
        <time>2017-11-11T09:40:17Z</time>
      </trkpt>
      <trkpt lat="51.812602" lon="39.557784">
        <ele>161.56</ele>
        <time>2017-11-11T09:40:22Z</time>
      </trkpt>
      <trkpt lat="51.812495" lon="39.558177">
        <ele>161.543</ele>
        <time>2017-11-11T09:40:29Z</time>
      </trkpt>
      <trkpt lat="51.812474" lon="39.55852">
        <ele>161.195</ele>
        <time>2017-11-11T09:40:34Z</time>
      </trkpt>
      <trkpt lat="51.812522" lon="39.558969">
        <ele>159.918</ele>
        <time>2017-11-11T09:40:40Z</time>
      </trkpt>
      <trkpt lat="51.812502" lon="39.559393">
        <ele>159.011</ele>
        <time>2017-11-11T09:40:46Z</time>
      </trkpt>
      <trkpt lat="51.812497" lon="39.559629">
        <ele>158.711</ele>
        <time>2017-11-11T09:40:49Z</time>
      </trkpt>
      <trkpt lat="51.812506" lon="39.56001">
        <ele>158.702</ele>
        <time>2017-11-11T09:40:55Z</time>
      </trkpt>
      <trkpt lat="51.812476" lon="39.560386">
        <ele>159.268</ele>
        <time>2017-11-11T09:41:01Z</time>
      </trkpt>
      <trkpt lat="51.812476" lon="39.560696">
        <ele>161.069</ele>
        <time>2017-11-11T09:41:06Z</time>
      </trkpt>
      <trkpt lat="51.812755" lon="39.560842">
        <ele>164.538</ele>
        <time>2017-11-11T09:41:14Z</time>
      </trkpt>
      <trkpt lat="51.812994" lon="39.560931">
        <ele>168.217</ele>
        <time>2017-11-11T09:41:19Z</time>
      </trkpt>
      <trkpt lat="51.813136" lon="39.561006">
        <ele>169.554</ele>
        <time>2017-11-11T09:41:22Z</time>
      </trkpt>
      <trkpt lat="51.81346" lon="39.561196">
        <ele>168.675</ele>
        <time>2017-11-11T09:41:28Z</time>
      </trkpt>
      <trkpt lat="51.813685" lon="39.561309">
        <ele>166.695</ele>
        <time>2017-11-11T09:41:33Z</time>
      </trkpt>
      <trkpt lat="51.813848" lon="39.561391">
        <ele>165.6</ele>
        <time>2017-11-11T09:41:36Z</time>
      </trkpt>
      <trkpt lat="51.81399" lon="39.561482">
        <ele>165.517</ele>
        <time>2017-11-11T09:41:39Z</time>
      </trkpt>
      <trkpt lat="51.814186" lon="39.561573">
        <ele>165.256</ele>
        <time>2017-11-11T09:41:43Z</time>
      </trkpt>
      <trkpt lat="51.814494" lon="39.561745">
        <ele>165.194</ele>
        <time>2017-11-11T09:41:49Z</time>
      </trkpt>
      <trkpt lat="51.814644" lon="39.561821">
        <ele>163.845</ele>
        <time>2017-11-11T09:41:52Z</time>
      </trkpt>
      <trkpt lat="51.814938" lon="39.561978">
        <ele>160.749</ele>
        <time>2017-11-11T09:41:58Z</time>
      </trkpt>
      <trkpt lat="51.815089" lon="39.562062">
        <ele>160.292</ele>
        <time>2017-11-11T09:42:01Z</time>
      </trkpt>
      <trkpt lat="51.815228" lon="39.562148">
        <ele>160.352</ele>
        <time>2017-11-11T09:42:04Z</time>
      </trkpt>
      <trkpt lat="51.815504" lon="39.562273">
        <ele>161.78</ele>
        <time>2017-11-11T09:42:10Z</time>
      </trkpt>
      <trkpt lat="51.815761" lon="39.562395">
        <ele>163.229</ele>
        <time>2017-11-11T09:42:15Z</time>
      </trkpt>
      <trkpt lat="51.815998" lon="39.562523">
        <ele>164.256</ele>
        <time>2017-11-11T09:42:20Z</time>
      </trkpt>
      <trkpt lat="51.816144" lon="39.562578">
        <ele>164.755</ele>
        <time>2017-11-11T09:42:23Z</time>
      </trkpt>
      <trkpt lat="51.816442" lon="39.562743">
        <ele>165.811</ele>
        <time>2017-11-11T09:42:29Z</time>
      </trkpt>
      <trkpt lat="51.816742" lon="39.562877">
        <ele>165.369</ele>
        <time>2017-11-11T09:42:35Z</time>
      </trkpt>
      <trkpt lat="51.817025" lon="39.563009">
        <ele>163.493</ele>
        <time>2017-11-11T09:42:41Z</time>
      </trkpt>
      <trkpt lat="51.817174" lon="39.563099">
        <ele>161.407</ele>
        <time>2017-11-11T09:42:44Z</time>
      </trkpt>
      <trkpt lat="51.817395" lon="39.563221">
        <ele>160.279</ele>
        <time>2017-11-11T09:42:49Z</time>
      </trkpt>
      <trkpt lat="51.817633" lon="39.563311">
        <ele>161.091</ele>
        <time>2017-11-11T09:42:54Z</time>
      </trkpt>
      <trkpt lat="51.817923" lon="39.56343">
        <ele>164.178</ele>
        <time>2017-11-11T09:43:00Z</time>
      </trkpt>
      <trkpt lat="51.818151" lon="39.563513">
        <ele>165.602</ele>
        <time>2017-11-11T09:43:06Z</time>
      </trkpt>
      <trkpt lat="51.818309" lon="39.563573">
        <ele>165.032</ele>
        <time>2017-11-11T09:43:09Z</time>
      </trkpt>
      <trkpt lat="51.81856" lon="39.563656">
        <ele>164.367</ele>
        <time>2017-11-11T09:43:15Z</time>
      </trkpt>
      <trkpt lat="51.818781" lon="39.563822">
        <ele>163.88</ele>
        <time>2017-11-11T09:43:20Z</time>
      </trkpt>
      <trkpt lat="51.818986" lon="39.563897">
        <ele>163.43</ele>
        <time>2017-11-11T09:43:25Z</time>
      </trkpt>
      <trkpt lat="51.819208" lon="39.564029">
        <ele>163.555</ele>
        <time>2017-11-11T09:43:30Z</time>
      </trkpt>
      <trkpt lat="51.819411" lon="39.564022">
        <ele>164.062</ele>
        <time>2017-11-11T09:43:35Z</time>
      </trkpt>
      <trkpt lat="51.819764" lon="39.564219">
        <ele>165.852</ele>
        <time>2017-11-11T09:43:43Z</time>
      </trkpt>
      <trkpt lat="51.820033" lon="39.564387">
        <ele>166.974</ele>
        <time>2017-11-11T09:43:49Z</time>
      </trkpt>
      <trkpt lat="51.820286" lon="39.564518">
        <ele>169.642</ele>
        <time>2017-11-11T09:43:54Z</time>
      </trkpt>
      <trkpt lat="51.820604" lon="39.564784">
        <ele>167.935</ele>
        <time>2017-11-11T09:43:59Z</time>
      </trkpt>
      <trkpt lat="51.820944" lon="39.564941">
        <ele>165.06</ele>
        <time>2017-11-11T09:44:06Z</time>
      </trkpt>
      <trkpt lat="51.821207" lon="39.565123">
        <ele>162.989</ele>
        <time>2017-11-11T09:44:11Z</time>
      </trkpt>
      <trkpt lat="51.821428" lon="39.565278">
        <ele>162.225</ele>
        <time>2017-11-11T09:44:15Z</time>
      </trkpt>
      <trkpt lat="51.821653" lon="39.565377">
        <ele>155.794</ele>
        <time>2017-11-11T09:44:20Z</time>
      </trkpt>
      <trkpt lat="51.821816" lon="39.565428">
        <ele>153.467</ele>
        <time>2017-11-11T09:44:23Z</time>
      </trkpt>
      <trkpt lat="51.822071" lon="39.565496">
        <ele>154.216</ele>
        <time>2017-11-11T09:44:28Z</time>
      </trkpt>
      <trkpt lat="51.822275" lon="39.565546">
        <ele>155.372</ele>
        <time>2017-11-11T09:44:33Z</time>
      </trkpt>
      <trkpt lat="51.82251" lon="39.5656">
        <ele>157.689</ele>
        <time>2017-11-11T09:44:41Z</time>
      </trkpt>
      <trkpt lat="51.822752" lon="39.565705">
        <ele>159.797</ele>
        <time>2017-11-11T09:44:47Z</time>
      </trkpt>
      <trkpt lat="51.822901" lon="39.565824">
        <ele>160.842</ele>
        <time>2017-11-11T09:44:51Z</time>
      </trkpt>
      <trkpt lat="51.823024" lon="39.56592">
        <ele>164.16</ele>
        <time>2017-11-11T09:44:54Z</time>
      </trkpt>
      <trkpt lat="51.823193" lon="39.565995">
        <ele>170.451</ele>
        <time>2017-11-11T09:44:57Z</time>
      </trkpt>
      <trkpt lat="51.823478" lon="39.566053">
        <ele>173.43</ele>
        <time>2017-11-11T09:45:03Z</time>
      </trkpt>
      <trkpt lat="51.823806" lon="39.566265">
        <ele>173.99</ele>
        <time>2017-11-11T09:45:10Z</time>
      </trkpt>
      <trkpt lat="51.824025" lon="39.566334">
        <ele>174.094</ele>
        <time>2017-11-11T09:45:17Z</time>
      </trkpt>
      <trkpt lat="51.824284" lon="39.566485">
        <ele>175.451</ele>
        <time>2017-11-11T09:45:25Z</time>
      </trkpt>
      <trkpt lat="51.824516" lon="39.566518">
        <ele>176.456</ele>
        <time>2017-11-11T09:45:31Z</time>
      </trkpt>
      <trkpt lat="51.824733" lon="39.566637">
        <ele>176.689</ele>
        <time>2017-11-11T09:45:36Z</time>
      </trkpt>
      <trkpt lat="51.824933" lon="39.566817">
        <ele>177.779</ele>
        <time>2017-11-11T09:45:42Z</time>
      </trkpt>
      <trkpt lat="51.825207" lon="39.56694">
        <ele>178.535</ele>
        <time>2017-11-11T09:45:48Z</time>
      </trkpt>
      <trkpt lat="51.825428" lon="39.567063">
        <ele>178.343</ele>
        <time>2017-11-11T09:45:53Z</time>
      </trkpt>
      <trkpt lat="51.825648" lon="39.567198">
        <ele>177.71</ele>
        <time>2017-11-11T09:45:58Z</time>
      </trkpt>
      <trkpt lat="51.825795" lon="39.567246">
        <ele>177.276</ele>
        <time>2017-11-11T09:46:02Z</time>
      </trkpt>
      <trkpt lat="51.826008" lon="39.567318">
        <ele>176.245</ele>
        <time>2017-11-11T09:46:07Z</time>
      </trkpt>
      <trkpt lat="51.82629" lon="39.567457">
        <ele>177.32</ele>
        <time>2017-11-11T09:46:13Z</time>
      </trkpt>
      <trkpt lat="51.826522" lon="39.56764">
        <ele>178.32</ele>
        <time>2017-11-11T09:46:19Z</time>
      </trkpt>
      <trkpt lat="51.826835" lon="39.567799">
        <ele>179.977</ele>
        <time>2017-11-11T09:46:26Z</time>
      </trkpt>
      <trkpt lat="51.827074" lon="39.567924">
        <ele>177.755</ele>
        <time>2017-11-11T09:46:31Z</time>
      </trkpt>
      <trkpt lat="51.827326" lon="39.568076">
        <ele>175.682</ele>
        <time>2017-11-11T09:46:37Z</time>
      </trkpt>
      <trkpt lat="51.827584" lon="39.568159">
        <ele>176.855</ele>
        <time>2017-11-11T09:46:42Z</time>
      </trkpt>
      <trkpt lat="51.827754" lon="39.568193">
        <ele>177.132</ele>
        <time>2017-11-11T09:46:45Z</time>
      </trkpt>
      <trkpt lat="51.828053" lon="39.568306">
        <ele>177.082</ele>
        <time>2017-11-11T09:46:51Z</time>
      </trkpt>
      <trkpt lat="51.828345" lon="39.568492">
        <ele>174.578</ele>
        <time>2017-11-11T09:46:57Z</time>
      </trkpt>
      <trkpt lat="51.828621" lon="39.568636">
        <ele>174.143</ele>
        <time>2017-11-11T09:47:03Z</time>
      </trkpt>
      <trkpt lat="51.828909" lon="39.568807">
        <ele>173.865</ele>
        <time>2017-11-11T09:47:09Z</time>
      </trkpt>
      <trkpt lat="51.829182" lon="39.568996">
        <ele>174.317</ele>
        <time>2017-11-11T09:47:15Z</time>
      </trkpt>
      <trkpt lat="51.829489" lon="39.569188">
        <ele>174.821</ele>
        <time>2017-11-11T09:47:21Z</time>
      </trkpt>
      <trkpt lat="51.829809" lon="39.569347">
        <ele>174.73</ele>
        <time>2017-11-11T09:47:27Z</time>
      </trkpt>
      <trkpt lat="51.829971" lon="39.569428">
        <ele>172.851</ele>
        <time>2017-11-11T09:47:30Z</time>
      </trkpt>
      <trkpt lat="51.830296" lon="39.569618">
        <ele>170.108</ele>
        <time>2017-11-11T09:47:36Z</time>
      </trkpt>
      <trkpt lat="51.830542" lon="39.569713">
        <ele>168.879</ele>
        <time>2017-11-11T09:47:41Z</time>
      </trkpt>
      <trkpt lat="51.83082" lon="39.569844">
        <ele>172.052</ele>
        <time>2017-11-11T09:47:47Z</time>
      </trkpt>
      <trkpt lat="51.830968" lon="39.569884">
        <ele>175.591</ele>
        <time>2017-11-11T09:47:50Z</time>
      </trkpt>
      <trkpt lat="51.831277" lon="39.570019">
        <ele>178.181</ele>
        <time>2017-11-11T09:47:56Z</time>
      </trkpt>
      <trkpt lat="51.831532" lon="39.570151">
        <ele>177.259</ele>
        <time>2017-11-11T09:48:01Z</time>
      </trkpt>
      <trkpt lat="51.83178" lon="39.570325">
        <ele>178.099</ele>
        <time>2017-11-11T09:48:07Z</time>
      </trkpt>
      <trkpt lat="51.832045" lon="39.570374">
        <ele>179.013</ele>
        <time>2017-11-11T09:48:14Z</time>
      </trkpt>
      <trkpt lat="51.832345" lon="39.570544">
        <ele>183.851</ele>
        <time>2017-11-11T09:48:20Z</time>
      </trkpt>
      <trkpt lat="51.832632" lon="39.570703">
        <ele>184.785</ele>
        <time>2017-11-11T09:48:26Z</time>
      </trkpt>
      <trkpt lat="51.832889" lon="39.57086">
        <ele>185.087</ele>
        <time>2017-11-11T09:48:30Z</time>
      </trkpt>
      <trkpt lat="51.833102" lon="39.570921">
        <ele>187.214</ele>
        <time>2017-11-11T09:48:35Z</time>
      </trkpt>
      <trkpt lat="51.833335" lon="39.571078">
        <ele>188.042</ele>
        <time>2017-11-11T09:48:39Z</time>
      </trkpt>
      <trkpt lat="51.833622" lon="39.571296">
        <ele>189.372</ele>
        <time>2017-11-11T09:48:45Z</time>
      </trkpt>
      <trkpt lat="51.833787" lon="39.571353">
        <ele>189.485</ele>
        <time>2017-11-11T09:48:49Z</time>
      </trkpt>
      <trkpt lat="51.834015" lon="39.571395">
        <ele>189.185</ele>
        <time>2017-11-11T09:48:54Z</time>
      </trkpt>
      <trkpt lat="51.834269" lon="39.571628">
        <ele>188.966</ele>
        <time>2017-11-11T09:48:59Z</time>
      </trkpt>
      <trkpt lat="51.834475" lon="39.571762">
        <ele>188.155</ele>
        <time>2017-11-11T09:49:04Z</time>
      </trkpt>
      <trkpt lat="51.834646" lon="39.57185">
        <ele>186.212</ele>
        <time>2017-11-11T09:49:12Z</time>
      </trkpt>
      <trkpt lat="51.834823" lon="39.571941">
        <ele>184.631</ele>
        <time>2017-11-11T09:49:18Z</time>
      </trkpt>
      <trkpt lat="51.834952" lon="39.572036">
        <ele>182.932</ele>
        <time>2017-11-11T09:49:26Z</time>
      </trkpt>
      <trkpt lat="51.835275" lon="39.572182">
        <ele>181.028</ele>
        <time>2017-11-11T09:49:38Z</time>
      </trkpt>
      <trkpt lat="51.83555" lon="39.572474">
        <ele>179.417</ele>
        <time>2017-11-11T09:49:46Z</time>
      </trkpt>
      <trkpt lat="51.835628" lon="39.572682">
        <ele>178.416</ele>
        <time>2017-11-11T09:49:51Z</time>
      </trkpt>
      <trkpt lat="51.835714" lon="39.572825">
        <ele>176.27</ele>
        <time>2017-11-11T09:50:00Z</time>
      </trkpt>
      <trkpt lat="51.836085" lon="39.57262">
        <ele>174.227</ele>
        <time>2017-11-11T09:50:16Z</time>
      </trkpt>
      <trkpt lat="51.836295" lon="39.572572">
        <ele>174.327</ele>
        <time>2017-11-11T09:50:23Z</time>
      </trkpt>
      <trkpt lat="51.836464" lon="39.572672">
        <ele>175.06</ele>
        <time>2017-11-11T09:50:29Z</time>
      </trkpt>
      <trkpt lat="51.83669" lon="39.572767">
        <ele>174.799</ele>
        <time>2017-11-11T09:50:35Z</time>
      </trkpt>
      <trkpt lat="51.836846" lon="39.572888">
        <ele>174.59</ele>
        <time>2017-11-11T09:50:44Z</time>
      </trkpt>
      <trkpt lat="51.837143" lon="39.573071">
        <ele>175.173</ele>
        <time>2017-11-11T09:50:52Z</time>
      </trkpt>
      <trkpt lat="51.837367" lon="39.573154">
        <ele>175.322</ele>
        <time>2017-11-11T09:50:58Z</time>
      </trkpt>
      <trkpt lat="51.837709" lon="39.573282">
        <ele>175.537</ele>
        <time>2017-11-11T09:51:05Z</time>
      </trkpt>
      <trkpt lat="51.837926" lon="39.573424">
        <ele>175.762</ele>
        <time>2017-11-11T09:51:11Z</time>
      </trkpt>
      <trkpt lat="51.838202" lon="39.573546">
        <ele>176.683</ele>
        <time>2017-11-11T09:51:19Z</time>
      </trkpt>
      <trkpt lat="51.838559" lon="39.573745">
        <ele>178.128</ele>
        <time>2017-11-11T09:51:27Z</time>
      </trkpt>
      <trkpt lat="51.83885" lon="39.573874">
        <ele>178.661</ele>
        <time>2017-11-11T09:51:33Z</time>
      </trkpt>
      <trkpt lat="51.839039" lon="39.57396">
        <ele>178.209</ele>
        <time>2017-11-11T09:51:38Z</time>
      </trkpt>
      <trkpt lat="51.839304" lon="39.574059">
        <ele>177.475</ele>
        <time>2017-11-11T09:51:44Z</time>
      </trkpt>
      <trkpt lat="51.839552" lon="39.574238">
        <ele>177.135</ele>
        <time>2017-11-11T09:51:50Z</time>
      </trkpt>
      <trkpt lat="51.839811" lon="39.574303">
        <ele>176.81</ele>
        <time>2017-11-11T09:51:58Z</time>
      </trkpt>
      <trkpt lat="51.83999" lon="39.574049">
        <ele>176.346</ele>
        <time>2017-11-11T09:52:03Z</time>
      </trkpt>
      <trkpt lat="51.840219" lon="39.573905">
        <ele>176.397</ele>
        <time>2017-11-11T09:52:09Z</time>
      </trkpt>
      <trkpt lat="51.84041" lon="39.574009">
        <ele>176.318</ele>
        <time>2017-11-11T09:52:14Z</time>
      </trkpt>
      <trkpt lat="51.840657" lon="39.574232">
        <ele>175.744</ele>
        <time>2017-11-11T09:52:20Z</time>
      </trkpt>
      <trkpt lat="51.840776" lon="39.574518">
        <ele>173.948</ele>
        <time>2017-11-11T09:52:24Z</time>
      </trkpt>
      <trkpt lat="51.840889" lon="39.574774">
        <ele>173.339</ele>
        <time>2017-11-11T09:52:29Z</time>
      </trkpt>
      <trkpt lat="51.841006" lon="39.574894">
        <ele>172.604</ele>
        <time>2017-11-11T09:52:35Z</time>
      </trkpt>
      <trkpt lat="51.84128" lon="39.575">
        <ele>172.931</ele>
        <time>2017-11-11T09:52:44Z</time>
      </trkpt>
      <trkpt lat="51.841593" lon="39.575163">
        <ele>174.002</ele>
        <time>2017-11-11T09:52:50Z</time>
      </trkpt>
      <trkpt lat="51.841852" lon="39.575317">
        <ele>178.249</ele>
        <time>2017-11-11T09:52:56Z</time>
      </trkpt>
      <trkpt lat="51.842174" lon="39.575563">
        <ele>179.385</ele>
        <time>2017-11-11T09:53:03Z</time>
      </trkpt>
      <trkpt lat="51.842367" lon="39.575634">
        <ele>180.108</ele>
        <time>2017-11-11T09:53:08Z</time>
      </trkpt>
      <trkpt lat="51.842574" lon="39.575753">
        <ele>180.683</ele>
        <time>2017-11-11T09:53:13Z</time>
      </trkpt>
      <trkpt lat="51.842834" lon="39.575933">
        <ele>181.036</ele>
        <time>2017-11-11T09:53:19Z</time>
      </trkpt>
      <trkpt lat="51.843098" lon="39.576118">
        <ele>181.364</ele>
        <time>2017-11-11T09:53:24Z</time>
      </trkpt>
      <trkpt lat="51.843373" lon="39.576269">
        <ele>181.626</ele>
        <time>2017-11-11T09:53:30Z</time>
      </trkpt>
      <trkpt lat="51.843641" lon="39.576339">
        <ele>181.527</ele>
        <time>2017-11-11T09:53:35Z</time>
      </trkpt>
      <trkpt lat="51.843885" lon="39.576395">
        <ele>181.067</ele>
        <time>2017-11-11T09:53:41Z</time>
      </trkpt>
      <trkpt lat="51.84419" lon="39.576554">
        <ele>180.384</ele>
        <time>2017-11-11T09:53:47Z</time>
      </trkpt>
      <trkpt lat="51.844435" lon="39.576706">
        <ele>175.098</ele>
        <time>2017-11-11T09:53:52Z</time>
      </trkpt>
      <trkpt lat="51.844647" lon="39.576704">
        <ele>174.202</ele>
        <time>2017-11-11T09:53:57Z</time>
      </trkpt>
      <trkpt lat="51.844953" lon="39.576557">
        <ele>173.801</ele>
        <time>2017-11-11T09:54:03Z</time>
      </trkpt>
      <trkpt lat="51.845188" lon="39.576445">
        <ele>173.092</ele>
        <time>2017-11-11T09:54:09Z</time>
      </trkpt>
      <trkpt lat="51.845445" lon="39.576491">
        <ele>172.598</ele>
        <time>2017-11-11T09:54:15Z</time>
      </trkpt>
      <trkpt lat="51.845689" lon="39.576598">
        <ele>171.964</ele>
        <time>2017-11-11T09:54:22Z</time>
      </trkpt>
      <trkpt lat="51.845863" lon="39.577043">
        <ele>171.32</ele>
        <time>2017-11-11T09:54:29Z</time>
      </trkpt>
      <trkpt lat="51.845904" lon="39.577288">
        <ele>171.119</ele>
        <time>2017-11-11T09:54:33Z</time>
      </trkpt>
      <trkpt lat="51.845941" lon="39.57768">
        <ele>169.437</ele>
        <time>2017-11-11T09:54:39Z</time>
      </trkpt>
      <trkpt lat="51.846003" lon="39.577844">
        <ele>168.946</ele>
        <time>2017-11-11T09:54:43Z</time>
      </trkpt>
      <trkpt lat="51.84621" lon="39.577938">
        <ele>168.72</ele>
        <time>2017-11-11T09:54:51Z</time>
      </trkpt>
      <trkpt lat="51.84636" lon="39.577884">
        <ele>169.283</ele>
        <time>2017-11-11T09:54:56Z</time>
      </trkpt>
      <trkpt lat="51.846606" lon="39.577946">
        <ele>170.419</ele>
        <time>2017-11-11T09:55:02Z</time>
      </trkpt>
      <trkpt lat="51.846907" lon="39.577912">
        <ele>171.768</ele>
        <time>2017-11-11T09:55:09Z</time>
      </trkpt>
      <trkpt lat="51.847124" lon="39.577875">
        <ele>172.569</ele>
        <time>2017-11-11T09:55:14Z</time>
      </trkpt>
      <trkpt lat="51.847438" lon="39.578087">
        <ele>173.189</ele>
        <time>2017-11-11T09:55:20Z</time>
      </trkpt>
      <trkpt lat="51.847758" lon="39.578158">
        <ele>172.028</ele>
        <time>2017-11-11T09:55:26Z</time>
      </trkpt>
      <trkpt lat="51.847916" lon="39.57821">
        <ele>171.437</ele>
        <time>2017-11-11T09:55:30Z</time>
      </trkpt>
      <trkpt lat="51.848208" lon="39.578196">
        <ele>171.603</ele>
        <time>2017-11-11T09:55:36Z</time>
      </trkpt>
      <trkpt lat="51.848437" lon="39.578137">
        <ele>174.15</ele>
        <time>2017-11-11T09:55:41Z</time>
      </trkpt>
      <trkpt lat="51.848706" lon="39.57807">
        <ele>183.462</ele>
        <time>2017-11-11T09:55:47Z</time>
      </trkpt>
      <trkpt lat="51.848852" lon="39.578152">
        <ele>183.847</ele>
        <time>2017-11-11T09:55:50Z</time>
      </trkpt>
      <trkpt lat="51.849192" lon="39.578194">
        <ele>188.432</ele>
        <time>2017-11-11T09:55:57Z</time>
      </trkpt>
      <trkpt lat="51.849615" lon="39.578236">
        <ele>188.243</ele>
        <time>2017-11-11T09:56:03Z</time>
      </trkpt>
      <trkpt lat="51.849863" lon="39.578389">
        <ele>185.585</ele>
        <time>2017-11-11T09:56:08Z</time>
      </trkpt>
      <trkpt lat="51.850077" lon="39.578549">
        <ele>183.83</ele>
        <time>2017-11-11T09:56:16Z</time>
      </trkpt>
      <trkpt lat="51.850464" lon="39.578516">
        <ele>181.18</ele>
        <time>2017-11-11T09:56:24Z</time>
      </trkpt>
      <trkpt lat="51.850791" lon="39.578564">
        <ele>177.603</ele>
        <time>2017-11-11T09:56:29Z</time>
      </trkpt>
      <trkpt lat="51.851049" lon="39.578608">
        <ele>177.637</ele>
        <time>2017-11-11T09:56:34Z</time>
      </trkpt>
      <trkpt lat="51.851286" lon="39.578672">
        <ele>178.191</ele>
        <time>2017-11-11T09:56:39Z</time>
      </trkpt>
      <trkpt lat="51.851439" lon="39.578682">
        <ele>178.581</ele>
        <time>2017-11-11T09:56:43Z</time>
      </trkpt>
      <trkpt lat="51.85177" lon="39.578725">
        <ele>179.727</ele>
        <time>2017-11-11T09:56:49Z</time>
      </trkpt>
      <trkpt lat="51.852116" lon="39.578772">
        <ele>180.884</ele>
        <time>2017-11-11T09:56:55Z</time>
      </trkpt>
      <trkpt lat="51.852333" lon="39.578839">
        <ele>180.44</ele>
        <time>2017-11-11T09:57:00Z</time>
      </trkpt>
      <trkpt lat="51.85266" lon="39.578908">
        <ele>178.904</ele>
        <time>2017-11-11T09:57:06Z</time>
      </trkpt>
      <trkpt lat="51.852952" lon="39.578936">
        <ele>177.697</ele>
        <time>2017-11-11T09:57:10Z</time>
      </trkpt>
      <trkpt lat="51.853236" lon="39.579034">
        <ele>177.715</ele>
        <time>2017-11-11T09:57:16Z</time>
      </trkpt>
      <trkpt lat="51.853552" lon="39.579082">
        <ele>176.69</ele>
        <time>2017-11-11T09:57:22Z</time>
      </trkpt>
      <trkpt lat="51.853894" lon="39.579094">
        <ele>176.125</ele>
        <time>2017-11-11T09:57:29Z</time>
      </trkpt>
      <trkpt lat="51.854195" lon="39.579111">
        <ele>177.039</ele>
        <time>2017-11-11T09:57:35Z</time>
      </trkpt>
      <trkpt lat="51.85445" lon="39.579113">
        <ele>174.964</ele>
        <time>2017-11-11T09:57:41Z</time>
      </trkpt>
      <trkpt lat="51.854771" lon="39.579075">
        <ele>172.742</ele>
        <time>2017-11-11T09:57:47Z</time>
      </trkpt>
      <trkpt lat="51.854956" lon="39.579116">
        <ele>172.494</ele>
        <time>2017-11-11T09:57:52Z</time>
      </trkpt>
      <trkpt lat="51.855227" lon="39.579191">
        <ele>172.282</ele>
        <time>2017-11-11T09:57:58Z</time>
      </trkpt>
      <trkpt lat="51.855572" lon="39.579391">
        <ele>171.714</ele>
        <time>2017-11-11T09:58:05Z</time>
      </trkpt>
      <trkpt lat="51.855756" lon="39.579446">
        <ele>171.412</ele>
        <time>2017-11-11T09:58:10Z</time>
      </trkpt>
      <trkpt lat="51.856043" lon="39.579508">
        <ele>172.084</ele>
        <time>2017-11-11T09:58:17Z</time>
      </trkpt>
      <trkpt lat="51.856321" lon="39.579643">
        <ele>174.954</ele>
        <time>2017-11-11T09:58:23Z</time>
      </trkpt>
      <trkpt lat="51.856593" lon="39.579636">
        <ele>171.829</ele>
        <time>2017-11-11T09:58:29Z</time>
      </trkpt>
      <trkpt lat="51.856851" lon="39.579693">
        <ele>171.603</ele>
        <time>2017-11-11T09:58:34Z</time>
      </trkpt>
      <trkpt lat="51.856976" lon="39.579699">
        <ele>171.581</ele>
        <time>2017-11-11T09:58:37Z</time>
      </trkpt>
      <trkpt lat="51.857254" lon="39.579687">
        <ele>171.488</ele>
        <time>2017-11-11T09:58:43Z</time>
      </trkpt>
      <trkpt lat="51.857535" lon="39.579675">
        <ele>171.607</ele>
        <time>2017-11-11T09:58:49Z</time>
      </trkpt>
      <trkpt lat="51.857786" lon="39.579784">
        <ele>171.99</ele>
        <time>2017-11-11T09:58:55Z</time>
      </trkpt>
      <trkpt lat="51.858028" lon="39.579847">
        <ele>172.033</ele>
        <time>2017-11-11T09:59:00Z</time>
      </trkpt>
      <trkpt lat="51.85828" lon="39.579925">
        <ele>171.799</ele>
        <time>2017-11-11T09:59:05Z</time>
      </trkpt>
      <trkpt lat="51.858495" lon="39.579983">
        <ele>171.015</ele>
        <time>2017-11-11T09:59:11Z</time>
      </trkpt>
      <trkpt lat="51.85869" lon="39.579955">
        <ele>171.068</ele>
        <time>2017-11-11T09:59:17Z</time>
      </trkpt>
      <trkpt lat="51.859037" lon="39.579691">
        <ele>173.408</ele>
        <time>2017-11-11T09:59:25Z</time>
      </trkpt>
      <trkpt lat="51.859249" lon="39.57964">
        <ele>174.31</ele>
        <time>2017-11-11T09:59:30Z</time>
      </trkpt>
      <trkpt lat="51.85955" lon="39.579682">
        <ele>175.273</ele>
        <time>2017-11-11T09:59:38Z</time>
      </trkpt>
      <trkpt lat="51.859726" lon="39.579771">
        <ele>174.926</ele>
        <time>2017-11-11T09:59:44Z</time>
      </trkpt>
      <trkpt lat="51.859889" lon="39.579935">
        <ele>174.282</ele>
        <time>2017-11-11T09:59:50Z</time>
      </trkpt>
      <trkpt lat="51.860073" lon="39.579962">
        <ele>173.125</ele>
        <time>2017-11-11T09:59:59Z</time>
      </trkpt>
      <trkpt lat="51.860307" lon="39.580129">
        <ele>171.82</ele>
        <time>2017-11-11T10:00:06Z</time>
      </trkpt>
      <trkpt lat="51.860484" lon="39.580268">
        <ele>171.084</ele>
        <time>2017-11-11T10:00:13Z</time>
      </trkpt>
      <trkpt lat="51.860857" lon="39.580279">
        <ele>170.796</ele>
        <time>2017-11-11T10:00:23Z</time>
      </trkpt>
      <trkpt lat="51.861158" lon="39.580277">
        <ele>171.081</ele>
        <time>2017-11-11T10:00:30Z</time>
      </trkpt>
      <trkpt lat="51.861309" lon="39.580292">
        <ele>170.945</ele>
        <time>2017-11-11T10:00:35Z</time>
      </trkpt>
      <trkpt lat="51.861592" lon="39.58039">
        <ele>170.577</ele>
        <time>2017-11-11T10:00:41Z</time>
      </trkpt>
      <trkpt lat="51.861917" lon="39.580455">
        <ele>170.128</ele>
        <time>2017-11-11T10:00:47Z</time>
      </trkpt>
      <trkpt lat="51.862228" lon="39.580559">
        <ele>168.426</ele>
        <time>2017-11-11T10:00:54Z</time>
      </trkpt>
      <trkpt lat="51.862575" lon="39.580704">
        <ele>167.622</ele>
        <time>2017-11-11T10:01:00Z</time>
      </trkpt>
      <trkpt lat="51.862776" lon="39.580743">
        <ele>165.58</ele>
        <time>2017-11-11T10:01:06Z</time>
      </trkpt>
      <trkpt lat="51.863039" lon="39.580724">
        <ele>165.881</ele>
        <time>2017-11-11T10:01:13Z</time>
      </trkpt>
      <trkpt lat="51.863343" lon="39.580718">
        <ele>168.47</ele>
        <time>2017-11-11T10:01:21Z</time>
      </trkpt>
      <trkpt lat="51.863686" lon="39.580849">
        <ele>171.269</ele>
        <time>2017-11-11T10:01:28Z</time>
      </trkpt>
      <trkpt lat="51.864004" lon="39.580865">
        <ele>173.751</ele>
        <time>2017-11-11T10:01:36Z</time>
      </trkpt>
      <trkpt lat="51.864248" lon="39.58098">
        <ele>174.48</ele>
        <time>2017-11-11T10:01:41Z</time>
      </trkpt>
      <trkpt lat="51.864609" lon="39.581061">
        <ele>175.4</ele>
        <time>2017-11-11T10:01:48Z</time>
      </trkpt>
      <trkpt lat="51.864938" lon="39.581067">
        <ele>175.399</ele>
        <time>2017-11-11T10:01:55Z</time>
      </trkpt>
      <trkpt lat="51.865367" lon="39.581008">
        <ele>176.305</ele>
        <time>2017-11-11T10:02:02Z</time>
      </trkpt>
      <trkpt lat="51.86571" lon="39.580977">
        <ele>177.306</ele>
        <time>2017-11-11T10:02:09Z</time>
      </trkpt>
      <trkpt lat="51.866083" lon="39.580934">
        <ele>181.16</ele>
        <time>2017-11-11T10:02:15Z</time>
      </trkpt>
      <trkpt lat="51.866415" lon="39.580986">
        <ele>181.616</ele>
        <time>2017-11-11T10:02:21Z</time>
      </trkpt>
      <trkpt lat="51.866627" lon="39.581041">
        <ele>181.6</ele>
        <time>2017-11-11T10:02:25Z</time>
      </trkpt>
      <trkpt lat="51.866933" lon="39.581103">
        <ele>176.86</ele>
        <time>2017-11-11T10:02:30Z</time>
      </trkpt>
      <trkpt lat="51.867294" lon="39.581184">
        <ele>172.106</ele>
        <time>2017-11-11T10:02:36Z</time>
      </trkpt>
      <trkpt lat="51.867629" lon="39.581282">
        <ele>168.362</ele>
        <time>2017-11-11T10:02:41Z</time>
      </trkpt>
      <trkpt lat="51.867875" lon="39.581373">
        <ele>168.273</ele>
        <time>2017-11-11T10:02:47Z</time>
      </trkpt>
      <trkpt lat="51.868242" lon="39.581337">
        <ele>168.952</ele>
        <time>2017-11-11T10:02:54Z</time>
      </trkpt>
      <trkpt lat="51.868534" lon="39.581265">
        <ele>167.72</ele>
        <time>2017-11-11T10:02:59Z</time>
      </trkpt>
      <trkpt lat="51.868826" lon="39.581332">
        <ele>167.302</ele>
        <time>2017-11-11T10:03:04Z</time>
      </trkpt>
      <trkpt lat="51.869087" lon="39.581451">
        <ele>166.042</ele>
        <time>2017-11-11T10:03:09Z</time>
      </trkpt>
      <trkpt lat="51.869361" lon="39.581757">
        <ele>165.198</ele>
        <time>2017-11-11T10:03:15Z</time>
      </trkpt>
      <trkpt lat="51.869577" lon="39.582085">
        <ele>162.948</ele>
        <time>2017-11-11T10:03:20Z</time>
      </trkpt>
      <trkpt lat="51.869874" lon="39.582401">
        <ele>163.14</ele>
        <time>2017-11-11T10:03:26Z</time>
      </trkpt>
      <trkpt lat="51.87016" lon="39.582608">
        <ele>164.082</ele>
        <time>2017-11-11T10:03:32Z</time>
      </trkpt>
      <trkpt lat="51.870285" lon="39.582699">
        <ele>164.638</ele>
        <time>2017-11-11T10:03:35Z</time>
      </trkpt>
      <trkpt lat="51.870503" lon="39.582889">
        <ele>165.337</ele>
        <time>2017-11-11T10:03:40Z</time>
      </trkpt>
      <trkpt lat="51.870844" lon="39.583117">
        <ele>166.318</ele>
        <time>2017-11-11T10:03:46Z</time>
      </trkpt>
      <trkpt lat="51.87102" lon="39.583202">
        <ele>166.223</ele>
        <time>2017-11-11T10:03:50Z</time>
      </trkpt>
      <trkpt lat="51.871192" lon="39.583346">
        <ele>165.678</ele>
        <time>2017-11-11T10:03:55Z</time>
      </trkpt>
      <trkpt lat="51.8714" lon="39.583405">
        <ele>164.482</ele>
        <time>2017-11-11T10:04:00Z</time>
      </trkpt>
      <trkpt lat="51.871612" lon="39.583408">
        <ele>163.005</ele>
        <time>2017-11-11T10:04:04Z</time>
      </trkpt>
      <trkpt lat="51.87184" lon="39.583212">
        <ele>163.471</ele>
        <time>2017-11-11T10:04:09Z</time>
      </trkpt>
      <trkpt lat="51.872143" lon="39.58299">
        <ele>163.092</ele>
        <time>2017-11-11T10:04:16Z</time>
      </trkpt>
      <trkpt lat="51.872601" lon="39.582991">
        <ele>162.505</ele>
        <time>2017-11-11T10:04:23Z</time>
      </trkpt>
      <trkpt lat="51.872885" lon="39.583041">
        <ele>160.816</ele>
        <time>2017-11-11T10:04:29Z</time>
      </trkpt>
      <trkpt lat="51.873154" lon="39.582776">
        <ele>161.012</ele>
        <time>2017-11-11T10:04:35Z</time>
      </trkpt>
      <trkpt lat="51.873354" lon="39.582391">
        <ele>159.899</ele>
        <time>2017-11-11T10:04:41Z</time>
      </trkpt>
      <trkpt lat="51.873555" lon="39.582096">
        <ele>160.99</ele>
        <time>2017-11-11T10:04:47Z</time>
      </trkpt>
      <trkpt lat="51.873862" lon="39.582068">
        <ele>160.728</ele>
        <time>2017-11-11T10:04:52Z</time>
      </trkpt>
      <trkpt lat="51.874111" lon="39.581981">
        <ele>159.536</ele>
        <time>2017-11-11T10:04:57Z</time>
      </trkpt>
      <trkpt lat="51.874413" lon="39.58185">
        <ele>160.333</ele>
        <time>2017-11-11T10:05:03Z</time>
      </trkpt>
      <trkpt lat="51.874631" lon="39.581799">
        <ele>163.294</ele>
        <time>2017-11-11T10:05:08Z</time>
      </trkpt>
      <trkpt lat="51.874969" lon="39.581856">
        <ele>162.093</ele>
        <time>2017-11-11T10:05:14Z</time>
      </trkpt>
      <trkpt lat="51.875122" lon="39.581935">
        <ele>160.05</ele>
        <time>2017-11-11T10:05:17Z</time>
      </trkpt>
      <trkpt lat="51.87537" lon="39.581948">
        <ele>159.829</ele>
        <time>2017-11-11T10:05:24Z</time>
      </trkpt>
      <trkpt lat="51.875537" lon="39.581869">
        <ele>160.131</ele>
        <time>2017-11-11T10:05:29Z</time>
      </trkpt>
      <trkpt lat="51.875726" lon="39.581757">
        <ele>160.363</ele>
        <time>2017-11-11T10:05:34Z</time>
      </trkpt>
      <trkpt lat="51.875918" lon="39.581546">
        <ele>160.731</ele>
        <time>2017-11-11T10:05:41Z</time>
      </trkpt>
      <trkpt lat="51.876113" lon="39.581592">
        <ele>160.434</ele>
        <time>2017-11-11T10:05:47Z</time>
      </trkpt>
      <trkpt lat="51.876307" lon="39.58178">
        <ele>157.056</ele>
        <time>2017-11-11T10:05:52Z</time>
      </trkpt>
      <trkpt lat="51.876501" lon="39.58194">
        <ele>156.36</ele>
        <time>2017-11-11T10:05:57Z</time>
      </trkpt>
      <trkpt lat="51.87668" lon="39.582133">
        <ele>156.255</ele>
        <time>2017-11-11T10:06:02Z</time>
      </trkpt>
      <trkpt lat="51.876791" lon="39.582369">
        <ele>156.572</ele>
        <time>2017-11-11T10:06:06Z</time>
      </trkpt>
      <trkpt lat="51.876951" lon="39.582495">
        <ele>157.068</ele>
        <time>2017-11-11T10:06:12Z</time>
      </trkpt>
      <trkpt lat="51.877124" lon="39.582692">
        <ele>157.95</ele>
        <time>2017-11-11T10:06:19Z</time>
      </trkpt>
      <trkpt lat="51.877454" lon="39.582864">
        <ele>159.769</ele>
        <time>2017-11-11T10:06:27Z</time>
      </trkpt>
      <trkpt lat="51.877636" lon="39.582764">
        <ele>161.043</ele>
        <time>2017-11-11T10:06:33Z</time>
      </trkpt>
      <trkpt lat="51.877798" lon="39.582392">
        <ele>166.752</ele>
        <time>2017-11-11T10:06:39Z</time>
      </trkpt>
      <trkpt lat="51.877953" lon="39.581984">
        <ele>166.965</ele>
        <time>2017-11-11T10:06:45Z</time>
      </trkpt>
      <trkpt lat="51.878016" lon="39.58176">
        <ele>166.742</ele>
        <time>2017-11-11T10:06:49Z</time>
      </trkpt>
      <trkpt lat="51.878091" lon="39.581393">
        <ele>166.164</ele>
        <time>2017-11-11T10:06:54Z</time>
      </trkpt>
      <trkpt lat="51.878216" lon="39.581093">
        <ele>165.673</ele>
        <time>2017-11-11T10:06:59Z</time>
      </trkpt>
      <trkpt lat="51.87834" lon="39.580689">
        <ele>164.203</ele>
        <time>2017-11-11T10:07:04Z</time>
      </trkpt>
      <trkpt lat="51.878558" lon="39.580422">
        <ele>163.528</ele>
        <time>2017-11-11T10:07:10Z</time>
      </trkpt>
      <trkpt lat="51.878735" lon="39.580336">
        <ele>163.338</ele>
        <time>2017-11-11T10:07:14Z</time>
      </trkpt>
      <trkpt lat="51.879089" lon="39.580444">
        <ele>162.612</ele>
        <time>2017-11-11T10:07:22Z</time>
      </trkpt>
      <trkpt lat="51.879389" lon="39.580529">
        <ele>161.002</ele>
        <time>2017-11-11T10:07:27Z</time>
      </trkpt>
      <trkpt lat="51.879688" lon="39.580643">
        <ele>159.569</ele>
        <time>2017-11-11T10:07:34Z</time>
      </trkpt>
      <trkpt lat="51.879855" lon="39.580831">
        <ele>159.498</ele>
        <time>2017-11-11T10:07:42Z</time>
      </trkpt>
      <trkpt lat="51.880035" lon="39.580875">
        <ele>159.568</ele>
        <time>2017-11-11T10:07:51Z</time>
      </trkpt>
      <trkpt lat="51.880176" lon="39.580774">
        <ele>159.232</ele>
        <time>2017-11-11T10:07:58Z</time>
      </trkpt>
      <trkpt lat="51.880176" lon="39.580774">
        <time>2017-11-11T10:08:05Z</time>
      </trkpt>
    </trkseg>
    <trkseg>
      <trkpt lat="51.880176" lon="39.580774">
        <time>2017-11-11T10:09:10Z</time>
      </trkpt>
      <trkpt lat="51.879989" lon="39.581058">
        <ele>160.807</ele>
        <time>2017-11-11T10:09:10Z</time>
      </trkpt>
      <trkpt lat="51.879805" lon="39.581385">
        <ele>161.687</ele>
        <time>2017-11-11T10:09:16Z</time>
      </trkpt>
      <trkpt lat="51.879707" lon="39.581759">
        <ele>161.298</ele>
        <time>2017-11-11T10:09:21Z</time>
      </trkpt>
      <trkpt lat="51.879577" lon="39.582241">
        <ele>161.451</ele>
        <time>2017-11-11T10:09:27Z</time>
      </trkpt>
      <trkpt lat="51.879496" lon="39.582684">
        <ele>161.65</ele>
        <time>2017-11-11T10:09:32Z</time>
      </trkpt>
      <trkpt lat="51.879405" lon="39.583109">
        <ele>161.222</ele>
        <time>2017-11-11T10:09:38Z</time>
      </trkpt>
      <trkpt lat="51.879361" lon="39.583339">
        <ele>161.197</ele>
        <time>2017-11-11T10:09:41Z</time>
      </trkpt>
      <trkpt lat="51.879275" lon="39.583815">
        <ele>161.213</ele>
        <time>2017-11-11T10:09:47Z</time>
      </trkpt>
      <trkpt lat="51.879221" lon="39.58419">
        <ele>160.789</ele>
        <time>2017-11-11T10:09:52Z</time>
      </trkpt>
      <trkpt lat="51.879152" lon="39.584659">
        <ele>159.908</ele>
        <time>2017-11-11T10:09:58Z</time>
      </trkpt>
      <trkpt lat="51.879066" lon="39.585046">
        <ele>158.657</ele>
        <time>2017-11-11T10:10:03Z</time>
      </trkpt>
      <trkpt lat="51.879022" lon="39.585264">
        <ele>158.248</ele>
        <time>2017-11-11T10:10:06Z</time>
      </trkpt>
      <trkpt lat="51.878988" lon="39.585508">
        <ele>158.515</ele>
        <time>2017-11-11T10:10:09Z</time>
      </trkpt>
      <trkpt lat="51.878908" lon="39.58588">
        <ele>158.599</ele>
        <time>2017-11-11T10:10:14Z</time>
      </trkpt>
      <trkpt lat="51.87887" lon="39.586118">
        <ele>159.727</ele>
        <time>2017-11-11T10:10:17Z</time>
      </trkpt>
      <trkpt lat="51.878787" lon="39.586489">
        <ele>160.34</ele>
        <time>2017-11-11T10:10:22Z</time>
      </trkpt>
      <trkpt lat="51.878735" lon="39.586777">
        <ele>160.939</ele>
        <time>2017-11-11T10:10:26Z</time>
      </trkpt>
      <trkpt lat="51.87869" lon="39.586987">
        <ele>160.662</ele>
        <time>2017-11-11T10:10:29Z</time>
      </trkpt>
      <trkpt lat="51.878613" lon="39.587367">
        <ele>160.408</ele>
        <time>2017-11-11T10:10:35Z</time>
      </trkpt>
      <trkpt lat="51.878567" lon="39.587661">
        <ele>160.52</ele>
        <time>2017-11-11T10:10:40Z</time>
      </trkpt>
      <trkpt lat="51.878558" lon="39.587934">
        <ele>160.951</ele>
        <time>2017-11-11T10:10:47Z</time>
      </trkpt>
      <trkpt lat="51.878626" lon="39.588015">
        <ele>160.887</ele>
        <time>2017-11-11T10:10:57Z</time>
      </trkpt>
      <trkpt lat="51.878626" lon="39.588015">
        <time>2017-11-11T10:14:27Z</time>
      </trkpt>
    </trkseg>
    <trkseg>
      <trkpt lat="51.878626" lon="39.588015">
        <time>2017-11-11T10:14:33Z</time>
      </trkpt>
      <trkpt lat="51.878612" lon="39.587971">
        <ele>161.932</ele>
        <time>2017-11-11T10:14:34Z</time>
      </trkpt>
      <trkpt lat="51.878611" lon="39.587569">
        <ele>162.951</ele>
        <time>2017-11-11T10:15:28Z</time>
      </trkpt>
      <trkpt lat="51.878627" lon="39.587314">
        <ele>163.0</ele>
        <time>2017-11-11T10:15:33Z</time>
      </trkpt>
      <trkpt lat="51.878666" lon="39.586923">
        <ele>163.842</ele>
        <time>2017-11-11T10:15:41Z</time>
      </trkpt>
      <trkpt lat="51.878764" lon="39.586405">
        <ele>164.382</ele>
        <time>2017-11-11T10:15:48Z</time>
      </trkpt>
      <trkpt lat="51.878849" lon="39.585983">
        <ele>162.418</ele>
        <time>2017-11-11T10:15:54Z</time>
      </trkpt>
      <trkpt lat="51.878921" lon="39.585612">
        <ele>161.22</ele>
        <time>2017-11-11T10:15:59Z</time>
      </trkpt>
      <trkpt lat="51.879004" lon="39.58511">
        <ele>160.969</ele>
        <time>2017-11-11T10:16:05Z</time>
      </trkpt>
      <trkpt lat="51.879092" lon="39.5846">
        <ele>162.463</ele>
        <time>2017-11-11T10:16:11Z</time>
      </trkpt>
      <trkpt lat="51.879166" lon="39.584216">
        <ele>163.338</ele>
        <time>2017-11-11T10:16:16Z</time>
      </trkpt>
      <trkpt lat="51.879278" lon="39.583709">
        <ele>162.164</ele>
        <time>2017-11-11T10:16:22Z</time>
      </trkpt>
      <trkpt lat="51.879363" lon="39.583203">
        <ele>161.269</ele>
        <time>2017-11-11T10:16:28Z</time>
      </trkpt>
      <trkpt lat="51.879461" lon="39.582724">
        <ele>160.588</ele>
        <time>2017-11-11T10:16:34Z</time>
      </trkpt>
      <trkpt lat="51.879544" lon="39.582247">
        <ele>159.037</ele>
        <time>2017-11-11T10:16:40Z</time>
      </trkpt>
      <trkpt lat="51.879591" lon="39.582006">
        <ele>157.989</ele>
        <time>2017-11-11T10:16:43Z</time>
      </trkpt>
      <trkpt lat="51.879637" lon="39.581772">
        <ele>157.393</ele>
        <time>2017-11-11T10:16:46Z</time>
      </trkpt>
      <trkpt lat="51.879674" lon="39.581528">
        <ele>157.881</ele>
        <time>2017-11-11T10:16:49Z</time>
      </trkpt>
      <trkpt lat="51.879746" lon="39.581141">
        <ele>158.074</ele>
        <time>2017-11-11T10:16:54Z</time>
      </trkpt>
      <trkpt lat="51.880033" lon="39.580839">
        <ele>158.124</ele>
        <time>2017-11-11T10:17:00Z</time>
      </trkpt>
      <trkpt lat="51.880171" lon="39.580719">
        <ele>158.235</ele>
        <time>2017-11-11T10:17:03Z</time>
      </trkpt>
      <trkpt lat="51.880416" lon="39.580521">
        <ele>158.982</ele>
        <time>2017-11-11T10:17:08Z</time>
      </trkpt>
      <trkpt lat="51.880741" lon="39.580278">
        <ele>160.153</ele>
        <time>2017-11-11T10:17:14Z</time>
      </trkpt>
      <trkpt lat="51.880926" lon="39.580174">
        <ele>160.542</ele>
        <time>2017-11-11T10:17:17Z</time>
      </trkpt>
      <trkpt lat="51.881271" lon="39.579929">
        <ele>159.677</ele>
        <time>2017-11-11T10:17:23Z</time>
      </trkpt>
      <trkpt lat="51.8816" lon="39.5797">
        <ele>159.391</ele>
        <time>2017-11-11T10:17:29Z</time>
      </trkpt>
      <trkpt lat="51.881894" lon="39.579483">
        <ele>160.802</ele>
        <time>2017-11-11T10:17:35Z</time>
      </trkpt>
      <trkpt lat="51.882155" lon="39.579301">
        <ele>162.396</ele>
        <time>2017-11-11T10:17:40Z</time>
      </trkpt>
      <trkpt lat="51.882432" lon="39.579093">
        <ele>164.427</ele>
        <time>2017-11-11T10:17:45Z</time>
      </trkpt>
      <trkpt lat="51.8826" lon="39.578971">
        <ele>165.135</ele>
        <time>2017-11-11T10:17:48Z</time>
      </trkpt>
      <trkpt lat="51.882772" lon="39.578846">
        <ele>165.464</ele>
        <time>2017-11-11T10:17:51Z</time>
      </trkpt>
      <trkpt lat="51.882944" lon="39.578723">
        <ele>165.063</ele>
        <time>2017-11-11T10:17:54Z</time>
      </trkpt>
      <trkpt lat="51.883218" lon="39.578516">
        <ele>164.965</ele>
        <time>2017-11-11T10:17:59Z</time>
      </trkpt>
      <trkpt lat="51.883543" lon="39.578218">
        <ele>164.633</ele>
        <time>2017-11-11T10:18:05Z</time>
      </trkpt>
      <trkpt lat="51.883757" lon="39.578001">
        <ele>164.4</ele>
        <time>2017-11-11T10:18:09Z</time>
      </trkpt>
      <trkpt lat="51.883926" lon="39.577872">
        <ele>164.088</ele>
        <time>2017-11-11T10:18:12Z</time>
      </trkpt>
      <trkpt lat="51.884261" lon="39.577587">
        <ele>163.559</ele>
        <time>2017-11-11T10:18:18Z</time>
      </trkpt>
      <trkpt lat="51.884538" lon="39.57739">
        <ele>162.826</ele>
        <time>2017-11-11T10:18:23Z</time>
      </trkpt>
      <trkpt lat="51.884719" lon="39.577288">
        <ele>161.976</ele>
        <time>2017-11-11T10:18:26Z</time>
      </trkpt>
      <trkpt lat="51.885045" lon="39.577218">
        <ele>160.31</ele>
        <time>2017-11-11T10:18:31Z</time>
      </trkpt>
      <trkpt lat="51.885371" lon="39.57726">
        <ele>159.241</ele>
        <time>2017-11-11T10:18:36Z</time>
      </trkpt>
      <trkpt lat="51.885703" lon="39.577272">
        <ele>158.615</ele>
        <time>2017-11-11T10:18:41Z</time>
      </trkpt>
      <trkpt lat="51.885897" lon="39.57727">
        <ele>158.462</ele>
        <time>2017-11-11T10:18:44Z</time>
      </trkpt>
      <trkpt lat="51.886224" lon="39.577244">
        <ele>157.968</ele>
        <time>2017-11-11T10:18:49Z</time>
      </trkpt>
      <trkpt lat="51.886625" lon="39.577233">
        <ele>157.202</ele>
        <time>2017-11-11T10:18:55Z</time>
      </trkpt>
      <trkpt lat="51.886958" lon="39.577214">
        <ele>156.328</ele>
        <time>2017-11-11T10:19:00Z</time>
      </trkpt>
      <trkpt lat="51.887281" lon="39.577203">
        <ele>155.488</ele>
        <time>2017-11-11T10:19:05Z</time>
      </trkpt>
      <trkpt lat="51.887671" lon="39.57722">
        <ele>154.516</ele>
        <time>2017-11-11T10:19:11Z</time>
      </trkpt>
      <trkpt lat="51.887865" lon="39.577209">
        <ele>154.053</ele>
        <time>2017-11-11T10:19:14Z</time>
      </trkpt>
      <trkpt lat="51.888226" lon="39.577172">
        <ele>154.289</ele>
        <time>2017-11-11T10:19:20Z</time>
      </trkpt>
      <trkpt lat="51.888608" lon="39.577142">
        <ele>155.451</ele>
        <time>2017-11-11T10:19:26Z</time>
      </trkpt>
      <trkpt lat="51.888949" lon="39.577123">
        <ele>155.743</ele>
        <time>2017-11-11T10:19:31Z</time>
      </trkpt>
      <trkpt lat="51.889272" lon="39.577098">
        <ele>156.093</ele>
        <time>2017-11-11T10:19:36Z</time>
      </trkpt>
      <trkpt lat="51.889464" lon="39.577087">
        <ele>156.299</ele>
        <time>2017-11-11T10:19:39Z</time>
      </trkpt>
      <trkpt lat="51.889833" lon="39.577073">
        <ele>156.233</ele>
        <time>2017-11-11T10:19:44Z</time>
      </trkpt>
      <trkpt lat="51.890239" lon="39.577035">
        <ele>155.414</ele>
        <time>2017-11-11T10:19:49Z</time>
      </trkpt>
      <trkpt lat="51.890676" lon="39.576868">
        <ele>154.334</ele>
        <time>2017-11-11T10:19:55Z</time>
      </trkpt>
      <trkpt lat="51.891129" lon="39.576521">
        <ele>153.106</ele>
        <time>2017-11-11T10:20:02Z</time>
      </trkpt>
      <trkpt lat="51.891465" lon="39.5762">
        <ele>152.413</ele>
        <time>2017-11-11T10:20:08Z</time>
      </trkpt>
      <trkpt lat="51.891655" lon="39.576061">
        <ele>152.186</ele>
        <time>2017-11-11T10:20:13Z</time>
      </trkpt>
      <trkpt lat="51.891794" lon="39.575875">
        <ele>152.375</ele>
        <time>2017-11-11T10:20:20Z</time>
      </trkpt>
      <trkpt lat="51.891979" lon="39.575537">
        <ele>154.929</ele>
        <time>2017-11-11T10:20:27Z</time>
      </trkpt>
      <trkpt lat="51.892154" lon="39.575152">
        <ele>157.321</ele>
        <time>2017-11-11T10:20:32Z</time>
      </trkpt>
      <trkpt lat="51.892344" lon="39.574733">
        <ele>159.391</ele>
        <time>2017-11-11T10:20:38Z</time>
      </trkpt>
      <trkpt lat="51.892476" lon="39.574431">
        <ele>159.664</ele>
        <time>2017-11-11T10:20:42Z</time>
      </trkpt>
      <trkpt lat="51.892653" lon="39.573933">
        <ele>157.124</ele>
        <time>2017-11-11T10:20:48Z</time>
      </trkpt>
      <trkpt lat="51.89278" lon="39.573435">
        <ele>156.334</ele>
        <time>2017-11-11T10:20:54Z</time>
      </trkpt>
      <trkpt lat="51.892882" lon="39.57308">
        <ele>157.139</ele>
        <time>2017-11-11T10:20:59Z</time>
      </trkpt>
      <trkpt lat="51.893023" lon="39.572578">
        <ele>157.669</ele>
        <time>2017-11-11T10:21:05Z</time>
      </trkpt>
      <trkpt lat="51.893169" lon="39.572165">
        <ele>157.676</ele>
        <time>2017-11-11T10:21:10Z</time>
      </trkpt>
      <trkpt lat="51.893377" lon="39.571668">
        <ele>158.619</ele>
        <time>2017-11-11T10:21:16Z</time>
      </trkpt>
      <trkpt lat="51.893603" lon="39.571255">
        <ele>158.326</ele>
        <time>2017-11-11T10:21:22Z</time>
      </trkpt>
      <trkpt lat="51.893735" lon="39.571093">
        <ele>157.86</ele>
        <time>2017-11-11T10:21:25Z</time>
      </trkpt>
      <trkpt lat="51.893948" lon="39.570657">
        <ele>154.416</ele>
        <time>2017-11-11T10:21:30Z</time>
      </trkpt>
      <trkpt lat="51.894159" lon="39.570356">
        <ele>152.485</ele>
        <time>2017-11-11T10:21:35Z</time>
      </trkpt>
      <trkpt lat="51.89432" lon="39.569871">
        <ele>150.096</ele>
        <time>2017-11-11T10:21:41Z</time>
      </trkpt>
      <trkpt lat="51.89436" lon="39.569517">
        <ele>148.72</ele>
        <time>2017-11-11T10:21:46Z</time>
      </trkpt>
      <trkpt lat="51.894193" lon="39.569258">
        <ele>149.08</ele>
        <time>2017-11-11T10:21:52Z</time>
      </trkpt>
      <trkpt lat="51.893923" lon="39.569125">
        <ele>146.553</ele>
        <time>2017-11-11T10:21:57Z</time>
      </trkpt>
      <trkpt lat="51.893729" lon="39.56902">
        <ele>145.716</ele>
        <time>2017-11-11T10:22:03Z</time>
      </trkpt>
      <trkpt lat="51.893536" lon="39.569014">
        <ele>146.349</ele>
        <time>2017-11-11T10:22:09Z</time>
      </trkpt>
      <trkpt lat="51.893291" lon="39.569025">
        <ele>150.26</ele>
        <time>2017-11-11T10:22:15Z</time>
      </trkpt>
      <trkpt lat="51.893011" lon="39.568823">
        <ele>155.969</ele>
        <time>2017-11-11T10:22:20Z</time>
      </trkpt>
      <trkpt lat="51.892732" lon="39.568626">
        <ele>156.232</ele>
        <time>2017-11-11T10:22:25Z</time>
      </trkpt>
      <trkpt lat="51.892489" lon="39.568271">
        <ele>159.873</ele>
        <time>2017-11-11T10:22:31Z</time>
      </trkpt>
      <trkpt lat="51.892452" lon="39.56777">
        <ele>165.664</ele>
        <time>2017-11-11T10:22:36Z</time>
      </trkpt>
      <trkpt lat="51.8925" lon="39.567495">
        <ele>166.129</ele>
        <time>2017-11-11T10:22:39Z</time>
      </trkpt>
      <trkpt lat="51.892606" lon="39.567003">
        <ele>163.158</ele>
        <time>2017-11-11T10:22:45Z</time>
      </trkpt>
      <trkpt lat="51.892692" lon="39.566488">
        <ele>158.954</ele>
        <time>2017-11-11T10:22:51Z</time>
      </trkpt>
      <trkpt lat="51.892766" lon="39.565987">
        <ele>154.869</ele>
        <time>2017-11-11T10:22:57Z</time>
      </trkpt>
      <trkpt lat="51.892817" lon="39.565732">
        <ele>152.294</ele>
        <time>2017-11-11T10:23:00Z</time>
      </trkpt>
      <trkpt lat="51.892878" lon="39.565334">
        <ele>150.135</ele>
        <time>2017-11-11T10:23:05Z</time>
      </trkpt>
      <trkpt lat="51.892935" lon="39.564843">
        <ele>149.697</ele>
        <time>2017-11-11T10:23:11Z</time>
      </trkpt>
      <trkpt lat="51.892984" lon="39.564426">
        <ele>150.569</ele>
        <time>2017-11-11T10:23:16Z</time>
      </trkpt>
      <trkpt lat="51.893092" lon="39.563957">
        <ele>150.237</ele>
        <time>2017-11-11T10:23:22Z</time>
      </trkpt>
      <trkpt lat="51.893178" lon="39.56354">
        <ele>149.877</ele>
        <time>2017-11-11T10:23:28Z</time>
      </trkpt>
      <trkpt lat="51.89323" lon="39.56318">
        <ele>150.958</ele>
        <time>2017-11-11T10:23:33Z</time>
      </trkpt>
      <trkpt lat="51.893291" lon="39.562926">
        <ele>151.3</ele>
        <time>2017-11-11T10:23:36Z</time>
      </trkpt>
      <trkpt lat="51.893355" lon="39.562496">
        <ele>152.768</ele>
        <time>2017-11-11T10:23:41Z</time>
      </trkpt>
      <trkpt lat="51.893463" lon="39.561936">
        <ele>153.575</ele>
        <time>2017-11-11T10:23:47Z</time>
      </trkpt>
      <trkpt lat="51.893589" lon="39.561486">
        <ele>152.196</ele>
        <time>2017-11-11T10:23:52Z</time>
      </trkpt>
      <trkpt lat="51.893778" lon="39.561026">
        <ele>149.719</ele>
        <time>2017-11-11T10:23:58Z</time>
      </trkpt>
      <trkpt lat="51.893813" lon="39.560809">
        <ele>147.871</ele>
        <time>2017-11-11T10:24:01Z</time>
      </trkpt>
      <trkpt lat="51.89385" lon="39.560513">
        <ele>146.197</ele>
        <time>2017-11-11T10:24:05Z</time>
      </trkpt>
      <trkpt lat="51.893902" lon="39.560178">
        <ele>146.056</ele>
        <time>2017-11-11T10:24:11Z</time>
      </trkpt>
      <trkpt lat="51.893887" lon="39.559754">
        <ele>146.37</ele>
        <time>2017-11-11T10:24:17Z</time>
      </trkpt>
      <trkpt lat="51.893944" lon="39.559244">
        <ele>146.359</ele>
        <time>2017-11-11T10:24:23Z</time>
      </trkpt>
      <trkpt lat="51.894116" lon="39.55878">
        <ele>146.228</ele>
        <time>2017-11-11T10:24:31Z</time>
      </trkpt>
      <trkpt lat="51.894304" lon="39.558372">
        <ele>147.797</ele>
        <time>2017-11-11T10:24:39Z</time>
      </trkpt>
      <trkpt lat="51.894375" lon="39.558139">
        <ele>149.552</ele>
        <time>2017-11-11T10:24:42Z</time>
      </trkpt>
      <trkpt lat="51.894436" lon="39.557913">
        <ele>151.033</ele>
        <time>2017-11-11T10:24:45Z</time>
      </trkpt>
      <trkpt lat="51.894512" lon="39.557682">
        <ele>150.887</ele>
        <time>2017-11-11T10:24:48Z</time>
      </trkpt>
      <trkpt lat="51.894493" lon="39.557319">
        <ele>151.594</ele>
        <time>2017-11-11T10:24:54Z</time>
      </trkpt>
      <trkpt lat="51.894536" lon="39.557048">
        <ele>152.378</ele>
        <time>2017-11-11T10:25:01Z</time>
      </trkpt>
      <trkpt lat="51.894536" lon="39.557048">
        <time>2017-11-11T10:25:08Z</time>
      </trkpt>
    </trkseg>
    <trkseg>
      <trkpt lat="51.894536" lon="39.557048">
        <time>2017-11-11T10:25:11Z</time>
      </trkpt>
      <trkpt lat="51.894591" lon="39.556854">
        <ele>154.014</ele>
        <time>2017-11-11T10:25:11Z</time>
      </trkpt>
      <trkpt lat="51.894549" lon="39.556496">
        <ele>155.783</ele>
        <time>2017-11-11T10:25:22Z</time>
      </trkpt>
      <trkpt lat="51.894573" lon="39.556048">
        <ele>156.558</ele>
        <time>2017-11-11T10:25:29Z</time>
      </trkpt>
      <trkpt lat="51.89469" lon="39.555548">
        <ele>159.172</ele>
        <time>2017-11-11T10:25:36Z</time>
      </trkpt>
      <trkpt lat="51.89479" lon="39.555073">
        <ele>158.077</ele>
        <time>2017-11-11T10:25:42Z</time>
      </trkpt>
      <trkpt lat="51.894854" lon="39.554598">
        <ele>156.376</ele>
        <time>2017-11-11T10:25:48Z</time>
      </trkpt>
      <trkpt lat="51.894949" lon="39.554111">
        <ele>154.667</ele>
        <time>2017-11-11T10:25:54Z</time>
      </trkpt>
      <trkpt lat="51.895056" lon="39.553642">
        <ele>152.216</ele>
        <time>2017-11-11T10:25:59Z</time>
      </trkpt>
      <trkpt lat="51.895081" lon="39.553359">
        <ele>151.151</ele>
        <time>2017-11-11T10:26:02Z</time>
      </trkpt>
      <trkpt lat="51.89512" lon="39.553077">
        <ele>151.049</ele>
        <time>2017-11-11T10:26:05Z</time>
      </trkpt>
      <trkpt lat="51.895221" lon="39.552634">
        <ele>152.526</ele>
        <time>2017-11-11T10:26:11Z</time>
      </trkpt>
      <trkpt lat="51.895333" lon="39.552133">
        <ele>153.966</ele>
        <time>2017-11-11T10:26:17Z</time>
      </trkpt>
      <trkpt lat="51.895398" lon="39.551769">
        <ele>154.448</ele>
        <time>2017-11-11T10:26:22Z</time>
      </trkpt>
      <trkpt lat="51.895473" lon="39.551374">
        <ele>154.037</ele>
        <time>2017-11-11T10:26:27Z</time>
      </trkpt>
      <trkpt lat="51.895529" lon="39.551086">
        <ele>154.144</ele>
        <time>2017-11-11T10:26:30Z</time>
      </trkpt>
      <trkpt lat="51.895579" lon="39.550813">
        <ele>154.193</ele>
        <time>2017-11-11T10:26:33Z</time>
      </trkpt>
      <trkpt lat="51.895633" lon="39.550489">
        <ele>154.151</ele>
        <time>2017-11-11T10:26:37Z</time>
      </trkpt>
      <trkpt lat="51.895707" lon="39.550139">
        <ele>154.254</ele>
        <time>2017-11-11T10:26:42Z</time>
      </trkpt>
      <trkpt lat="51.895709" lon="39.549715">
        <ele>154.655</ele>
        <time>2017-11-11T10:26:48Z</time>
      </trkpt>
      <trkpt lat="51.895755" lon="39.549394">
        <ele>154.674</ele>
        <time>2017-11-11T10:26:52Z</time>
      </trkpt>
      <trkpt lat="51.895804" lon="39.548961">
        <ele>154.214</ele>
        <time>2017-11-11T10:26:57Z</time>
      </trkpt>
      <trkpt lat="51.895823" lon="39.548451">
        <ele>151.468</ele>
        <time>2017-11-11T10:27:03Z</time>
      </trkpt>
      <trkpt lat="51.895811" lon="39.547977">
        <ele>148.412</ele>
        <time>2017-11-11T10:27:09Z</time>
      </trkpt>
      <trkpt lat="51.895861" lon="39.547484">
        <ele>146.309</ele>
        <time>2017-11-11T10:27:14Z</time>
      </trkpt>
      <trkpt lat="51.895934" lon="39.546948">
        <ele>144.34</ele>
        <time>2017-11-11T10:27:20Z</time>
      </trkpt>
      <trkpt lat="51.895934" lon="39.54654">
        <ele>143.64</ele>
        <time>2017-11-11T10:27:25Z</time>
      </trkpt>
      <trkpt lat="51.895979" lon="39.54605">
        <ele>144.389</ele>
        <time>2017-11-11T10:27:31Z</time>
      </trkpt>
      <trkpt lat="51.895979" lon="39.54572">
        <ele>145.734</ele>
        <time>2017-11-11T10:27:36Z</time>
      </trkpt>
      <trkpt lat="51.896015" lon="39.545242">
        <ele>146.465</ele>
        <time>2017-11-11T10:27:43Z</time>
      </trkpt>
      <trkpt lat="51.896016" lon="39.544847">
        <ele>147.075</ele>
        <time>2017-11-11T10:27:49Z</time>
      </trkpt>
      <trkpt lat="51.896037" lon="39.544364">
        <ele>147.3</ele>
        <time>2017-11-11T10:27:55Z</time>
      </trkpt>
      <trkpt lat="51.896056" lon="39.54419">
        <ele>147.241</ele>
        <time>2017-11-11T10:27:58Z</time>
      </trkpt>
      <trkpt lat="51.896061" lon="39.544155">
        <ele>147.211</ele>
        <time>2017-11-11T10:27:59Z</time>
      </trkpt>
      <trkpt lat="51.896061" lon="39.544155">
        <time>2017-11-11T10:28:05Z</time>
      </trkpt>
    </trkseg>
    <trkseg>
      <trkpt lat="51.896061" lon="39.544155">
        <time>2017-11-11T10:28:23Z</time>
      </trkpt>
      <trkpt lat="51.896092" lon="39.543894">
        <ele>148.338</ele>
        <time>2017-11-11T10:28:23Z</time>
      </trkpt>
      <trkpt lat="51.896091" lon="39.543455">
        <ele>152.155</ele>
        <time>2017-11-11T10:28:28Z</time>
      </trkpt>
      <trkpt lat="51.896102" lon="39.543128">
        <ele>153.816</ele>
        <time>2017-11-11T10:28:32Z</time>
      </trkpt>
      <trkpt lat="51.896166" lon="39.542646">
        <ele>153.42</ele>
        <time>2017-11-11T10:28:38Z</time>
      </trkpt>
      <trkpt lat="51.896182" lon="39.542234">
        <ele>153.013</ele>
        <time>2017-11-11T10:28:43Z</time>
      </trkpt>
      <trkpt lat="51.896197" lon="39.541859">
        <ele>153.273</ele>
        <time>2017-11-11T10:28:48Z</time>
      </trkpt>
      <trkpt lat="51.896211" lon="39.541494">
        <ele>152.65</ele>
        <time>2017-11-11T10:28:52Z</time>
      </trkpt>
      <trkpt lat="51.89614" lon="39.541252">
        <ele>152.792</ele>
        <time>2017-11-11T10:28:57Z</time>
      </trkpt>
      <trkpt lat="51.895855" lon="39.5407">
        <ele>154.184</ele>
        <time>2017-11-11T10:29:05Z</time>
      </trkpt>
      <trkpt lat="51.895799" lon="39.540235">
        <ele>155.257</ele>
        <time>2017-11-11T10:29:12Z</time>
      </trkpt>
      <trkpt lat="51.89588" lon="39.539724">
        <ele>158.105</ele>
        <time>2017-11-11T10:29:17Z</time>
      </trkpt>
      <trkpt lat="51.895979" lon="39.539183">
        <ele>157.951</ele>
        <time>2017-11-11T10:29:23Z</time>
      </trkpt>
      <trkpt lat="51.896094" lon="39.538572">
        <ele>158.847</ele>
        <time>2017-11-11T10:29:29Z</time>
      </trkpt>
      <trkpt lat="51.896181" lon="39.538039">
        <ele>157.794</ele>
        <time>2017-11-11T10:29:37Z</time>
      </trkpt>
      <trkpt lat="51.895963" lon="39.537582">
        <ele>158.433</ele>
        <time>2017-11-11T10:29:44Z</time>
      </trkpt>
      <trkpt lat="51.895696" lon="39.537345">
        <ele>153.087</ele>
        <time>2017-11-11T10:29:49Z</time>
      </trkpt>
      <trkpt lat="51.895419" lon="39.537052">
        <ele>148.885</ele>
        <time>2017-11-11T10:29:55Z</time>
      </trkpt>
      <trkpt lat="51.895103" lon="39.536817">
        <ele>146.875</ele>
        <time>2017-11-11T10:30:01Z</time>
      </trkpt>
      <trkpt lat="51.894919" lon="39.53656">
        <ele>146.409</ele>
        <time>2017-11-11T10:30:08Z</time>
      </trkpt>
      <trkpt lat="51.895051" lon="39.536239">
        <ele>146.535</ele>
        <time>2017-11-11T10:30:13Z</time>
      </trkpt>
      <trkpt lat="51.895078" lon="39.53602">
        <ele>146.535</ele>
        <time>2017-11-11T10:30:16Z</time>
      </trkpt>
      <trkpt lat="51.894843" lon="39.535809">
        <ele>146.951</ele>
        <time>2017-11-11T10:30:23Z</time>
      </trkpt>
      <trkpt lat="51.894641" lon="39.535691">
        <ele>147.412</ele>
        <time>2017-11-11T10:30:29Z</time>
      </trkpt>
      <trkpt lat="51.89438" lon="39.535653">
        <ele>147.723</ele>
        <time>2017-11-11T10:30:35Z</time>
      </trkpt>
      <trkpt lat="51.894129" lon="39.535415">
        <ele>148.849</ele>
        <time>2017-11-11T10:30:40Z</time>
      </trkpt>
      <trkpt lat="51.89383" lon="39.535384">
        <ele>148.306</ele>
        <time>2017-11-11T10:30:46Z</time>
      </trkpt>
      <trkpt lat="51.893716" lon="39.535106">
        <ele>148.845</ele>
        <time>2017-11-11T10:30:51Z</time>
      </trkpt>
      <trkpt lat="51.893627" lon="39.534552">
        <ele>150.677</ele>
        <time>2017-11-11T10:30:57Z</time>
      </trkpt>
      <trkpt lat="51.893669" lon="39.534244">
        <ele>155.859</ele>
        <time>2017-11-11T10:31:00Z</time>
      </trkpt>
      <trkpt lat="51.893765" lon="39.533737">
        <ele>168.391</ele>
        <time>2017-11-11T10:31:06Z</time>
      </trkpt>
      <trkpt lat="51.89386" lon="39.533414">
        <ele>166.717</ele>
        <time>2017-11-11T10:31:10Z</time>
      </trkpt>
      <trkpt lat="51.893957" lon="39.533036">
        <ele>161.703</ele>
        <time>2017-11-11T10:31:14Z</time>
      </trkpt>
      <trkpt lat="51.894053" lon="39.532564">
        <ele>158.238</ele>
        <time>2017-11-11T10:31:20Z</time>
      </trkpt>
      <trkpt lat="51.894141" lon="39.532282">
        <ele>156.269</ele>
        <time>2017-11-11T10:31:24Z</time>
      </trkpt>
      <trkpt lat="51.894209" lon="39.532021">
        <ele>152.957</ele>
        <time>2017-11-11T10:31:27Z</time>
      </trkpt>
      <trkpt lat="51.8943" lon="39.531604">
        <ele>149.575</ele>
        <time>2017-11-11T10:31:32Z</time>
      </trkpt>
      <trkpt lat="51.894343" lon="39.531343">
        <ele>149.291</ele>
        <time>2017-11-11T10:31:35Z</time>
      </trkpt>
      <trkpt lat="51.89442" lon="39.530858">
        <ele>147.764</ele>
        <time>2017-11-11T10:31:41Z</time>
      </trkpt>
      <trkpt lat="51.894514" lon="39.530345">
        <ele>148.367</ele>
        <time>2017-11-11T10:31:47Z</time>
      </trkpt>
      <trkpt lat="51.89463" lon="39.529746">
        <ele>145.53</ele>
        <time>2017-11-11T10:31:53Z</time>
      </trkpt>
      <trkpt lat="51.89471" lon="39.52924">
        <ele>142.847</ele>
        <time>2017-11-11T10:31:58Z</time>
      </trkpt>
      <trkpt lat="51.89475" lon="39.528968">
        <ele>142.887</ele>
        <time>2017-11-11T10:32:01Z</time>
      </trkpt>
      <trkpt lat="51.89482" lon="39.528451">
        <ele>143.583</ele>
        <time>2017-11-11T10:32:07Z</time>
      </trkpt>
      <trkpt lat="51.894903" lon="39.527981">
        <ele>143.394</ele>
        <time>2017-11-11T10:32:13Z</time>
      </trkpt>
      <trkpt lat="51.894966" lon="39.527639">
        <ele>144.475</ele>
        <time>2017-11-11T10:32:18Z</time>
      </trkpt>
      <trkpt lat="51.89502" lon="39.527205">
        <ele>147.047</ele>
        <time>2017-11-11T10:32:23Z</time>
      </trkpt>
      <trkpt lat="51.895132" lon="39.526549">
        <ele>148.878</ele>
        <time>2017-11-11T10:32:31Z</time>
      </trkpt>
      <trkpt lat="51.895244" lon="39.526065">
        <ele>149.227</ele>
        <time>2017-11-11T10:32:37Z</time>
      </trkpt>
      <trkpt lat="51.895354" lon="39.525604">
        <ele>149.693</ele>
        <time>2017-11-11T10:32:42Z</time>
      </trkpt>
      <trkpt lat="51.895483" lon="39.525092">
        <ele>149.923</ele>
        <time>2017-11-11T10:32:48Z</time>
      </trkpt>
      <trkpt lat="51.895565" lon="39.524611">
        <ele>149.108</ele>
        <time>2017-11-11T10:32:54Z</time>
      </trkpt>
      <trkpt lat="51.895595" lon="39.524375">
        <ele>148.051</ele>
        <time>2017-11-11T10:32:57Z</time>
      </trkpt>
      <trkpt lat="51.895688" lon="39.523813">
        <ele>147.376</ele>
        <time>2017-11-11T10:33:03Z</time>
      </trkpt>
      <trkpt lat="51.895759" lon="39.523339">
        <ele>146.186</ele>
        <time>2017-11-11T10:33:08Z</time>
      </trkpt>
      <trkpt lat="51.895842" lon="39.522907">
        <ele>144.931</ele>
        <time>2017-11-11T10:33:13Z</time>
      </trkpt>
      <trkpt lat="51.895959" lon="39.52243">
        <ele>144.116</ele>
        <time>2017-11-11T10:33:19Z</time>
      </trkpt>
      <trkpt lat="51.896054" lon="39.521938">
        <ele>145.759</ele>
        <time>2017-11-11T10:33:25Z</time>
      </trkpt>
      <trkpt lat="51.896126" lon="39.521582">
        <ele>147.174</ele>
        <time>2017-11-11T10:33:30Z</time>
      </trkpt>
      <trkpt lat="51.896104" lon="39.521308">
        <ele>147.614</ele>
        <time>2017-11-11T10:33:37Z</time>
      </trkpt>
      <trkpt lat="51.895856" lon="39.521129">
        <ele>147.828</ele>
        <time>2017-11-11T10:33:47Z</time>
      </trkpt>
      <trkpt lat="51.895586" lon="39.520987">
        <ele>148.798</ele>
        <time>2017-11-11T10:33:54Z</time>
      </trkpt>
      <trkpt lat="51.895346" lon="39.520885">
        <ele>149.357</ele>
        <time>2017-11-11T10:33:59Z</time>
      </trkpt>
      <trkpt lat="51.895051" lon="39.520755">
        <ele>150.295</ele>
        <time>2017-11-11T10:34:05Z</time>
      </trkpt>
      <trkpt lat="51.894772" lon="39.520472">
        <ele>152.649</ele>
        <time>2017-11-11T10:34:11Z</time>
      </trkpt>
      <trkpt lat="51.894682" lon="39.520072">
        <ele>152.743</ele>
        <time>2017-11-11T10:34:17Z</time>
      </trkpt>
      <trkpt lat="51.89466" lon="39.51977">
        <ele>149.886</ele>
        <time>2017-11-11T10:34:20Z</time>
      </trkpt>
      <trkpt lat="51.894675" lon="39.519282">
        <ele>146.464</ele>
        <time>2017-11-11T10:34:26Z</time>
      </trkpt>
      <trkpt lat="51.894663" lon="39.518824">
        <ele>143.563</ele>
        <time>2017-11-11T10:34:31Z</time>
      </trkpt>
      <trkpt lat="51.894686" lon="39.518385">
        <ele>142.297</ele>
        <time>2017-11-11T10:34:37Z</time>
      </trkpt>
      <trkpt lat="51.894621" lon="39.517996">
        <ele>142.401</ele>
        <time>2017-11-11T10:34:43Z</time>
      </trkpt>
      <trkpt lat="51.894654" lon="39.517449">
        <ele>144.559</ele>
        <time>2017-11-11T10:34:49Z</time>
      </trkpt>
      <trkpt lat="51.894699" lon="39.516987">
        <ele>144.896</ele>
        <time>2017-11-11T10:34:55Z</time>
      </trkpt>
      <trkpt lat="51.894849" lon="39.516694">
        <ele>146.555</ele>
        <time>2017-11-11T10:35:00Z</time>
      </trkpt>
      <trkpt lat="51.895007" lon="39.516375">
        <ele>148.965</ele>
        <time>2017-11-11T10:35:05Z</time>
      </trkpt>
      <trkpt lat="51.895183" lon="39.515948">
        <ele>151.571</ele>
        <time>2017-11-11T10:35:13Z</time>
      </trkpt>
      <trkpt lat="51.895271" lon="39.515578">
        <ele>153.494</ele>
        <time>2017-11-11T10:35:18Z</time>
      </trkpt>
      <trkpt lat="51.895278" lon="39.515184">
        <ele>154.495</ele>
        <time>2017-11-11T10:35:24Z</time>
      </trkpt>
      <trkpt lat="51.89524" lon="39.514731">
        <ele>157.41</ele>
        <time>2017-11-11T10:35:30Z</time>
      </trkpt>
      <trkpt lat="51.895304" lon="39.514228">
        <ele>159.196</ele>
        <time>2017-11-11T10:35:36Z</time>
      </trkpt>
      <trkpt lat="51.895393" lon="39.513922">
        <ele>160.566</ele>
        <time>2017-11-11T10:35:40Z</time>
      </trkpt>
      <trkpt lat="51.895554" lon="39.513568">
        <ele>159.952</ele>
        <time>2017-11-11T10:35:45Z</time>
      </trkpt>
      <trkpt lat="51.895753" lon="39.513115">
        <ele>156.176</ele>
        <time>2017-11-11T10:35:51Z</time>
      </trkpt>
      <trkpt lat="51.895842" lon="39.512722">
        <ele>154.394</ele>
        <time>2017-11-11T10:35:56Z</time>
      </trkpt>
      <trkpt lat="51.895862" lon="39.512279">
        <ele>153.666</ele>
        <time>2017-11-11T10:36:02Z</time>
      </trkpt>
      <trkpt lat="51.895908" lon="39.51185">
        <ele>151.301</ele>
        <time>2017-11-11T10:36:07Z</time>
      </trkpt>
      <trkpt lat="51.89596" lon="39.511611">
        <ele>150.35</ele>
        <time>2017-11-11T10:36:10Z</time>
      </trkpt>
      <trkpt lat="51.896009" lon="39.511349">
        <ele>149.368</ele>
        <time>2017-11-11T10:36:13Z</time>
      </trkpt>
      <trkpt lat="51.896156" lon="39.510878">
        <ele>147.669</ele>
        <time>2017-11-11T10:36:19Z</time>
      </trkpt>
      <trkpt lat="51.896302" lon="39.510559">
        <ele>145.599</ele>
        <time>2017-11-11T10:36:24Z</time>
      </trkpt>
      <trkpt lat="51.89643" lon="39.510153">
        <ele>145.337</ele>
        <time>2017-11-11T10:36:30Z</time>
      </trkpt>
      <trkpt lat="51.896541" lon="39.509764">
        <ele>147.283</ele>
        <time>2017-11-11T10:36:36Z</time>
      </trkpt>
      <trkpt lat="51.896733" lon="39.509354">
        <ele>150.11</ele>
        <time>2017-11-11T10:37:38Z</time>
      </trkpt>
      <trkpt lat="51.896857" lon="39.509092">
        <ele>152.352</ele>
        <time>2017-11-11T10:37:45Z</time>
      </trkpt>
      <trkpt lat="51.897052" lon="39.508683">
        <ele>161.881</ele>
        <time>2017-11-11T10:37:53Z</time>
      </trkpt>
      <trkpt lat="51.89718" lon="39.508328">
        <ele>170.032</ele>
        <time>2017-11-11T10:37:58Z</time>
      </trkpt>
      <trkpt lat="51.897289" lon="39.507955">
        <ele>170.464</ele>
        <time>2017-11-11T10:38:03Z</time>
      </trkpt>
      <trkpt lat="51.897406" lon="39.507408">
        <ele>168.606</ele>
        <time>2017-11-11T10:38:09Z</time>
      </trkpt>
      <trkpt lat="51.897465" lon="39.506882">
        <ele>165.891</ele>
        <time>2017-11-11T10:38:15Z</time>
      </trkpt>
      <trkpt lat="51.897525" lon="39.506589">
        <ele>164.28</ele>
        <time>2017-11-11T10:38:19Z</time>
      </trkpt>
      <trkpt lat="51.897575" lon="39.506364">
        <ele>164.207</ele>
        <time>2017-11-11T10:38:22Z</time>
      </trkpt>
      <trkpt lat="51.897508" lon="39.505885">
        <ele>162.429</ele>
        <time>2017-11-11T10:38:28Z</time>
      </trkpt>
      <trkpt lat="51.897409" lon="39.505556">
        <ele>160.833</ele>
        <time>2017-11-11T10:38:33Z</time>
      </trkpt>
      <trkpt lat="51.897361" lon="39.505021">
        <ele>159.932</ele>
        <time>2017-11-11T10:38:39Z</time>
      </trkpt>
      <trkpt lat="51.89746" lon="39.504574">
        <ele>159.153</ele>
        <time>2017-11-11T10:38:45Z</time>
      </trkpt>
      <trkpt lat="51.897608" lon="39.504179">
        <ele>155.213</ele>
        <time>2017-11-11T10:38:50Z</time>
      </trkpt>
      <trkpt lat="51.897753" lon="39.503685">
        <ele>150.765</ele>
        <time>2017-11-11T10:38:56Z</time>
      </trkpt>
      <trkpt lat="51.897814" lon="39.503237">
        <ele>149.222</ele>
        <time>2017-11-11T10:39:02Z</time>
      </trkpt>
      <trkpt lat="51.897896" lon="39.502882">
        <ele>147.555</ele>
        <time>2017-11-11T10:39:07Z</time>
      </trkpt>
      <trkpt lat="51.897957" lon="39.502654">
        <ele>146.65</ele>
        <time>2017-11-11T10:39:10Z</time>
      </trkpt>
      <trkpt lat="51.898018" lon="39.502458">
        <ele>145.953</ele>
        <time>2017-11-11T10:39:13Z</time>
      </trkpt>
      <trkpt lat="51.898094" lon="39.502023">
        <ele>144.857</ele>
        <time>2017-11-11T10:39:19Z</time>
      </trkpt>
      <trkpt lat="51.898133" lon="39.501531">
        <ele>144.407</ele>
        <time>2017-11-11T10:39:24Z</time>
      </trkpt>
      <trkpt lat="51.898173" lon="39.501144">
        <ele>142.69</ele>
        <time>2017-11-11T10:39:28Z</time>
      </trkpt>
      <trkpt lat="51.898318" lon="39.500687">
        <ele>140.597</ele>
        <time>2017-11-11T10:39:34Z</time>
      </trkpt>
      <trkpt lat="51.898492" lon="39.500307">
        <ele>140.261</ele>
        <time>2017-11-11T10:39:40Z</time>
      </trkpt>
      <trkpt lat="51.898544" lon="39.499926">
        <ele>140.209</ele>
        <time>2017-11-11T10:39:45Z</time>
      </trkpt>
      <trkpt lat="51.898502" lon="39.49967">
        <ele>139.619</ele>
        <time>2017-11-11T10:39:48Z</time>
      </trkpt>
      <trkpt lat="51.898445" lon="39.499251">
        <ele>139.121</ele>
        <time>2017-11-11T10:39:53Z</time>
      </trkpt>
      <trkpt lat="51.898509" lon="39.498773">
        <ele>138.679</ele>
        <time>2017-11-11T10:39:59Z</time>
      </trkpt>
      <trkpt lat="51.898526" lon="39.498216">
        <ele>138.015</ele>
        <time>2017-11-11T10:40:05Z</time>
      </trkpt>
      <trkpt lat="51.898624" lon="39.49785">
        <ele>138.003</ele>
        <time>2017-11-11T10:40:10Z</time>
      </trkpt>
      <trkpt lat="51.898761" lon="39.497424">
        <ele>143.414</ele>
        <time>2017-11-11T10:40:18Z</time>
      </trkpt>
      <trkpt lat="51.898763" lon="39.496942">
        <ele>147.331</ele>
        <time>2017-11-11T10:40:23Z</time>
      </trkpt>
      <trkpt lat="51.89876" lon="39.49668">
        <ele>148.893</ele>
        <time>2017-11-11T10:40:26Z</time>
      </trkpt>
      <trkpt lat="51.898862" lon="39.49633">
        <ele>150.464</ele>
        <time>2017-11-11T10:40:31Z</time>
      </trkpt>
      <trkpt lat="51.899005" lon="39.495851">
        <ele>151.042</ele>
        <time>2017-11-11T10:40:37Z</time>
      </trkpt>
      <trkpt lat="51.89884" lon="39.495431">
        <ele>150.736</ele>
        <time>2017-11-11T10:40:43Z</time>
      </trkpt>
      <trkpt lat="51.898778" lon="39.495218">
        <ele>150.785</ele>
        <time>2017-11-11T10:40:46Z</time>
      </trkpt>
      <trkpt lat="51.89865" lon="39.494773">
        <ele>151.355</ele>
        <time>2017-11-11T10:40:52Z</time>
      </trkpt>
      <trkpt lat="51.898568" lon="39.494374">
        <ele>151.933</ele>
        <time>2017-11-11T10:40:58Z</time>
      </trkpt>
      <trkpt lat="51.898437" lon="39.493988">
        <ele>152.891</ele>
        <time>2017-11-11T10:41:04Z</time>
      </trkpt>
      <trkpt lat="51.898284" lon="39.49341">
        <ele>161.286</ele>
        <time>2017-11-11T10:41:10Z</time>
      </trkpt>
      <trkpt lat="51.898156" lon="39.492951">
        <ele>159.468</ele>
        <time>2017-11-11T10:41:16Z</time>
      </trkpt>
      <trkpt lat="51.89809" lon="39.492737">
        <ele>158.068</ele>
        <time>2017-11-11T10:41:19Z</time>
      </trkpt>
      <trkpt lat="51.898014" lon="39.492287">
        <ele>154.03</ele>
        <time>2017-11-11T10:41:24Z</time>
      </trkpt>
      <trkpt lat="51.897874" lon="39.491751">
        <ele>152.219</ele>
        <time>2017-11-11T10:41:31Z</time>
      </trkpt>
      <trkpt lat="51.897762" lon="39.491201">
        <ele>148.998</ele>
        <time>2017-11-11T10:41:37Z</time>
      </trkpt>
      <trkpt lat="51.897665" lon="39.490704">
        <ele>147.001</ele>
        <time>2017-11-11T10:41:43Z</time>
      </trkpt>
      <trkpt lat="51.897599" lon="39.490132">
        <ele>141.615</ele>
        <time>2017-11-11T10:41:49Z</time>
      </trkpt>
      <trkpt lat="51.897476" lon="39.48973">
        <ele>139.094</ele>
        <time>2017-11-11T10:41:54Z</time>
      </trkpt>
      <trkpt lat="51.897377" lon="39.489314">
        <ele>139.043</ele>
        <time>2017-11-11T10:41:59Z</time>
      </trkpt>
      <trkpt lat="51.897213" lon="39.489014">
        <ele>136.377</ele>
        <time>2017-11-11T10:42:04Z</time>
      </trkpt>
      <trkpt lat="51.897066" lon="39.488575">
        <ele>134.966</ele>
        <time>2017-11-11T10:42:10Z</time>
      </trkpt>
      <trkpt lat="51.897017" lon="39.488351">
        <ele>135.423</ele>
        <time>2017-11-11T10:42:13Z</time>
      </trkpt>
      <trkpt lat="51.896974" lon="39.487835">
        <ele>135.608</ele>
        <time>2017-11-11T10:42:20Z</time>
      </trkpt>
      <trkpt lat="51.896989" lon="39.48752">
        <ele>135.27</ele>
        <time>2017-11-11T10:42:25Z</time>
      </trkpt>
      <trkpt lat="51.896981" lon="39.487447">
        <ele>134.606</ele>
        <time>2017-11-11T10:42:30Z</time>
      </trkpt>
      <trkpt lat="51.896981" lon="39.487447">
        <time>2017-11-11T10:42:35Z</time>
      </trkpt>
    </trkseg>
    <trkseg>
      <trkpt lat="51.896981" lon="39.487447">
        <time>2017-11-11T10:42:38Z</time>
      </trkpt>
      <trkpt lat="51.896975" lon="39.487356">
        <ele>133.676</ele>
        <time>2017-11-11T10:42:38Z</time>
      </trkpt>
      <trkpt lat="51.896975" lon="39.487356">
        <ele>133.676</ele>
        <time>2017-11-11T10:42:46Z</time>
      </trkpt>
      <trkpt lat="51.896975" lon="39.487356">
        <time>2017-11-11T10:42:46Z</time>
      </trkpt>
    </trkseg>
    <trkseg>
      <trkpt lat="51.896975" lon="39.487356">
        <time>2017-11-11T10:43:10Z</time>
      </trkpt>
      <trkpt lat="51.896971" lon="39.487013">
        <ele>132.967</ele>
        <time>2017-11-11T10:43:10Z</time>
      </trkpt>
      <trkpt lat="51.896971" lon="39.487013">
        <ele>132.967</ele>
        <time>2017-11-11T10:43:18Z</time>
      </trkpt>
      <trkpt lat="51.896971" lon="39.487013">
        <time>2017-11-11T10:43:18Z</time>
      </trkpt>
    </trkseg>
    <trkseg>
      <trkpt lat="51.896971" lon="39.487013">
        <time>2017-11-11T10:57:22Z</time>
      </trkpt>
      <trkpt lat="51.896952" lon="39.486716">
        <ele>133.236</ele>
        <time>2017-11-11T10:58:17Z</time>
      </trkpt>
      <trkpt lat="51.896971" lon="39.486126">
        <ele>130.636</ele>
        <time>2017-11-11T10:58:24Z</time>
      </trkpt>
      <trkpt lat="51.896994" lon="39.485586">
        <ele>126.254</ele>
        <time>2017-11-11T10:58:30Z</time>
      </trkpt>
      <trkpt lat="51.897036" lon="39.485177">
        <ele>125.325</ele>
        <time>2017-11-11T10:58:36Z</time>
      </trkpt>
      <trkpt lat="51.897128" lon="39.484782">
        <ele>129.852</ele>
        <time>2017-11-11T10:58:42Z</time>
      </trkpt>
      <trkpt lat="51.897239" lon="39.484221">
        <ele>127.234</ele>
        <time>2017-11-11T10:58:48Z</time>
      </trkpt>
      <trkpt lat="51.897231" lon="39.483732">
        <ele>126.618</ele>
        <time>2017-11-11T10:58:54Z</time>
      </trkpt>
      <trkpt lat="51.897168" lon="39.483148">
        <ele>126.91</ele>
        <time>2017-11-11T10:59:01Z</time>
      </trkpt>
      <trkpt lat="51.897043" lon="39.48289">
        <ele>128.368</ele>
        <time>2017-11-11T10:59:06Z</time>
      </trkpt>
      <trkpt lat="51.896896" lon="39.482482">
        <ele>129.392</ele>
        <time>2017-11-11T10:59:12Z</time>
      </trkpt>
      <trkpt lat="51.89674" lon="39.48206">
        <ele>129.615</ele>
        <time>2017-11-11T10:59:18Z</time>
      </trkpt>
      <trkpt lat="51.896567" lon="39.481581">
        <ele>127.463</ele>
        <time>2017-11-11T10:59:23Z</time>
      </trkpt>
      <trkpt lat="51.89633" lon="39.481196">
        <ele>125.877</ele>
        <time>2017-11-11T10:59:29Z</time>
      </trkpt>
      <trkpt lat="51.896117" lon="39.480933">
        <ele>129.387</ele>
        <time>2017-11-11T10:59:33Z</time>
      </trkpt>
      <trkpt lat="51.89598" lon="39.480665">
        <ele>131.648</ele>
        <time>2017-11-11T10:59:37Z</time>
      </trkpt>
      <trkpt lat="51.895984" lon="39.480355">
        <ele>133.156</ele>
        <time>2017-11-11T10:59:41Z</time>
      </trkpt>
      <trkpt lat="51.896129" lon="39.480186">
        <ele>131.704</ele>
        <time>2017-11-11T10:59:44Z</time>
      </trkpt>
      <trkpt lat="51.896374" lon="39.480002">
        <ele>127.64</ele>
        <time>2017-11-11T10:59:48Z</time>
      </trkpt>
      <trkpt lat="51.8967" lon="39.479765">
        <ele>122.776</ele>
        <time>2017-11-11T10:59:54Z</time>
      </trkpt>
      <trkpt lat="51.896999" lon="39.479485">
        <ele>119.867</ele>
        <time>2017-11-11T11:00:00Z</time>
      </trkpt>
      <trkpt lat="51.897142" lon="39.479341">
        <ele>119.881</ele>
        <time>2017-11-11T11:00:03Z</time>
      </trkpt>
      <trkpt lat="51.897409" lon="39.479082">
        <ele>119.748</ele>
        <time>2017-11-11T11:00:08Z</time>
      </trkpt>
      <trkpt lat="51.897731" lon="39.478788">
        <ele>118.044</ele>
        <time>2017-11-11T11:00:14Z</time>
      </trkpt>
      <trkpt lat="51.898044" lon="39.478486">
        <ele>118.625</ele>
        <time>2017-11-11T11:00:20Z</time>
      </trkpt>
      <trkpt lat="51.898188" lon="39.478332">
        <ele>119.667</ele>
        <time>2017-11-11T11:00:23Z</time>
      </trkpt>
      <trkpt lat="51.898356" lon="39.47813">
        <ele>120.951</ele>
        <time>2017-11-11T11:00:27Z</time>
      </trkpt>
      <trkpt lat="51.898486" lon="39.478001">
        <ele>121.37</ele>
        <time>2017-11-11T11:00:30Z</time>
      </trkpt>
      <trkpt lat="51.898718" lon="39.477779">
        <ele>121.186</ele>
        <time>2017-11-11T11:00:35Z</time>
      </trkpt>
      <trkpt lat="51.898961" lon="39.477621">
        <ele>121.152</ele>
        <time>2017-11-11T11:00:40Z</time>
      </trkpt>
      <trkpt lat="51.89922" lon="39.477473">
        <ele>120.77</ele>
        <time>2017-11-11T11:00:45Z</time>
      </trkpt>
      <trkpt lat="51.899568" lon="39.477283">
        <ele>119.445</ele>
        <time>2017-11-11T11:00:51Z</time>
      </trkpt>
      <trkpt lat="51.899834" lon="39.477094">
        <ele>117.092</ele>
        <time>2017-11-11T11:00:56Z</time>
      </trkpt>
      <trkpt lat="51.899999" lon="39.477005">
        <ele>115.916</ele>
        <time>2017-11-11T11:00:59Z</time>
      </trkpt>
      <trkpt lat="51.9003" lon="39.476832">
        <ele>115.002</ele>
        <time>2017-11-11T11:01:05Z</time>
      </trkpt>
      <trkpt lat="51.900659" lon="39.476605">
        <ele>113.857</ele>
        <time>2017-11-11T11:01:11Z</time>
      </trkpt>
      <trkpt lat="51.900929" lon="39.476367">
        <ele>113.816</ele>
        <time>2017-11-11T11:01:16Z</time>
      </trkpt>
      <trkpt lat="51.901141" lon="39.476011">
        <ele>115.125</ele>
        <time>2017-11-11T11:01:21Z</time>
      </trkpt>
      <trkpt lat="51.901275" lon="39.475375">
        <ele>117.682</ele>
        <time>2017-11-11T11:01:28Z</time>
      </trkpt>
      <trkpt lat="51.901192" lon="39.474944">
        <ele>118.641</ele>
        <time>2017-11-11T11:01:33Z</time>
      </trkpt>
      <trkpt lat="51.901121" lon="39.474682">
        <ele>119.006</ele>
        <time>2017-11-11T11:01:36Z</time>
      </trkpt>
      <trkpt lat="51.900968" lon="39.474277">
        <ele>118.665</ele>
        <time>2017-11-11T11:01:41Z</time>
      </trkpt>
      <trkpt lat="51.900878" lon="39.474067">
        <ele>118.585</ele>
        <time>2017-11-11T11:01:44Z</time>
      </trkpt>
      <trkpt lat="51.900702" lon="39.473606">
        <ele>118.564</ele>
        <time>2017-11-11T11:01:50Z</time>
      </trkpt>
      <trkpt lat="51.900503" lon="39.473131">
        <ele>118.382</ele>
        <time>2017-11-11T11:01:56Z</time>
      </trkpt>
      <trkpt lat="51.900392" lon="39.472908">
        <ele>118.041</ele>
        <time>2017-11-11T11:01:59Z</time>
      </trkpt>
      <trkpt lat="51.900175" lon="39.472471">
        <ele>118.123</ele>
        <time>2017-11-11T11:02:05Z</time>
      </trkpt>
      <trkpt lat="51.90007" lon="39.47225">
        <ele>118.282</ele>
        <time>2017-11-11T11:02:08Z</time>
      </trkpt>
      <trkpt lat="51.899968" lon="39.472018">
        <ele>118.444</ele>
        <time>2017-11-11T11:02:11Z</time>
      </trkpt>
      <trkpt lat="51.899794" lon="39.471566">
        <ele>118.414</ele>
        <time>2017-11-11T11:02:17Z</time>
      </trkpt>
      <trkpt lat="51.899739" lon="39.471055">
        <ele>118.105</ele>
        <time>2017-11-11T11:02:24Z</time>
      </trkpt>
      <trkpt lat="51.899603" lon="39.47087">
        <ele>117.858</ele>
        <time>2017-11-11T11:02:29Z</time>
      </trkpt>
      <trkpt lat="51.89933" lon="39.470933">
        <ele>117.561</ele>
        <time>2017-11-11T11:02:35Z</time>
      </trkpt>
      <trkpt lat="51.899063" lon="39.47107">
        <ele>117.316</ele>
        <time>2017-11-11T11:02:41Z</time>
      </trkpt>
      <trkpt lat="51.89887" lon="39.471122">
        <ele>117.469</ele>
        <time>2017-11-11T11:02:45Z</time>
      </trkpt>
      <trkpt lat="51.898711" lon="39.471171">
        <ele>117.738</ele>
        <time>2017-11-11T11:02:48Z</time>
      </trkpt>
      <trkpt lat="51.8984" lon="39.471141">
        <ele>117.723</ele>
        <time>2017-11-11T11:02:53Z</time>
      </trkpt>
      <trkpt lat="51.898081" lon="39.471371">
        <ele>116.993</ele>
        <time>2017-11-11T11:02:59Z</time>
      </trkpt>
      <trkpt lat="51.897779" lon="39.471225">
        <ele>115.789</ele>
        <time>2017-11-11T11:03:05Z</time>
      </trkpt>
      <trkpt lat="51.897501" lon="39.471235">
        <ele>115.681</ele>
        <time>2017-11-11T11:03:11Z</time>
      </trkpt>
      <trkpt lat="51.897227" lon="39.47129">
        <ele>116.552</ele>
        <time>2017-11-11T11:03:16Z</time>
      </trkpt>
      <trkpt lat="51.897032" lon="39.471199">
        <ele>116.974</ele>
        <time>2017-11-11T11:03:21Z</time>
      </trkpt>
      <trkpt lat="51.896847" lon="39.471174">
        <ele>117.719</ele>
        <time>2017-11-11T11:03:27Z</time>
      </trkpt>
      <trkpt lat="51.896477" lon="39.471174">
        <ele>123.774</ele>
        <time>2017-11-11T11:03:35Z</time>
      </trkpt>
      <trkpt lat="51.89625" lon="39.471366">
        <ele>128.01</ele>
        <time>2017-11-11T11:03:42Z</time>
      </trkpt>
      <trkpt lat="51.896052" lon="39.47161">
        <ele>129.494</ele>
        <time>2017-11-11T11:03:49Z</time>
      </trkpt>
      <trkpt lat="51.895874" lon="39.471903">
        <ele>129.699</ele>
        <time>2017-11-11T11:03:55Z</time>
      </trkpt>
      <trkpt lat="51.895631" lon="39.471947">
        <ele>128.411</ele>
        <time>2017-11-11T11:04:00Z</time>
      </trkpt>
      <trkpt lat="51.89529" lon="39.471896">
        <ele>125.687</ele>
        <time>2017-11-11T11:04:05Z</time>
      </trkpt>
      <trkpt lat="51.895119" lon="39.471833">
        <ele>124.464</ele>
        <time>2017-11-11T11:04:08Z</time>
      </trkpt>
      <trkpt lat="51.894939" lon="39.471756">
        <ele>124.02</ele>
        <time>2017-11-11T11:04:11Z</time>
      </trkpt>
      <trkpt lat="51.894679" lon="39.471688">
        <ele>126.353</ele>
        <time>2017-11-11T11:04:16Z</time>
      </trkpt>
      <trkpt lat="51.894404" lon="39.471639">
        <ele>129.473</ele>
        <time>2017-11-11T11:04:21Z</time>
      </trkpt>
      <trkpt lat="51.894077" lon="39.471481">
        <ele>133.762</ele>
        <time>2017-11-11T11:04:27Z</time>
      </trkpt>
      <trkpt lat="51.893945" lon="39.471418">
        <ele>135.196</ele>
        <time>2017-11-11T11:04:30Z</time>
      </trkpt>
      <trkpt lat="51.893819" lon="39.47136">
        <ele>135.429</ele>
        <time>2017-11-11T11:04:33Z</time>
      </trkpt>
      <trkpt lat="51.893573" lon="39.471261">
        <ele>135.031</ele>
        <time>2017-11-11T11:04:38Z</time>
      </trkpt>
      <trkpt lat="51.893402" lon="39.471204">
        <ele>135.936</ele>
        <time>2017-11-11T11:04:42Z</time>
      </trkpt>
      <trkpt lat="51.893185" lon="39.471124">
        <ele>138.757</ele>
        <time>2017-11-11T11:04:47Z</time>
      </trkpt>
      <trkpt lat="51.892936" lon="39.471028">
        <ele>142.849</ele>
        <time>2017-11-11T11:04:53Z</time>
      </trkpt>
      <trkpt lat="51.892713" lon="39.470893">
        <ele>148.817</ele>
        <time>2017-11-11T11:04:58Z</time>
      </trkpt>
      <trkpt lat="51.892358" lon="39.470726">
        <ele>157.393</ele>
        <time>2017-11-11T11:05:05Z</time>
      </trkpt>
      <trkpt lat="51.892055" lon="39.470586">
        <ele>160.864</ele>
        <time>2017-11-11T11:05:11Z</time>
      </trkpt>
      <trkpt lat="51.891729" lon="39.470398">
        <ele>160.001</ele>
        <time>2017-11-11T11:05:18Z</time>
      </trkpt>
      <trkpt lat="51.891461" lon="39.470318">
        <ele>160.026</ele>
        <time>2017-11-11T11:05:24Z</time>
      </trkpt>
      <trkpt lat="51.891032" lon="39.470049">
        <ele>156.523</ele>
        <time>2017-11-11T11:05:31Z</time>
      </trkpt>
      <trkpt lat="51.890768" lon="39.469941">
        <ele>155.766</ele>
        <time>2017-11-11T11:05:36Z</time>
      </trkpt>
      <trkpt lat="51.890465" lon="39.46976">
        <ele>156.531</ele>
        <time>2017-11-11T11:05:42Z</time>
      </trkpt>
      <trkpt lat="51.890202" lon="39.469603">
        <ele>154.046</ele>
        <time>2017-11-11T11:05:47Z</time>
      </trkpt>
      <trkpt lat="51.889865" lon="39.469478">
        <ele>150.111</ele>
        <time>2017-11-11T11:05:53Z</time>
      </trkpt>
      <trkpt lat="51.889596" lon="39.469346">
        <ele>149.296</ele>
        <time>2017-11-11T11:05:58Z</time>
      </trkpt>
      <trkpt lat="51.889316" lon="39.469196">
        <ele>146.995</ele>
        <time>2017-11-11T11:06:03Z</time>
      </trkpt>
      <trkpt lat="51.889016" lon="39.469071">
        <ele>148.065</ele>
        <time>2017-11-11T11:06:09Z</time>
      </trkpt>
      <trkpt lat="51.888838" lon="39.468992">
        <ele>150.735</ele>
        <time>2017-11-11T11:06:13Z</time>
      </trkpt>
      <trkpt lat="51.888568" lon="39.468882">
        <ele>154.212</ele>
        <time>2017-11-11T11:06:19Z</time>
      </trkpt>
      <trkpt lat="51.888308" lon="39.468764">
        <ele>157.976</ele>
        <time>2017-11-11T11:06:24Z</time>
      </trkpt>
      <trkpt lat="51.888074" lon="39.468682">
        <ele>160.775</ele>
        <time>2017-11-11T11:06:29Z</time>
      </trkpt>
      <trkpt lat="51.887793" lon="39.468514">
        <ele>160.757</ele>
        <time>2017-11-11T11:06:35Z</time>
      </trkpt>
      <trkpt lat="51.887592" lon="39.468425">
        <ele>162.82</ele>
        <time>2017-11-11T11:06:40Z</time>
      </trkpt>
      <trkpt lat="51.887196" lon="39.468123">
        <ele>165.733</ele>
        <time>2017-11-11T11:06:47Z</time>
      </trkpt>
      <trkpt lat="51.887002" lon="39.468007">
        <ele>164.993</ele>
        <time>2017-11-11T11:06:52Z</time>
      </trkpt>
      <trkpt lat="51.886828" lon="39.467932">
        <ele>163.485</ele>
        <time>2017-11-11T11:06:57Z</time>
      </trkpt>
      <trkpt lat="51.886664" lon="39.467842">
        <ele>162.252</ele>
        <time>2017-11-11T11:07:01Z</time>
      </trkpt>
      <trkpt lat="51.88653" lon="39.46774">
        <ele>156.766</ele>
        <time>2017-11-11T11:07:04Z</time>
      </trkpt>
      <trkpt lat="51.886262" lon="39.467582">
        <ele>156.225</ele>
        <time>2017-11-11T11:07:10Z</time>
      </trkpt>
      <trkpt lat="51.88602" lon="39.4675">
        <ele>152.324</ele>
        <time>2017-11-11T11:07:15Z</time>
      </trkpt>
      <trkpt lat="51.885765" lon="39.467342">
        <ele>149.295</ele>
        <time>2017-11-11T11:07:20Z</time>
      </trkpt>
      <trkpt lat="51.885598" lon="39.467279">
        <ele>146.258</ele>
        <time>2017-11-11T11:07:24Z</time>
      </trkpt>
      <trkpt lat="51.885379" lon="39.467179">
        <ele>141.783</ele>
        <time>2017-11-11T11:07:29Z</time>
      </trkpt>
      <trkpt lat="51.885105" lon="39.467047">
        <ele>136.487</ele>
        <time>2017-11-11T11:07:35Z</time>
      </trkpt>
      <trkpt lat="51.884815" lon="39.466964">
        <ele>135.984</ele>
        <time>2017-11-11T11:07:42Z</time>
      </trkpt>
      <trkpt lat="51.884555" lon="39.466769">
        <ele>141.11</ele>
        <time>2017-11-11T11:07:48Z</time>
      </trkpt>
      <trkpt lat="51.884307" lon="39.466635">
        <ele>152.114</ele>
        <time>2017-11-11T11:07:54Z</time>
      </trkpt>
      <trkpt lat="51.883977" lon="39.466501">
        <ele>151.843</ele>
        <time>2017-11-11T11:07:59Z</time>
      </trkpt>
      <trkpt lat="51.883703" lon="39.466374">
        <ele>147.599</ele>
        <time>2017-11-11T11:08:05Z</time>
      </trkpt>
      <trkpt lat="51.883536" lon="39.466276">
        <ele>146.511</ele>
        <time>2017-11-11T11:08:12Z</time>
      </trkpt>
      <trkpt lat="51.883204" lon="39.466173">
        <ele>146.286</ele>
        <time>2017-11-11T11:08:23Z</time>
      </trkpt>
      <trkpt lat="51.88289" lon="39.466031">
        <ele>146.34</ele>
        <time>2017-11-11T11:08:30Z</time>
      </trkpt>
      <trkpt lat="51.882616" lon="39.465809">
        <ele>145.508</ele>
        <time>2017-11-11T11:08:36Z</time>
      </trkpt>
      <trkpt lat="51.882356" lon="39.465723">
        <ele>143.911</ele>
        <time>2017-11-11T11:08:43Z</time>
      </trkpt>
      <trkpt lat="51.882097" lon="39.465576">
        <ele>141.676</ele>
        <time>2017-11-11T11:08:49Z</time>
      </trkpt>
      <trkpt lat="51.881915" lon="39.465455">
        <ele>141.75</ele>
        <time>2017-11-11T11:08:55Z</time>
      </trkpt>
      <trkpt lat="51.881709" lon="39.465277">
        <ele>143.187</ele>
        <time>2017-11-11T11:09:01Z</time>
      </trkpt>
      <trkpt lat="51.881446" lon="39.4652">
        <ele>144.203</ele>
        <time>2017-11-11T11:09:07Z</time>
      </trkpt>
      <trkpt lat="51.881128" lon="39.465067">
        <ele>145.849</ele>
        <time>2017-11-11T11:09:14Z</time>
      </trkpt>
      <trkpt lat="51.880866" lon="39.464971">
        <ele>146.668</ele>
        <time>2017-11-11T11:09:19Z</time>
      </trkpt>
      <trkpt lat="51.880624" lon="39.46483">
        <ele>147.818</ele>
        <time>2017-11-11T11:09:25Z</time>
      </trkpt>
      <trkpt lat="51.880476" lon="39.464739">
        <ele>148.064</ele>
        <time>2017-11-11T11:09:28Z</time>
      </trkpt>
      <trkpt lat="51.880295" lon="39.464627">
        <ele>146.599</ele>
        <time>2017-11-11T11:09:32Z</time>
      </trkpt>
      <trkpt lat="51.880018" lon="39.464527">
        <ele>146.207</ele>
        <time>2017-11-11T11:09:38Z</time>
      </trkpt>
      <trkpt lat="51.879764" lon="39.464476">
        <ele>141.295</ele>
        <time>2017-11-11T11:09:44Z</time>
      </trkpt>
      <trkpt lat="51.879527" lon="39.464533">
        <ele>137.791</ele>
        <time>2017-11-11T11:09:50Z</time>
      </trkpt>
      <trkpt lat="51.879283" lon="39.464701">
        <ele>130.36</ele>
        <time>2017-11-11T11:09:57Z</time>
      </trkpt>
      <trkpt lat="51.87902" lon="39.46479">
        <ele>129.806</ele>
        <time>2017-11-11T11:10:03Z</time>
      </trkpt>
      <trkpt lat="51.878762" lon="39.464904">
        <ele>128.061</ele>
        <time>2017-11-11T11:10:08Z</time>
      </trkpt>
      <trkpt lat="51.87847" lon="39.465017">
        <ele>124.962</ele>
        <time>2017-11-11T11:10:14Z</time>
      </trkpt>
      <trkpt lat="51.878201" lon="39.465161">
        <ele>123.878</ele>
        <time>2017-11-11T11:10:20Z</time>
      </trkpt>
      <trkpt lat="51.878001" lon="39.465327">
        <ele>124.595</ele>
        <time>2017-11-11T11:10:25Z</time>
      </trkpt>
      <trkpt lat="51.877873" lon="39.465424">
        <ele>126.069</ele>
        <time>2017-11-11T11:10:28Z</time>
      </trkpt>
      <trkpt lat="51.877596" lon="39.465514">
        <ele>125.932</ele>
        <time>2017-11-11T11:10:34Z</time>
      </trkpt>
      <trkpt lat="51.877339" lon="39.465551">
        <ele>123.597</ele>
        <time>2017-11-11T11:10:40Z</time>
      </trkpt>
      <trkpt lat="51.877188" lon="39.465567">
        <ele>122.667</ele>
        <time>2017-11-11T11:10:43Z</time>
      </trkpt>
      <trkpt lat="51.877045" lon="39.465626">
        <ele>122.69</ele>
        <time>2017-11-11T11:10:46Z</time>
      </trkpt>
      <trkpt lat="51.876935" lon="39.46573">
        <ele>123.2</ele>
        <time>2017-11-11T11:10:49Z</time>
      </trkpt>
      <trkpt lat="51.87679" lon="39.465887">
        <ele>125.17</ele>
        <time>2017-11-11T11:10:53Z</time>
      </trkpt>
      <trkpt lat="51.876572" lon="39.466094">
        <ele>125.405</ele>
        <time>2017-11-11T11:10:58Z</time>
      </trkpt>
      <trkpt lat="51.876397" lon="39.466294">
        <ele>125.381</ele>
        <time>2017-11-11T11:11:06Z</time>
      </trkpt>
      <trkpt lat="51.876211" lon="39.466131">
        <ele>126.167</ele>
        <time>2017-11-11T11:11:13Z</time>
      </trkpt>
      <trkpt lat="51.876079" lon="39.465821">
        <ele>128.049</ele>
        <time>2017-11-11T11:11:19Z</time>
      </trkpt>
      <trkpt lat="51.876012" lon="39.465664">
        <ele>129.611</ele>
        <time>2017-11-11T11:11:22Z</time>
      </trkpt>
      <trkpt lat="51.87593" lon="39.465421">
        <ele>132.123</ele>
        <time>2017-11-11T11:11:26Z</time>
      </trkpt>
      <trkpt lat="51.875768" lon="39.464994">
        <ele>135.448</ele>
        <time>2017-11-11T11:11:32Z</time>
      </trkpt>
      <trkpt lat="51.875701" lon="39.46471">
        <ele>138.033</ele>
        <time>2017-11-11T11:11:37Z</time>
      </trkpt>
      <trkpt lat="51.87544" lon="39.464396">
        <ele>144.106</ele>
        <time>2017-11-11T11:11:46Z</time>
      </trkpt>
      <trkpt lat="51.875191" lon="39.464303">
        <ele>147.964</ele>
        <time>2017-11-11T11:11:52Z</time>
      </trkpt>
      <trkpt lat="51.874964" lon="39.464188">
        <ele>156.632</ele>
        <time>2017-11-11T11:11:57Z</time>
      </trkpt>
      <trkpt lat="51.874707" lon="39.464166">
        <ele>157.572</ele>
        <time>2017-11-11T11:12:05Z</time>
      </trkpt>
      <trkpt lat="51.874511" lon="39.464172">
        <ele>156.991</ele>
        <time>2017-11-11T11:12:11Z</time>
      </trkpt>
      <trkpt lat="51.874302" lon="39.464223">
        <ele>155.018</ele>
        <time>2017-11-11T11:12:19Z</time>
      </trkpt>
      <trkpt lat="51.873957" lon="39.464727">
        <ele>145.322</ele>
        <time>2017-11-11T11:12:30Z</time>
      </trkpt>
      <trkpt lat="51.873672" lon="39.464911">
        <ele>144.774</ele>
        <time>2017-11-11T11:12:36Z</time>
      </trkpt>
      <trkpt lat="51.873429" lon="39.465087">
        <ele>144.111</ele>
        <time>2017-11-11T11:12:42Z</time>
      </trkpt>
      <trkpt lat="51.873225" lon="39.46533">
        <ele>143.634</ele>
        <time>2017-11-11T11:12:49Z</time>
      </trkpt>
      <trkpt lat="51.872964" lon="39.465366">
        <ele>143.188</ele>
        <time>2017-11-11T11:12:55Z</time>
      </trkpt>
      <trkpt lat="51.872733" lon="39.46543">
        <ele>142.79</ele>
        <time>2017-11-11T11:13:00Z</time>
      </trkpt>
      <trkpt lat="51.872568" lon="39.465573">
        <ele>142.585</ele>
        <time>2017-11-11T11:13:06Z</time>
      </trkpt>
      <trkpt lat="51.872376" lon="39.465791">
        <ele>143.261</ele>
        <time>2017-11-11T11:13:13Z</time>
      </trkpt>
      <trkpt lat="51.872124" lon="39.46587">
        <ele>143.845</ele>
        <time>2017-11-11T11:13:18Z</time>
      </trkpt>
      <trkpt lat="51.871828" lon="39.465885">
        <ele>145.45</ele>
        <time>2017-11-11T11:13:24Z</time>
      </trkpt>
      <trkpt lat="51.871664" lon="39.465965">
        <ele>145.448</ele>
        <time>2017-11-11T11:13:29Z</time>
      </trkpt>
      <trkpt lat="51.871538" lon="39.466064">
        <ele>145.364</ele>
        <time>2017-11-11T11:13:34Z</time>
      </trkpt>
      <trkpt lat="51.871296" lon="39.466117">
        <ele>144.59</ele>
        <time>2017-11-11T11:13:40Z</time>
      </trkpt>
      <trkpt lat="51.871058" lon="39.466085">
        <ele>144.177</ele>
        <time>2017-11-11T11:13:46Z</time>
      </trkpt>
      <trkpt lat="51.870817" lon="39.465915">
        <ele>144.459</ele>
        <time>2017-11-11T11:13:53Z</time>
      </trkpt>
      <trkpt lat="51.870679" lon="39.465907">
        <ele>144.814</ele>
        <time>2017-11-11T11:13:58Z</time>
      </trkpt>
      <trkpt lat="51.870436" lon="39.465791">
        <ele>144.966</ele>
        <time>2017-11-11T11:14:05Z</time>
      </trkpt>
      <trkpt lat="51.870201" lon="39.46574">
        <ele>144.974</ele>
        <time>2017-11-11T11:14:11Z</time>
      </trkpt>
      <trkpt lat="51.870021" lon="39.465671">
        <ele>145.684</ele>
        <time>2017-11-11T11:14:17Z</time>
      </trkpt>
      <trkpt lat="51.869738" lon="39.465553">
        <ele>146.223</ele>
        <time>2017-11-11T11:14:25Z</time>
      </trkpt>
      <trkpt lat="51.869502" lon="39.465395">
        <ele>148.218</ele>
        <time>2017-11-11T11:14:33Z</time>
      </trkpt>
      <trkpt lat="51.869247" lon="39.465443">
        <ele>149.621</ele>
        <time>2017-11-11T11:14:40Z</time>
      </trkpt>
      <trkpt lat="51.868966" lon="39.465353">
        <ele>151.086</ele>
        <time>2017-11-11T11:14:47Z</time>
      </trkpt>
      <trkpt lat="51.868727" lon="39.465184">
        <ele>151.988</ele>
        <time>2017-11-11T11:14:54Z</time>
      </trkpt>
      <trkpt lat="51.868506" lon="39.465156">
        <ele>152.694</ele>
        <time>2017-11-11T11:15:00Z</time>
      </trkpt>
      <trkpt lat="51.868335" lon="39.465149">
        <ele>152.818</ele>
        <time>2017-11-11T11:15:06Z</time>
      </trkpt>
      <trkpt lat="51.868071" lon="39.46509">
        <ele>152.484</ele>
        <time>2017-11-11T11:15:13Z</time>
      </trkpt>
      <trkpt lat="51.867806" lon="39.464975">
        <ele>152.291</ele>
        <time>2017-11-11T11:15:20Z</time>
      </trkpt>
      <trkpt lat="51.867656" lon="39.46485">
        <ele>152.453</ele>
        <time>2017-11-11T11:15:24Z</time>
      </trkpt>
      <trkpt lat="51.86756" lon="39.464589">
        <ele>152.596</ele>
        <time>2017-11-11T11:15:28Z</time>
      </trkpt>
      <trkpt lat="51.867564" lon="39.464126">
        <ele>150.288</ele>
        <time>2017-11-11T11:15:33Z</time>
      </trkpt>
      <trkpt lat="51.867553" lon="39.463727">
        <ele>147.089</ele>
        <time>2017-11-11T11:15:38Z</time>
      </trkpt>
      <trkpt lat="51.867587" lon="39.463314">
        <ele>144.159</ele>
        <time>2017-11-11T11:15:45Z</time>
      </trkpt>
      <trkpt lat="51.867505" lon="39.463044">
        <ele>144.91</ele>
        <time>2017-11-11T11:15:52Z</time>
      </trkpt>
      <trkpt lat="51.867372" lon="39.462776">
        <ele>145.198</ele>
        <time>2017-11-11T11:15:57Z</time>
      </trkpt>
      <trkpt lat="51.867213" lon="39.462547">
        <ele>145.596</ele>
        <time>2017-11-11T11:16:06Z</time>
      </trkpt>
      <trkpt lat="51.867" lon="39.46234">
        <ele>150.471</ele>
        <time>2017-11-11T11:16:11Z</time>
      </trkpt>
      <trkpt lat="51.866723" lon="39.462084">
        <ele>150.313</ele>
        <time>2017-11-11T11:16:18Z</time>
      </trkpt>
      <trkpt lat="51.866541" lon="39.461935">
        <ele>149.994</ele>
        <time>2017-11-11T11:16:23Z</time>
      </trkpt>
      <trkpt lat="51.866397" lon="39.461673">
        <ele>149.851</ele>
        <time>2017-11-11T11:16:29Z</time>
      </trkpt>
      <trkpt lat="51.866279" lon="39.46141">
        <ele>150.145</ele>
        <time>2017-11-11T11:16:34Z</time>
      </trkpt>
      <trkpt lat="51.866066" lon="39.461209">
        <ele>150.952</ele>
        <time>2017-11-11T11:16:40Z</time>
      </trkpt>
      <trkpt lat="51.865877" lon="39.461047">
        <ele>154.027</ele>
        <time>2017-11-11T11:16:45Z</time>
      </trkpt>
      <trkpt lat="51.865595" lon="39.460935">
        <ele>156.206</ele>
        <time>2017-11-11T11:16:52Z</time>
      </trkpt>
      <trkpt lat="51.865359" lon="39.460916">
        <ele>153.028</ele>
        <time>2017-11-11T11:16:56Z</time>
      </trkpt>
      <trkpt lat="51.865145" lon="39.460854">
        <ele>151.101</ele>
        <time>2017-11-11T11:17:00Z</time>
      </trkpt>
      <trkpt lat="51.864841" lon="39.460763">
        <ele>146.327</ele>
        <time>2017-11-11T11:17:06Z</time>
      </trkpt>
      <trkpt lat="51.864687" lon="39.46071">
        <ele>145.621</ele>
        <time>2017-11-11T11:17:09Z</time>
      </trkpt>
      <trkpt lat="51.864491" lon="39.460608">
        <ele>145.841</ele>
        <time>2017-11-11T11:17:14Z</time>
      </trkpt>
      <trkpt lat="51.86426" lon="39.460466">
        <ele>149.551</ele>
        <time>2017-11-11T11:17:20Z</time>
      </trkpt>
      <trkpt lat="51.864024" lon="39.460496">
        <ele>151.883</ele>
        <time>2017-11-11T11:17:25Z</time>
      </trkpt>
      <trkpt lat="51.863798" lon="39.46058">
        <ele>152.988</ele>
        <time>2017-11-11T11:17:30Z</time>
      </trkpt>
      <trkpt lat="51.863645" lon="39.460671">
        <ele>152.843</ele>
        <time>2017-11-11T11:17:33Z</time>
      </trkpt>
      <trkpt lat="51.863514" lon="39.46071">
        <ele>151.828</ele>
        <time>2017-11-11T11:17:36Z</time>
      </trkpt>
      <trkpt lat="51.863212" lon="39.460749">
        <ele>149.389</ele>
        <time>2017-11-11T11:17:43Z</time>
      </trkpt>
      <trkpt lat="51.862973" lon="39.46078">
        <ele>145.895</ele>
        <time>2017-11-11T11:17:49Z</time>
      </trkpt>
      <trkpt lat="51.86272" lon="39.460804">
        <ele>145.082</ele>
        <time>2017-11-11T11:17:56Z</time>
      </trkpt>
      <trkpt lat="51.862375" lon="39.460832">
        <ele>143.274</ele>
        <time>2017-11-11T11:18:05Z</time>
      </trkpt>
      <trkpt lat="51.862215" lon="39.460793">
        <ele>142.345</ele>
        <time>2017-11-11T11:18:10Z</time>
      </trkpt>
      <trkpt lat="51.861965" lon="39.460856">
        <ele>141.962</ele>
        <time>2017-11-11T11:18:17Z</time>
      </trkpt>
      <trkpt lat="51.861741" lon="39.460884">
        <ele>142.619</ele>
        <time>2017-11-11T11:18:23Z</time>
      </trkpt>
      <trkpt lat="51.861462" lon="39.460768">
        <ele>144.068</ele>
        <time>2017-11-11T11:18:29Z</time>
      </trkpt>
      <trkpt lat="51.86123" lon="39.460721">
        <ele>145.359</ele>
        <time>2017-11-11T11:18:35Z</time>
      </trkpt>
      <trkpt lat="51.861052" lon="39.460622">
        <ele>146.18</ele>
        <time>2017-11-11T11:18:41Z</time>
      </trkpt>
      <trkpt lat="51.860824" lon="39.460358">
        <ele>150.729</ele>
        <time>2017-11-11T11:18:47Z</time>
      </trkpt>
      <trkpt lat="51.860567" lon="39.46007">
        <ele>152.591</ele>
        <time>2017-11-11T11:18:53Z</time>
      </trkpt>
      <trkpt lat="51.860359" lon="39.459912">
        <ele>153.076</ele>
        <time>2017-11-11T11:18:58Z</time>
      </trkpt>
      <trkpt lat="51.86013" lon="39.459749">
        <ele>155.605</ele>
        <time>2017-11-11T11:19:04Z</time>
      </trkpt>
      <trkpt lat="51.859913" lon="39.459639">
        <ele>155.865</ele>
        <time>2017-11-11T11:19:09Z</time>
      </trkpt>
      <trkpt lat="51.859712" lon="39.45949">
        <ele>156.123</ele>
        <time>2017-11-11T11:19:15Z</time>
      </trkpt>
      <trkpt lat="51.859488" lon="39.459199">
        <ele>156.329</ele>
        <time>2017-11-11T11:19:22Z</time>
      </trkpt>
      <trkpt lat="51.859352" lon="39.459055">
        <ele>156.69</ele>
        <time>2017-11-11T11:19:27Z</time>
      </trkpt>
      <trkpt lat="51.85923" lon="39.458966">
        <ele>157.025</ele>
        <time>2017-11-11T11:19:30Z</time>
      </trkpt>
      <trkpt lat="51.859031" lon="39.458716">
        <ele>158.429</ele>
        <time>2017-11-11T11:19:36Z</time>
      </trkpt>
      <trkpt lat="51.858827" lon="39.458516">
        <ele>156.455</ele>
        <time>2017-11-11T11:19:40Z</time>
      </trkpt>
      <trkpt lat="51.858645" lon="39.458443">
        <ele>153.989</ele>
        <time>2017-11-11T11:19:43Z</time>
      </trkpt>
      <trkpt lat="51.858479" lon="39.458441">
        <ele>150.201</ele>
        <time>2017-11-11T11:19:46Z</time>
      </trkpt>
      <trkpt lat="51.858213" lon="39.458532">
        <ele>146.239</ele>
        <time>2017-11-11T11:19:50Z</time>
      </trkpt>
      <trkpt lat="51.857894" lon="39.458545">
        <ele>140.952</ele>
        <time>2017-11-11T11:19:55Z</time>
      </trkpt>
      <trkpt lat="51.85754" lon="39.458515">
        <ele>136.021</ele>
        <time>2017-11-11T11:20:01Z</time>
      </trkpt>
      <trkpt lat="51.85729" lon="39.458416">
        <ele>136.51</ele>
        <time>2017-11-11T11:20:07Z</time>
      </trkpt>
      <trkpt lat="51.85706" lon="39.458263">
        <ele>137.677</ele>
        <time>2017-11-11T11:20:13Z</time>
      </trkpt>
      <trkpt lat="51.856852" lon="39.458059">
        <ele>139.076</ele>
        <time>2017-11-11T11:20:18Z</time>
      </trkpt>
      <trkpt lat="51.856608" lon="39.457763">
        <ele>143.926</ele>
        <time>2017-11-11T11:20:24Z</time>
      </trkpt>
      <trkpt lat="51.856324" lon="39.457611">
        <ele>147.632</ele>
        <time>2017-11-11T11:20:31Z</time>
      </trkpt>
      <trkpt lat="51.85602" lon="39.457589">
        <ele>147.65</ele>
        <time>2017-11-11T11:20:37Z</time>
      </trkpt>
      <trkpt lat="51.855701" lon="39.457683">
        <ele>146.264</ele>
        <time>2017-11-11T11:20:42Z</time>
      </trkpt>
      <trkpt lat="51.855383" lon="39.457764">
        <ele>141.7</ele>
        <time>2017-11-11T11:20:48Z</time>
      </trkpt>
      <trkpt lat="51.85508" lon="39.457814">
        <ele>137.037</ele>
        <time>2017-11-11T11:20:54Z</time>
      </trkpt>
      <trkpt lat="51.85482" lon="39.457867">
        <ele>134.388</ele>
        <time>2017-11-11T11:20:59Z</time>
      </trkpt>
      <trkpt lat="51.854539" lon="39.458024">
        <ele>132.946</ele>
        <time>2017-11-11T11:21:05Z</time>
      </trkpt>
      <trkpt lat="51.854423" lon="39.458078">
        <ele>132.857</ele>
        <time>2017-11-11T11:21:08Z</time>
      </trkpt>
      <trkpt lat="51.854253" lon="39.458177">
        <ele>132.77</ele>
        <time>2017-11-11T11:21:14Z</time>
      </trkpt>
      <trkpt lat="51.854099" lon="39.458251">
        <ele>133.289</ele>
        <time>2017-11-11T11:21:20Z</time>
      </trkpt>
      <trkpt lat="51.853825" lon="39.458446">
        <ele>136.456</ele>
        <time>2017-11-11T11:21:29Z</time>
      </trkpt>
      <trkpt lat="51.853504" lon="39.458513">
        <ele>136.551</ele>
        <time>2017-11-11T11:21:34Z</time>
      </trkpt>
      <trkpt lat="51.853337" lon="39.458514">
        <ele>135.193</ele>
        <time>2017-11-11T11:21:37Z</time>
      </trkpt>
      <trkpt lat="51.853209" lon="39.458554">
        <ele>133.294</ele>
        <time>2017-11-11T11:21:40Z</time>
      </trkpt>
      <trkpt lat="51.853026" lon="39.458544">
        <ele>129.842</ele>
        <time>2017-11-11T11:21:44Z</time>
      </trkpt>
      <trkpt lat="51.852883" lon="39.458477">
        <ele>126.526</ele>
        <time>2017-11-11T11:21:47Z</time>
      </trkpt>
      <trkpt lat="51.852732" lon="39.458362">
        <ele>124.178</ele>
        <time>2017-11-11T11:21:50Z</time>
      </trkpt>
      <trkpt lat="51.852498" lon="39.458181">
        <ele>125.509</ele>
        <time>2017-11-11T11:21:56Z</time>
      </trkpt>
      <trkpt lat="51.852279" lon="39.45798">
        <ele>126.789</ele>
        <time>2017-11-11T11:22:01Z</time>
      </trkpt>
      <trkpt lat="51.852068" lon="39.45786">
        <ele>127.047</ele>
        <time>2017-11-11T11:22:07Z</time>
      </trkpt>
      <trkpt lat="51.851757" lon="39.457773">
        <ele>128.438</ele>
        <time>2017-11-11T11:22:15Z</time>
      </trkpt>
      <trkpt lat="51.851544" lon="39.457682">
        <ele>128.827</ele>
        <time>2017-11-11T11:22:20Z</time>
      </trkpt>
      <trkpt lat="51.851384" lon="39.457528">
        <ele>129.051</ele>
        <time>2017-11-11T11:22:25Z</time>
      </trkpt>
      <trkpt lat="51.851166" lon="39.457212">
        <ele>132.199</ele>
        <time>2017-11-11T11:22:31Z</time>
      </trkpt>
      <trkpt lat="51.851074" lon="39.457064">
        <ele>134.76</ele>
        <time>2017-11-11T11:22:34Z</time>
      </trkpt>
      <trkpt lat="51.850945" lon="39.456753">
        <ele>137.051</ele>
        <time>2017-11-11T11:22:39Z</time>
      </trkpt>
      <trkpt lat="51.850772" lon="39.456388">
        <ele>136.371</ele>
        <time>2017-11-11T11:22:45Z</time>
      </trkpt>
      <trkpt lat="51.850566" lon="39.455979">
        <ele>133.804</ele>
        <time>2017-11-11T11:22:52Z</time>
      </trkpt>
      <trkpt lat="51.850417" lon="39.45564">
        <ele>135.659</ele>
        <time>2017-11-11T11:22:58Z</time>
      </trkpt>
      <trkpt lat="51.850277" lon="39.455263">
        <ele>136.184</ele>
        <time>2017-11-11T11:23:04Z</time>
      </trkpt>
      <trkpt lat="51.85015" lon="39.454758">
        <ele>136.29</ele>
        <time>2017-11-11T11:23:10Z</time>
      </trkpt>
      <trkpt lat="51.850057" lon="39.454365">
        <ele>135.485</ele>
        <time>2017-11-11T11:23:16Z</time>
      </trkpt>
      <trkpt lat="51.849945" lon="39.454022">
        <ele>134.513</ele>
        <time>2017-11-11T11:23:22Z</time>
      </trkpt>
      <trkpt lat="51.849847" lon="39.453731">
        <ele>134.034</ele>
        <time>2017-11-11T11:23:27Z</time>
      </trkpt>
      <trkpt lat="51.849842" lon="39.453301">
        <ele>133.222</ele>
        <time>2017-11-11T11:23:34Z</time>
      </trkpt>
      <trkpt lat="51.849948" lon="39.453083">
        <ele>133.007</ele>
        <time>2017-11-11T11:23:39Z</time>
      </trkpt>
      <trkpt lat="51.849831" lon="39.452958">
        <ele>133.807</ele>
        <time>2017-11-11T11:23:52Z</time>
      </trkpt>
      <trkpt lat="51.849598" lon="39.452857">
        <ele>134.208</ele>
        <time>2017-11-11T11:24:00Z</time>
      </trkpt>
      <trkpt lat="51.849414" lon="39.452162">
        <ele>136.799</ele>
        <time>2017-11-11T11:24:11Z</time>
      </trkpt>
      <trkpt lat="51.849272" lon="39.451706">
        <ele>140.294</ele>
        <time>2017-11-11T11:24:16Z</time>
      </trkpt>
      <trkpt lat="51.849217" lon="39.451439">
        <ele>146.043</ele>
        <time>2017-11-11T11:24:20Z</time>
      </trkpt>
      <trkpt lat="51.849039" lon="39.451107">
        <ele>148.942</ele>
        <time>2017-11-11T11:24:26Z</time>
      </trkpt>
      <trkpt lat="51.848922" lon="39.450784">
        <ele>149.029</ele>
        <time>2017-11-11T11:24:31Z</time>
      </trkpt>
      <trkpt lat="51.848882" lon="39.450554">
        <ele>149.1</ele>
        <time>2017-11-11T11:24:34Z</time>
      </trkpt>
      <trkpt lat="51.848855" lon="39.450228">
        <ele>149.448</ele>
        <time>2017-11-11T11:24:39Z</time>
      </trkpt>
      <trkpt lat="51.848876" lon="39.44993">
        <ele>149.939</ele>
        <time>2017-11-11T11:24:43Z</time>
      </trkpt>
      <trkpt lat="51.848853" lon="39.44954">
        <ele>150.355</ele>
        <time>2017-11-11T11:24:50Z</time>
      </trkpt>
      <trkpt lat="51.848749" lon="39.449293">
        <ele>150.71</ele>
        <time>2017-11-11T11:24:58Z</time>
      </trkpt>
      <trkpt lat="51.848735" lon="39.448914">
        <ele>148.723</ele>
        <time>2017-11-11T11:25:04Z</time>
      </trkpt>
      <trkpt lat="51.848793" lon="39.448434">
        <ele>144.309</ele>
        <time>2017-11-11T11:25:10Z</time>
      </trkpt>
      <trkpt lat="51.848759" lon="39.448097">
        <ele>144.135</ele>
        <time>2017-11-11T11:25:16Z</time>
      </trkpt>
      <trkpt lat="51.848724" lon="39.447745">
        <ele>144.225</ele>
        <time>2017-11-11T11:25:21Z</time>
      </trkpt>
      <trkpt lat="51.848676" lon="39.447274">
        <ele>144.676</ele>
        <time>2017-11-11T11:25:28Z</time>
      </trkpt>
      <trkpt lat="51.848683" lon="39.446824">
        <ele>144.72</ele>
        <time>2017-11-11T11:25:33Z</time>
      </trkpt>
      <trkpt lat="51.848653" lon="39.44642">
        <ele>144.991</ele>
        <time>2017-11-11T11:25:39Z</time>
      </trkpt>
      <trkpt lat="51.848459" lon="39.446083">
        <ele>145.782</ele>
        <time>2017-11-11T11:25:49Z</time>
      </trkpt>
      <trkpt lat="51.848174" lon="39.445667">
        <ele>147.968</ele>
        <time>2017-11-11T11:25:57Z</time>
      </trkpt>
      <trkpt lat="51.848027" lon="39.445203">
        <ele>150.088</ele>
        <time>2017-11-11T11:26:03Z</time>
      </trkpt>
      <trkpt lat="51.847936" lon="39.444835">
        <ele>154.937</ele>
        <time>2017-11-11T11:26:09Z</time>
      </trkpt>
      <trkpt lat="51.847808" lon="39.44423">
        <ele>157.106</ele>
        <time>2017-11-11T11:26:17Z</time>
      </trkpt>
      <trkpt lat="51.847715" lon="39.443618">
        <ele>157.139</ele>
        <time>2017-11-11T11:26:24Z</time>
      </trkpt>
      <trkpt lat="51.847682" lon="39.443224">
        <ele>156.491</ele>
        <time>2017-11-11T11:26:29Z</time>
      </trkpt>
      <trkpt lat="51.847614" lon="39.442865">
        <ele>155.631</ele>
        <time>2017-11-11T11:26:35Z</time>
      </trkpt>
      <trkpt lat="51.847527" lon="39.442418">
        <ele>155.273</ele>
        <time>2017-11-11T11:26:41Z</time>
      </trkpt>
      <trkpt lat="51.847475" lon="39.441981">
        <ele>155.638</ele>
        <time>2017-11-11T11:26:46Z</time>
      </trkpt>
      <trkpt lat="51.847385" lon="39.441572">
        <ele>155.459</ele>
        <time>2017-11-11T11:26:51Z</time>
      </trkpt>
      <trkpt lat="51.847231" lon="39.441031">
        <ele>155.488</ele>
        <time>2017-11-11T11:26:58Z</time>
      </trkpt>
      <trkpt lat="51.847073" lon="39.440542">
        <ele>155.508</ele>
        <time>2017-11-11T11:27:04Z</time>
      </trkpt>
      <trkpt lat="51.846936" lon="39.44004">
        <ele>149.952</ele>
        <time>2017-11-11T11:27:10Z</time>
      </trkpt>
      <trkpt lat="51.846783" lon="39.439651">
        <ele>146.14</ele>
        <time>2017-11-11T11:27:16Z</time>
      </trkpt>
      <trkpt lat="51.846611" lon="39.439302">
        <ele>146.374</ele>
        <time>2017-11-11T11:27:21Z</time>
      </trkpt>
      <trkpt lat="51.846452" lon="39.438935">
        <ele>147.281</ele>
        <time>2017-11-11T11:27:26Z</time>
      </trkpt>
      <trkpt lat="51.84624" lon="39.438583">
        <ele>148.204</ele>
        <time>2017-11-11T11:27:32Z</time>
      </trkpt>
      <trkpt lat="51.846014" lon="39.438189">
        <ele>146.843</ele>
        <time>2017-11-11T11:27:38Z</time>
      </trkpt>
      <trkpt lat="51.845786" lon="39.437888">
        <ele>147.248</ele>
        <time>2017-11-11T11:27:43Z</time>
      </trkpt>
      <trkpt lat="51.845575" lon="39.437599">
        <ele>149.899</ele>
        <time>2017-11-11T11:27:49Z</time>
      </trkpt>
      <trkpt lat="51.845392" lon="39.437183">
        <ele>148.43</ele>
        <time>2017-11-11T11:27:55Z</time>
      </trkpt>
      <trkpt lat="51.845228" lon="39.436883">
        <ele>148.68</ele>
        <time>2017-11-11T11:27:59Z</time>
      </trkpt>
      <trkpt lat="51.844985" lon="39.436527">
        <ele>153.525</ele>
        <time>2017-11-11T11:28:04Z</time>
      </trkpt>
      <trkpt lat="51.844744" lon="39.436242">
        <ele>154.132</ele>
        <time>2017-11-11T11:28:10Z</time>
      </trkpt>
      <trkpt lat="51.844539" lon="39.435922">
        <ele>153.352</ele>
        <time>2017-11-11T11:28:17Z</time>
      </trkpt>
      <trkpt lat="51.844345" lon="39.435639">
        <ele>153.573</ele>
        <time>2017-11-11T11:28:22Z</time>
      </trkpt>
      <trkpt lat="51.844219" lon="39.435541">
        <ele>153.707</ele>
        <time>2017-11-11T11:28:25Z</time>
      </trkpt>
      <trkpt lat="51.843982" lon="39.435323">
        <ele>154.47</ele>
        <time>2017-11-11T11:28:31Z</time>
      </trkpt>
      <trkpt lat="51.843725" lon="39.435199">
        <ele>154.609</ele>
        <time>2017-11-11T11:28:36Z</time>
      </trkpt>
      <trkpt lat="51.843451" lon="39.435126">
        <ele>152.773</ele>
        <time>2017-11-11T11:28:41Z</time>
      </trkpt>
      <trkpt lat="51.843221" lon="39.435148">
        <ele>152.16</ele>
        <time>2017-11-11T11:28:46Z</time>
      </trkpt>
      <trkpt lat="51.842963" lon="39.43495">
        <ele>149.173</ele>
        <time>2017-11-11T11:28:51Z</time>
      </trkpt>
      <trkpt lat="51.84264" lon="39.434832">
        <ele>141.509</ele>
        <time>2017-11-11T11:28:57Z</time>
      </trkpt>
      <trkpt lat="51.842466" lon="39.434717">
        <ele>140.147</ele>
        <time>2017-11-11T11:29:01Z</time>
      </trkpt>
      <trkpt lat="51.842205" lon="39.434454">
        <ele>139.976</ele>
        <time>2017-11-11T11:29:07Z</time>
      </trkpt>
      <trkpt lat="51.841926" lon="39.434212">
        <ele>137.897</ele>
        <time>2017-11-11T11:29:13Z</time>
      </trkpt>
      <trkpt lat="51.841642" lon="39.434019">
        <ele>136.657</ele>
        <time>2017-11-11T11:29:19Z</time>
      </trkpt>
      <trkpt lat="51.841499" lon="39.433929">
        <ele>133.573</ele>
        <time>2017-11-11T11:29:22Z</time>
      </trkpt>
      <trkpt lat="51.841341" lon="39.433818">
        <ele>130.503</ele>
        <time>2017-11-11T11:29:25Z</time>
      </trkpt>
      <trkpt lat="51.841113" lon="39.433667">
        <ele>126.706</ele>
        <time>2017-11-11T11:29:31Z</time>
      </trkpt>
      <trkpt lat="51.840715" lon="39.433546">
        <ele>128.911</ele>
        <time>2017-11-11T11:29:40Z</time>
      </trkpt>
      <trkpt lat="51.840407" lon="39.433424">
        <ele>130.319</ele>
        <time>2017-11-11T11:29:46Z</time>
      </trkpt>
      <trkpt lat="51.840219" lon="39.433258">
        <ele>131.747</ele>
        <time>2017-11-11T11:29:51Z</time>
      </trkpt>
      <trkpt lat="51.839914" lon="39.433153">
        <ele>136.711</ele>
        <time>2017-11-11T11:29:58Z</time>
      </trkpt>
      <trkpt lat="51.839615" lon="39.43319">
        <ele>136.029</ele>
        <time>2017-11-11T11:30:04Z</time>
      </trkpt>
      <trkpt lat="51.839421" lon="39.433171">
        <ele>135.97</ele>
        <time>2017-11-11T11:30:09Z</time>
      </trkpt>
      <trkpt lat="51.839213" lon="39.433112">
        <ele>136.369</ele>
        <time>2017-11-11T11:30:14Z</time>
      </trkpt>
      <trkpt lat="51.838918" lon="39.43299">
        <ele>137.922</ele>
        <time>2017-11-11T11:30:21Z</time>
      </trkpt>
      <trkpt lat="51.838659" lon="39.432936">
        <ele>139.902</ele>
        <time>2017-11-11T11:30:26Z</time>
      </trkpt>
      <trkpt lat="51.83842" lon="39.43289">
        <ele>141.29</ele>
        <time>2017-11-11T11:30:31Z</time>
      </trkpt>
      <trkpt lat="51.838163" lon="39.432865">
        <ele>143.513</ele>
        <time>2017-11-11T11:30:37Z</time>
      </trkpt>
      <trkpt lat="51.837869" lon="39.432904">
        <ele>145.637</ele>
        <time>2017-11-11T11:30:44Z</time>
      </trkpt>
      <trkpt lat="51.83762" lon="39.432984">
        <ele>145.84</ele>
        <time>2017-11-11T11:30:49Z</time>
      </trkpt>
      <trkpt lat="51.83738" lon="39.433083">
        <ele>146.041</ele>
        <time>2017-11-11T11:30:55Z</time>
      </trkpt>
      <trkpt lat="51.837126" lon="39.433149">
        <ele>146.169</ele>
        <time>2017-11-11T11:31:01Z</time>
      </trkpt>
      <trkpt lat="51.836929" lon="39.433266">
        <ele>145.721</ele>
        <time>2017-11-11T11:31:06Z</time>
      </trkpt>
      <trkpt lat="51.83659" lon="39.433463">
        <ele>144.212</ele>
        <time>2017-11-11T11:31:12Z</time>
      </trkpt>
      <trkpt lat="51.836346" lon="39.433524">
        <ele>143.996</ele>
        <time>2017-11-11T11:31:17Z</time>
      </trkpt>
      <trkpt lat="51.836148" lon="39.433588">
        <ele>143.85</ele>
        <time>2017-11-11T11:31:21Z</time>
      </trkpt>
      <trkpt lat="51.835915" lon="39.433751">
        <ele>143.696</ele>
        <time>2017-11-11T11:31:27Z</time>
      </trkpt>
      <trkpt lat="51.835712" lon="39.433891">
        <ele>144.005</ele>
        <time>2017-11-11T11:31:33Z</time>
      </trkpt>
      <trkpt lat="51.835465" lon="39.43403">
        <ele>144.095</ele>
        <time>2017-11-11T11:31:39Z</time>
      </trkpt>
      <trkpt lat="51.835216" lon="39.434166">
        <ele>144.288</ele>
        <time>2017-11-11T11:31:46Z</time>
      </trkpt>
      <trkpt lat="51.834948" lon="39.434286">
        <ele>144.026</ele>
        <time>2017-11-11T11:31:52Z</time>
      </trkpt>
      <trkpt lat="51.834734" lon="39.434361">
        <ele>143.022</ele>
        <time>2017-11-11T11:31:57Z</time>
      </trkpt>
      <trkpt lat="51.83459" lon="39.434441">
        <ele>143.268</ele>
        <time>2017-11-11T11:32:01Z</time>
      </trkpt>
      <trkpt lat="51.834335" lon="39.434659">
        <ele>143.423</ele>
        <time>2017-11-11T11:32:07Z</time>
      </trkpt>
      <trkpt lat="51.834289" lon="39.434699">
        <ele>143.419</ele>
        <time>2017-11-11T11:32:09Z</time>
      </trkpt>
      <trkpt lat="51.834289" lon="39.434699">
        <time>2017-11-11T11:32:14Z</time>
      </trkpt>
    </trkseg>
    <trkseg>
      <trkpt lat="51.834289" lon="39.434699">
        <time>2017-11-11T11:32:18Z</time>
      </trkpt>
      <trkpt lat="51.834234" lon="39.434629">
        <ele>143.43</ele>
        <time>2017-11-11T11:32:18Z</time>
      </trkpt>
      <trkpt lat="51.834234" lon="39.434629">
        <ele>143.43</ele>
        <time>2017-11-11T11:32:23Z</time>
      </trkpt>
      <trkpt lat="51.834234" lon="39.434629">
        <time>2017-11-11T11:32:23Z</time>
      </trkpt>
    </trkseg>
    <trkseg>
      <trkpt lat="51.834234" lon="39.434629">
        <time>2017-11-11T11:33:33Z</time>
      </trkpt>
      <trkpt lat="51.833967" lon="39.434886">
        <ele>142.553</ele>
        <time>2017-11-11T11:33:33Z</time>
      </trkpt>
      <trkpt lat="51.833825" lon="39.434985">
        <ele>143.467</ele>
        <time>2017-11-11T11:33:37Z</time>
      </trkpt>
      <trkpt lat="51.833462" lon="39.43514">
        <ele>151.415</ele>
        <time>2017-11-11T11:33:45Z</time>
      </trkpt>
      <trkpt lat="51.833188" lon="39.435275">
        <ele>155.019</ele>
        <time>2017-11-11T11:33:51Z</time>
      </trkpt>
      <trkpt lat="51.832947" lon="39.43554">
        <ele>156.066</ele>
        <time>2017-11-11T11:33:59Z</time>
      </trkpt>
      <trkpt lat="51.832751" lon="39.435706">
        <ele>159.074</ele>
        <time>2017-11-11T11:34:04Z</time>
      </trkpt>
      <trkpt lat="51.832405" lon="39.435788">
        <ele>166.395</ele>
        <time>2017-11-11T11:34:11Z</time>
      </trkpt>
      <trkpt lat="51.832124" lon="39.436108">
        <ele>161.875</ele>
        <time>2017-11-11T11:34:17Z</time>
      </trkpt>
      <trkpt lat="51.83194" lon="39.436185">
        <ele>152.452</ele>
        <time>2017-11-11T11:34:21Z</time>
      </trkpt>
      <trkpt lat="51.831679" lon="39.436363">
        <ele>143.402</ele>
        <time>2017-11-11T11:34:26Z</time>
      </trkpt>
      <trkpt lat="51.831394" lon="39.436121">
        <ele>137.183</ele>
        <time>2017-11-11T11:34:32Z</time>
      </trkpt>
      <trkpt lat="51.831146" lon="39.435818">
        <ele>133.997</ele>
        <time>2017-11-11T11:34:37Z</time>
      </trkpt>
      <trkpt lat="51.831011" lon="39.43568">
        <ele>130.29</ele>
        <time>2017-11-11T11:34:40Z</time>
      </trkpt>
      <trkpt lat="51.830772" lon="39.43539">
        <ele>125.628</ele>
        <time>2017-11-11T11:34:46Z</time>
      </trkpt>
      <trkpt lat="51.830646" lon="39.435267">
        <ele>124.407</ele>
        <time>2017-11-11T11:34:49Z</time>
      </trkpt>
      <trkpt lat="51.830509" lon="39.435128">
        <ele>123.668</ele>
        <time>2017-11-11T11:34:53Z</time>
      </trkpt>
      <trkpt lat="51.830281" lon="39.434781">
        <ele>123.668</ele>
        <time>2017-11-11T11:35:00Z</time>
      </trkpt>
      <trkpt lat="51.830082" lon="39.434455">
        <ele>124.131</ele>
        <time>2017-11-11T11:35:06Z</time>
      </trkpt>
      <trkpt lat="51.829847" lon="39.434085">
        <ele>123.659</ele>
        <time>2017-11-11T11:35:12Z</time>
      </trkpt>
      <trkpt lat="51.829568" lon="39.433783">
        <ele>125.813</ele>
        <time>2017-11-11T11:35:19Z</time>
      </trkpt>
      <trkpt lat="51.829385" lon="39.4335">
        <ele>127.67</ele>
        <time>2017-11-11T11:35:24Z</time>
      </trkpt>
      <trkpt lat="51.829249" lon="39.43331">
        <ele>128.408</ele>
        <time>2017-11-11T11:35:27Z</time>
      </trkpt>
      <trkpt lat="51.829134" lon="39.433118">
        <ele>127.467</ele>
        <time>2017-11-11T11:35:30Z</time>
      </trkpt>
      <trkpt lat="51.828985" lon="39.432939">
        <ele>126.072</ele>
        <time>2017-11-11T11:35:33Z</time>
      </trkpt>
      <trkpt lat="51.828865" lon="39.432792">
        <ele>125.717</ele>
        <time>2017-11-11T11:35:36Z</time>
      </trkpt>
      <trkpt lat="51.828752" lon="39.432632">
        <ele>125.976</ele>
        <time>2017-11-11T11:35:39Z</time>
      </trkpt>
      <trkpt lat="51.828564" lon="39.432443">
        <ele>126.983</ele>
        <time>2017-11-11T11:35:44Z</time>
      </trkpt>
      <trkpt lat="51.828273" lon="39.432192">
        <ele>127.201</ele>
        <time>2017-11-11T11:35:51Z</time>
      </trkpt>
      <trkpt lat="51.828011" lon="39.431965">
        <ele>128.457</ele>
        <time>2017-11-11T11:35:57Z</time>
      </trkpt>
      <trkpt lat="51.827806" lon="39.431837">
        <ele>128.934</ele>
        <time>2017-11-11T11:36:03Z</time>
      </trkpt>
      <trkpt lat="51.827747" lon="39.431965">
        <ele>129.477</ele>
        <time>2017-11-11T11:36:08Z</time>
      </trkpt>
      <trkpt lat="51.827711" lon="39.432338">
        <ele>130.198</ele>
        <time>2017-11-11T11:36:13Z</time>
      </trkpt>
      <trkpt lat="51.827686" lon="39.432544">
        <ele>130.817</ele>
        <time>2017-11-11T11:36:16Z</time>
      </trkpt>
      <trkpt lat="51.827618" lon="39.432924">
        <ele>131.903</ele>
        <time>2017-11-11T11:36:22Z</time>
      </trkpt>
      <trkpt lat="51.827533" lon="39.433323">
        <ele>132.816</ele>
        <time>2017-11-11T11:36:28Z</time>
      </trkpt>
      <trkpt lat="51.827457" lon="39.433645">
        <ele>133.573</ele>
        <time>2017-11-11T11:36:33Z</time>
      </trkpt>
      <trkpt lat="51.827409" lon="39.434113">
        <ele>134.393</ele>
        <time>2017-11-11T11:36:40Z</time>
      </trkpt>
      <trkpt lat="51.827337" lon="39.434587">
        <ele>136.653</ele>
        <time>2017-11-11T11:36:45Z</time>
      </trkpt>
      <trkpt lat="51.827265" lon="39.43496">
        <ele>138.709</ele>
        <time>2017-11-11T11:36:51Z</time>
      </trkpt>
      <trkpt lat="51.827166" lon="39.435456">
        <ele>140.852</ele>
        <time>2017-11-11T11:36:57Z</time>
      </trkpt>
      <trkpt lat="51.827056" lon="39.436006">
        <ele>142.128</ele>
        <time>2017-11-11T11:37:03Z</time>
      </trkpt>
      <trkpt lat="51.826964" lon="39.436359">
        <ele>141.682</ele>
        <time>2017-11-11T11:37:08Z</time>
      </trkpt>
      <trkpt lat="51.826868" lon="39.436805">
        <ele>142.028</ele>
        <time>2017-11-11T11:37:14Z</time>
      </trkpt>
      <trkpt lat="51.826767" lon="39.437438">
        <ele>143.27</ele>
        <time>2017-11-11T11:37:22Z</time>
      </trkpt>
      <trkpt lat="51.826691" lon="39.437838">
        <ele>142.797</ele>
        <time>2017-11-11T11:37:27Z</time>
      </trkpt>
      <trkpt lat="51.826591" lon="39.438273">
        <ele>140.972</ele>
        <time>2017-11-11T11:37:33Z</time>
      </trkpt>
      <trkpt lat="51.826466" lon="39.438838">
        <ele>140.198</ele>
        <time>2017-11-11T11:37:40Z</time>
      </trkpt>
      <trkpt lat="51.826405" lon="39.439198">
        <ele>139.608</ele>
        <time>2017-11-11T11:37:45Z</time>
      </trkpt>
      <trkpt lat="51.826346" lon="39.439616">
        <ele>138.853</ele>
        <time>2017-11-11T11:37:50Z</time>
      </trkpt>
      <trkpt lat="51.826281" lon="39.439944">
        <ele>136.582</ele>
        <time>2017-11-11T11:37:55Z</time>
      </trkpt>
      <trkpt lat="51.826171" lon="39.440678">
        <ele>128.713</ele>
        <time>2017-11-11T11:38:02Z</time>
      </trkpt>
      <trkpt lat="51.82612" lon="39.441013">
        <ele>126.667</ele>
        <time>2017-11-11T11:38:07Z</time>
      </trkpt>
      <trkpt lat="51.826013" lon="39.441502">
        <ele>127.851</ele>
        <time>2017-11-11T11:38:13Z</time>
      </trkpt>
      <trkpt lat="51.82593" lon="39.442003">
        <ele>130.066</ele>
        <time>2017-11-11T11:38:19Z</time>
      </trkpt>
      <trkpt lat="51.825867" lon="39.442353">
        <ele>129.625</ele>
        <time>2017-11-11T11:38:23Z</time>
      </trkpt>
      <trkpt lat="51.825802" lon="39.442715">
        <ele>128.94</ele>
        <time>2017-11-11T11:38:28Z</time>
      </trkpt>
      <trkpt lat="51.825731" lon="39.443133">
        <ele>129.439</ele>
        <time>2017-11-11T11:38:33Z</time>
      </trkpt>
      <trkpt lat="51.82568" lon="39.443621">
        <ele>130.256</ele>
        <time>2017-11-11T11:38:39Z</time>
      </trkpt>
      <trkpt lat="51.825608" lon="39.444122">
        <ele>129.175</ele>
        <time>2017-11-11T11:38:45Z</time>
      </trkpt>
      <trkpt lat="51.825532" lon="39.444567">
        <ele>128.184</ele>
        <time>2017-11-11T11:38:51Z</time>
      </trkpt>
      <trkpt lat="51.825441" lon="39.44495">
        <ele>128.314</ele>
        <time>2017-11-11T11:38:56Z</time>
      </trkpt>
      <trkpt lat="51.825321" lon="39.445518">
        <ele>129.704</ele>
        <time>2017-11-11T11:39:02Z</time>
      </trkpt>
      <trkpt lat="51.825219" lon="39.446023">
        <ele>131.544</ele>
        <time>2017-11-11T11:39:08Z</time>
      </trkpt>
      <trkpt lat="51.825126" lon="39.446426">
        <ele>132.355</ele>
        <time>2017-11-11T11:39:13Z</time>
      </trkpt>
      <trkpt lat="51.825042" lon="39.446843">
        <ele>132.851</ele>
        <time>2017-11-11T11:39:19Z</time>
      </trkpt>
      <trkpt lat="51.82496" lon="39.447208">
        <ele>134.163</ele>
        <time>2017-11-11T11:39:26Z</time>
      </trkpt>
      <trkpt lat="51.824893" lon="39.447654">
        <ele>137.223</ele>
        <time>2017-11-11T11:39:32Z</time>
      </trkpt>
      <trkpt lat="51.8248" lon="39.448216">
        <ele>138.025</ele>
        <time>2017-11-11T11:39:39Z</time>
      </trkpt>
      <trkpt lat="51.824713" lon="39.448471">
        <ele>138.407</ele>
        <time>2017-11-11T11:39:44Z</time>
      </trkpt>
      <trkpt lat="51.824658" lon="39.448867">
        <ele>138.97</ele>
        <time>2017-11-11T11:39:51Z</time>
      </trkpt>
      <trkpt lat="51.824616" lon="39.449116">
        <ele>139.256</ele>
        <time>2017-11-11T11:39:56Z</time>
      </trkpt>
      <trkpt lat="51.824561" lon="39.449462">
        <ele>139.608</ele>
        <time>2017-11-11T11:40:03Z</time>
      </trkpt>
      <trkpt lat="51.824472" lon="39.449878">
        <ele>139.709</ele>
        <time>2017-11-11T11:40:12Z</time>
      </trkpt>
      <trkpt lat="51.824414" lon="39.450341">
        <ele>139.4</ele>
        <time>2017-11-11T11:40:19Z</time>
      </trkpt>
      <trkpt lat="51.824319" lon="39.450728">
        <ele>138.876</ele>
        <time>2017-11-11T11:40:25Z</time>
      </trkpt>
      <trkpt lat="51.824222" lon="39.45118">
        <ele>138.22</ele>
        <time>2017-11-11T11:40:31Z</time>
      </trkpt>
      <trkpt lat="51.824129" lon="39.451601">
        <ele>137.695</ele>
        <time>2017-11-11T11:40:36Z</time>
      </trkpt>
      <trkpt lat="51.824038" lon="39.452039">
        <ele>138.496</ele>
        <time>2017-11-11T11:40:42Z</time>
      </trkpt>
      <trkpt lat="51.823994" lon="39.452251">
        <ele>138.817</ele>
        <time>2017-11-11T11:40:45Z</time>
      </trkpt>
      <trkpt lat="51.823939" lon="39.452522">
        <ele>138.794</ele>
        <time>2017-11-11T11:40:50Z</time>
      </trkpt>
      <trkpt lat="51.823819" lon="39.453104">
        <ele>135.954</ele>
        <time>2017-11-11T11:40:57Z</time>
      </trkpt>
      <trkpt lat="51.823722" lon="39.453528">
        <ele>134.155</ele>
        <time>2017-11-11T11:41:03Z</time>
      </trkpt>
      <trkpt lat="51.823647" lon="39.453881">
        <ele>133.56</ele>
        <time>2017-11-11T11:41:09Z</time>
      </trkpt>
      <trkpt lat="51.823604" lon="39.454108">
        <ele>134.074</ele>
        <time>2017-11-11T11:41:15Z</time>
      </trkpt>
      <trkpt lat="51.823542" lon="39.454538">
        <ele>135.331</ele>
        <time>2017-11-11T11:41:22Z</time>
      </trkpt>
      <trkpt lat="51.823469" lon="39.45495">
        <ele>136.088</ele>
        <time>2017-11-11T11:41:27Z</time>
      </trkpt>
      <trkpt lat="51.823383" lon="39.455434">
        <ele>139.418</ele>
        <time>2017-11-11T11:41:33Z</time>
      </trkpt>
      <trkpt lat="51.823313" lon="39.455775">
        <ele>139.66</ele>
        <time>2017-11-11T11:41:39Z</time>
      </trkpt>
      <trkpt lat="51.823247" lon="39.456184">
        <ele>139.961</ele>
        <time>2017-11-11T11:41:46Z</time>
      </trkpt>
      <trkpt lat="51.823159" lon="39.456539">
        <ele>140.142</ele>
        <time>2017-11-11T11:41:51Z</time>
      </trkpt>
      <trkpt lat="51.823101" lon="39.456774">
        <ele>140.124</ele>
        <time>2017-11-11T11:41:54Z</time>
      </trkpt>
      <trkpt lat="51.822988" lon="39.457296">
        <ele>137.321</ele>
        <time>2017-11-11T11:42:00Z</time>
      </trkpt>
      <trkpt lat="51.822889" lon="39.457661">
        <ele>134.545</ele>
        <time>2017-11-11T11:42:05Z</time>
      </trkpt>
      <trkpt lat="51.822811" lon="39.458124">
        <ele>132.992</ele>
        <time>2017-11-11T11:42:11Z</time>
      </trkpt>
      <trkpt lat="51.822766" lon="39.458369">
        <ele>132.402</ele>
        <time>2017-11-11T11:42:14Z</time>
      </trkpt>
      <trkpt lat="51.8227" lon="39.458642">
        <ele>131.999</ele>
        <time>2017-11-11T11:42:18Z</time>
      </trkpt>
      <trkpt lat="51.822656" lon="39.45906">
        <ele>132.209</ele>
        <time>2017-11-11T11:42:23Z</time>
      </trkpt>
      <trkpt lat="51.822581" lon="39.459465">
        <ele>132.669</ele>
        <time>2017-11-11T11:42:29Z</time>
      </trkpt>
      <trkpt lat="51.822479" lon="39.459905">
        <ele>135.403</ele>
        <time>2017-11-11T11:42:36Z</time>
      </trkpt>
      <trkpt lat="51.822407" lon="39.460307">
        <ele>137.223</ele>
        <time>2017-11-11T11:42:43Z</time>
      </trkpt>
      <trkpt lat="51.822313" lon="39.460788">
        <ele>139.234</ele>
        <time>2017-11-11T11:42:50Z</time>
      </trkpt>
      <trkpt lat="51.82227" lon="39.461267">
        <ele>137.28</ele>
        <time>2017-11-11T11:42:55Z</time>
      </trkpt>
      <trkpt lat="51.822215" lon="39.461782">
        <ele>133.547</ele>
        <time>2017-11-11T11:43:02Z</time>
      </trkpt>
      <trkpt lat="51.822036" lon="39.462208">
        <ele>133.822</ele>
        <time>2017-11-11T11:43:08Z</time>
      </trkpt>
      <trkpt lat="51.821947" lon="39.462661">
        <ele>134.108</ele>
        <time>2017-11-11T11:43:14Z</time>
      </trkpt>
      <trkpt lat="51.821901" lon="39.462915">
        <ele>134.195</ele>
        <time>2017-11-11T11:43:18Z</time>
      </trkpt>
      <trkpt lat="51.821836" lon="39.463303">
        <ele>134.121</ele>
        <time>2017-11-11T11:43:24Z</time>
      </trkpt>
      <trkpt lat="51.821753" lon="39.463781">
        <ele>132.207</ele>
        <time>2017-11-11T11:43:30Z</time>
      </trkpt>
      <trkpt lat="51.821665" lon="39.46411">
        <ele>132.031</ele>
        <time>2017-11-11T11:43:35Z</time>
      </trkpt>
      <trkpt lat="51.821603" lon="39.464503">
        <ele>131.39</ele>
        <time>2017-11-11T11:43:40Z</time>
      </trkpt>
      <trkpt lat="51.82153" lon="39.464869">
        <ele>132.741</ele>
        <time>2017-11-11T11:43:46Z</time>
      </trkpt>
      <trkpt lat="51.82147" lon="39.465133">
        <ele>132.992</ele>
        <time>2017-11-11T11:43:51Z</time>
      </trkpt>
      <trkpt lat="51.821396" lon="39.46548">
        <ele>133.434</ele>
        <time>2017-11-11T11:43:58Z</time>
      </trkpt>
      <trkpt lat="51.821325" lon="39.465783">
        <ele>133.731</ele>
        <time>2017-11-11T11:44:04Z</time>
      </trkpt>
      <trkpt lat="51.821232" lon="39.466164">
        <ele>134.153</ele>
        <time>2017-11-11T11:44:12Z</time>
      </trkpt>
      <trkpt lat="51.821189" lon="39.466436">
        <ele>134.797</ele>
        <time>2017-11-11T11:44:18Z</time>
      </trkpt>
      <trkpt lat="51.821142" lon="39.466928">
        <ele>135.349</ele>
        <time>2017-11-11T11:44:24Z</time>
      </trkpt>
      <trkpt lat="51.821068" lon="39.467207">
        <ele>135.754</ele>
        <time>2017-11-11T11:44:30Z</time>
      </trkpt>
      <trkpt lat="51.821024" lon="39.467298">
        <ele>135.98</ele>
        <time>2017-11-11T11:44:33Z</time>
      </trkpt>
      <trkpt lat="51.821024" lon="39.467298">
        <time>2017-11-11T11:44:38Z</time>
      </trkpt>
    </trkseg>
    <trkseg>
      <trkpt lat="51.821024" lon="39.467298">
        <time>2017-11-11T11:45:07Z</time>
      </trkpt>
      <trkpt lat="51.821059" lon="39.467123">
        <ele>136.69</ele>
        <time>2017-11-11T11:45:07Z</time>
      </trkpt>
      <trkpt lat="51.821172" lon="39.466413">
        <ele>139.286</ele>
        <time>2017-11-11T11:45:19Z</time>
      </trkpt>
      <trkpt lat="51.821172" lon="39.466413">
        <ele>139.286</ele>
        <time>2017-11-11T11:45:24Z</time>
      </trkpt>
      <trkpt lat="51.821172" lon="39.466413">
        <time>2017-11-11T11:45:24Z</time>
      </trkpt>
    </trkseg>
    <trkseg>
      <trkpt lat="51.821172" lon="39.466413">
        <time>2017-11-11T11:45:40Z</time>
      </trkpt>
      <trkpt lat="51.821163" lon="39.466803">
        <ele>140.702</ele>
        <time>2017-11-11T11:45:40Z</time>
      </trkpt>
      <trkpt lat="51.821109" lon="39.467108">
        <ele>141.799</ele>
        <time>2017-11-11T11:45:45Z</time>
      </trkpt>
      <trkpt lat="51.821004" lon="39.46739">
        <ele>142.123</ele>
        <time>2017-11-11T11:45:54Z</time>
      </trkpt>
      <trkpt lat="51.820743" lon="39.467438">
        <ele>142.177</ele>
        <time>2017-11-11T11:46:02Z</time>
      </trkpt>
      <trkpt lat="51.820624" lon="39.467425">
        <ele>142.089</ele>
        <time>2017-11-11T11:46:05Z</time>
      </trkpt>
      <trkpt lat="51.82042" lon="39.467372">
        <ele>141.301</ele>
        <time>2017-11-11T11:46:09Z</time>
      </trkpt>
      <trkpt lat="51.820242" lon="39.467319">
        <ele>141.299</ele>
        <time>2017-11-11T11:46:14Z</time>
      </trkpt>
      <trkpt lat="51.820119" lon="39.467268">
        <ele>141.535</ele>
        <time>2017-11-11T11:46:18Z</time>
      </trkpt>
      <trkpt lat="51.819957" lon="39.467148">
        <ele>142.075</ele>
        <time>2017-11-11T11:46:24Z</time>
      </trkpt>
      <trkpt lat="51.819714" lon="39.466978">
        <ele>145.438</ele>
        <time>2017-11-11T11:46:31Z</time>
      </trkpt>
      <trkpt lat="51.81944" lon="39.466851">
        <ele>147.26</ele>
        <time>2017-11-11T11:46:37Z</time>
      </trkpt>
      <trkpt lat="51.819309" lon="39.466763">
        <ele>147.366</ele>
        <time>2017-11-11T11:46:40Z</time>
      </trkpt>
      <trkpt lat="51.819041" lon="39.466683">
        <ele>147.265</ele>
        <time>2017-11-11T11:46:46Z</time>
      </trkpt>
      <trkpt lat="51.818865" lon="39.466571">
        <ele>148.755</ele>
        <time>2017-11-11T11:46:51Z</time>
      </trkpt>
      <trkpt lat="51.818549" lon="39.466407">
        <ele>149.585</ele>
        <time>2017-11-11T11:46:58Z</time>
      </trkpt>
      <trkpt lat="51.818312" lon="39.466293">
        <ele>149.744</ele>
        <time>2017-11-11T11:47:03Z</time>
      </trkpt>
      <trkpt lat="51.818117" lon="39.466173">
        <ele>149.616</ele>
        <time>2017-11-11T11:47:09Z</time>
      </trkpt>
      <trkpt lat="51.8178" lon="39.465981">
        <ele>147.182</ele>
        <time>2017-11-11T11:47:17Z</time>
      </trkpt>
      <trkpt lat="51.817498" lon="39.465864">
        <ele>145.229</ele>
        <time>2017-11-11T11:47:23Z</time>
      </trkpt>
      <trkpt lat="51.817225" lon="39.465734">
        <ele>143.862</ele>
        <time>2017-11-11T11:47:29Z</time>
      </trkpt>
      <trkpt lat="51.817083" lon="39.465656">
        <ele>143.893</ele>
        <time>2017-11-11T11:47:32Z</time>
      </trkpt>
      <trkpt lat="51.816853" lon="39.465531">
        <ele>144.241</ele>
        <time>2017-11-11T11:47:37Z</time>
      </trkpt>
      <trkpt lat="51.81669" lon="39.465474">
        <ele>144.37</ele>
        <time>2017-11-11T11:47:41Z</time>
      </trkpt>
      <trkpt lat="51.81646" lon="39.465335">
        <ele>146.414</ele>
        <time>2017-11-11T11:47:47Z</time>
      </trkpt>
      <trkpt lat="51.816204" lon="39.4652">
        <ele>148.346</ele>
        <time>2017-11-11T11:47:53Z</time>
      </trkpt>
      <trkpt lat="51.815956" lon="39.465103">
        <ele>149.368</ele>
        <time>2017-11-11T11:47:59Z</time>
      </trkpt>
      <trkpt lat="51.815745" lon="39.465026">
        <ele>149.931</ele>
        <time>2017-11-11T11:48:05Z</time>
      </trkpt>
      <trkpt lat="51.815487" lon="39.464881">
        <ele>150.262</ele>
        <time>2017-11-11T11:48:11Z</time>
      </trkpt>
      <trkpt lat="51.815232" lon="39.464739">
        <ele>150.591</ele>
        <time>2017-11-11T11:48:16Z</time>
      </trkpt>
      <trkpt lat="51.814905" lon="39.464579">
        <ele>148.893</ele>
        <time>2017-11-11T11:48:23Z</time>
      </trkpt>
      <trkpt lat="51.814611" lon="39.464473">
        <ele>148.976</ele>
        <time>2017-11-11T11:48:29Z</time>
      </trkpt>
      <trkpt lat="51.814352" lon="39.464303">
        <ele>151.758</ele>
        <time>2017-11-11T11:48:34Z</time>
      </trkpt>
      <trkpt lat="51.814101" lon="39.464151">
        <ele>152.924</ele>
        <time>2017-11-11T11:48:40Z</time>
      </trkpt>
      <trkpt lat="51.813801" lon="39.464024">
        <ele>152.341</ele>
        <time>2017-11-11T11:48:46Z</time>
      </trkpt>
      <trkpt lat="51.813579" lon="39.463913">
        <ele>152.253</ele>
        <time>2017-11-11T11:48:51Z</time>
      </trkpt>
      <trkpt lat="51.813223" lon="39.463723">
        <ele>152.517</ele>
        <time>2017-11-11T11:48:58Z</time>
      </trkpt>
      <trkpt lat="51.81308" lon="39.463678">
        <ele>152.113</ele>
        <time>2017-11-11T11:49:01Z</time>
      </trkpt>
      <trkpt lat="51.812851" lon="39.463578">
        <ele>153.923</ele>
        <time>2017-11-11T11:49:06Z</time>
      </trkpt>
      <trkpt lat="51.812592" lon="39.46347">
        <ele>157.675</ele>
        <time>2017-11-11T11:49:12Z</time>
      </trkpt>
      <trkpt lat="51.81239" lon="39.463351">
        <ele>158.973</ele>
        <time>2017-11-11T11:49:17Z</time>
      </trkpt>
      <trkpt lat="51.811982" lon="39.463202">
        <ele>160.938</ele>
        <time>2017-11-11T11:49:24Z</time>
      </trkpt>
      <trkpt lat="51.811741" lon="39.46308">
        <ele>160.793</ele>
        <time>2017-11-11T11:49:30Z</time>
      </trkpt>
      <trkpt lat="51.81155" lon="39.462904">
        <ele>159.232</ele>
        <time>2017-11-11T11:49:35Z</time>
      </trkpt>
      <trkpt lat="51.811327" lon="39.462751">
        <ele>159.177</ele>
        <time>2017-11-11T11:49:40Z</time>
      </trkpt>
      <trkpt lat="51.811178" lon="39.46261">
        <ele>159.129</ele>
        <time>2017-11-11T11:49:43Z</time>
      </trkpt>
      <trkpt lat="51.810869" lon="39.462481">
        <ele>153.973</ele>
        <time>2017-11-11T11:49:48Z</time>
      </trkpt>
      <trkpt lat="51.810602" lon="39.462336">
        <ele>148.003</ele>
        <time>2017-11-11T11:49:54Z</time>
      </trkpt>
      <trkpt lat="51.810389" lon="39.462248">
        <ele>144.898</ele>
        <time>2017-11-11T11:49:58Z</time>
      </trkpt>
      <trkpt lat="51.810175" lon="39.462161">
        <ele>146.301</ele>
        <time>2017-11-11T11:50:03Z</time>
      </trkpt>
      <trkpt lat="51.809887" lon="39.462053">
        <ele>148.191</ele>
        <time>2017-11-11T11:50:09Z</time>
      </trkpt>
      <trkpt lat="51.809613" lon="39.46194">
        <ele>149.565</ele>
        <time>2017-11-11T11:50:14Z</time>
      </trkpt>
      <trkpt lat="51.809275" lon="39.461789">
        <ele>149.361</ele>
        <time>2017-11-11T11:50:21Z</time>
      </trkpt>
      <trkpt lat="51.808974" lon="39.461619">
        <ele>149.656</ele>
        <time>2017-11-11T11:50:27Z</time>
      </trkpt>
      <trkpt lat="51.808654" lon="39.461475">
        <ele>148.913</ele>
        <time>2017-11-11T11:50:33Z</time>
      </trkpt>
      <trkpt lat="51.808338" lon="39.461321">
        <ele>146.363</ele>
        <time>2017-11-11T11:50:39Z</time>
      </trkpt>
      <trkpt lat="51.80806" lon="39.461163">
        <ele>146.589</ele>
        <time>2017-11-11T11:50:44Z</time>
      </trkpt>
      <trkpt lat="51.8079" lon="39.461061">
        <ele>146.737</ele>
        <time>2017-11-11T11:50:47Z</time>
      </trkpt>
      <trkpt lat="51.80764" lon="39.46093">
        <ele>146.484</ele>
        <time>2017-11-11T11:50:51Z</time>
      </trkpt>
      <trkpt lat="51.807476" lon="39.460843">
        <ele>145.175</ele>
        <time>2017-11-11T11:50:54Z</time>
      </trkpt>
      <trkpt lat="51.807197" lon="39.460681">
        <ele>143.056</ele>
        <time>2017-11-11T11:51:00Z</time>
      </trkpt>
      <trkpt lat="51.806894" lon="39.460516">
        <ele>137.908</ele>
        <time>2017-11-11T11:51:07Z</time>
      </trkpt>
      <trkpt lat="51.806576" lon="39.460357">
        <ele>136.048</ele>
        <time>2017-11-11T11:51:13Z</time>
      </trkpt>
      <trkpt lat="51.806427" lon="39.460315">
        <ele>136.143</ele>
        <time>2017-11-11T11:51:18Z</time>
      </trkpt>
      <trkpt lat="51.806372" lon="39.460309">
        <ele>136.066</ele>
        <time>2017-11-11T11:51:22Z</time>
      </trkpt>
      <trkpt lat="51.806372" lon="39.460309">
        <time>2017-11-11T11:51:27Z</time>
      </trkpt>
    </trkseg>
    <trkseg>
      <trkpt lat="51.806372" lon="39.460309">
        <time>2017-11-11T11:52:15Z</time>
      </trkpt>
      <trkpt lat="51.806057" lon="39.460092">
        <ele>143.382</ele>
        <time>2017-11-11T11:52:15Z</time>
      </trkpt>
      <trkpt lat="51.805914" lon="39.460012">
        <ele>145.419</ele>
        <time>2017-11-11T11:52:24Z</time>
      </trkpt>
      <trkpt lat="51.805693" lon="39.459961">
        <ele>146.886</ele>
        <time>2017-11-11T11:52:35Z</time>
      </trkpt>
      <trkpt lat="51.805443" lon="39.459813">
        <ele>146.952</ele>
        <time>2017-11-11T11:53:54Z</time>
      </trkpt>
      <trkpt lat="51.805443" lon="39.459813">
        <time>2017-11-11T11:55:55Z</time>
      </trkpt>
    </trkseg>
    <trkseg>
      <trkpt lat="51.805443" lon="39.459813">
        <time>2017-11-11T12:07:14Z</time>
      </trkpt>
      <trkpt lat="51.805482" lon="39.459831">
        <ele>138.34</ele>
        <time>2017-11-11T12:07:16Z</time>
      </trkpt>
      <trkpt lat="51.805258" lon="39.459794">
        <ele>136.638</ele>
        <time>2017-11-11T12:07:56Z</time>
      </trkpt>
      <trkpt lat="51.805142" lon="39.459495">
        <ele>136.852</ele>
        <time>2017-11-11T12:08:04Z</time>
      </trkpt>
      <trkpt lat="51.805017" lon="39.459273">
        <ele>138.096</ele>
        <time>2017-11-11T12:08:15Z</time>
      </trkpt>
      <trkpt lat="51.804872" lon="39.459009">
        <ele>140.312</ele>
        <time>2017-11-11T12:08:30Z</time>
      </trkpt>
      <trkpt lat="51.804833" lon="39.458773">
        <ele>140.816</ele>
        <time>2017-11-11T12:08:38Z</time>
      </trkpt>
      <trkpt lat="51.80477" lon="39.458525">
        <ele>141.151</ele>
        <time>2017-11-11T12:08:49Z</time>
      </trkpt>
      <trkpt lat="51.804619" lon="39.458597">
        <ele>141.167</ele>
        <time>2017-11-11T12:08:57Z</time>
      </trkpt>
      <trkpt lat="51.80454" lon="39.458566">
        <ele>141.275</ele>
        <time>2017-11-11T12:09:02Z</time>
      </trkpt>
      <trkpt lat="51.804449" lon="39.45852">
        <ele>141.582</ele>
        <time>2017-11-11T12:09:08Z</time>
      </trkpt>
      <trkpt lat="51.804186" lon="39.458377">
        <ele>142.771</ele>
        <time>2017-11-11T12:09:20Z</time>
      </trkpt>
      <trkpt lat="51.803956" lon="39.458182">
        <ele>143.433</ele>
        <time>2017-11-11T12:09:26Z</time>
      </trkpt>
      <trkpt lat="51.803809" lon="39.457939">
        <ele>144.118</ele>
        <time>2017-11-11T12:09:31Z</time>
      </trkpt>
      <trkpt lat="51.803688" lon="39.457671">
        <ele>144.611</ele>
        <time>2017-11-11T12:09:37Z</time>
      </trkpt>
      <trkpt lat="51.80358" lon="39.457396">
        <ele>145.287</ele>
        <time>2017-11-11T12:09:45Z</time>
      </trkpt>
      <trkpt lat="51.803374" lon="39.456882">
        <ele>145.885</ele>
        <time>2017-11-11T12:09:55Z</time>
      </trkpt>
      <trkpt lat="51.803163" lon="39.45661">
        <ele>146.063</ele>
        <time>2017-11-11T12:10:02Z</time>
      </trkpt>
      <trkpt lat="51.803002" lon="39.456402">
        <ele>146.43</ele>
        <time>2017-11-11T12:10:07Z</time>
      </trkpt>
      <trkpt lat="51.802881" lon="39.456286">
        <ele>147.674</ele>
        <time>2017-11-11T12:10:11Z</time>
      </trkpt>
      <trkpt lat="51.802589" lon="39.456164">
        <ele>147.594</ele>
        <time>2017-11-11T12:10:17Z</time>
      </trkpt>
      <trkpt lat="51.802351" lon="39.456054">
        <ele>147.894</ele>
        <time>2017-11-11T12:10:21Z</time>
      </trkpt>
      <trkpt lat="51.801995" lon="39.455889">
        <ele>147.945</ele>
        <time>2017-11-11T12:10:27Z</time>
      </trkpt>
      <trkpt lat="51.801753" lon="39.455812">
        <ele>146.49</ele>
        <time>2017-11-11T12:10:33Z</time>
      </trkpt>
      <trkpt lat="51.801516" lon="39.455771">
        <ele>144.48</ele>
        <time>2017-11-11T12:10:39Z</time>
      </trkpt>
      <trkpt lat="51.801247" lon="39.455677">
        <ele>142.164</ele>
        <time>2017-11-11T12:10:46Z</time>
      </trkpt>
      <trkpt lat="51.800991" lon="39.455537">
        <ele>142.225</ele>
        <time>2017-11-11T12:10:53Z</time>
      </trkpt>
      <trkpt lat="51.800775" lon="39.455409">
        <ele>142.782</ele>
        <time>2017-11-11T12:11:00Z</time>
      </trkpt>
      <trkpt lat="51.800486" lon="39.455269">
        <ele>145.149</ele>
        <time>2017-11-11T12:11:07Z</time>
      </trkpt>
      <trkpt lat="51.800223" lon="39.455125">
        <ele>147.646</ele>
        <time>2017-11-11T12:11:14Z</time>
      </trkpt>
      <trkpt lat="51.799971" lon="39.454975">
        <ele>147.418</ele>
        <time>2017-11-11T12:11:20Z</time>
      </trkpt>
      <trkpt lat="51.79974" lon="39.454902">
        <ele>147.231</ele>
        <time>2017-11-11T12:11:25Z</time>
      </trkpt>
      <trkpt lat="51.79962" lon="39.454728">
        <ele>147.341</ele>
        <time>2017-11-11T12:11:30Z</time>
      </trkpt>
      <trkpt lat="51.799608" lon="39.454354">
        <ele>147.772</ele>
        <time>2017-11-11T12:11:36Z</time>
      </trkpt>
      <trkpt lat="51.799617" lon="39.454048">
        <ele>147.845</ele>
        <time>2017-11-11T12:11:41Z</time>
      </trkpt>
      <trkpt lat="51.799597" lon="39.453443">
        <ele>149.638</ele>
        <time>2017-11-11T12:11:49Z</time>
      </trkpt>
      <trkpt lat="51.799603" lon="39.453077">
        <ele>151.025</ele>
        <time>2017-11-11T12:11:53Z</time>
      </trkpt>
      <trkpt lat="51.799578" lon="39.452751">
        <ele>152.043</ele>
        <time>2017-11-11T12:11:58Z</time>
      </trkpt>
      <trkpt lat="51.79949" lon="39.452456">
        <ele>153.945</ele>
        <time>2017-11-11T12:12:04Z</time>
      </trkpt>
      <trkpt lat="51.799458" lon="39.452162">
        <ele>155.522</ele>
        <time>2017-11-11T12:12:09Z</time>
      </trkpt>
      <trkpt lat="51.799483" lon="39.451785">
        <ele>157.558</ele>
        <time>2017-11-11T12:12:15Z</time>
      </trkpt>
      <trkpt lat="51.799515" lon="39.451272">
        <ele>165.016</ele>
        <time>2017-11-11T12:12:20Z</time>
      </trkpt>
      <trkpt lat="51.799566" lon="39.450793">
        <ele>174.269</ele>
        <time>2017-11-11T12:12:25Z</time>
      </trkpt>
      <trkpt lat="51.799592" lon="39.4504">
        <ele>183.63</ele>
        <time>2017-11-11T12:12:29Z</time>
      </trkpt>
      <trkpt lat="51.79963" lon="39.449913">
        <ele>185.753</ele>
        <time>2017-11-11T12:12:35Z</time>
      </trkpt>
      <trkpt lat="51.799607" lon="39.449535">
        <ele>186.182</ele>
        <time>2017-11-11T12:12:40Z</time>
      </trkpt>
      <trkpt lat="51.799616" lon="39.449026">
        <ele>188.031</ele>
        <time>2017-11-11T12:12:47Z</time>
      </trkpt>
      <trkpt lat="51.799664" lon="39.448621">
        <ele>190.084</ele>
        <time>2017-11-11T12:12:54Z</time>
      </trkpt>
      <trkpt lat="51.799693" lon="39.448086">
        <ele>190.339</ele>
        <time>2017-11-11T12:13:00Z</time>
      </trkpt>
      <trkpt lat="51.799655" lon="39.447726">
        <ele>190.339</ele>
        <time>2017-11-11T12:13:06Z</time>
      </trkpt>
      <trkpt lat="51.799633" lon="39.447335">
        <ele>190.691</ele>
        <time>2017-11-11T12:13:11Z</time>
      </trkpt>
      <trkpt lat="51.799628" lon="39.446991">
        <ele>191.086</ele>
        <time>2017-11-11T12:13:16Z</time>
      </trkpt>
      <trkpt lat="51.799632" lon="39.446593">
        <ele>191.937</ele>
        <time>2017-11-11T12:13:21Z</time>
      </trkpt>
      <trkpt lat="51.799626" lon="39.446106">
        <ele>192.287</ele>
        <time>2017-11-11T12:13:28Z</time>
      </trkpt>
      <trkpt lat="51.799433" lon="39.445924">
        <ele>184.427</ele>
        <time>2017-11-11T12:13:36Z</time>
      </trkpt>
      <trkpt lat="51.799294" lon="39.445894">
        <ele>178.993</ele>
        <time>2017-11-11T12:13:39Z</time>
      </trkpt>
      <trkpt lat="51.799034" lon="39.445892">
        <ele>172.601</ele>
        <time>2017-11-11T12:13:46Z</time>
      </trkpt>
      <trkpt lat="51.79877" lon="39.445825">
        <ele>171.354</ele>
        <time>2017-11-11T12:13:53Z</time>
      </trkpt>
      <trkpt lat="51.79859" lon="39.445732">
        <ele>167.807</ele>
        <time>2017-11-11T12:13:58Z</time>
      </trkpt>
      <trkpt lat="51.798382" lon="39.445711">
        <ele>166.806</ele>
        <time>2017-11-11T12:14:04Z</time>
      </trkpt>
      <trkpt lat="51.798249" lon="39.44575">
        <ele>165.197</ele>
        <time>2017-11-11T12:14:09Z</time>
      </trkpt>
      <trkpt lat="51.798139" lon="39.445911">
        <ele>163.936</ele>
        <time>2017-11-11T12:14:16Z</time>
      </trkpt>
      <trkpt lat="51.797844" lon="39.446098">
        <ele>152.92</ele>
        <time>2017-11-11T12:14:23Z</time>
      </trkpt>
      <trkpt lat="51.797641" lon="39.445998">
        <ele>151.239</ele>
        <time>2017-11-11T12:14:28Z</time>
      </trkpt>
      <trkpt lat="51.797397" lon="39.445817">
        <ele>151.984</ele>
        <time>2017-11-11T12:14:34Z</time>
      </trkpt>
      <trkpt lat="51.797112" lon="39.44583">
        <ele>153.679</ele>
        <time>2017-11-11T12:14:40Z</time>
      </trkpt>
      <trkpt lat="51.796755" lon="39.445591">
        <ele>155.588</ele>
        <time>2017-11-11T12:14:47Z</time>
      </trkpt>
      <trkpt lat="51.796585" lon="39.445291">
        <ele>157.146</ele>
        <time>2017-11-11T12:14:53Z</time>
      </trkpt>
      <trkpt lat="51.796363" lon="39.445025">
        <ele>157.945</ele>
        <time>2017-11-11T12:14:59Z</time>
      </trkpt>
      <trkpt lat="51.796146" lon="39.44472">
        <ele>165.6</ele>
        <time>2017-11-11T12:15:05Z</time>
      </trkpt>
      <trkpt lat="51.796015" lon="39.444346">
        <ele>167.357</ele>
        <time>2017-11-11T12:15:11Z</time>
      </trkpt>
      <trkpt lat="51.795895" lon="39.444043">
        <ele>167.931</ele>
        <time>2017-11-11T12:15:16Z</time>
      </trkpt>
      <trkpt lat="51.795774" lon="39.443553">
        <ele>169.764</ele>
        <time>2017-11-11T12:15:24Z</time>
      </trkpt>
      <trkpt lat="51.795723" lon="39.44327">
        <ele>174.712</ele>
        <time>2017-11-11T12:15:29Z</time>
      </trkpt>
      <trkpt lat="51.795466" lon="39.442919">
        <ele>181.968</ele>
        <time>2017-11-11T12:15:36Z</time>
      </trkpt>
      <trkpt lat="51.795342" lon="39.442587">
        <ele>182.69</ele>
        <time>2017-11-11T12:15:42Z</time>
      </trkpt>
      <trkpt lat="51.795325" lon="39.442117">
        <ele>182.838</ele>
        <time>2017-11-11T12:15:48Z</time>
      </trkpt>
      <trkpt lat="51.795175" lon="39.441586">
        <ele>185.073</ele>
        <time>2017-11-11T12:15:56Z</time>
      </trkpt>
      <trkpt lat="51.795121" lon="39.44111">
        <ele>185.166</ele>
        <time>2017-11-11T12:16:02Z</time>
      </trkpt>
      <trkpt lat="51.795124" lon="39.4407">
        <ele>185.181</ele>
        <time>2017-11-11T12:16:07Z</time>
      </trkpt>
      <trkpt lat="51.795129" lon="39.440371">
        <ele>185.151</ele>
        <time>2017-11-11T12:16:11Z</time>
      </trkpt>
      <trkpt lat="51.795135" lon="39.440053">
        <ele>185.048</ele>
        <time>2017-11-11T12:16:16Z</time>
      </trkpt>
      <trkpt lat="51.795136" lon="39.439516">
        <ele>185.015</ele>
        <time>2017-11-11T12:16:24Z</time>
      </trkpt>
      <trkpt lat="51.795109" lon="39.439157">
        <ele>185.11</ele>
        <time>2017-11-11T12:16:29Z</time>
      </trkpt>
      <trkpt lat="51.795173" lon="39.438515">
        <ele>187.454</ele>
        <time>2017-11-11T12:16:36Z</time>
      </trkpt>
      <trkpt lat="51.795202" lon="39.438033">
        <ele>188.779</ele>
        <time>2017-11-11T12:16:41Z</time>
      </trkpt>
      <trkpt lat="51.795169" lon="39.437531">
        <ele>189.387</ele>
        <time>2017-11-11T12:16:47Z</time>
      </trkpt>
      <trkpt lat="51.795192" lon="39.437056">
        <ele>190.5</ele>
        <time>2017-11-11T12:16:53Z</time>
      </trkpt>
      <trkpt lat="51.795267" lon="39.436476">
        <ele>194.18</ele>
        <time>2017-11-11T12:16:59Z</time>
      </trkpt>
      <trkpt lat="51.795292" lon="39.435974">
        <ele>190.775</ele>
        <time>2017-11-11T12:17:05Z</time>
      </trkpt>
      <trkpt lat="51.79529" lon="39.435555">
        <ele>186.947</ele>
        <time>2017-11-11T12:17:10Z</time>
      </trkpt>
      <trkpt lat="51.795276" lon="39.435183">
        <ele>186.49</ele>
        <time>2017-11-11T12:17:15Z</time>
      </trkpt>
      <trkpt lat="51.795354" lon="39.434823">
        <ele>184.346</ele>
        <time>2017-11-11T12:17:20Z</time>
      </trkpt>
      <trkpt lat="51.795236" lon="39.434492">
        <ele>178.324</ele>
        <time>2017-11-11T12:17:27Z</time>
      </trkpt>
      <trkpt lat="51.795038" lon="39.434461">
        <ele>164.377</ele>
        <time>2017-11-11T12:17:32Z</time>
      </trkpt>
      <trkpt lat="51.794703" lon="39.434428">
        <ele>155.387</ele>
        <time>2017-11-11T12:17:39Z</time>
      </trkpt>
      <trkpt lat="51.79449" lon="39.434442">
        <ele>151.481</ele>
        <time>2017-11-11T12:17:44Z</time>
      </trkpt>
      <trkpt lat="51.794319" lon="39.434443">
        <ele>150.724</ele>
        <time>2017-11-11T12:17:50Z</time>
      </trkpt>
      <trkpt lat="51.793964" lon="39.434466">
        <ele>150.673</ele>
        <time>2017-11-11T12:17:59Z</time>
      </trkpt>
      <trkpt lat="51.793778" lon="39.434452">
        <ele>150.385</ele>
        <time>2017-11-11T12:18:04Z</time>
      </trkpt>
      <trkpt lat="51.793462" lon="39.434481">
        <ele>151.047</ele>
        <time>2017-11-11T12:18:11Z</time>
      </trkpt>
      <trkpt lat="51.793243" lon="39.434514">
        <ele>152.276</ele>
        <time>2017-11-11T12:18:16Z</time>
      </trkpt>
      <trkpt lat="51.793005" lon="39.434528">
        <ele>153.015</ele>
        <time>2017-11-11T12:18:22Z</time>
      </trkpt>
      <trkpt lat="51.792878" lon="39.434543">
        <ele>153.79</ele>
        <time>2017-11-11T12:18:27Z</time>
      </trkpt>
      <trkpt lat="51.792491" lon="39.434485">
        <ele>155.516</ele>
        <time>2017-11-11T12:18:35Z</time>
      </trkpt>
      <trkpt lat="51.792361" lon="39.434483">
        <ele>156.652</ele>
        <time>2017-11-11T12:18:42Z</time>
      </trkpt>
      <trkpt lat="51.792209" lon="39.434577">
        <ele>157.514</ele>
        <time>2017-11-11T12:18:50Z</time>
      </trkpt>
      <trkpt lat="51.79204" lon="39.434514">
        <ele>158.065</ele>
        <time>2017-11-11T12:18:55Z</time>
      </trkpt>
      <trkpt lat="51.791868" lon="39.434388">
        <ele>158.412</ele>
        <time>2017-11-11T12:18:59Z</time>
      </trkpt>
      <trkpt lat="51.791668" lon="39.434337">
        <ele>158.708</ele>
        <time>2017-11-11T12:19:04Z</time>
      </trkpt>
      <trkpt lat="51.791396" lon="39.434323">
        <ele>159.062</ele>
        <time>2017-11-11T12:19:10Z</time>
      </trkpt>
      <trkpt lat="51.791221" lon="39.434329">
        <ele>161.156</ele>
        <time>2017-11-11T12:19:14Z</time>
      </trkpt>
      <trkpt lat="51.79097" lon="39.434359">
        <ele>162.059</ele>
        <time>2017-11-11T12:19:19Z</time>
      </trkpt>
      <trkpt lat="51.790704" lon="39.434375">
        <ele>162.907</ele>
        <time>2017-11-11T12:19:25Z</time>
      </trkpt>
      <trkpt lat="51.79056" lon="39.434362">
        <ele>165.277</ele>
        <time>2017-11-11T12:19:28Z</time>
      </trkpt>
      <trkpt lat="51.790338" lon="39.434357">
        <ele>166.812</ele>
        <time>2017-11-11T12:19:33Z</time>
      </trkpt>
      <trkpt lat="51.789966" lon="39.434377">
        <ele>166.751</ele>
        <time>2017-11-11T12:19:39Z</time>
      </trkpt>
      <trkpt lat="51.789808" lon="39.434395">
        <ele>166.0</ele>
        <time>2017-11-11T12:19:42Z</time>
      </trkpt>
      <trkpt lat="51.78953" lon="39.434401">
        <ele>163.823</ele>
        <time>2017-11-11T12:19:48Z</time>
      </trkpt>
      <trkpt lat="51.789224" lon="39.434417">
        <ele>163.019</ele>
        <time>2017-11-11T12:19:55Z</time>
      </trkpt>
      <trkpt lat="51.789" lon="39.434437">
        <ele>161.118</ele>
        <time>2017-11-11T12:20:00Z</time>
      </trkpt>
      <trkpt lat="51.788781" lon="39.434453">
        <ele>159.797</ele>
        <time>2017-11-11T12:20:05Z</time>
      </trkpt>
      <trkpt lat="51.788599" lon="39.434433">
        <ele>159.644</ele>
        <time>2017-11-11T12:20:11Z</time>
      </trkpt>
      <trkpt lat="51.788311" lon="39.434428">
        <ele>160.442</ele>
        <time>2017-11-11T12:20:19Z</time>
      </trkpt>
      <trkpt lat="51.788081" lon="39.434416">
        <ele>160.789</ele>
        <time>2017-11-11T12:20:25Z</time>
      </trkpt>
      <trkpt lat="51.7878" lon="39.43442">
        <ele>161.056</ele>
        <time>2017-11-11T12:20:33Z</time>
      </trkpt>
      <trkpt lat="51.787428" lon="39.434396">
        <ele>162.181</ele>
        <time>2017-11-11T12:20:40Z</time>
      </trkpt>
      <trkpt lat="51.787181" lon="39.434402">
        <ele>162.919</ele>
        <time>2017-11-11T12:20:46Z</time>
      </trkpt>
      <trkpt lat="51.786927" lon="39.434419">
        <ele>163.449</ele>
        <time>2017-11-11T12:20:54Z</time>
      </trkpt>
      <trkpt lat="51.786701" lon="39.434439">
        <ele>164.069</ele>
        <time>2017-11-11T12:21:01Z</time>
      </trkpt>
      <trkpt lat="51.786337" lon="39.434433">
        <ele>167.458</ele>
        <time>2017-11-11T12:21:10Z</time>
      </trkpt>
      <trkpt lat="51.786115" lon="39.434421">
        <ele>167.957</ele>
        <time>2017-11-11T12:21:14Z</time>
      </trkpt>
      <trkpt lat="51.785953" lon="39.43442">
        <ele>170.926</ele>
        <time>2017-11-11T12:21:17Z</time>
      </trkpt>
      <trkpt lat="51.785797" lon="39.434428">
        <ele>171.289</ele>
        <time>2017-11-11T12:21:21Z</time>
      </trkpt>
      <trkpt lat="51.785588" lon="39.434299">
        <ele>171.908</ele>
        <time>2017-11-11T12:21:26Z</time>
      </trkpt>
      <trkpt lat="51.785165" lon="39.434232">
        <ele>170.879</ele>
        <time>2017-11-11T12:21:34Z</time>
      </trkpt>
      <trkpt lat="51.784913" lon="39.434205">
        <ele>170.058</ele>
        <time>2017-11-11T12:21:40Z</time>
      </trkpt>
      <trkpt lat="51.784697" lon="39.434224">
        <ele>169.363</ele>
        <time>2017-11-11T12:21:45Z</time>
      </trkpt>
      <trkpt lat="51.784481" lon="39.434253">
        <ele>168.295</ele>
        <time>2017-11-11T12:21:51Z</time>
      </trkpt>
      <trkpt lat="51.784174" lon="39.434248">
        <ele>166.854</ele>
        <time>2017-11-11T12:21:57Z</time>
      </trkpt>
      <trkpt lat="51.783887" lon="39.434228">
        <ele>165.278</ele>
        <time>2017-11-11T12:22:03Z</time>
      </trkpt>
      <trkpt lat="51.783614" lon="39.434209">
        <ele>164.081</ele>
        <time>2017-11-11T12:22:11Z</time>
      </trkpt>
      <trkpt lat="51.783305" lon="39.434174">
        <ele>164.146</ele>
        <time>2017-11-11T12:22:19Z</time>
      </trkpt>
      <trkpt lat="51.782997" lon="39.434181">
        <ele>164.106</ele>
        <time>2017-11-11T12:22:25Z</time>
      </trkpt>
      <trkpt lat="51.782804" lon="39.434133">
        <ele>164.059</ele>
        <time>2017-11-11T12:22:31Z</time>
      </trkpt>
      <trkpt lat="51.782474" lon="39.434154">
        <ele>162.714</ele>
        <time>2017-11-11T12:22:38Z</time>
      </trkpt>
      <trkpt lat="51.782238" lon="39.434175">
        <ele>161.699</ele>
        <time>2017-11-11T12:22:44Z</time>
      </trkpt>
      <trkpt lat="51.782033" lon="39.434215">
        <ele>161.237</ele>
        <time>2017-11-11T12:22:49Z</time>
      </trkpt>
      <trkpt lat="51.781843" lon="39.434197">
        <ele>160.773</ele>
        <time>2017-11-11T12:22:53Z</time>
      </trkpt>
      <trkpt lat="51.781559" lon="39.43413">
        <ele>160.148</ele>
        <time>2017-11-11T12:22:59Z</time>
      </trkpt>
      <trkpt lat="51.781333" lon="39.434127">
        <ele>159.688</ele>
        <time>2017-11-11T12:23:05Z</time>
      </trkpt>
      <trkpt lat="51.781061" lon="39.434132">
        <ele>159.496</ele>
        <time>2017-11-11T12:23:11Z</time>
      </trkpt>
      <trkpt lat="51.780752" lon="39.434155">
        <ele>159.742</ele>
        <time>2017-11-11T12:23:17Z</time>
      </trkpt>
      <trkpt lat="51.780476" lon="39.434193">
        <ele>160.067</ele>
        <time>2017-11-11T12:23:24Z</time>
      </trkpt>
      <trkpt lat="51.780276" lon="39.43418">
        <ele>160.908</ele>
        <time>2017-11-11T12:23:29Z</time>
      </trkpt>
      <trkpt lat="51.780017" lon="39.434199">
        <ele>161.951</ele>
        <time>2017-11-11T12:23:35Z</time>
      </trkpt>
      <trkpt lat="51.779784" lon="39.434256">
        <ele>163.013</ele>
        <time>2017-11-11T12:23:40Z</time>
      </trkpt>
      <trkpt lat="51.779414" lon="39.434259">
        <ele>163.529</ele>
        <time>2017-11-11T12:23:48Z</time>
      </trkpt>
      <trkpt lat="51.779115" lon="39.434236">
        <ele>163.302</ele>
        <time>2017-11-11T12:23:55Z</time>
      </trkpt>
      <trkpt lat="51.778795" lon="39.434173">
        <ele>163.58</ele>
        <time>2017-11-11T12:24:01Z</time>
      </trkpt>
      <trkpt lat="51.778518" lon="39.434211">
        <ele>163.881</ele>
        <time>2017-11-11T12:24:06Z</time>
      </trkpt>
      <trkpt lat="51.77832" lon="39.434206">
        <ele>164.863</ele>
        <time>2017-11-11T12:24:11Z</time>
      </trkpt>
      <trkpt lat="51.77806" lon="39.434229">
        <ele>165.23</ele>
        <time>2017-11-11T12:24:17Z</time>
      </trkpt>
      <trkpt lat="51.777783" lon="39.434601">
        <ele>164.457</ele>
        <time>2017-11-11T12:24:25Z</time>
      </trkpt>
      <trkpt lat="51.777497" lon="39.434662">
        <ele>161.795</ele>
        <time>2017-11-11T12:24:31Z</time>
      </trkpt>
      <trkpt lat="51.777215" lon="39.43473">
        <ele>156.066</ele>
        <time>2017-11-11T12:24:36Z</time>
      </trkpt>
      <trkpt lat="51.776769" lon="39.434626">
        <ele>154.941</ele>
        <time>2017-11-11T12:24:42Z</time>
      </trkpt>
      <trkpt lat="51.776419" lon="39.434613">
        <ele>153.258</ele>
        <time>2017-11-11T12:24:47Z</time>
      </trkpt>
      <trkpt lat="51.776073" lon="39.434603">
        <ele>153.042</ele>
        <time>2017-11-11T12:24:53Z</time>
      </trkpt>
      <trkpt lat="51.775921" lon="39.434607">
        <ele>154.027</ele>
        <time>2017-11-11T12:24:56Z</time>
      </trkpt>
      <trkpt lat="51.775779" lon="39.434599">
        <ele>155.747</ele>
        <time>2017-11-11T12:24:59Z</time>
      </trkpt>
      <trkpt lat="51.775497" lon="39.434651">
        <ele>160.928</ele>
        <time>2017-11-11T12:25:05Z</time>
      </trkpt>
      <trkpt lat="51.775194" lon="39.434692">
        <ele>166.119</ele>
        <time>2017-11-11T12:25:12Z</time>
      </trkpt>
      <trkpt lat="51.77495" lon="39.434641">
        <ele>166.105</ele>
        <time>2017-11-11T12:25:17Z</time>
      </trkpt>
      <trkpt lat="51.774783" lon="39.434574">
        <ele>165.639</ele>
        <time>2017-11-11T12:25:22Z</time>
      </trkpt>
      <trkpt lat="51.774456" lon="39.434555">
        <ele>164.773</ele>
        <time>2017-11-11T12:25:29Z</time>
      </trkpt>
      <trkpt lat="51.774119" lon="39.434544">
        <ele>161.798</ele>
        <time>2017-11-11T12:25:37Z</time>
      </trkpt>
      <trkpt lat="51.773909" lon="39.434531">
        <ele>161.713</ele>
        <time>2017-11-11T12:25:44Z</time>
      </trkpt>
      <trkpt lat="51.773751" lon="39.434538">
        <ele>162.335</ele>
        <time>2017-11-11T12:25:50Z</time>
      </trkpt>
      <trkpt lat="51.773517" lon="39.434366">
        <ele>162.871</ele>
        <time>2017-11-11T12:25:57Z</time>
      </trkpt>
      <trkpt lat="51.773445" lon="39.433912">
        <ele>160.734</ele>
        <time>2017-11-11T12:26:03Z</time>
      </trkpt>
      <trkpt lat="51.773425" lon="39.433536">
        <ele>155.506</ele>
        <time>2017-11-11T12:26:08Z</time>
      </trkpt>
      <trkpt lat="51.773425" lon="39.433075">
        <ele>148.84</ele>
        <time>2017-11-11T12:26:14Z</time>
      </trkpt>
      <trkpt lat="51.77339" lon="39.432563">
        <ele>144.589</ele>
        <time>2017-11-11T12:26:21Z</time>
      </trkpt>
      <trkpt lat="51.773361" lon="39.432113">
        <ele>144.296</ele>
        <time>2017-11-11T12:26:28Z</time>
      </trkpt>
      <trkpt lat="51.773477" lon="39.431627">
        <ele>144.253</ele>
        <time>2017-11-11T12:26:35Z</time>
      </trkpt>
      <trkpt lat="51.773387" lon="39.431352">
        <ele>144.473</ele>
        <time>2017-11-11T12:26:41Z</time>
      </trkpt>
      <trkpt lat="51.77329" lon="39.43107">
        <ele>145.136</ele>
        <time>2017-11-11T12:26:47Z</time>
      </trkpt>
      <trkpt lat="51.77329" lon="39.430603">
        <ele>147.321</ele>
        <time>2017-11-11T12:26:53Z</time>
      </trkpt>
      <trkpt lat="51.773429" lon="39.430219">
        <ele>147.525</ele>
        <time>2017-11-11T12:26:59Z</time>
      </trkpt>
      <trkpt lat="51.773363" lon="39.429941">
        <ele>147.955</ele>
        <time>2017-11-11T12:27:05Z</time>
      </trkpt>
      <trkpt lat="51.773293" lon="39.429618">
        <ele>150.539</ele>
        <time>2017-11-11T12:27:11Z</time>
      </trkpt>
      <trkpt lat="51.773322" lon="39.429079">
        <ele>152.887</ele>
        <time>2017-11-11T12:27:18Z</time>
      </trkpt>
      <trkpt lat="51.773351" lon="39.428672">
        <ele>153.428</ele>
        <time>2017-11-11T12:27:23Z</time>
      </trkpt>
      <trkpt lat="51.773365" lon="39.428159">
        <ele>155.292</ele>
        <time>2017-11-11T12:27:29Z</time>
      </trkpt>
      <trkpt lat="51.773372" lon="39.427697">
        <ele>155.483</ele>
        <time>2017-11-11T12:27:35Z</time>
      </trkpt>
      <trkpt lat="51.773374" lon="39.427214">
        <ele>155.681</ele>
        <time>2017-11-11T12:27:42Z</time>
      </trkpt>
      <trkpt lat="51.77339" lon="39.426867">
        <ele>156.077</ele>
        <time>2017-11-11T12:27:48Z</time>
      </trkpt>
      <trkpt lat="51.773396" lon="39.426518">
        <ele>156.027</ele>
        <time>2017-11-11T12:27:53Z</time>
      </trkpt>
      <trkpt lat="51.773403" lon="39.425978">
        <ele>155.856</ele>
        <time>2017-11-11T12:28:01Z</time>
      </trkpt>
      <trkpt lat="51.773389" lon="39.425447">
        <ele>155.777</ele>
        <time>2017-11-11T12:28:08Z</time>
      </trkpt>
      <trkpt lat="51.773418" lon="39.424916">
        <ele>155.767</ele>
        <time>2017-11-11T12:28:16Z</time>
      </trkpt>
      <trkpt lat="51.773451" lon="39.424425">
        <ele>155.53</ele>
        <time>2017-11-11T12:28:22Z</time>
      </trkpt>
      <trkpt lat="51.773467" lon="39.42396">
        <ele>152.06</ele>
        <time>2017-11-11T12:28:27Z</time>
      </trkpt>
      <trkpt lat="51.773468" lon="39.423632">
        <ele>151.172</ele>
        <time>2017-11-11T12:28:32Z</time>
      </trkpt>
      <trkpt lat="51.773488" lon="39.423278">
        <ele>150.944</ele>
        <time>2017-11-11T12:28:37Z</time>
      </trkpt>
      <trkpt lat="51.773477" lon="39.422879">
        <ele>150.787</ele>
        <time>2017-11-11T12:28:44Z</time>
      </trkpt>
      <trkpt lat="51.773451" lon="39.42237">
        <ele>150.835</ele>
        <time>2017-11-11T12:28:51Z</time>
      </trkpt>
      <trkpt lat="51.773463" lon="39.421773">
        <ele>151.01</ele>
        <time>2017-11-11T12:28:59Z</time>
      </trkpt>
      <trkpt lat="51.773409" lon="39.421391">
        <ele>151.303</ele>
        <time>2017-11-11T12:29:05Z</time>
      </trkpt>
      <trkpt lat="51.773355" lon="39.421002">
        <ele>152.36</ele>
        <time>2017-11-11T12:29:10Z</time>
      </trkpt>
      <trkpt lat="51.773333" lon="39.420477">
        <ele>153.851</ele>
        <time>2017-11-11T12:29:17Z</time>
      </trkpt>
      <trkpt lat="51.7734" lon="39.419949">
        <ele>156.83</ele>
        <time>2017-11-11T12:29:22Z</time>
      </trkpt>
      <trkpt lat="51.773418" lon="39.419594">
        <ele>157.026</ele>
        <time>2017-11-11T12:29:28Z</time>
      </trkpt>
      <trkpt lat="51.773425" lon="39.419079">
        <ele>156.92</ele>
        <time>2017-11-11T12:29:34Z</time>
      </trkpt>
      <trkpt lat="51.773426" lon="39.418729">
        <ele>156.736</ele>
        <time>2017-11-11T12:29:38Z</time>
      </trkpt>
      <trkpt lat="51.773454" lon="39.418262">
        <ele>158.442</ele>
        <time>2017-11-11T12:29:43Z</time>
      </trkpt>
      <trkpt lat="51.773514" lon="39.417735">
        <ele>157.196</ele>
        <time>2017-11-11T12:29:49Z</time>
      </trkpt>
      <trkpt lat="51.773535" lon="39.41741">
        <ele>156.674</ele>
        <time>2017-11-11T12:29:54Z</time>
      </trkpt>
      <trkpt lat="51.773538" lon="39.416897">
        <ele>155.981</ele>
        <time>2017-11-11T12:30:01Z</time>
      </trkpt>
      <trkpt lat="51.77354" lon="39.416404">
        <ele>155.568</ele>
        <time>2017-11-11T12:30:07Z</time>
      </trkpt>
      <trkpt lat="51.773538" lon="39.415871">
        <ele>152.867</ele>
        <time>2017-11-11T12:30:13Z</time>
      </trkpt>
      <trkpt lat="51.773554" lon="39.415622">
        <ele>152.136</ele>
        <time>2017-11-11T12:30:16Z</time>
      </trkpt>
      <trkpt lat="51.773539" lon="39.415169">
        <ele>152.269</ele>
        <time>2017-11-11T12:30:24Z</time>
      </trkpt>
      <trkpt lat="51.773455" lon="39.415072">
        <ele>151.778</ele>
        <time>2017-11-11T12:30:33Z</time>
      </trkpt>
      <trkpt lat="51.773087" lon="39.415366">
        <ele>152.957</ele>
        <time>2017-11-11T12:30:42Z</time>
      </trkpt>
      <trkpt lat="51.772955" lon="39.415451">
        <ele>152.915</ele>
        <time>2017-11-11T12:30:46Z</time>
      </trkpt>
      <trkpt lat="51.77279" lon="39.415559">
        <ele>153.272</ele>
        <time>2017-11-11T12:30:51Z</time>
      </trkpt>
      <trkpt lat="51.772326" lon="39.415486">
        <ele>163.214</ele>
        <time>2017-11-11T12:30:59Z</time>
      </trkpt>
      <trkpt lat="51.772096" lon="39.415224">
        <ele>166.215</ele>
        <time>2017-11-11T12:31:04Z</time>
      </trkpt>
      <trkpt lat="51.771939" lon="39.414888">
        <ele>166.195</ele>
        <time>2017-11-11T12:31:09Z</time>
      </trkpt>
      <trkpt lat="51.771772" lon="39.414629">
        <ele>164.984</ele>
        <time>2017-11-11T12:31:15Z</time>
      </trkpt>
      <trkpt lat="51.771568" lon="39.414469">
        <ele>158.795</ele>
        <time>2017-11-11T12:31:21Z</time>
      </trkpt>
      <trkpt lat="51.771393" lon="39.414414">
        <ele>157.958</ele>
        <time>2017-11-11T12:31:26Z</time>
      </trkpt>
      <trkpt lat="51.77109" lon="39.414362">
        <ele>157.474</ele>
        <time>2017-11-11T12:31:34Z</time>
      </trkpt>
      <trkpt lat="51.770817" lon="39.414301">
        <ele>156.914</ele>
        <time>2017-11-11T12:31:40Z</time>
      </trkpt>
      <trkpt lat="51.770686" lon="39.414279">
        <ele>157.138</ele>
        <time>2017-11-11T12:31:43Z</time>
      </trkpt>
      <trkpt lat="51.770362" lon="39.414257">
        <ele>158.811</ele>
        <time>2017-11-11T12:31:50Z</time>
      </trkpt>
      <trkpt lat="51.770061" lon="39.414215">
        <ele>159.718</ele>
        <time>2017-11-11T12:31:57Z</time>
      </trkpt>
      <trkpt lat="51.769817" lon="39.414249">
        <ele>160.205</ele>
        <time>2017-11-11T12:32:03Z</time>
      </trkpt>
      <trkpt lat="51.769536" lon="39.414254">
        <ele>162.866</ele>
        <time>2017-11-11T12:32:09Z</time>
      </trkpt>
      <trkpt lat="51.769221" lon="39.414243">
        <ele>169.753</ele>
        <time>2017-11-11T12:32:15Z</time>
      </trkpt>
      <trkpt lat="51.768984" lon="39.414215">
        <ele>171.802</ele>
        <time>2017-11-11T12:32:20Z</time>
      </trkpt>
      <trkpt lat="51.768711" lon="39.414154">
        <ele>172.499</ele>
        <time>2017-11-11T12:32:26Z</time>
      </trkpt>
      <trkpt lat="51.768508" lon="39.414211">
        <ele>172.761</ele>
        <time>2017-11-11T12:32:31Z</time>
      </trkpt>
      <trkpt lat="51.768195" lon="39.413897">
        <ele>173.277</ele>
        <time>2017-11-11T12:32:38Z</time>
      </trkpt>
      <trkpt lat="51.768071" lon="39.413346">
        <ele>166.746</ele>
        <time>2017-11-11T12:32:44Z</time>
      </trkpt>
      <trkpt lat="51.768004" lon="39.412918">
        <ele>158.072</ele>
        <time>2017-11-11T12:32:50Z</time>
      </trkpt>
      <trkpt lat="51.767985" lon="39.412626">
        <ele>154.264</ele>
        <time>2017-11-11T12:32:54Z</time>
      </trkpt>
      <trkpt lat="51.767973" lon="39.411948">
        <ele>150.613</ele>
        <time>2017-11-11T12:33:05Z</time>
      </trkpt>
      <trkpt lat="51.767926" lon="39.411488">
        <ele>150.35</ele>
        <time>2017-11-11T12:33:12Z</time>
      </trkpt>
      <trkpt lat="51.76787" lon="39.411167">
        <ele>149.888</ele>
        <time>2017-11-11T12:33:17Z</time>
      </trkpt>
      <trkpt lat="51.767855" lon="39.410824">
        <ele>147.974</ele>
        <time>2017-11-11T12:33:22Z</time>
      </trkpt>
      <trkpt lat="51.76786" lon="39.410336">
        <ele>147.341</ele>
        <time>2017-11-11T12:33:29Z</time>
      </trkpt>
      <trkpt lat="51.767809" lon="39.409798">
        <ele>148.072</ele>
        <time>2017-11-11T12:33:36Z</time>
      </trkpt>
      <trkpt lat="51.767796" lon="39.409375">
        <ele>148.427</ele>
        <time>2017-11-11T12:33:42Z</time>
      </trkpt>
      <trkpt lat="51.767778" lon="39.409099">
        <ele>149.182</ele>
        <time>2017-11-11T12:33:47Z</time>
      </trkpt>
      <trkpt lat="51.767759" lon="39.408784">
        <ele>150.268</ele>
        <time>2017-11-11T12:33:52Z</time>
      </trkpt>
      <trkpt lat="51.767758" lon="39.40836">
        <ele>152.217</ele>
        <time>2017-11-11T12:33:57Z</time>
      </trkpt>
      <trkpt lat="51.767753" lon="39.407926">
        <ele>154.894</ele>
        <time>2017-11-11T12:34:02Z</time>
      </trkpt>
      <trkpt lat="51.767785" lon="39.407417">
        <ele>162.252</ele>
        <time>2017-11-11T12:34:08Z</time>
      </trkpt>
      <trkpt lat="51.768048" lon="39.406729">
        <ele>163.295</ele>
        <time>2017-11-11T12:34:14Z</time>
      </trkpt>
      <trkpt lat="51.768007" lon="39.406217">
        <ele>163.278</ele>
        <time>2017-11-11T12:34:20Z</time>
      </trkpt>
      <trkpt lat="51.767997" lon="39.405975">
        <ele>162.991</ele>
        <time>2017-11-11T12:34:23Z</time>
      </trkpt>
      <trkpt lat="51.767996" lon="39.405614">
        <ele>161.733</ele>
        <time>2017-11-11T12:34:29Z</time>
      </trkpt>
      <trkpt lat="51.767981" lon="39.405336">
        <ele>159.142</ele>
        <time>2017-11-11T12:34:33Z</time>
      </trkpt>
      <trkpt lat="51.767961" lon="39.405134">
        <ele>158.933</ele>
        <time>2017-11-11T12:34:36Z</time>
      </trkpt>
      <trkpt lat="51.767932" lon="39.404773">
        <ele>159.378</ele>
        <time>2017-11-11T12:34:43Z</time>
      </trkpt>
      <trkpt lat="51.767876" lon="39.404375">
        <ele>159.795</ele>
        <time>2017-11-11T12:34:50Z</time>
      </trkpt>
      <trkpt lat="51.767807" lon="39.403979">
        <ele>154.365</ele>
        <time>2017-11-11T12:34:59Z</time>
      </trkpt>
      <trkpt lat="51.767598" lon="39.403938">
        <ele>151.094</ele>
        <time>2017-11-11T12:35:07Z</time>
      </trkpt>
      <trkpt lat="51.767386" lon="39.403922">
        <ele>150.5</ele>
        <time>2017-11-11T12:35:12Z</time>
      </trkpt>
      <trkpt lat="51.766994" lon="39.403902">
        <ele>151.232</ele>
        <time>2017-11-11T12:35:19Z</time>
      </trkpt>
      <trkpt lat="51.766711" lon="39.403881">
        <ele>158.158</ele>
        <time>2017-11-11T12:35:24Z</time>
      </trkpt>
      <trkpt lat="51.766354" lon="39.403882">
        <ele>156.635</ele>
        <time>2017-11-11T12:35:31Z</time>
      </trkpt>
      <trkpt lat="51.766023" lon="39.403925">
        <ele>157.313</ele>
        <time>2017-11-11T12:35:37Z</time>
      </trkpt>
      <trkpt lat="51.765775" lon="39.403859">
        <ele>158.551</ele>
        <time>2017-11-11T12:35:42Z</time>
      </trkpt>
      <trkpt lat="51.76545" lon="39.403825">
        <ele>155.814</ele>
        <time>2017-11-11T12:35:48Z</time>
      </trkpt>
      <trkpt lat="51.765122" lon="39.403793">
        <ele>155.711</ele>
        <time>2017-11-11T12:35:54Z</time>
      </trkpt>
      <trkpt lat="51.764734" lon="39.403762">
        <ele>156.125</ele>
        <time>2017-11-11T12:36:00Z</time>
      </trkpt>
      <trkpt lat="51.764459" lon="39.403758">
        <ele>156.187</ele>
        <time>2017-11-11T12:36:05Z</time>
      </trkpt>
      <trkpt lat="51.764148" lon="39.403755">
        <ele>151.671</ele>
        <time>2017-11-11T12:36:10Z</time>
      </trkpt>
      <trkpt lat="51.763851" lon="39.40376">
        <ele>146.263</ele>
        <time>2017-11-11T12:36:16Z</time>
      </trkpt>
      <trkpt lat="51.763626" lon="39.403756">
        <ele>144.135</ele>
        <time>2017-11-11T12:36:21Z</time>
      </trkpt>
      <trkpt lat="51.763472" lon="39.403758">
        <ele>143.261</ele>
        <time>2017-11-11T12:36:24Z</time>
      </trkpt>
      <trkpt lat="51.763157" lon="39.40374">
        <ele>145.356</ele>
        <time>2017-11-11T12:36:30Z</time>
      </trkpt>
      <trkpt lat="51.762855" lon="39.403753">
        <ele>146.982</ele>
        <time>2017-11-11T12:36:36Z</time>
      </trkpt>
      <trkpt lat="51.76257" lon="39.403732">
        <ele>149.812</ele>
        <time>2017-11-11T12:36:41Z</time>
      </trkpt>
      <trkpt lat="51.762423" lon="39.403739">
        <ele>151.146</ele>
        <time>2017-11-11T12:36:44Z</time>
      </trkpt>
      <trkpt lat="51.762037" lon="39.403753">
        <ele>155.389</ele>
        <time>2017-11-11T12:36:52Z</time>
      </trkpt>
      <trkpt lat="51.761725" lon="39.403711">
        <ele>161.355</ele>
        <time>2017-11-11T12:36:58Z</time>
      </trkpt>
      <trkpt lat="51.761464" lon="39.403697">
        <ele>162.747</ele>
        <time>2017-11-11T12:37:04Z</time>
      </trkpt>
      <trkpt lat="51.761302" lon="39.403703">
        <ele>163.396</ele>
        <time>2017-11-11T12:37:07Z</time>
      </trkpt>
      <trkpt lat="51.761019" lon="39.403285">
        <ele>159.456</ele>
        <time>2017-11-11T12:37:14Z</time>
      </trkpt>
      <trkpt lat="51.761022" lon="39.402767">
        <ele>156.694</ele>
        <time>2017-11-11T12:37:20Z</time>
      </trkpt>
      <trkpt lat="51.761044" lon="39.402274">
        <ele>147.775</ele>
        <time>2017-11-11T12:37:25Z</time>
      </trkpt>
      <trkpt lat="51.761073" lon="39.4017">
        <ele>143.814</ele>
        <time>2017-11-11T12:37:31Z</time>
      </trkpt>
      <trkpt lat="51.76112" lon="39.400965">
        <ele>142.741</ele>
        <time>2017-11-11T12:37:39Z</time>
      </trkpt>
      <trkpt lat="51.761113" lon="39.400578">
        <ele>142.613</ele>
        <time>2017-11-11T12:37:44Z</time>
      </trkpt>
      <trkpt lat="51.761095" lon="39.400188">
        <ele>141.79</ele>
        <time>2017-11-11T12:37:49Z</time>
      </trkpt>
      <trkpt lat="51.761095" lon="39.399768">
        <ele>139.727</ele>
        <time>2017-11-11T12:37:54Z</time>
      </trkpt>
      <trkpt lat="51.761094" lon="39.399377">
        <ele>138.47</ele>
        <time>2017-11-11T12:37:59Z</time>
      </trkpt>
      <trkpt lat="51.761095" lon="39.399123">
        <ele>137.753</ele>
        <time>2017-11-11T12:38:02Z</time>
      </trkpt>
      <trkpt lat="51.761091" lon="39.398805">
        <ele>137.306</ele>
        <time>2017-11-11T12:38:06Z</time>
      </trkpt>
      <trkpt lat="51.761084" lon="39.398381">
        <ele>138.376</ele>
        <time>2017-11-11T12:38:12Z</time>
      </trkpt>
      <trkpt lat="51.761075" lon="39.397962">
        <ele>138.27</ele>
        <time>2017-11-11T12:38:17Z</time>
      </trkpt>
      <trkpt lat="51.761106" lon="39.397509">
        <ele>138.36</ele>
        <time>2017-11-11T12:38:23Z</time>
      </trkpt>
      <trkpt lat="51.761103" lon="39.397096">
        <ele>139.167</ele>
        <time>2017-11-11T12:38:28Z</time>
      </trkpt>
      <trkpt lat="51.761122" lon="39.396575">
        <ele>140.151</ele>
        <time>2017-11-11T12:38:34Z</time>
      </trkpt>
      <trkpt lat="51.761102" lon="39.396235">
        <ele>140.79</ele>
        <time>2017-11-11T12:38:40Z</time>
      </trkpt>
      <trkpt lat="51.76107" lon="39.395833">
        <ele>141.525</ele>
        <time>2017-11-11T12:38:46Z</time>
      </trkpt>
      <trkpt lat="51.761069" lon="39.39533">
        <ele>142.967</ele>
        <time>2017-11-11T12:38:54Z</time>
      </trkpt>
      <trkpt lat="51.761063" lon="39.394828">
        <ele>148.777</ele>
        <time>2017-11-11T12:39:00Z</time>
      </trkpt>
      <trkpt lat="51.761068" lon="39.394453">
        <ele>151.653</ele>
        <time>2017-11-11T12:39:05Z</time>
      </trkpt>
      <trkpt lat="51.761089" lon="39.393899">
        <ele>156.381</ele>
        <time>2017-11-11T12:39:11Z</time>
      </trkpt>
      <trkpt lat="51.761081" lon="39.393691">
        <ele>156.476</ele>
        <time>2017-11-11T12:39:14Z</time>
      </trkpt>
      <trkpt lat="51.761079" lon="39.393266">
        <ele>156.767</ele>
        <time>2017-11-11T12:39:20Z</time>
      </trkpt>
      <trkpt lat="51.761064" lon="39.39287">
        <ele>156.808</ele>
        <time>2017-11-11T12:39:26Z</time>
      </trkpt>
      <trkpt lat="51.761075" lon="39.392377">
        <ele>156.9</ele>
        <time>2017-11-11T12:39:32Z</time>
      </trkpt>
      <trkpt lat="51.76107" lon="39.392003">
        <ele>157.341</ele>
        <time>2017-11-11T12:39:38Z</time>
      </trkpt>
      <trkpt lat="51.761106" lon="39.391478">
        <ele>158.175</ele>
        <time>2017-11-11T12:39:45Z</time>
      </trkpt>
      <trkpt lat="51.761122" lon="39.390981">
        <ele>158.742</ele>
        <time>2017-11-11T12:39:51Z</time>
      </trkpt>
      <trkpt lat="51.761122" lon="39.390797">
        <ele>158.336</ele>
        <time>2017-11-11T12:39:54Z</time>
      </trkpt>
      <trkpt lat="51.761134" lon="39.390365">
        <ele>155.988</ele>
        <time>2017-11-11T12:40:00Z</time>
      </trkpt>
      <trkpt lat="51.761158" lon="39.389872">
        <ele>155.094</ele>
        <time>2017-11-11T12:40:06Z</time>
      </trkpt>
      <trkpt lat="51.761181" lon="39.389252">
        <ele>152.326</ele>
        <time>2017-11-11T12:40:12Z</time>
      </trkpt>
      <trkpt lat="51.761187" lon="39.388867">
        <ele>149.777</ele>
        <time>2017-11-11T12:40:17Z</time>
      </trkpt>
      <trkpt lat="51.761172" lon="39.388616">
        <ele>147.978</ele>
        <time>2017-11-11T12:40:20Z</time>
      </trkpt>
      <trkpt lat="51.761185" lon="39.388218">
        <ele>147.293</ele>
        <time>2017-11-11T12:40:25Z</time>
      </trkpt>
      <trkpt lat="51.761197" lon="39.387958">
        <ele>147.342</ele>
        <time>2017-11-11T12:40:28Z</time>
      </trkpt>
      <trkpt lat="51.761198" lon="39.387756">
        <ele>147.443</ele>
        <time>2017-11-11T12:40:31Z</time>
      </trkpt>
      <trkpt lat="51.761199" lon="39.387574">
        <ele>147.505</ele>
        <time>2017-11-11T12:40:34Z</time>
      </trkpt>
      <trkpt lat="51.761199" lon="39.387085">
        <ele>146.856</ele>
        <time>2017-11-11T12:40:39Z</time>
      </trkpt>
      <trkpt lat="51.761205" lon="39.386647">
        <ele>146.192</ele>
        <time>2017-11-11T12:40:44Z</time>
      </trkpt>
      <trkpt lat="51.761206" lon="39.386211">
        <ele>145.734</ele>
        <time>2017-11-11T12:40:50Z</time>
      </trkpt>
      <trkpt lat="51.761207" lon="39.386007">
        <ele>145.928</ele>
        <time>2017-11-11T12:40:53Z</time>
      </trkpt>
      <trkpt lat="51.761194" lon="39.385623">
        <ele>145.473</ele>
        <time>2017-11-11T12:40:58Z</time>
      </trkpt>
      <trkpt lat="51.761188" lon="39.385217">
        <ele>145.489</ele>
        <time>2017-11-11T12:41:04Z</time>
      </trkpt>
      <trkpt lat="51.761074" lon="39.384803">
        <ele>145.713</ele>
        <time>2017-11-11T12:41:10Z</time>
      </trkpt>
      <trkpt lat="51.760861" lon="39.384547">
        <ele>144.867</ele>
        <time>2017-11-11T12:41:15Z</time>
      </trkpt>
      <trkpt lat="51.760626" lon="39.384356">
        <ele>144.605</ele>
        <time>2017-11-11T12:41:20Z</time>
      </trkpt>
      <trkpt lat="51.760304" lon="39.384198">
        <ele>144.529</ele>
        <time>2017-11-11T12:41:26Z</time>
      </trkpt>
      <trkpt lat="51.760191" lon="39.384173">
        <ele>144.895</ele>
        <time>2017-11-11T12:41:31Z</time>
      </trkpt>
      <trkpt lat="51.75998" lon="39.383791">
        <ele>145.382</ele>
        <time>2017-11-11T12:41:40Z</time>
      </trkpt>
      <trkpt lat="51.75989" lon="39.383448">
        <ele>143.631</ele>
        <time>2017-11-11T12:41:45Z</time>
      </trkpt>
      <trkpt lat="51.759768" lon="39.382919">
        <ele>140.469</ele>
        <time>2017-11-11T12:41:51Z</time>
      </trkpt>
      <trkpt lat="51.7596" lon="39.382627">
        <ele>138.991</ele>
        <time>2017-11-11T12:41:56Z</time>
      </trkpt>
      <trkpt lat="51.759357" lon="39.382358">
        <ele>139.179</ele>
        <time>2017-11-11T12:42:02Z</time>
      </trkpt>
      <trkpt lat="51.759196" lon="39.382025">
        <ele>139.473</ele>
        <time>2017-11-11T12:42:07Z</time>
      </trkpt>
      <trkpt lat="51.758977" lon="39.381795">
        <ele>143.492</ele>
        <time>2017-11-11T12:42:13Z</time>
      </trkpt>
      <trkpt lat="51.758766" lon="39.381385">
        <ele>145.675</ele>
        <time>2017-11-11T12:42:20Z</time>
      </trkpt>
      <trkpt lat="51.758551" lon="39.380957">
        <ele>149.206</ele>
        <time>2017-11-11T12:42:26Z</time>
      </trkpt>
      <trkpt lat="51.758411" lon="39.380499">
        <ele>148.325</ele>
        <time>2017-11-11T12:42:32Z</time>
      </trkpt>
      <trkpt lat="51.758175" lon="39.380121">
        <ele>145.801</ele>
        <time>2017-11-11T12:42:39Z</time>
      </trkpt>
      <trkpt lat="51.757979" lon="39.379936">
        <ele>143.963</ele>
        <time>2017-11-11T12:42:44Z</time>
      </trkpt>
      <trkpt lat="51.7578" lon="39.379533">
        <ele>141.626</ele>
        <time>2017-11-11T12:42:50Z</time>
      </trkpt>
      <trkpt lat="51.757576" lon="39.379366">
        <ele>139.062</ele>
        <time>2017-11-11T12:42:57Z</time>
      </trkpt>
      <trkpt lat="51.757277" lon="39.379273">
        <ele>139.118</ele>
        <time>2017-11-11T12:43:02Z</time>
      </trkpt>
      <trkpt lat="51.757231" lon="39.379016">
        <ele>139.507</ele>
        <time>2017-11-11T12:43:09Z</time>
      </trkpt>
      <trkpt lat="51.757251" lon="39.378917">
        <ele>139.606</ele>
        <time>2017-11-11T12:43:12Z</time>
      </trkpt>
      <trkpt lat="51.757251" lon="39.378917">
        <time>2017-11-11T12:43:18Z</time>
      </trkpt>
    </trkseg>
    <trkseg>
      <trkpt lat="51.757251" lon="39.378917">
        <time>2017-11-11T12:43:21Z</time>
      </trkpt>
      <trkpt lat="51.757176" lon="39.378764">
        <ele>139.496</ele>
        <time>2017-11-11T12:43:21Z</time>
      </trkpt>
      <trkpt lat="51.756947" lon="39.378448">
        <ele>141.312</ele>
        <time>2017-11-11T12:43:27Z</time>
      </trkpt>
      <trkpt lat="51.756783" lon="39.378206">
        <ele>142.206</ele>
        <time>2017-11-11T12:43:32Z</time>
      </trkpt>
      <trkpt lat="51.756703" lon="39.378082">
        <ele>142.427</ele>
        <time>2017-11-11T12:43:36Z</time>
      </trkpt>
      <trkpt lat="51.756463" lon="39.377667">
        <ele>142.055</ele>
        <time>2017-11-11T12:43:44Z</time>
      </trkpt>
      <trkpt lat="51.75626" lon="39.377301">
        <ele>139.476</ele>
        <time>2017-11-11T12:43:51Z</time>
      </trkpt>
      <trkpt lat="51.756099" lon="39.376952">
        <ele>137.274</ele>
        <time>2017-11-11T12:43:57Z</time>
      </trkpt>
      <trkpt lat="51.755894" lon="39.376632">
        <ele>138.408</ele>
        <time>2017-11-11T12:44:03Z</time>
      </trkpt>
      <trkpt lat="51.755738" lon="39.37636">
        <ele>140.141</ele>
        <time>2017-11-11T12:44:08Z</time>
      </trkpt>
      <trkpt lat="51.755559" lon="39.375974">
        <ele>140.301</ele>
        <time>2017-11-11T12:44:16Z</time>
      </trkpt>
      <trkpt lat="51.755378" lon="39.375912">
        <ele>140.928</ele>
        <time>2017-11-11T12:44:23Z</time>
      </trkpt>
      <trkpt lat="51.755236" lon="39.37571">
        <ele>140.811</ele>
        <time>2017-11-11T12:44:29Z</time>
      </trkpt>
      <trkpt lat="51.755069" lon="39.375564">
        <ele>141.184</ele>
        <time>2017-11-11T12:44:38Z</time>
      </trkpt>
      <trkpt lat="51.755069" lon="39.375564">
        <ele>141.184</ele>
        <time>2017-11-11T12:44:43Z</time>
      </trkpt>
      <trkpt lat="51.755069" lon="39.375564">
        <time>2017-11-11T12:44:43Z</time>
      </trkpt>
    </trkseg>
    <trkseg>
      <trkpt lat="51.755069" lon="39.375564">
        <time>2017-11-11T12:45:24Z</time>
      </trkpt>
      <trkpt lat="51.754855" lon="39.375362">
        <ele>145.301</ele>
        <time>2017-11-11T12:45:24Z</time>
      </trkpt>
      <trkpt lat="51.754706" lon="39.375177">
        <ele>146.722</ele>
        <time>2017-11-11T12:45:29Z</time>
      </trkpt>
      <trkpt lat="51.754568" lon="39.374986">
        <ele>147.846</ele>
        <time>2017-11-11T12:45:34Z</time>
      </trkpt>
      <trkpt lat="51.754321" lon="39.374754">
        <ele>152.003</ele>
        <time>2017-11-11T12:45:41Z</time>
      </trkpt>
      <trkpt lat="51.754224" lon="39.37453">
        <ele>150.589</ele>
        <time>2017-11-11T12:45:44Z</time>
      </trkpt>
      <trkpt lat="51.754193" lon="39.374063">
        <ele>145.579</ele>
        <time>2017-11-11T12:45:49Z</time>
      </trkpt>
      <trkpt lat="51.754203" lon="39.373521">
        <ele>142.156</ele>
        <time>2017-11-11T12:45:55Z</time>
      </trkpt>
      <trkpt lat="51.754219" lon="39.373103">
        <ele>140.659</ele>
        <time>2017-11-11T12:46:00Z</time>
      </trkpt>
      <trkpt lat="51.754227" lon="39.372645">
        <ele>143.408</ele>
        <time>2017-11-11T12:46:06Z</time>
      </trkpt>
      <trkpt lat="51.754246" lon="39.372188">
        <ele>144.673</ele>
        <time>2017-11-11T12:46:11Z</time>
      </trkpt>
      <trkpt lat="51.754269" lon="39.371647">
        <ele>144.618</ele>
        <time>2017-11-11T12:46:17Z</time>
      </trkpt>
      <trkpt lat="51.7543" lon="39.371279">
        <ele>144.408</ele>
        <time>2017-11-11T12:46:21Z</time>
      </trkpt>
      <trkpt lat="51.754319" lon="39.370846">
        <ele>142.728</ele>
        <time>2017-11-11T12:46:27Z</time>
      </trkpt>
      <trkpt lat="51.754325" lon="39.370386">
        <ele>139.07</ele>
        <time>2017-11-11T12:46:32Z</time>
      </trkpt>
      <trkpt lat="51.754356" lon="39.369721">
        <ele>136.73</ele>
        <time>2017-11-11T12:46:38Z</time>
      </trkpt>
      <trkpt lat="51.754367" lon="39.369431">
        <ele>136.275</ele>
        <time>2017-11-11T12:46:41Z</time>
      </trkpt>
      <trkpt lat="51.754373" lon="39.368832">
        <ele>134.414</ele>
        <time>2017-11-11T12:46:47Z</time>
      </trkpt>
      <trkpt lat="51.75439" lon="39.368273">
        <ele>131.046</ele>
        <time>2017-11-11T12:46:53Z</time>
      </trkpt>
      <trkpt lat="51.754407" lon="39.367795">
        <ele>129.97</ele>
        <time>2017-11-11T12:46:58Z</time>
      </trkpt>
      <trkpt lat="51.754432" lon="39.36715">
        <ele>131.439</ele>
        <time>2017-11-11T12:47:04Z</time>
      </trkpt>
      <trkpt lat="51.75445" lon="39.366602">
        <ele>132.539</ele>
        <time>2017-11-11T12:47:10Z</time>
      </trkpt>
      <trkpt lat="51.754438" lon="39.366178">
        <ele>132.663</ele>
        <time>2017-11-11T12:47:17Z</time>
      </trkpt>
      <trkpt lat="51.754427" lon="39.365963">
        <ele>132.845</ele>
        <time>2017-11-11T12:47:22Z</time>
      </trkpt>
      <trkpt lat="51.754417" lon="39.365326">
        <ele>133.265</ele>
        <time>2017-11-11T12:47:29Z</time>
      </trkpt>
      <trkpt lat="51.754407" lon="39.364803">
        <ele>133.488</ele>
        <time>2017-11-11T12:47:34Z</time>
      </trkpt>
      <trkpt lat="51.754418" lon="39.364443">
        <ele>133.052</ele>
        <time>2017-11-11T12:47:37Z</time>
      </trkpt>
      <trkpt lat="51.754449" lon="39.364116">
        <ele>132.799</ele>
        <time>2017-11-11T12:47:40Z</time>
      </trkpt>
      <trkpt lat="51.754475" lon="39.36379">
        <ele>132.753</ele>
        <time>2017-11-11T12:47:43Z</time>
      </trkpt>
      <trkpt lat="51.754492" lon="39.363146">
        <ele>133.351</ele>
        <time>2017-11-11T12:47:49Z</time>
      </trkpt>
      <trkpt lat="51.754518" lon="39.362673">
        <ele>134.491</ele>
        <time>2017-11-11T12:47:54Z</time>
      </trkpt>
      <trkpt lat="51.754537" lon="39.361987">
        <ele>133.496</ele>
        <time>2017-11-11T12:48:00Z</time>
      </trkpt>
      <trkpt lat="51.754534" lon="39.36146">
        <ele>132.111</ele>
        <time>2017-11-11T12:48:06Z</time>
      </trkpt>
      <trkpt lat="51.754557" lon="39.361063">
        <ele>133.336</ele>
        <time>2017-11-11T12:48:11Z</time>
      </trkpt>
      <trkpt lat="51.754583" lon="39.360515">
        <ele>133.033</ele>
        <time>2017-11-11T12:48:17Z</time>
      </trkpt>
      <trkpt lat="51.754592" lon="39.359895">
        <ele>129.365</ele>
        <time>2017-11-11T12:48:23Z</time>
      </trkpt>
      <trkpt lat="51.754605" lon="39.359433">
        <ele>127.557</ele>
        <time>2017-11-11T12:48:28Z</time>
      </trkpt>
      <trkpt lat="51.754601" lon="39.359079">
        <ele>126.736</ele>
        <time>2017-11-11T12:48:33Z</time>
      </trkpt>
      <trkpt lat="51.754614" lon="39.358649">
        <ele>127.117</ele>
        <time>2017-11-11T12:48:38Z</time>
      </trkpt>
      <trkpt lat="51.75461" lon="39.358118">
        <ele>129.363</ele>
        <time>2017-11-11T12:48:44Z</time>
      </trkpt>
      <trkpt lat="51.754607" lon="39.35788">
        <ele>130.985</ele>
        <time>2017-11-11T12:48:47Z</time>
      </trkpt>
      <trkpt lat="51.754623" lon="39.357395">
        <ele>131.979</ele>
        <time>2017-11-11T12:48:52Z</time>
      </trkpt>
      <trkpt lat="51.754627" lon="39.357149">
        <ele>131.412</ele>
        <time>2017-11-11T12:48:55Z</time>
      </trkpt>
      <trkpt lat="51.754609" lon="39.356853">
        <ele>131.125</ele>
        <time>2017-11-11T12:49:01Z</time>
      </trkpt>
      <trkpt lat="51.754516" lon="39.356457">
        <ele>127.704</ele>
        <time>2017-11-11T12:49:06Z</time>
      </trkpt>
      <trkpt lat="51.754508" lon="39.35622">
        <ele>125.658</ele>
        <time>2017-11-11T12:49:09Z</time>
      </trkpt>
      <trkpt lat="51.754429" lon="39.355929">
        <ele>123.688</ele>
        <time>2017-11-11T12:49:13Z</time>
      </trkpt>
      <trkpt lat="51.75429" lon="39.355604">
        <ele>121.185</ele>
        <time>2017-11-11T12:49:18Z</time>
      </trkpt>
      <trkpt lat="51.754156" lon="39.35544">
        <ele>118.181</ele>
        <time>2017-11-11T12:49:24Z</time>
      </trkpt>
      <trkpt lat="51.753983" lon="39.355171">
        <ele>117.433</ele>
        <time>2017-11-11T12:49:33Z</time>
      </trkpt>
      <trkpt lat="51.753781" lon="39.354881">
        <ele>120.09</ele>
        <time>2017-11-11T12:49:40Z</time>
      </trkpt>
      <trkpt lat="51.753557" lon="39.354597">
        <ele>123.937</ele>
        <time>2017-11-11T12:49:46Z</time>
      </trkpt>
      <trkpt lat="51.75339" lon="39.35431">
        <ele>132.592</ele>
        <time>2017-11-11T12:49:51Z</time>
      </trkpt>
      <trkpt lat="51.753205" lon="39.354065">
        <ele>139.793</ele>
        <time>2017-11-11T12:49:58Z</time>
      </trkpt>
      <trkpt lat="51.753085" lon="39.353595">
        <ele>141.263</ele>
        <time>2017-11-11T12:50:06Z</time>
      </trkpt>
      <trkpt lat="51.753054" lon="39.353459">
        <ele>141.04</ele>
        <time>2017-11-11T12:50:11Z</time>
      </trkpt>
      <trkpt lat="51.753054" lon="39.353459">
        <time>2017-11-11T12:50:16Z</time>
      </trkpt>
    </trkseg>
    <trkseg>
      <trkpt lat="51.753054" lon="39.353459">
        <time>2017-11-11T12:50:22Z</time>
      </trkpt>
      <trkpt lat="51.75306" lon="39.353378">
        <ele>138.911</ele>
        <time>2017-11-11T12:50:22Z</time>
      </trkpt>
      <trkpt lat="51.752564" lon="39.352952">
        <ele>137.855</ele>
        <time>2017-11-11T12:50:39Z</time>
      </trkpt>
      <trkpt lat="51.752353" lon="39.352718">
        <ele>137.633</ele>
        <time>2017-11-11T12:50:45Z</time>
      </trkpt>
      <trkpt lat="51.752151" lon="39.35235">
        <ele>134.803</ele>
        <time>2017-11-11T12:50:51Z</time>
      </trkpt>
      <trkpt lat="51.752032" lon="39.351883">
        <ele>132.777</ele>
        <time>2017-11-11T12:50:57Z</time>
      </trkpt>
      <trkpt lat="51.751949" lon="39.351627">
        <ele>130.337</ele>
        <time>2017-11-11T12:51:01Z</time>
      </trkpt>
      <trkpt lat="51.751797" lon="39.351062">
        <ele>120.449</ele>
        <time>2017-11-11T12:51:07Z</time>
      </trkpt>
      <trkpt lat="51.751753" lon="39.35048">
        <ele>113.554</ele>
        <time>2017-11-11T12:51:13Z</time>
      </trkpt>
      <trkpt lat="51.751665" lon="39.349994">
        <ele>107.798</ele>
        <time>2017-11-11T12:51:19Z</time>
      </trkpt>
      <trkpt lat="51.751691" lon="39.349525">
        <ele>104.373</ele>
        <time>2017-11-11T12:51:25Z</time>
      </trkpt>
      <trkpt lat="51.751811" lon="39.349074">
        <ele>102.735</ele>
        <time>2017-11-11T12:51:31Z</time>
      </trkpt>
      <trkpt lat="51.751791" lon="39.348606">
        <ele>102.2</ele>
        <time>2017-11-11T12:51:37Z</time>
      </trkpt>
      <trkpt lat="51.751718" lon="39.348221">
        <ele>102.15</ele>
        <time>2017-11-11T12:51:42Z</time>
      </trkpt>
      <trkpt lat="51.751648" lon="39.347781">
        <ele>102.455</ele>
        <time>2017-11-11T12:51:48Z</time>
      </trkpt>
      <trkpt lat="51.751492" lon="39.347497">
        <ele>102.902</ele>
        <time>2017-11-11T12:51:55Z</time>
      </trkpt>
      <trkpt lat="51.751212" lon="39.347316">
        <ele>103.898</ele>
        <time>2017-11-11T12:52:03Z</time>
      </trkpt>
      <trkpt lat="51.75098" lon="39.347382">
        <ele>105.588</ele>
        <time>2017-11-11T12:52:08Z</time>
      </trkpt>
      <trkpt lat="51.750734" lon="39.347486">
        <ele>106.326</ele>
        <time>2017-11-11T12:52:14Z</time>
      </trkpt>
      <trkpt lat="51.750538" lon="39.347588">
        <ele>106.311</ele>
        <time>2017-11-11T12:52:19Z</time>
      </trkpt>
      <trkpt lat="51.750291" lon="39.3477">
        <ele>106.472</ele>
        <time>2017-11-11T12:52:25Z</time>
      </trkpt>
      <trkpt lat="51.750023" lon="39.347773">
        <ele>107.04</ele>
        <time>2017-11-11T12:52:31Z</time>
      </trkpt>
      <trkpt lat="51.749826" lon="39.347788">
        <ele>107.559</ele>
        <time>2017-11-11T12:52:36Z</time>
      </trkpt>
      <trkpt lat="51.749575" lon="39.347855">
        <ele>107.695</ele>
        <time>2017-11-11T12:52:42Z</time>
      </trkpt>
      <trkpt lat="51.749334" lon="39.347985">
        <ele>107.908</ele>
        <time>2017-11-11T12:52:48Z</time>
      </trkpt>
      <trkpt lat="51.749131" lon="39.3481">
        <ele>108.406</ele>
        <time>2017-11-11T12:52:53Z</time>
      </trkpt>
      <trkpt lat="51.748888" lon="39.348287">
        <ele>108.696</ele>
        <time>2017-11-11T12:52:59Z</time>
      </trkpt>
      <trkpt lat="51.748726" lon="39.348373">
        <ele>108.918</ele>
        <time>2017-11-11T12:53:03Z</time>
      </trkpt>
      <trkpt lat="51.748497" lon="39.348479">
        <ele>110.299</ele>
        <time>2017-11-11T12:53:09Z</time>
      </trkpt>
      <trkpt lat="51.748237" lon="39.348681">
        <ele>112.278</ele>
        <time>2017-11-11T12:53:16Z</time>
      </trkpt>
      <trkpt lat="51.74815" lon="39.348938">
        <ele>111.901</ele>
        <time>2017-11-11T12:53:21Z</time>
      </trkpt>
      <trkpt lat="51.747971" lon="39.349075">
        <ele>111.474</ele>
        <time>2017-11-11T12:53:27Z</time>
      </trkpt>
      <trkpt lat="51.747892" lon="39.349449">
        <ele>108.905</ele>
        <time>2017-11-11T12:53:34Z</time>
      </trkpt>
      <trkpt lat="51.747917" lon="39.34984">
        <ele>105.715</ele>
        <time>2017-11-11T12:53:39Z</time>
      </trkpt>
      <trkpt lat="51.747889" lon="39.350174">
        <ele>104.315</ele>
        <time>2017-11-11T12:53:44Z</time>
      </trkpt>
      <trkpt lat="51.747832" lon="39.350586">
        <ele>105.419</ele>
        <time>2017-11-11T12:53:50Z</time>
      </trkpt>
      <trkpt lat="51.747782" lon="39.350805">
        <ele>105.474</ele>
        <time>2017-11-11T12:53:53Z</time>
      </trkpt>
      <trkpt lat="51.747696" lon="39.350978">
        <ele>105.165</ele>
        <time>2017-11-11T12:53:56Z</time>
      </trkpt>
      <trkpt lat="51.747616" lon="39.351142">
        <ele>105.003</ele>
        <time>2017-11-11T12:53:59Z</time>
      </trkpt>
      <trkpt lat="51.747438" lon="39.351285">
        <ele>105.498</ele>
        <time>2017-11-11T12:54:04Z</time>
      </trkpt>
      <trkpt lat="51.747255" lon="39.351361">
        <ele>105.603</ele>
        <time>2017-11-11T12:54:10Z</time>
      </trkpt>
      <trkpt lat="51.747024" lon="39.351484">
        <ele>105.882</ele>
        <time>2017-11-11T12:54:19Z</time>
      </trkpt>
      <trkpt lat="51.74684" lon="39.351518">
        <ele>106.409</ele>
        <time>2017-11-11T12:54:24Z</time>
      </trkpt>
      <trkpt lat="51.746621" lon="39.351522">
        <ele>106.004</ele>
        <time>2017-11-11T12:54:30Z</time>
      </trkpt>
      <trkpt lat="51.746484" lon="39.351815">
        <ele>105.98</ele>
        <time>2017-11-11T12:54:37Z</time>
      </trkpt>
      <trkpt lat="51.7464" lon="39.352018">
        <ele>105.943</ele>
        <time>2017-11-11T12:54:42Z</time>
      </trkpt>
      <trkpt lat="51.746172" lon="39.352131">
        <ele>105.945</ele>
        <time>2017-11-11T12:54:49Z</time>
      </trkpt>
      <trkpt lat="51.746019" lon="39.351944">
        <ele>105.65</ele>
        <time>2017-11-11T12:54:55Z</time>
      </trkpt>
      <trkpt lat="51.745929" lon="39.351574">
        <ele>105.195</ele>
        <time>2017-11-11T12:55:02Z</time>
      </trkpt>
      <trkpt lat="51.745685" lon="39.351733">
        <ele>104.522</ele>
        <time>2017-11-11T12:55:08Z</time>
      </trkpt>
      <trkpt lat="51.745491" lon="39.351875">
        <ele>103.807</ele>
        <time>2017-11-11T12:55:13Z</time>
      </trkpt>
      <trkpt lat="51.745259" lon="39.352031">
        <ele>102.874</ele>
        <time>2017-11-11T12:55:19Z</time>
      </trkpt>
      <trkpt lat="51.745098" lon="39.352181">
        <ele>102.917</ele>
        <time>2017-11-11T12:55:24Z</time>
      </trkpt>
      <trkpt lat="51.74488" lon="39.352319">
        <ele>103.471</ele>
        <time>2017-11-11T12:55:30Z</time>
      </trkpt>
      <trkpt lat="51.744654" lon="39.352494">
        <ele>103.557</ele>
        <time>2017-11-11T12:55:37Z</time>
      </trkpt>
      <trkpt lat="51.744442" lon="39.352727">
        <ele>103.594</ele>
        <time>2017-11-11T12:55:44Z</time>
      </trkpt>
      <trkpt lat="51.744197" lon="39.352748">
        <ele>103.344</ele>
        <time>2017-11-11T12:55:50Z</time>
      </trkpt>
      <trkpt lat="51.743971" lon="39.35267">
        <ele>100.195</ele>
        <time>2017-11-11T12:55:56Z</time>
      </trkpt>
      <trkpt lat="51.743878" lon="39.352419">
        <ele>101.133</ele>
        <time>2017-11-11T12:56:01Z</time>
      </trkpt>
      <trkpt lat="51.743765" lon="39.352101">
        <ele>102.257</ele>
        <time>2017-11-11T12:56:06Z</time>
      </trkpt>
      <trkpt lat="51.743669" lon="39.351639">
        <ele>102.757</ele>
        <time>2017-11-11T12:56:13Z</time>
      </trkpt>
      <trkpt lat="51.743603" lon="39.351215">
        <ele>102.594</ele>
        <time>2017-11-11T12:56:19Z</time>
      </trkpt>
      <trkpt lat="51.743549" lon="39.351013">
        <ele>102.593</ele>
        <time>2017-11-11T12:56:23Z</time>
      </trkpt>
      <trkpt lat="51.74352" lon="39.350812">
        <ele>102.514</ele>
        <time>2017-11-11T12:56:29Z</time>
      </trkpt>
      <trkpt lat="51.743495" lon="39.350577">
        <ele>102.61</ele>
        <time>2017-11-11T12:56:40Z</time>
      </trkpt>
      <trkpt lat="51.743467" lon="39.350118">
        <ele>102.9</ele>
        <time>2017-11-11T12:56:52Z</time>
      </trkpt>
      <trkpt lat="51.743393" lon="39.349894">
        <ele>103.238</ele>
        <time>2017-11-11T12:57:00Z</time>
      </trkpt>
      <trkpt lat="51.743378" lon="39.349525">
        <ele>103.511</ele>
        <time>2017-11-11T12:57:08Z</time>
      </trkpt>
      <trkpt lat="51.743351" lon="39.349291">
        <ele>103.689</ele>
        <time>2017-11-11T12:57:13Z</time>
      </trkpt>
      <trkpt lat="51.74318" lon="39.348921">
        <ele>105.27</ele>
        <time>2017-11-11T12:57:21Z</time>
      </trkpt>
      <trkpt lat="51.743105" lon="39.348744">
        <ele>105.408</ele>
        <time>2017-11-11T12:57:25Z</time>
      </trkpt>
      <trkpt lat="51.742952" lon="39.348543">
        <ele>105.596</ele>
        <time>2017-11-11T12:57:31Z</time>
      </trkpt>
      <trkpt lat="51.742791" lon="39.348377">
        <ele>106.176</ele>
        <time>2017-11-11T12:57:36Z</time>
      </trkpt>
      <trkpt lat="51.742578" lon="39.34808">
        <ele>106.253</ele>
        <time>2017-11-11T12:57:43Z</time>
      </trkpt>
      <trkpt lat="51.74236" lon="39.347768">
        <ele>105.465</ele>
        <time>2017-11-11T12:57:50Z</time>
      </trkpt>
      <trkpt lat="51.742189" lon="39.347435">
        <ele>104.778</ele>
        <time>2017-11-11T12:57:56Z</time>
      </trkpt>
      <trkpt lat="51.741989" lon="39.347106">
        <ele>103.689</ele>
        <time>2017-11-11T12:58:02Z</time>
      </trkpt>
      <trkpt lat="51.741803" lon="39.34682">
        <ele>103.057</ele>
        <time>2017-11-11T12:58:08Z</time>
      </trkpt>
      <trkpt lat="51.741667" lon="39.346417">
        <ele>105.293</ele>
        <time>2017-11-11T12:58:15Z</time>
      </trkpt>
      <trkpt lat="51.741479" lon="39.345999">
        <ele>106.242</ele>
        <time>2017-11-11T12:58:23Z</time>
      </trkpt>
      <trkpt lat="51.741193" lon="39.345947">
        <ele>106.362</ele>
        <time>2017-11-11T12:58:29Z</time>
      </trkpt>
      <trkpt lat="51.741008" lon="39.345745">
        <ele>106.391</ele>
        <time>2017-11-11T12:58:35Z</time>
      </trkpt>
      <trkpt lat="51.740733" lon="39.345717">
        <ele>106.906</ele>
        <time>2017-11-11T12:58:42Z</time>
      </trkpt>
      <trkpt lat="51.740486" lon="39.345557">
        <ele>107.096</ele>
        <time>2017-11-11T12:58:48Z</time>
      </trkpt>
      <trkpt lat="51.740258" lon="39.345628">
        <ele>107.142</ele>
        <time>2017-11-11T12:58:54Z</time>
      </trkpt>
      <trkpt lat="51.740105" lon="39.345934">
        <ele>106.911</ele>
        <time>2017-11-11T12:59:00Z</time>
      </trkpt>
      <trkpt lat="51.739825" lon="39.346081">
        <ele>107.595</ele>
        <time>2017-11-11T12:59:08Z</time>
      </trkpt>
      <trkpt lat="51.739699" lon="39.345912">
        <ele>107.735</ele>
        <time>2017-11-11T12:59:15Z</time>
      </trkpt>
      <trkpt lat="51.739398" lon="39.345984">
        <ele>107.789</ele>
        <time>2017-11-11T12:59:23Z</time>
      </trkpt>
      <trkpt lat="51.739127" lon="39.346238">
        <ele>106.253</ele>
        <time>2017-11-11T12:59:29Z</time>
      </trkpt>
      <trkpt lat="51.73905" lon="39.346599">
        <ele>105.167</ele>
        <time>2017-11-11T12:59:34Z</time>
      </trkpt>
      <trkpt lat="51.738969" lon="39.34698">
        <ele>105.273</ele>
        <time>2017-11-11T12:59:40Z</time>
      </trkpt>
      <trkpt lat="51.738809" lon="39.347325">
        <ele>104.067</ele>
        <time>2017-11-11T12:59:47Z</time>
      </trkpt>
      <trkpt lat="51.73862" lon="39.347624">
        <ele>102.934</ele>
        <time>2017-11-11T12:59:53Z</time>
      </trkpt>
      <trkpt lat="51.73842" lon="39.347916">
        <ele>102.955</ele>
        <time>2017-11-11T12:59:58Z</time>
      </trkpt>
      <trkpt lat="51.738163" lon="39.348243">
        <ele>101.576</ele>
        <time>2017-11-11T13:00:04Z</time>
      </trkpt>
      <trkpt lat="51.737899" lon="39.348529">
        <ele>100.524</ele>
        <time>2017-11-11T13:00:10Z</time>
      </trkpt>
      <trkpt lat="51.737725" lon="39.348712">
        <ele>99.6239</ele>
        <time>2017-11-11T13:00:15Z</time>
      </trkpt>
      <trkpt lat="51.737538" lon="39.348901">
        <ele>101.135</ele>
        <time>2017-11-11T13:00:22Z</time>
      </trkpt>
      <trkpt lat="51.737203" lon="39.348726">
        <ele>103.742</ele>
        <time>2017-11-11T13:00:29Z</time>
      </trkpt>
      <trkpt lat="51.737034" lon="39.348426">
        <ele>104.159</ele>
        <time>2017-11-11T13:00:34Z</time>
      </trkpt>
      <trkpt lat="51.736897" lon="39.34795">
        <ele>107.001</ele>
        <time>2017-11-11T13:00:40Z</time>
      </trkpt>
      <trkpt lat="51.736764" lon="39.347483">
        <ele>107.936</ele>
        <time>2017-11-11T13:00:46Z</time>
      </trkpt>
      <trkpt lat="51.736643" lon="39.347198">
        <ele>109.018</ele>
        <time>2017-11-11T13:00:51Z</time>
      </trkpt>
      <trkpt lat="51.736477" lon="39.346655">
        <ele>107.688</ele>
        <time>2017-11-11T13:00:57Z</time>
      </trkpt>
      <trkpt lat="51.736385" lon="39.346268">
        <ele>108.068</ele>
        <time>2017-11-11T13:01:02Z</time>
      </trkpt>
      <trkpt lat="51.736287" lon="39.345701">
        <ele>107.137</ele>
        <time>2017-11-11T13:01:08Z</time>
      </trkpt>
      <trkpt lat="51.736163" lon="39.34531">
        <ele>106.363</ele>
        <time>2017-11-11T13:01:13Z</time>
      </trkpt>
      <trkpt lat="51.735949" lon="39.344882">
        <ele>106.586</ele>
        <time>2017-11-11T13:01:19Z</time>
      </trkpt>
      <trkpt lat="51.735718" lon="39.344397">
        <ele>106.675</ele>
        <time>2017-11-11T13:01:25Z</time>
      </trkpt>
      <trkpt lat="51.735619" lon="39.344176">
        <ele>107.115</ele>
        <time>2017-11-11T13:01:28Z</time>
      </trkpt>
      <trkpt lat="51.73549" lon="39.343646">
        <ele>107.146</ele>
        <time>2017-11-11T13:01:34Z</time>
      </trkpt>
      <trkpt lat="51.735353" lon="39.343338">
        <ele>107.071</ele>
        <time>2017-11-11T13:01:38Z</time>
      </trkpt>
      <trkpt lat="51.735255" lon="39.343125">
        <ele>106.92</ele>
        <time>2017-11-11T13:01:41Z</time>
      </trkpt>
      <trkpt lat="51.735306" lon="39.342602">
        <ele>105.166</ele>
        <time>2017-11-11T13:01:47Z</time>
      </trkpt>
      <trkpt lat="51.735251" lon="39.342201">
        <ele>104.598</ele>
        <time>2017-11-11T13:01:52Z</time>
      </trkpt>
      <trkpt lat="51.735138" lon="39.341714">
        <ele>104.243</ele>
        <time>2017-11-11T13:01:57Z</time>
      </trkpt>
      <trkpt lat="51.735054" lon="39.341439">
        <ele>104.185</ele>
        <time>2017-11-11T13:02:00Z</time>
      </trkpt>
      <trkpt lat="51.734937" lon="39.341042">
        <ele>103.914</ele>
        <time>2017-11-11T13:02:05Z</time>
      </trkpt>
      <trkpt lat="51.734807" lon="39.340503">
        <ele>104.761</ele>
        <time>2017-11-11T13:02:11Z</time>
      </trkpt>
      <trkpt lat="51.73471" lon="39.340066">
        <ele>106.619</ele>
        <time>2017-11-11T13:02:16Z</time>
      </trkpt>
      <trkpt lat="51.734598" lon="39.339519">
        <ele>107.682</ele>
        <time>2017-11-11T13:02:22Z</time>
      </trkpt>
      <trkpt lat="51.734492" lon="39.339027">
        <ele>107.624</ele>
        <time>2017-11-11T13:02:27Z</time>
      </trkpt>
      <trkpt lat="51.734378" lon="39.338542">
        <ele>107.472</ele>
        <time>2017-11-11T13:02:32Z</time>
      </trkpt>
      <trkpt lat="51.734235" lon="39.337991">
        <ele>107.041</ele>
        <time>2017-11-11T13:02:38Z</time>
      </trkpt>
      <trkpt lat="51.734117" lon="39.337557">
        <ele>106.995</ele>
        <time>2017-11-11T13:02:43Z</time>
      </trkpt>
      <trkpt lat="51.734005" lon="39.337136">
        <ele>107.442</ele>
        <time>2017-11-11T13:02:48Z</time>
      </trkpt>
      <trkpt lat="51.733974" lon="39.336652">
        <ele>107.727</ele>
        <time>2017-11-11T13:02:54Z</time>
      </trkpt>
      <trkpt lat="51.734103" lon="39.336243">
        <ele>108.199</ele>
        <time>2017-11-11T13:02:59Z</time>
      </trkpt>
      <trkpt lat="51.734301" lon="39.33582">
        <ele>108.236</ele>
        <time>2017-11-11T13:03:04Z</time>
      </trkpt>
      <trkpt lat="51.734629" lon="39.335347">
        <ele>107.802</ele>
        <time>2017-11-11T13:03:10Z</time>
      </trkpt>
      <trkpt lat="51.734844" lon="39.334911">
        <ele>108.031</ele>
        <time>2017-11-11T13:03:16Z</time>
      </trkpt>
      <trkpt lat="51.734936" lon="39.334339">
        <ele>108.463</ele>
        <time>2017-11-11T13:03:22Z</time>
      </trkpt>
      <trkpt lat="51.734977" lon="39.33405">
        <ele>108.871</ele>
        <time>2017-11-11T13:03:25Z</time>
      </trkpt>
      <trkpt lat="51.735024" lon="39.333537">
        <ele>109.056</ele>
        <time>2017-11-11T13:03:30Z</time>
      </trkpt>
      <trkpt lat="51.734996" lon="39.333248">
        <ele>108.969</ele>
        <time>2017-11-11T13:03:33Z</time>
      </trkpt>
      <trkpt lat="51.734907" lon="39.33301">
        <ele>108.973</ele>
        <time>2017-11-11T13:03:36Z</time>
      </trkpt>
      <trkpt lat="51.734806" lon="39.332459">
        <ele>109.063</ele>
        <time>2017-11-11T13:03:42Z</time>
      </trkpt>
      <trkpt lat="51.734973" lon="39.331925">
        <ele>108.857</ele>
        <time>2017-11-11T13:03:48Z</time>
      </trkpt>
      <trkpt lat="51.735141" lon="39.331552">
        <ele>107.188</ele>
        <time>2017-11-11T13:03:53Z</time>
      </trkpt>
      <trkpt lat="51.735249" lon="39.331317">
        <ele>106.837</ele>
        <time>2017-11-11T13:03:56Z</time>
      </trkpt>
      <trkpt lat="51.735338" lon="39.330826">
        <ele>107.339</ele>
        <time>2017-11-11T13:04:02Z</time>
      </trkpt>
      <trkpt lat="51.735217" lon="39.33039">
        <ele>107.73</ele>
        <time>2017-11-11T13:04:08Z</time>
      </trkpt>
      <trkpt lat="51.73513" lon="39.330175">
        <ele>107.347</ele>
        <time>2017-11-11T13:04:12Z</time>
      </trkpt>
      <trkpt lat="51.734862" lon="39.330083">
        <ele>107.177</ele>
        <time>2017-11-11T13:04:19Z</time>
      </trkpt>
      <trkpt lat="51.7347" lon="39.329999">
        <ele>108.796</ele>
        <time>2017-11-11T13:04:26Z</time>
      </trkpt>
      <trkpt lat="51.734582" lon="39.32968">
        <ele>110.816</ele>
        <time>2017-11-11T13:04:31Z</time>
      </trkpt>
      <trkpt lat="51.734687" lon="39.329136">
        <ele>110.162</ele>
        <time>2017-11-11T13:04:37Z</time>
      </trkpt>
      <trkpt lat="51.734799" lon="39.328887">
        <ele>109.304</ele>
        <time>2017-11-11T13:04:40Z</time>
      </trkpt>
      <trkpt lat="51.734969" lon="39.328399">
        <ele>108.374</ele>
        <time>2017-11-11T13:04:46Z</time>
      </trkpt>
      <trkpt lat="51.735186" lon="39.328005">
        <ele>108.543</ele>
        <time>2017-11-11T13:04:52Z</time>
      </trkpt>
      <trkpt lat="51.735272" lon="39.327774">
        <ele>108.956</ele>
        <time>2017-11-11T13:04:55Z</time>
      </trkpt>
      <trkpt lat="51.73539" lon="39.327414">
        <ele>109.181</ele>
        <time>2017-11-11T13:05:00Z</time>
      </trkpt>
      <trkpt lat="51.735391" lon="39.326947">
        <ele>108.416</ele>
        <time>2017-11-11T13:05:06Z</time>
      </trkpt>
      <trkpt lat="51.735329" lon="39.326706">
        <ele>108.073</ele>
        <time>2017-11-11T13:05:10Z</time>
      </trkpt>
      <trkpt lat="51.735223" lon="39.326445">
        <ele>108.328</ele>
        <time>2017-11-11T13:05:17Z</time>
      </trkpt>
      <trkpt lat="51.7351" lon="39.326269">
        <ele>110.511</ele>
        <time>2017-11-11T13:05:22Z</time>
      </trkpt>
      <trkpt lat="51.7351" lon="39.326269">
        <ele>110.511</ele>
        <time>2017-11-11T13:05:28Z</time>
      </trkpt>
      <trkpt lat="51.7351" lon="39.326269">
        <time>2017-11-11T13:05:28Z</time>
      </trkpt>
    </trkseg>
    <trkseg>
      <trkpt lat="51.7351" lon="39.326269">
        <time>2017-11-11T13:05:44Z</time>
      </trkpt>
      <trkpt lat="51.734991" lon="39.325965">
        <ele>111.862</ele>
        <time>2017-11-11T13:05:44Z</time>
      </trkpt>
      <trkpt lat="51.73515" lon="39.325387">
        <ele>112.547</ele>
        <time>2017-11-11T13:06:00Z</time>
      </trkpt>
      <trkpt lat="51.73532" lon="39.325135">
        <ele>114.124</ele>
        <time>2017-11-11T13:06:11Z</time>
      </trkpt>
      <trkpt lat="51.735558" lon="39.324595">
        <ele>113.756</ele>
        <time>2017-11-11T13:06:17Z</time>
      </trkpt>
      <trkpt lat="51.735709" lon="39.324115">
        <ele>113.442</ele>
        <time>2017-11-11T13:06:22Z</time>
      </trkpt>
      <trkpt lat="51.735961" lon="39.323767">
        <ele>112.26</ele>
        <time>2017-11-11T13:06:27Z</time>
      </trkpt>
      <trkpt lat="51.736177" lon="39.323351">
        <ele>111.645</ele>
        <time>2017-11-11T13:06:33Z</time>
      </trkpt>
      <trkpt lat="51.736207" lon="39.322945">
        <ele>111.706</ele>
        <time>2017-11-11T13:06:38Z</time>
      </trkpt>
      <trkpt lat="51.736244" lon="39.322694">
        <ele>111.465</ele>
        <time>2017-11-11T13:06:42Z</time>
      </trkpt>
      <trkpt lat="51.736286" lon="39.322508">
        <ele>111.388</ele>
        <time>2017-11-11T13:06:45Z</time>
      </trkpt>
      <trkpt lat="51.736343" lon="39.322133">
        <ele>111.733</ele>
        <time>2017-11-11T13:06:51Z</time>
      </trkpt>
      <trkpt lat="51.736379" lon="39.321904">
        <ele>112.043</ele>
        <time>2017-11-11T13:06:55Z</time>
      </trkpt>
      <trkpt lat="51.736469" lon="39.321672">
        <ele>112.416</ele>
        <time>2017-11-11T13:07:02Z</time>
      </trkpt>
      <trkpt lat="51.736487" lon="39.321401">
        <ele>113.604</ele>
        <time>2017-11-11T13:07:08Z</time>
      </trkpt>
      <trkpt lat="51.736514" lon="39.320997">
        <ele>115.989</ele>
        <time>2017-11-11T13:07:14Z</time>
      </trkpt>
      <trkpt lat="51.736547" lon="39.320443">
        <ele>117.599</ele>
        <time>2017-11-11T13:07:22Z</time>
      </trkpt>
      <trkpt lat="51.736576" lon="39.319966">
        <ele>119.454</ele>
        <time>2017-11-11T13:07:29Z</time>
      </trkpt>
      <trkpt lat="51.736558" lon="39.319572">
        <ele>120.622</ele>
        <time>2017-11-11T13:07:34Z</time>
      </trkpt>
      <trkpt lat="51.736384" lon="39.319249">
        <ele>121.352</ele>
        <time>2017-11-11T13:07:40Z</time>
      </trkpt>
      <trkpt lat="51.736289" lon="39.319035">
        <ele>121.47</ele>
        <time>2017-11-11T13:07:43Z</time>
      </trkpt>
      <trkpt lat="51.73612" lon="39.318527">
        <ele>120.156</ele>
        <time>2017-11-11T13:07:49Z</time>
      </trkpt>
      <trkpt lat="51.736072" lon="39.318192">
        <ele>118.901</ele>
        <time>2017-11-11T13:07:53Z</time>
      </trkpt>
      <trkpt lat="51.736071" lon="39.317916">
        <ele>117.789</ele>
        <time>2017-11-11T13:07:56Z</time>
      </trkpt>
      <trkpt lat="51.736062" lon="39.317475">
        <ele>116.057</ele>
        <time>2017-11-11T13:08:01Z</time>
      </trkpt>
      <trkpt lat="51.735986" lon="39.316995">
        <ele>114.222</ele>
        <time>2017-11-11T13:08:07Z</time>
      </trkpt>
      <trkpt lat="51.73594" lon="39.316764">
        <ele>113.766</ele>
        <time>2017-11-11T13:08:10Z</time>
      </trkpt>
      <trkpt lat="51.735909" lon="39.316517">
        <ele>113.628</ele>
        <time>2017-11-11T13:08:13Z</time>
      </trkpt>
      <trkpt lat="51.735884" lon="39.316277">
        <ele>113.801</ele>
        <time>2017-11-11T13:08:16Z</time>
      </trkpt>
      <trkpt lat="51.7359" lon="39.315737">
        <ele>113.987</ele>
        <time>2017-11-11T13:08:23Z</time>
      </trkpt>
      <trkpt lat="51.735925" lon="39.315439">
        <ele>113.885</ele>
        <time>2017-11-11T13:08:28Z</time>
      </trkpt>
      <trkpt lat="51.735862" lon="39.315044">
        <ele>114.223</ele>
        <time>2017-11-11T13:08:34Z</time>
      </trkpt>
      <trkpt lat="51.735721" lon="39.314786">
        <ele>115.004</ele>
        <time>2017-11-11T13:08:39Z</time>
      </trkpt>
      <trkpt lat="51.735732" lon="39.314555">
        <ele>115.303</ele>
        <time>2017-11-11T13:08:42Z</time>
      </trkpt>
      <trkpt lat="51.735726" lon="39.314279">
        <ele>115.858</ele>
        <time>2017-11-11T13:08:46Z</time>
      </trkpt>
      <trkpt lat="51.735646" lon="39.313907">
        <ele>115.675</ele>
        <time>2017-11-11T13:08:51Z</time>
      </trkpt>
      <trkpt lat="51.735592" lon="39.313656">
        <ele>115.239</ele>
        <time>2017-11-11T13:08:54Z</time>
      </trkpt>
      <trkpt lat="51.735542" lon="39.31324">
        <ele>114.379</ele>
        <time>2017-11-11T13:08:59Z</time>
      </trkpt>
      <trkpt lat="51.735477" lon="39.312812">
        <ele>114.988</ele>
        <time>2017-11-11T13:09:05Z</time>
      </trkpt>
      <trkpt lat="51.735441" lon="39.312411">
        <ele>116.518</ele>
        <time>2017-11-11T13:09:10Z</time>
      </trkpt>
      <trkpt lat="51.735435" lon="39.312186">
        <ele>117.382</ele>
        <time>2017-11-11T13:09:13Z</time>
      </trkpt>
      <trkpt lat="51.735383" lon="39.311811">
        <ele>118.631</ele>
        <time>2017-11-11T13:09:18Z</time>
      </trkpt>
      <trkpt lat="51.735311" lon="39.311312">
        <ele>118.021</ele>
        <time>2017-11-11T13:09:24Z</time>
      </trkpt>
      <trkpt lat="51.735224" lon="39.310977">
        <ele>117.535</ele>
        <time>2017-11-11T13:09:29Z</time>
      </trkpt>
      <trkpt lat="51.735144" lon="39.310521">
        <ele>117.764</ele>
        <time>2017-11-11T13:09:35Z</time>
      </trkpt>
      <trkpt lat="51.735094" lon="39.31017">
        <ele>118.069</ele>
        <time>2017-11-11T13:09:40Z</time>
      </trkpt>
      <trkpt lat="51.735053" lon="39.309796">
        <ele>118.309</ele>
        <time>2017-11-11T13:09:47Z</time>
      </trkpt>
      <trkpt lat="51.734984" lon="39.309108">
        <ele>121.779</ele>
        <time>2017-11-11T13:09:55Z</time>
      </trkpt>
      <trkpt lat="51.734945" lon="39.308666">
        <ele>123.834</ele>
        <time>2017-11-11T13:10:00Z</time>
      </trkpt>
      <trkpt lat="51.73492" lon="39.3084">
        <ele>124.177</ele>
        <time>2017-11-11T13:10:03Z</time>
      </trkpt>
      <trkpt lat="51.734896" lon="39.308158">
        <ele>123.918</ele>
        <time>2017-11-11T13:10:06Z</time>
      </trkpt>
      <trkpt lat="51.734855" lon="39.307782">
        <ele>123.374</ele>
        <time>2017-11-11T13:10:11Z</time>
      </trkpt>
      <trkpt lat="51.734786" lon="39.307278">
        <ele>123.762</ele>
        <time>2017-11-11T13:10:17Z</time>
      </trkpt>
      <trkpt lat="51.734763" lon="39.307018">
        <ele>123.881</ele>
        <time>2017-11-11T13:10:20Z</time>
      </trkpt>
      <trkpt lat="51.734694" lon="39.306509">
        <ele>124.63</ele>
        <time>2017-11-11T13:10:26Z</time>
      </trkpt>
      <trkpt lat="51.734643" lon="39.306274">
        <ele>124.859</ele>
        <time>2017-11-11T13:10:29Z</time>
      </trkpt>
      <trkpt lat="51.734611" lon="39.306021">
        <ele>124.907</ele>
        <time>2017-11-11T13:10:32Z</time>
      </trkpt>
      <trkpt lat="51.734563" lon="39.305566">
        <ele>125.124</ele>
        <time>2017-11-11T13:10:38Z</time>
      </trkpt>
      <trkpt lat="51.734514" lon="39.305272">
        <ele>125.159</ele>
        <time>2017-11-11T13:10:42Z</time>
      </trkpt>
      <trkpt lat="51.734484" lon="39.305025">
        <ele>125.21</ele>
        <time>2017-11-11T13:10:45Z</time>
      </trkpt>
      <trkpt lat="51.734407" lon="39.304616">
        <ele>124.13</ele>
        <time>2017-11-11T13:10:50Z</time>
      </trkpt>
      <trkpt lat="51.734362" lon="39.304071">
        <ele>123.731</ele>
        <time>2017-11-11T13:10:56Z</time>
      </trkpt>
      <trkpt lat="51.734281" lon="39.303495">
        <ele>123.593</ele>
        <time>2017-11-11T13:11:02Z</time>
      </trkpt>
      <trkpt lat="51.734261" lon="39.303054">
        <ele>123.823</ele>
        <time>2017-11-11T13:11:07Z</time>
      </trkpt>
      <trkpt lat="51.734248" lon="39.302793">
        <ele>123.217</ele>
        <time>2017-11-11T13:11:10Z</time>
      </trkpt>
      <trkpt lat="51.734234" lon="39.302361">
        <ele>122.785</ele>
        <time>2017-11-11T13:11:16Z</time>
      </trkpt>
      <trkpt lat="51.734171" lon="39.30186">
        <ele>125.865</ele>
        <time>2017-11-11T13:11:23Z</time>
      </trkpt>
      <trkpt lat="51.734071" lon="39.301315">
        <ele>127.471</ele>
        <time>2017-11-11T13:11:29Z</time>
      </trkpt>
      <trkpt lat="51.733996" lon="39.300862">
        <ele>126.75</ele>
        <time>2017-11-11T13:11:34Z</time>
      </trkpt>
      <trkpt lat="51.733941" lon="39.300449">
        <ele>125.717</ele>
        <time>2017-11-11T13:11:39Z</time>
      </trkpt>
      <trkpt lat="51.733884" lon="39.300034">
        <ele>123.99</ele>
        <time>2017-11-11T13:11:44Z</time>
      </trkpt>
      <trkpt lat="51.73386" lon="39.299804">
        <ele>123.196</ele>
        <time>2017-11-11T13:11:47Z</time>
      </trkpt>
      <trkpt lat="51.733798" lon="39.299327">
        <ele>122.251</ele>
        <time>2017-11-11T13:11:53Z</time>
      </trkpt>
      <trkpt lat="51.733774" lon="39.299065">
        <ele>122.256</ele>
        <time>2017-11-11T13:11:56Z</time>
      </trkpt>
      <trkpt lat="51.733698" lon="39.298548">
        <ele>122.661</ele>
        <time>2017-11-11T13:12:02Z</time>
      </trkpt>
      <trkpt lat="51.733653" lon="39.298173">
        <ele>122.381</ele>
        <time>2017-11-11T13:12:07Z</time>
      </trkpt>
      <trkpt lat="51.73359" lon="39.297689">
        <ele>122.023</ele>
        <time>2017-11-11T13:12:13Z</time>
      </trkpt>
      <trkpt lat="51.733506" lon="39.297429">
        <ele>121.408</ele>
        <time>2017-11-11T13:12:16Z</time>
      </trkpt>
      <trkpt lat="51.733447" lon="39.296972">
        <ele>119.771</ele>
        <time>2017-11-11T13:12:21Z</time>
      </trkpt>
      <trkpt lat="51.733414" lon="39.296562">
        <ele>118.136</ele>
        <time>2017-11-11T13:12:26Z</time>
      </trkpt>
      <trkpt lat="51.73334" lon="39.295995">
        <ele>118.825</ele>
        <time>2017-11-11T13:12:33Z</time>
      </trkpt>
      <trkpt lat="51.733259" lon="39.295489">
        <ele>120.143</ele>
        <time>2017-11-11T13:12:39Z</time>
      </trkpt>
      <trkpt lat="51.733224" lon="39.295237">
        <ele>120.572</ele>
        <time>2017-11-11T13:12:42Z</time>
      </trkpt>
      <trkpt lat="51.733144" lon="39.29472">
        <ele>121.014</ele>
        <time>2017-11-11T13:12:48Z</time>
      </trkpt>
      <trkpt lat="51.73308" lon="39.294289">
        <ele>120.767</ele>
        <time>2017-11-11T13:12:53Z</time>
      </trkpt>
      <trkpt lat="51.73301" lon="39.293843">
        <ele>120.02</ele>
        <time>2017-11-11T13:12:58Z</time>
      </trkpt>
      <trkpt lat="51.732954" lon="39.293419">
        <ele>118.669</ele>
        <time>2017-11-11T13:13:03Z</time>
      </trkpt>
      <trkpt lat="51.732882" lon="39.292892">
        <ele>117.869</ele>
        <time>2017-11-11T13:13:09Z</time>
      </trkpt>
      <trkpt lat="51.732823" lon="39.292452">
        <ele>118.168</ele>
        <time>2017-11-11T13:13:14Z</time>
      </trkpt>
      <trkpt lat="51.732787" lon="39.292182">
        <ele>118.42</ele>
        <time>2017-11-11T13:13:17Z</time>
      </trkpt>
      <trkpt lat="51.732717" lon="39.291631">
        <ele>119.266</ele>
        <time>2017-11-11T13:13:23Z</time>
      </trkpt>
      <trkpt lat="51.732673" lon="39.291046">
        <ele>119.658</ele>
        <time>2017-11-11T13:13:29Z</time>
      </trkpt>
      <trkpt lat="51.732564" lon="39.290241">
        <ele>120.145</ele>
        <time>2017-11-11T13:13:38Z</time>
      </trkpt>
      <trkpt lat="51.732491" lon="39.289735">
        <ele>120.39</ele>
        <time>2017-11-11T13:13:44Z</time>
      </trkpt>
      <trkpt lat="51.732458" lon="39.289493">
        <ele>120.704</ele>
        <time>2017-11-11T13:13:47Z</time>
      </trkpt>
      <trkpt lat="51.732426" lon="39.289239">
        <ele>121.46</ele>
        <time>2017-11-11T13:13:50Z</time>
      </trkpt>
      <trkpt lat="51.732362" lon="39.288651">
        <ele>121.944</ele>
        <time>2017-11-11T13:13:56Z</time>
      </trkpt>
      <trkpt lat="51.732293" lon="39.288309">
        <ele>121.508</ele>
        <time>2017-11-11T13:13:59Z</time>
      </trkpt>
      <trkpt lat="51.732227" lon="39.287675">
        <ele>119.75</ele>
        <time>2017-11-11T13:14:05Z</time>
      </trkpt>
      <trkpt lat="51.732154" lon="39.287046">
        <ele>117.882</ele>
        <time>2017-11-11T13:14:11Z</time>
      </trkpt>
      <trkpt lat="51.732072" lon="39.286432">
        <ele>116.579</ele>
        <time>2017-11-11T13:14:17Z</time>
      </trkpt>
      <trkpt lat="51.731999" lon="39.285884">
        <ele>116.811</ele>
        <time>2017-11-11T13:14:23Z</time>
      </trkpt>
      <trkpt lat="51.731955" lon="39.285597">
        <ele>117.313</ele>
        <time>2017-11-11T13:14:26Z</time>
      </trkpt>
      <trkpt lat="51.731923" lon="39.285308">
        <ele>117.346</ele>
        <time>2017-11-11T13:14:29Z</time>
      </trkpt>
      <trkpt lat="51.731859" lon="39.284701">
        <ele>118.317</ele>
        <time>2017-11-11T13:14:35Z</time>
      </trkpt>
      <trkpt lat="51.73185" lon="39.284167">
        <ele>119.205</ele>
        <time>2017-11-11T13:14:41Z</time>
      </trkpt>
      <trkpt lat="51.731827" lon="39.28392">
        <ele>119.363</ele>
        <time>2017-11-11T13:14:44Z</time>
      </trkpt>
      <trkpt lat="51.731809" lon="39.283657">
        <ele>119.78</ele>
        <time>2017-11-11T13:14:47Z</time>
      </trkpt>
      <trkpt lat="51.731807" lon="39.283178">
        <ele>120.143</ele>
        <time>2017-11-11T13:14:53Z</time>
      </trkpt>
      <trkpt lat="51.731699" lon="39.282704">
        <ele>120.929</ele>
        <time>2017-11-11T13:14:59Z</time>
      </trkpt>
      <trkpt lat="51.731634" lon="39.282289">
        <ele>122.633</ele>
        <time>2017-11-11T13:15:05Z</time>
      </trkpt>
      <trkpt lat="51.731557" lon="39.281758">
        <ele>123.386</ele>
        <time>2017-11-11T13:15:11Z</time>
      </trkpt>
      <trkpt lat="51.731507" lon="39.281475">
        <ele>123.25</ele>
        <time>2017-11-11T13:15:15Z</time>
      </trkpt>
      <trkpt lat="51.731485" lon="39.281116">
        <ele>123.566</ele>
        <time>2017-11-11T13:15:21Z</time>
      </trkpt>
      <trkpt lat="51.731429" lon="39.280656">
        <ele>123.753</ele>
        <time>2017-11-11T13:15:26Z</time>
      </trkpt>
      <trkpt lat="51.731378" lon="39.280186">
        <ele>124.643</ele>
        <time>2017-11-11T13:15:31Z</time>
      </trkpt>
      <trkpt lat="51.731293" lon="39.279624">
        <ele>122.179</ele>
        <time>2017-11-11T13:15:37Z</time>
      </trkpt>
      <trkpt lat="51.731378" lon="39.279226">
        <ele>119.013</ele>
        <time>2017-11-11T13:15:43Z</time>
      </trkpt>
      <trkpt lat="51.731429" lon="39.278796">
        <ele>116.672</ele>
        <time>2017-11-11T13:15:49Z</time>
      </trkpt>
      <trkpt lat="51.731329" lon="39.278133">
        <ele>116.265</ele>
        <time>2017-11-11T13:15:56Z</time>
      </trkpt>
      <trkpt lat="51.731232" lon="39.277557">
        <ele>115.373</ele>
        <time>2017-11-11T13:16:02Z</time>
      </trkpt>
      <trkpt lat="51.731153" lon="39.27693">
        <ele>115.348</ele>
        <time>2017-11-11T13:16:09Z</time>
      </trkpt>
      <trkpt lat="51.731071" lon="39.276492">
        <ele>114.951</ele>
        <time>2017-11-11T13:16:14Z</time>
      </trkpt>
      <trkpt lat="51.730973" lon="39.275914">
        <ele>115.614</ele>
        <time>2017-11-11T13:16:21Z</time>
      </trkpt>
      <trkpt lat="51.73088" lon="39.275429">
        <ele>115.051</ele>
        <time>2017-11-11T13:16:26Z</time>
      </trkpt>
      <trkpt lat="51.730757" lon="39.274869">
        <ele>114.044</ele>
        <time>2017-11-11T13:16:31Z</time>
      </trkpt>
      <trkpt lat="51.730637" lon="39.274173">
        <ele>111.911</ele>
        <time>2017-11-11T13:16:37Z</time>
      </trkpt>
      <trkpt lat="51.73057" lon="39.273791">
        <ele>110.398</ele>
        <time>2017-11-11T13:16:40Z</time>
      </trkpt>
      <trkpt lat="51.730458" lon="39.273178">
        <ele>107.47</ele>
        <time>2017-11-11T13:16:45Z</time>
      </trkpt>
      <trkpt lat="51.730327" lon="39.272524">
        <ele>106.137</ele>
        <time>2017-11-11T13:16:51Z</time>
      </trkpt>
      <trkpt lat="51.730209" lon="39.271943">
        <ele>108.205</ele>
        <time>2017-11-11T13:16:57Z</time>
      </trkpt>
      <trkpt lat="51.730046" lon="39.271448">
        <ele>110.78</ele>
        <time>2017-11-11T13:17:03Z</time>
      </trkpt>
      <trkpt lat="51.729964" lon="39.271191">
        <ele>111.576</ele>
        <time>2017-11-11T13:17:06Z</time>
      </trkpt>
      <trkpt lat="51.729819" lon="39.270766">
        <ele>112.747</ele>
        <time>2017-11-11T13:17:11Z</time>
      </trkpt>
      <trkpt lat="51.72964" lon="39.270248">
        <ele>113.44</ele>
        <time>2017-11-11T13:17:17Z</time>
      </trkpt>
      <trkpt lat="51.729464" lon="39.269714">
        <ele>113.985</ele>
        <time>2017-11-11T13:17:23Z</time>
      </trkpt>
      <trkpt lat="51.729295" lon="39.269176">
        <ele>112.703</ele>
        <time>2017-11-11T13:17:29Z</time>
      </trkpt>
      <trkpt lat="51.729156" lon="39.268709">
        <ele>113.488</ele>
        <time>2017-11-11T13:17:35Z</time>
      </trkpt>
      <trkpt lat="51.728984" lon="39.268204">
        <ele>112.516</ele>
        <time>2017-11-11T13:17:41Z</time>
      </trkpt>
      <trkpt lat="51.728906" lon="39.267895">
        <ele>112.085</ele>
        <time>2017-11-11T13:17:44Z</time>
      </trkpt>
      <trkpt lat="51.728743" lon="39.267349">
        <ele>110.418</ele>
        <time>2017-11-11T13:17:50Z</time>
      </trkpt>
      <trkpt lat="51.728658" lon="39.267024">
        <ele>109.437</ele>
        <time>2017-11-11T13:17:53Z</time>
      </trkpt>
      <trkpt lat="51.728507" lon="39.266464">
        <ele>107.527</ele>
        <time>2017-11-11T13:17:59Z</time>
      </trkpt>
      <trkpt lat="51.728359" lon="39.265939">
        <ele>106.239</ele>
        <time>2017-11-11T13:18:05Z</time>
      </trkpt>
      <trkpt lat="51.72822" lon="39.265488">
        <ele>107.444</ele>
        <time>2017-11-11T13:18:11Z</time>
      </trkpt>
      <trkpt lat="51.72809" lon="39.265056">
        <ele>108.303</ele>
        <time>2017-11-11T13:18:16Z</time>
      </trkpt>
      <trkpt lat="51.728017" lon="39.264807">
        <ele>108.724</ele>
        <time>2017-11-11T13:18:19Z</time>
      </trkpt>
      <trkpt lat="51.727891" lon="39.264399">
        <ele>108.767</ele>
        <time>2017-11-11T13:18:24Z</time>
      </trkpt>
      <trkpt lat="51.727848" lon="39.26405">
        <ele>109.326</ele>
        <time>2017-11-11T13:18:30Z</time>
      </trkpt>
      <trkpt lat="51.727641" lon="39.263508">
        <ele>109.987</ele>
        <time>2017-11-11T13:18:37Z</time>
      </trkpt>
      <trkpt lat="51.72753" lon="39.26313">
        <ele>107.9</ele>
        <time>2017-11-11T13:18:42Z</time>
      </trkpt>
      <trkpt lat="51.727421" lon="39.262759">
        <ele>105.981</ele>
        <time>2017-11-11T13:18:48Z</time>
      </trkpt>
      <trkpt lat="51.727354" lon="39.26251">
        <ele>105.356</ele>
        <time>2017-11-11T13:18:53Z</time>
      </trkpt>
      <trkpt lat="51.727244" lon="39.262122">
        <ele>107.219</ele>
        <time>2017-11-11T13:18:59Z</time>
      </trkpt>
      <trkpt lat="51.727122" lon="39.261723">
        <ele>108.514</ele>
        <time>2017-11-11T13:19:06Z</time>
      </trkpt>
      <trkpt lat="51.727132" lon="39.261295">
        <ele>109.285</ele>
        <time>2017-11-11T13:19:13Z</time>
      </trkpt>
      <trkpt lat="51.727069" lon="39.260929">
        <ele>110.266</ele>
        <time>2017-11-11T13:19:19Z</time>
      </trkpt>
      <trkpt lat="51.727048" lon="39.260627">
        <ele>111.263</ele>
        <time>2017-11-11T13:19:28Z</time>
      </trkpt>
      <trkpt lat="51.72701" lon="39.260051">
        <ele>114.433</ele>
        <time>2017-11-11T13:19:36Z</time>
      </trkpt>
      <trkpt lat="51.726905" lon="39.2596">
        <ele>115.781</ele>
        <time>2017-11-11T13:19:42Z</time>
      </trkpt>
      <trkpt lat="51.726876" lon="39.259205">
        <ele>115.08</ele>
        <time>2017-11-11T13:19:49Z</time>
      </trkpt>
      <trkpt lat="51.726832" lon="39.258785">
        <ele>114.531</ele>
        <time>2017-11-11T13:19:56Z</time>
      </trkpt>
      <trkpt lat="51.726768" lon="39.25845">
        <ele>114.428</ele>
        <time>2017-11-11T13:20:01Z</time>
      </trkpt>
      <trkpt lat="51.726632" lon="39.258125">
        <ele>114.478</ele>
        <time>2017-11-11T13:20:08Z</time>
      </trkpt>
      <trkpt lat="51.726483" lon="39.257802">
        <ele>114.704</ele>
        <time>2017-11-11T13:20:16Z</time>
      </trkpt>
      <trkpt lat="51.726311" lon="39.257577">
        <ele>115.299</ele>
        <time>2017-11-11T13:20:27Z</time>
      </trkpt>
      <trkpt lat="51.72611" lon="39.25739">
        <ele>116.311</ele>
        <time>2017-11-11T13:20:36Z</time>
      </trkpt>
      <trkpt lat="51.725805" lon="39.257362">
        <ele>118.526</ele>
        <time>2017-11-11T13:20:44Z</time>
      </trkpt>
      <trkpt lat="51.725577" lon="39.257407">
        <ele>119.045</ele>
        <time>2017-11-11T13:20:49Z</time>
      </trkpt>
      <trkpt lat="51.72533" lon="39.257518">
        <ele>119.014</ele>
        <time>2017-11-11T13:20:56Z</time>
      </trkpt>
      <trkpt lat="51.72518" lon="39.2576">
        <ele>118.106</ele>
        <time>2017-11-11T13:21:11Z</time>
      </trkpt>
      <trkpt lat="51.724991" lon="39.257618">
        <ele>118.332</ele>
        <time>2017-11-11T13:21:43Z</time>
      </trkpt>
      <trkpt lat="51.724886" lon="39.257458">
        <ele>120.208</ele>
        <time>2017-11-11T13:21:58Z</time>
      </trkpt>
      <trkpt lat="51.724671" lon="39.257081">
        <ele>122.097</ele>
        <time>2017-11-11T13:22:19Z</time>
      </trkpt>
      <trkpt lat="51.724454" lon="39.256525">
        <ele>122.73</ele>
        <time>2017-11-11T13:22:32Z</time>
      </trkpt>
      <trkpt lat="51.724419" lon="39.256263">
        <ele>122.979</ele>
        <time>2017-11-11T13:22:39Z</time>
      </trkpt>
      <trkpt lat="51.724359" lon="39.255946">
        <ele>122.452</ele>
        <time>2017-11-11T13:22:51Z</time>
      </trkpt>
      <trkpt lat="51.724084" lon="39.255335">
        <ele>122.146</ele>
        <time>2017-11-11T13:23:07Z</time>
      </trkpt>
      <trkpt lat="51.723989" lon="39.255009">
        <ele>121.443</ele>
        <time>2017-11-11T13:23:12Z</time>
      </trkpt>
      <trkpt lat="51.723854" lon="39.254678">
        <ele>116.884</ele>
        <time>2017-11-11T13:23:18Z</time>
      </trkpt>
      <trkpt lat="51.723786" lon="39.254286">
        <ele>117.065</ele>
        <time>2017-11-11T13:23:24Z</time>
      </trkpt>
      <trkpt lat="51.723664" lon="39.253785">
        <ele>113.626</ele>
        <time>2017-11-11T13:23:30Z</time>
      </trkpt>
      <trkpt lat="51.723574" lon="39.253455">
        <ele>111.156</ele>
        <time>2017-11-11T13:23:34Z</time>
      </trkpt>
      <trkpt lat="51.723522" lon="39.253225">
        <ele>110.639</ele>
        <time>2017-11-11T13:23:37Z</time>
      </trkpt>
      <trkpt lat="51.723396" lon="39.252822">
        <ele>110.893</ele>
        <time>2017-11-11T13:23:43Z</time>
      </trkpt>
      <trkpt lat="51.723272" lon="39.252367">
        <ele>108.879</ele>
        <time>2017-11-11T13:23:49Z</time>
      </trkpt>
      <trkpt lat="51.723212" lon="39.251945">
        <ele>107.559</ele>
        <time>2017-11-11T13:23:54Z</time>
      </trkpt>
      <trkpt lat="51.72314" lon="39.251534">
        <ele>106.564</ele>
        <time>2017-11-11T13:24:00Z</time>
      </trkpt>
      <trkpt lat="51.723101" lon="39.251133">
        <ele>106.95</ele>
        <time>2017-11-11T13:24:06Z</time>
      </trkpt>
      <trkpt lat="51.723096" lon="39.250666">
        <ele>108.493</ele>
        <time>2017-11-11T13:24:12Z</time>
      </trkpt>
      <trkpt lat="51.72305" lon="39.250246">
        <ele>107.309</ele>
        <time>2017-11-11T13:24:17Z</time>
      </trkpt>
      <trkpt lat="51.722997" lon="39.249794">
        <ele>107.27</ele>
        <time>2017-11-11T13:24:23Z</time>
      </trkpt>
      <trkpt lat="51.722946" lon="39.249423">
        <ele>107.505</ele>
        <time>2017-11-11T13:24:28Z</time>
      </trkpt>
      <trkpt lat="51.722935" lon="39.249192">
        <ele>107.681</ele>
        <time>2017-11-11T13:24:32Z</time>
      </trkpt>
      <trkpt lat="51.722925" lon="39.249063">
        <ele>107.814</ele>
        <time>2017-11-11T13:24:36Z</time>
      </trkpt>
      <trkpt lat="51.722925" lon="39.249063">
        <ele>107.814</ele>
        <time>2017-11-11T13:24:41Z</time>
      </trkpt>
      <trkpt lat="51.722925" lon="39.249063">
        <time>2017-11-11T13:24:41Z</time>
      </trkpt>
    </trkseg>
    <trkseg>
      <trkpt lat="51.722925" lon="39.249063">
        <time>2017-11-11T13:24:55Z</time>
      </trkpt>
      <trkpt lat="51.722873" lon="39.248815">
        <ele>109.375</ele>
        <time>2017-11-11T13:24:55Z</time>
      </trkpt>
      <trkpt lat="51.722734" lon="39.248397">
        <ele>111.301</ele>
        <time>2017-11-11T13:25:06Z</time>
      </trkpt>
      <trkpt lat="51.722643" lon="39.248076">
        <ele>112.007</ele>
        <time>2017-11-11T13:25:11Z</time>
      </trkpt>
      <trkpt lat="51.722587" lon="39.247835">
        <ele>112.487</ele>
        <time>2017-11-11T13:25:17Z</time>
      </trkpt>
      <trkpt lat="51.722513" lon="39.247575">
        <ele>113.132</ele>
        <time>2017-11-11T13:25:22Z</time>
      </trkpt>
      <trkpt lat="51.722416" lon="39.247324">
        <ele>113.162</ele>
        <time>2017-11-11T13:25:27Z</time>
      </trkpt>
      <trkpt lat="51.722375" lon="39.247085">
        <ele>113.166</ele>
        <time>2017-11-11T13:25:32Z</time>
      </trkpt>
      <trkpt lat="51.722251" lon="39.246676">
        <ele>112.757</ele>
        <time>2017-11-11T13:25:39Z</time>
      </trkpt>
      <trkpt lat="51.722245" lon="39.246626">
        <ele>112.718</ele>
        <time>2017-11-11T13:25:41Z</time>
      </trkpt>
      <trkpt lat="51.722245" lon="39.246626">
        <time>2017-11-11T13:25:46Z</time>
      </trkpt>
    </trkseg>
    <trkseg>
      <trkpt lat="51.722245" lon="39.246626">
        <time>2017-11-11T13:27:11Z</time>
      </trkpt>
      <trkpt lat="51.722355" lon="39.246262">
        <ele>110.575</ele>
        <time>2017-11-11T13:27:11Z</time>
      </trkpt>
      <trkpt lat="51.722398" lon="39.245789">
        <ele>107.134</ele>
        <time>2017-11-11T13:27:17Z</time>
      </trkpt>
      <trkpt lat="51.722272" lon="39.24533">
        <ele>105.219</ele>
        <time>2017-11-11T13:27:23Z</time>
      </trkpt>
      <trkpt lat="51.72218" lon="39.244984">
        <ele>103.224</ele>
        <time>2017-11-11T13:27:28Z</time>
      </trkpt>
      <trkpt lat="51.722008" lon="39.244675">
        <ele>102.626</ele>
        <time>2017-11-11T13:27:34Z</time>
      </trkpt>
      <trkpt lat="51.721858" lon="39.244437">
        <ele>102.997</ele>
        <time>2017-11-11T13:27:40Z</time>
      </trkpt>
      <trkpt lat="51.721699" lon="39.244022">
        <ele>105.035</ele>
        <time>2017-11-11T13:27:47Z</time>
      </trkpt>
      <trkpt lat="51.721618" lon="39.243689">
        <ele>105.134</ele>
        <time>2017-11-11T13:27:52Z</time>
      </trkpt>
      <trkpt lat="51.721569" lon="39.243567">
        <ele>105.259</ele>
        <time>2017-11-11T13:27:55Z</time>
      </trkpt>
      <trkpt lat="51.721447" lon="39.243272">
        <ele>105.685</ele>
        <time>2017-11-11T13:28:01Z</time>
      </trkpt>
      <trkpt lat="51.721246" lon="39.242853">
        <ele>107.446</ele>
        <time>2017-11-11T13:28:09Z</time>
      </trkpt>
      <trkpt lat="51.721049" lon="39.242493">
        <ele>106.765</ele>
        <time>2017-11-11T13:28:15Z</time>
      </trkpt>
      <trkpt lat="51.720893" lon="39.242177">
        <ele>106.241</ele>
        <time>2017-11-11T13:28:21Z</time>
      </trkpt>
      <trkpt lat="51.720801" lon="39.241758">
        <ele>105.439</ele>
        <time>2017-11-11T13:28:28Z</time>
      </trkpt>
      <trkpt lat="51.720929" lon="39.241391">
        <ele>104.867</ele>
        <time>2017-11-11T13:28:34Z</time>
      </trkpt>
      <trkpt lat="51.720955" lon="39.241101">
        <ele>103.725</ele>
        <time>2017-11-11T13:28:39Z</time>
      </trkpt>
      <trkpt lat="51.720848" lon="39.24082">
        <ele>102.46</ele>
        <time>2017-11-11T13:28:44Z</time>
      </trkpt>
      <trkpt lat="51.720885" lon="39.240503">
        <ele>102.34</ele>
        <time>2017-11-11T13:28:50Z</time>
      </trkpt>
      <trkpt lat="51.720893" lon="39.240176">
        <ele>102.558</ele>
        <time>2017-11-11T13:28:58Z</time>
      </trkpt>
      <trkpt lat="51.721053" lon="39.239916">
        <ele>103.439</ele>
        <time>2017-11-11T13:29:06Z</time>
      </trkpt>
      <trkpt lat="51.721303" lon="39.2398">
        <ele>103.259</ele>
        <time>2017-11-11T13:29:11Z</time>
      </trkpt>
      <trkpt lat="51.721564" lon="39.239584">
        <ele>104.798</ele>
        <time>2017-11-11T13:29:17Z</time>
      </trkpt>
      <trkpt lat="51.721794" lon="39.239411">
        <ele>107.186</ele>
        <time>2017-11-11T13:29:22Z</time>
      </trkpt>
      <trkpt lat="51.721989" lon="39.239243">
        <ele>107.629</ele>
        <time>2017-11-11T13:29:28Z</time>
      </trkpt>
      <trkpt lat="51.722178" lon="39.239093">
        <ele>107.562</ele>
        <time>2017-11-11T13:29:34Z</time>
      </trkpt>
      <trkpt lat="51.722314" lon="39.23865">
        <ele>108.216</ele>
        <time>2017-11-11T13:29:42Z</time>
      </trkpt>
      <trkpt lat="51.722377" lon="39.238323">
        <ele>110.451</ele>
        <time>2017-11-11T13:29:47Z</time>
      </trkpt>
      <trkpt lat="51.72242" lon="39.237878">
        <ele>112.66</ele>
        <time>2017-11-11T13:29:53Z</time>
      </trkpt>
      <trkpt lat="51.722527" lon="39.237374">
        <ele>112.79</ele>
        <time>2017-11-11T13:30:00Z</time>
      </trkpt>
      <trkpt lat="51.722477" lon="39.237226">
        <ele>112.454</ele>
        <time>2017-11-11T13:30:07Z</time>
      </trkpt>
      <trkpt lat="51.722158" lon="39.236905">
        <ele>111.2</ele>
        <time>2017-11-11T13:30:18Z</time>
      </trkpt>
      <trkpt lat="51.721971" lon="39.23675">
        <ele>112.253</ele>
        <time>2017-11-11T13:30:23Z</time>
      </trkpt>
      <trkpt lat="51.721759" lon="39.236525">
        <ele>115.239</ele>
        <time>2017-11-11T13:30:29Z</time>
      </trkpt>
      <trkpt lat="51.721578" lon="39.236299">
        <ele>118.525</ele>
        <time>2017-11-11T13:30:34Z</time>
      </trkpt>
      <trkpt lat="51.721361" lon="39.236123">
        <ele>123.028</ele>
        <time>2017-11-11T13:30:40Z</time>
      </trkpt>
      <trkpt lat="51.721195" lon="39.235862">
        <ele>123.82</ele>
        <time>2017-11-11T13:30:45Z</time>
      </trkpt>
      <trkpt lat="51.720978" lon="39.235552">
        <ele>129.939</ele>
        <time>2017-11-11T13:30:51Z</time>
      </trkpt>
      <trkpt lat="51.720744" lon="39.235292">
        <ele>129.18</ele>
        <time>2017-11-11T13:30:56Z</time>
      </trkpt>
      <trkpt lat="51.720449" lon="39.235173">
        <ele>124.575</ele>
        <time>2017-11-11T13:31:02Z</time>
      </trkpt>
      <trkpt lat="51.720222" lon="39.235132">
        <ele>125.627</ele>
        <time>2017-11-11T13:31:07Z</time>
      </trkpt>
      <trkpt lat="51.720004" lon="39.235072">
        <ele>125.832</ele>
        <time>2017-11-11T13:31:12Z</time>
      </trkpt>
      <trkpt lat="51.71972" lon="39.235104">
        <ele>126.337</ele>
        <time>2017-11-11T13:31:18Z</time>
      </trkpt>
      <trkpt lat="51.719504" lon="39.235163">
        <ele>127.095</ele>
        <time>2017-11-11T13:31:23Z</time>
      </trkpt>
      <trkpt lat="51.719245" lon="39.235217">
        <ele>128.726</ele>
        <time>2017-11-11T13:31:31Z</time>
      </trkpt>
      <trkpt lat="51.719022" lon="39.235148">
        <ele>129.927</ele>
        <time>2017-11-11T13:31:37Z</time>
      </trkpt>
      <trkpt lat="51.718885" lon="39.235171">
        <ele>131.184</ele>
        <time>2017-11-11T13:31:43Z</time>
      </trkpt>
      <trkpt lat="51.718695" lon="39.235358">
        <ele>132.692</ele>
        <time>2017-11-11T13:31:51Z</time>
      </trkpt>
      <trkpt lat="51.718629" lon="39.235519">
        <ele>133.741</ele>
        <time>2017-11-11T13:31:56Z</time>
      </trkpt>
      <trkpt lat="51.718492" lon="39.235915">
        <ele>135.61</ele>
        <time>2017-11-11T13:32:05Z</time>
      </trkpt>
      <trkpt lat="51.718393" lon="39.236121">
        <ele>136.404</ele>
        <time>2017-11-11T13:32:10Z</time>
      </trkpt>
      <trkpt lat="51.718293" lon="39.236367">
        <ele>136.996</ele>
        <time>2017-11-11T13:32:17Z</time>
      </trkpt>
      <trkpt lat="51.718087" lon="39.236512">
        <ele>137.632</ele>
        <time>2017-11-11T13:32:25Z</time>
      </trkpt>
      <trkpt lat="51.717762" lon="39.236548">
        <ele>137.474</ele>
        <time>2017-11-11T13:32:34Z</time>
      </trkpt>
      <trkpt lat="51.717578" lon="39.236469">
        <ele>138.642</ele>
        <time>2017-11-11T13:32:41Z</time>
      </trkpt>
      <trkpt lat="51.717412" lon="39.236282">
        <ele>140.449</ele>
        <time>2017-11-11T13:32:49Z</time>
      </trkpt>
      <trkpt lat="51.717251" lon="39.235975">
        <ele>142.368</ele>
        <time>2017-11-11T13:32:58Z</time>
      </trkpt>
      <trkpt lat="51.71714" lon="39.235756">
        <ele>143.308</ele>
        <time>2017-11-11T13:33:04Z</time>
      </trkpt>
      <trkpt lat="51.717038" lon="39.235464">
        <ele>144.091</ele>
        <time>2017-11-11T13:33:11Z</time>
      </trkpt>
      <trkpt lat="51.716966" lon="39.235213">
        <ele>144.722</ele>
        <time>2017-11-11T13:33:18Z</time>
      </trkpt>
      <trkpt lat="51.716871" lon="39.23482">
        <ele>145.852</ele>
        <time>2017-11-11T13:33:28Z</time>
      </trkpt>
      <trkpt lat="51.716792" lon="39.234448">
        <ele>146.599</ele>
        <time>2017-11-11T13:33:36Z</time>
      </trkpt>
      <trkpt lat="51.716735" lon="39.234202">
        <ele>147.51</ele>
        <time>2017-11-11T13:33:42Z</time>
      </trkpt>
      <trkpt lat="51.71668" lon="39.233992">
        <ele>148.722</ele>
        <time>2017-11-11T13:33:47Z</time>
      </trkpt>
      <trkpt lat="51.716538" lon="39.233477">
        <ele>155.085</ele>
        <time>2017-11-11T13:33:56Z</time>
      </trkpt>
      <trkpt lat="51.716463" lon="39.233174">
        <ele>157.038</ele>
        <time>2017-11-11T13:34:01Z</time>
      </trkpt>
      <trkpt lat="51.71635" lon="39.232753">
        <ele>162.798</ele>
        <time>2017-11-11T13:34:07Z</time>
      </trkpt>
      <trkpt lat="51.716255" lon="39.232294">
        <ele>163.352</ele>
        <time>2017-11-11T13:34:13Z</time>
      </trkpt>
      <trkpt lat="51.716163" lon="39.231818">
        <ele>162.237</ele>
        <time>2017-11-11T13:34:19Z</time>
      </trkpt>
      <trkpt lat="51.716082" lon="39.231305">
        <ele>161.811</ele>
        <time>2017-11-11T13:34:25Z</time>
      </trkpt>
      <trkpt lat="51.716042" lon="39.231065">
        <ele>162.527</ele>
        <time>2017-11-11T13:34:28Z</time>
      </trkpt>
      <trkpt lat="51.715989" lon="39.230824">
        <ele>163.266</ele>
        <time>2017-11-11T13:34:31Z</time>
      </trkpt>
      <trkpt lat="51.715924" lon="39.230612">
        <ele>164.179</ele>
        <time>2017-11-11T13:34:34Z</time>
      </trkpt>
      <trkpt lat="51.715848" lon="39.230359">
        <ele>164.732</ele>
        <time>2017-11-11T13:34:37Z</time>
      </trkpt>
      <trkpt lat="51.715716" lon="39.229949">
        <ele>166.601</ele>
        <time>2017-11-11T13:34:43Z</time>
      </trkpt>
      <trkpt lat="51.715603" lon="39.229569">
        <ele>170.752</ele>
        <time>2017-11-11T13:34:48Z</time>
      </trkpt>
      <trkpt lat="51.715477" lon="39.228995">
        <ele>172.161</ele>
        <time>2017-11-11T13:34:54Z</time>
      </trkpt>
      <trkpt lat="51.71541" lon="39.228754">
        <ele>171.783</ele>
        <time>2017-11-11T13:34:57Z</time>
      </trkpt>
      <trkpt lat="51.715339" lon="39.228536">
        <ele>171.741</ele>
        <time>2017-11-11T13:35:00Z</time>
      </trkpt>
      <trkpt lat="51.715263" lon="39.228253">
        <ele>173.685</ele>
        <time>2017-11-11T13:35:04Z</time>
      </trkpt>
      <trkpt lat="51.715162" lon="39.227822">
        <ele>175.46</ele>
        <time>2017-11-11T13:35:11Z</time>
      </trkpt>
      <trkpt lat="51.715162" lon="39.227822">
        <ele>175.46</ele>
        <time>2017-11-11T13:35:16Z</time>
      </trkpt>
      <trkpt lat="51.715162" lon="39.227822">
        <time>2017-11-11T13:35:16Z</time>
      </trkpt>
    </trkseg>
    <trkseg>
      <trkpt lat="51.715162" lon="39.227822">
        <time>2017-11-11T13:35:25Z</time>
      </trkpt>
      <trkpt lat="51.715084" lon="39.22755">
        <ele>175.512</ele>
        <time>2017-11-11T13:35:25Z</time>
      </trkpt>
      <trkpt lat="51.715221" lon="39.227174">
        <ele>172.363</ele>
        <time>2017-11-11T13:35:32Z</time>
      </trkpt>
      <trkpt lat="51.715468" lon="39.226926">
        <ele>169.156</ele>
        <time>2017-11-11T13:35:38Z</time>
      </trkpt>
      <trkpt lat="51.715698" lon="39.226726">
        <ele>167.819</ele>
        <time>2017-11-11T13:35:43Z</time>
      </trkpt>
      <trkpt lat="51.716009" lon="39.226482">
        <ele>165.867</ele>
        <time>2017-11-11T13:35:49Z</time>
      </trkpt>
      <trkpt lat="51.716144" lon="39.226377">
        <ele>165.373</ele>
        <time>2017-11-11T13:35:52Z</time>
      </trkpt>
      <trkpt lat="51.71636" lon="39.226242">
        <ele>166.863</ele>
        <time>2017-11-11T13:35:57Z</time>
      </trkpt>
      <trkpt lat="51.716704" lon="39.225938">
        <ele>165.746</ele>
        <time>2017-11-11T13:36:03Z</time>
      </trkpt>
      <trkpt lat="51.716881" lon="39.225823">
        <ele>162.35</ele>
        <time>2017-11-11T13:36:06Z</time>
      </trkpt>
      <trkpt lat="51.717028" lon="39.225725">
        <ele>159.675</ele>
        <time>2017-11-11T13:36:09Z</time>
      </trkpt>
      <trkpt lat="51.717184" lon="39.225659">
        <ele>156.84</ele>
        <time>2017-11-11T13:36:12Z</time>
      </trkpt>
      <trkpt lat="51.717437" lon="39.225444">
        <ele>154.979</ele>
        <time>2017-11-11T13:36:17Z</time>
      </trkpt>
      <trkpt lat="51.717609" lon="39.225312">
        <ele>155.041</ele>
        <time>2017-11-11T13:36:20Z</time>
      </trkpt>
      <trkpt lat="51.717782" lon="39.225187">
        <ele>155.238</ele>
        <time>2017-11-11T13:36:23Z</time>
      </trkpt>
      <trkpt lat="51.718046" lon="39.224974">
        <ele>156.552</ele>
        <time>2017-11-11T13:36:28Z</time>
      </trkpt>
      <trkpt lat="51.718413" lon="39.224745">
        <ele>161.524</ele>
        <time>2017-11-11T13:36:34Z</time>
      </trkpt>
      <trkpt lat="51.718735" lon="39.224525">
        <ele>164.763</ele>
        <time>2017-11-11T13:36:39Z</time>
      </trkpt>
      <trkpt lat="51.719018" lon="39.224271">
        <ele>166.66</ele>
        <time>2017-11-11T13:36:44Z</time>
      </trkpt>
      <trkpt lat="51.719382" lon="39.223941">
        <ele>165.405</ele>
        <time>2017-11-11T13:36:50Z</time>
      </trkpt>
      <trkpt lat="51.719701" lon="39.223689">
        <ele>162.705</ele>
        <time>2017-11-11T13:36:55Z</time>
      </trkpt>
      <trkpt lat="51.720136" lon="39.223359">
        <ele>155.508</ele>
        <time>2017-11-11T13:37:01Z</time>
      </trkpt>
      <trkpt lat="51.720502" lon="39.223055">
        <ele>154.113</ele>
        <time>2017-11-11T13:37:07Z</time>
      </trkpt>
      <trkpt lat="51.72082" lon="39.222849">
        <ele>154.121</ele>
        <time>2017-11-11T13:37:12Z</time>
      </trkpt>
      <trkpt lat="51.721116" lon="39.222699">
        <ele>155.526</ele>
        <time>2017-11-11T13:37:17Z</time>
      </trkpt>
      <trkpt lat="51.72149" lon="39.222458">
        <ele>155.397</ele>
        <time>2017-11-11T13:37:23Z</time>
      </trkpt>
      <trkpt lat="51.721784" lon="39.222267">
        <ele>158.722</ele>
        <time>2017-11-11T13:37:29Z</time>
      </trkpt>
      <trkpt lat="51.722034" lon="39.222072">
        <ele>161.171</ele>
        <time>2017-11-11T13:37:34Z</time>
      </trkpt>
      <trkpt lat="51.722344" lon="39.221849">
        <ele>161.822</ele>
        <time>2017-11-11T13:37:40Z</time>
      </trkpt>
      <trkpt lat="51.722644" lon="39.221666">
        <ele>162.322</ele>
        <time>2017-11-11T13:37:47Z</time>
      </trkpt>
      <trkpt lat="51.722765" lon="39.221351">
        <ele>156.452</ele>
        <time>2017-11-11T13:37:54Z</time>
      </trkpt>
      <trkpt lat="51.722649" lon="39.221015">
        <ele>157.314</ele>
        <time>2017-11-11T13:38:00Z</time>
      </trkpt>
      <trkpt lat="51.722515" lon="39.220616">
        <ele>163.001</ele>
        <time>2017-11-11T13:38:07Z</time>
      </trkpt>
      <trkpt lat="51.722407" lon="39.220024">
        <ele>167.824</ele>
        <time>2017-11-11T13:38:13Z</time>
      </trkpt>
      <trkpt lat="51.722329" lon="39.219749">
        <ele>169.333</ele>
        <time>2017-11-11T13:38:16Z</time>
      </trkpt>
      <trkpt lat="51.722188" lon="39.219404">
        <ele>169.011</ele>
        <time>2017-11-11T13:38:22Z</time>
      </trkpt>
      <trkpt lat="51.72212" lon="39.219212">
        <ele>174.324</ele>
        <time>2017-11-11T13:38:26Z</time>
      </trkpt>
      <trkpt lat="51.722067" lon="39.219036">
        <ele>178.787</ele>
        <time>2017-11-11T13:38:29Z</time>
      </trkpt>
      <trkpt lat="51.722036" lon="39.218864">
        <ele>188.141</ele>
        <time>2017-11-11T13:38:34Z</time>
      </trkpt>
      <trkpt lat="51.72195" lon="39.218307">
        <ele>188.151</ele>
        <time>2017-11-11T13:38:41Z</time>
      </trkpt>
      <trkpt lat="51.72195" lon="39.218307">
        <time>2017-11-11T13:38:46Z</time>
      </trkpt>
    </trkseg>
    <trkseg>
      <trkpt lat="51.72195" lon="39.218307">
        <time>2017-11-11T13:39:05Z</time>
      </trkpt>
      <trkpt lat="51.721866" lon="39.21801">
        <ele>185.526</ele>
        <time>2017-11-11T13:39:05Z</time>
      </trkpt>
      <trkpt lat="51.72175" lon="39.217815">
        <ele>181.824</ele>
        <time>2017-11-11T13:39:10Z</time>
      </trkpt>
      <trkpt lat="51.7217" lon="39.217619">
        <ele>181.251</ele>
        <time>2017-11-11T13:39:13Z</time>
      </trkpt>
      <trkpt lat="51.721564" lon="39.217092">
        <ele>172.614</ele>
        <time>2017-11-11T13:39:20Z</time>
      </trkpt>
      <trkpt lat="51.721428" lon="39.216638">
        <ele>168.345</ele>
        <time>2017-11-11T13:39:27Z</time>
      </trkpt>
      <trkpt lat="51.721359" lon="39.216275">
        <ele>168.542</ele>
        <time>2017-11-11T13:39:33Z</time>
      </trkpt>
      <trkpt lat="51.721402" lon="39.215737">
        <ele>167.957</ele>
        <time>2017-11-11T13:39:40Z</time>
      </trkpt>
      <trkpt lat="51.721547" lon="39.215455">
        <ele>167.704</ele>
        <time>2017-11-11T13:39:47Z</time>
      </trkpt>
      <trkpt lat="51.721625" lon="39.215356">
        <ele>168.052</ele>
        <time>2017-11-11T13:39:50Z</time>
      </trkpt>
      <trkpt lat="51.72193" lon="39.21511">
        <ele>176.641</ele>
        <time>2017-11-11T13:39:57Z</time>
      </trkpt>
      <trkpt lat="51.722138" lon="39.215009">
        <ele>177.321</ele>
        <time>2017-11-11T13:40:02Z</time>
      </trkpt>
      <trkpt lat="51.722425" lon="39.215005">
        <ele>176.769</ele>
        <time>2017-11-11T13:40:10Z</time>
      </trkpt>
      <trkpt lat="51.722533" lon="39.214705">
        <ele>175.623</ele>
        <time>2017-11-11T13:40:15Z</time>
      </trkpt>
      <trkpt lat="51.722586" lon="39.214346">
        <ele>174.839</ele>
        <time>2017-11-11T13:40:20Z</time>
      </trkpt>
      <trkpt lat="51.722585" lon="39.214093">
        <ele>174.453</ele>
        <time>2017-11-11T13:40:24Z</time>
      </trkpt>
      <trkpt lat="51.722656" lon="39.213558">
        <ele>171.956</ele>
        <time>2017-11-11T13:40:29Z</time>
      </trkpt>
      <trkpt lat="51.72273" lon="39.213225">
        <ele>171.314</ele>
        <time>2017-11-11T13:40:33Z</time>
      </trkpt>
      <trkpt lat="51.722771" lon="39.212798">
        <ele>172.678</ele>
        <time>2017-11-11T13:40:40Z</time>
      </trkpt>
      <trkpt lat="51.722709" lon="39.212368">
        <ele>176.43</ele>
        <time>2017-11-11T13:40:46Z</time>
      </trkpt>
      <trkpt lat="51.722689" lon="39.211844">
        <ele>180.213</ele>
        <time>2017-11-11T13:40:52Z</time>
      </trkpt>
      <trkpt lat="51.72261" lon="39.211394">
        <ele>180.697</ele>
        <time>2017-11-11T13:40:58Z</time>
      </trkpt>
      <trkpt lat="51.722615" lon="39.211158">
        <ele>180.988</ele>
        <time>2017-11-11T13:41:01Z</time>
      </trkpt>
      <trkpt lat="51.722617" lon="39.210566">
        <ele>183.625</ele>
        <time>2017-11-11T13:41:07Z</time>
      </trkpt>
      <trkpt lat="51.722617" lon="39.210014">
        <ele>184.162</ele>
        <time>2017-11-11T13:41:12Z</time>
      </trkpt>
      <trkpt lat="51.722636" lon="39.209585">
        <ele>183.652</ele>
        <time>2017-11-11T13:41:18Z</time>
      </trkpt>
      <trkpt lat="51.722675" lon="39.20918">
        <ele>184.161</ele>
        <time>2017-11-11T13:41:23Z</time>
      </trkpt>
      <trkpt lat="51.722673" lon="39.208876">
        <ele>184.362</ele>
        <time>2017-11-11T13:41:26Z</time>
      </trkpt>
      <trkpt lat="51.722631" lon="39.208525">
        <ele>185.553</ele>
        <time>2017-11-11T13:41:30Z</time>
      </trkpt>
      <trkpt lat="51.722633" lon="39.208093">
        <ele>186.488</ele>
        <time>2017-11-11T13:41:36Z</time>
      </trkpt>
      <trkpt lat="51.722644" lon="39.207585">
        <ele>186.487</ele>
        <time>2017-11-11T13:41:41Z</time>
      </trkpt>
      <trkpt lat="51.722707" lon="39.207267">
        <ele>186.269</ele>
        <time>2017-11-11T13:41:45Z</time>
      </trkpt>
      <trkpt lat="51.722708" lon="39.206973">
        <ele>186.914</ele>
        <time>2017-11-11T13:41:48Z</time>
      </trkpt>
      <trkpt lat="51.722744" lon="39.206551">
        <ele>188.254</ele>
        <time>2017-11-11T13:41:53Z</time>
      </trkpt>
      <trkpt lat="51.722799" lon="39.20617">
        <ele>191.301</ele>
        <time>2017-11-11T13:41:58Z</time>
      </trkpt>
      <trkpt lat="51.722875" lon="39.205667">
        <ele>193.901</ele>
        <time>2017-11-11T13:42:05Z</time>
      </trkpt>
      <trkpt lat="51.722848" lon="39.205339">
        <ele>195.076</ele>
        <time>2017-11-11T13:42:11Z</time>
      </trkpt>
      <trkpt lat="51.722714" lon="39.205098">
        <ele>201.845</ele>
        <time>2017-11-11T13:42:17Z</time>
      </trkpt>
      <trkpt lat="51.722544" lon="39.204937">
        <ele>210.717</ele>
        <time>2017-11-11T13:42:23Z</time>
      </trkpt>
      <trkpt lat="51.722318" lon="39.204713">
        <ele>216.482</ele>
        <time>2017-11-11T13:42:28Z</time>
      </trkpt>
      <trkpt lat="51.721929" lon="39.203955">
        <ele>216.823</ele>
        <time>2017-11-11T13:42:36Z</time>
      </trkpt>
      <trkpt lat="51.721901" lon="39.203406">
        <ele>212.835</ele>
        <time>2017-11-11T13:42:41Z</time>
      </trkpt>
      <trkpt lat="51.721912" lon="39.202868">
        <ele>205.516</ele>
        <time>2017-11-11T13:42:46Z</time>
      </trkpt>
      <trkpt lat="51.721956" lon="39.202534">
        <ele>201.461</ele>
        <time>2017-11-11T13:42:49Z</time>
      </trkpt>
      <trkpt lat="51.721939" lon="39.202139">
        <ele>196.193</ele>
        <time>2017-11-11T13:42:55Z</time>
      </trkpt>
      <trkpt lat="51.721909" lon="39.201646">
        <ele>191.814</ele>
        <time>2017-11-11T13:43:00Z</time>
      </trkpt>
      <trkpt lat="51.721883" lon="39.201138">
        <ele>189.643</ele>
        <time>2017-11-11T13:43:06Z</time>
      </trkpt>
      <trkpt lat="51.721837" lon="39.200717">
        <ele>188.177</ele>
        <time>2017-11-11T13:43:11Z</time>
      </trkpt>
      <trkpt lat="51.721784" lon="39.200295">
        <ele>187.919</ele>
        <time>2017-11-11T13:43:17Z</time>
      </trkpt>
      <trkpt lat="51.721754" lon="39.199993">
        <ele>187.911</ele>
        <time>2017-11-11T13:43:21Z</time>
      </trkpt>
      <trkpt lat="51.721683" lon="39.199539">
        <ele>186.031</ele>
        <time>2017-11-11T13:43:26Z</time>
      </trkpt>
      <trkpt lat="51.721688" lon="39.199274">
        <ele>184.814</ele>
        <time>2017-11-11T13:43:29Z</time>
      </trkpt>
      <trkpt lat="51.721586" lon="39.198868">
        <ele>182.878</ele>
        <time>2017-11-11T13:43:35Z</time>
      </trkpt>
      <trkpt lat="51.721558" lon="39.198652">
        <ele>182.774</ele>
        <time>2017-11-11T13:43:38Z</time>
      </trkpt>
      <trkpt lat="51.7215" lon="39.198079">
        <ele>184.223</ele>
        <time>2017-11-11T13:43:45Z</time>
      </trkpt>
      <trkpt lat="51.721559" lon="39.197584">
        <ele>182.948</ele>
        <time>2017-11-11T13:43:50Z</time>
      </trkpt>
      <trkpt lat="51.721554" lon="39.197138">
        <ele>182.143</ele>
        <time>2017-11-11T13:43:55Z</time>
      </trkpt>
      <trkpt lat="51.721614" lon="39.19658">
        <ele>182.738</ele>
        <time>2017-11-11T13:44:01Z</time>
      </trkpt>
      <trkpt lat="51.721647" lon="39.196308">
        <ele>182.94</ele>
        <time>2017-11-11T13:44:04Z</time>
      </trkpt>
      <trkpt lat="51.721611" lon="39.195782">
        <ele>181.392</ele>
        <time>2017-11-11T13:44:10Z</time>
      </trkpt>
      <trkpt lat="51.721484" lon="39.195384">
        <ele>181.895</ele>
        <time>2017-11-11T13:44:16Z</time>
      </trkpt>
      <trkpt lat="51.721438" lon="39.195091">
        <ele>182.712</ele>
        <time>2017-11-11T13:44:20Z</time>
      </trkpt>
      <trkpt lat="51.721358" lon="39.194732">
        <ele>184.893</ele>
        <time>2017-11-11T13:44:25Z</time>
      </trkpt>
      <trkpt lat="51.721227" lon="39.194342">
        <ele>187.138</ele>
        <time>2017-11-11T13:44:31Z</time>
      </trkpt>
      <trkpt lat="51.72101" lon="39.193949">
        <ele>193.258</ele>
        <time>2017-11-11T13:44:38Z</time>
      </trkpt>
      <trkpt lat="51.72077" lon="39.19368">
        <ele>199.321</ele>
        <time>2017-11-11T13:44:44Z</time>
      </trkpt>
      <trkpt lat="51.720596" lon="39.193228">
        <ele>204.29</ele>
        <time>2017-11-11T13:44:49Z</time>
      </trkpt>
      <trkpt lat="51.720408" lon="39.192523">
        <ele>208.666</ele>
        <time>2017-11-11T13:44:55Z</time>
      </trkpt>
      <trkpt lat="51.720258" lon="39.191894">
        <ele>205.215</ele>
        <time>2017-11-11T13:45:01Z</time>
      </trkpt>
      <trkpt lat="51.720095" lon="39.19167">
        <ele>203.312</ele>
        <time>2017-11-11T13:45:08Z</time>
      </trkpt>
      <trkpt lat="51.720067" lon="39.191396">
        <ele>203.431</ele>
        <time>2017-11-11T13:45:17Z</time>
      </trkpt>
      <trkpt lat="51.719943" lon="39.190859">
        <ele>204.02</ele>
        <time>2017-11-11T13:45:23Z</time>
      </trkpt>
      <trkpt lat="51.719799" lon="39.190364">
        <ele>203.083</ele>
        <time>2017-11-11T13:45:29Z</time>
      </trkpt>
      <trkpt lat="51.719715" lon="39.190033">
        <ele>202.51</ele>
        <time>2017-11-11T13:45:35Z</time>
      </trkpt>
      <trkpt lat="51.71965" lon="39.189847">
        <ele>201.824</ele>
        <time>2017-11-11T13:45:41Z</time>
      </trkpt>
      <trkpt lat="51.719332" lon="39.189864">
        <ele>199.94</ele>
        <time>2017-11-11T13:45:50Z</time>
      </trkpt>
      <trkpt lat="51.719223" lon="39.189876">
        <ele>199.587</ele>
        <time>2017-11-11T13:45:53Z</time>
      </trkpt>
      <trkpt lat="51.719044" lon="39.189964">
        <ele>198.963</ele>
        <time>2017-11-11T13:45:59Z</time>
      </trkpt>
      <trkpt lat="51.718809" lon="39.189975">
        <ele>198.292</ele>
        <time>2017-11-11T13:46:07Z</time>
      </trkpt>
      <trkpt lat="51.718616" lon="39.189987">
        <ele>195.363</ele>
        <time>2017-11-11T13:46:12Z</time>
      </trkpt>
      <trkpt lat="51.718333" lon="39.189999">
        <ele>191.597</ele>
        <time>2017-11-11T13:46:18Z</time>
      </trkpt>
      <trkpt lat="51.718042" lon="39.190028">
        <ele>188.464</ele>
        <time>2017-11-11T13:46:25Z</time>
      </trkpt>
      <trkpt lat="51.717768" lon="39.190077">
        <ele>187.272</ele>
        <time>2017-11-11T13:46:31Z</time>
      </trkpt>
      <trkpt lat="51.71762" lon="39.190124">
        <ele>187.069</ele>
        <time>2017-11-11T13:46:41Z</time>
      </trkpt>
      <trkpt lat="51.717416" lon="39.190192">
        <ele>184.749</ele>
        <time>2017-11-11T13:46:58Z</time>
      </trkpt>
      <trkpt lat="51.717302" lon="39.189629">
        <ele>183.712</ele>
        <time>2017-11-11T13:47:10Z</time>
      </trkpt>
      <trkpt lat="51.717271" lon="39.189282">
        <ele>183.358</ele>
        <time>2017-11-11T13:47:16Z</time>
      </trkpt>
      <trkpt lat="51.717248" lon="39.18917">
        <ele>183.071</ele>
        <time>2017-11-11T13:47:24Z</time>
      </trkpt>
      <trkpt lat="51.717248" lon="39.18917">
        <time>2017-11-11T13:47:44Z</time>
      </trkpt>
    </trkseg>
    <trkseg>
      <trkpt lat="51.717248" lon="39.18917">
        <time>2017-11-11T13:47:45Z</time>
      </trkpt>
    </trkseg>
  </trk>
</gpx>